<?xml version="1.0" encoding="UTF-8" standalone="no" ?>
<gpx xmlns="http://www.topografix.com/GPX/1/1" xmlns:xsi="http://www.w3.org/2001/XMLSchema-instance" xsi:schemaLocation="http://www.topografix.com/GPX/1/1 http://www.topografix.com/GPX/1/1/gpx.xsd" version="1.1" creator="VisuGPX - https://www.visugpx.com">
  <metadata>
    <name>Test de la trace Aspet - col de Larrieu - Bois grand</name>
    <desc><![CDATA[Test de la trace Aspet - col de Larrieu - Bois grand
Le compte rendu est sur la page de la trace originale: [url]https://www.visugpx.com/VUuVC5s1kj[/url]
]]></desc>
  </metadata>
  <trk>
    <name><![CDATA[2019-07-28 16:09:33]]></name>
    <trkseg>
      <trkpt lat="43.02336" lon="0.79893">
        <ele>463.97</ele>
        <time>2019-07-28T07:03:25Z</time>
      </trkpt>
      <trkpt lat="43.02336" lon="0.79893">
        <ele>463.97</ele>
        <time>2019-07-28T07:03:26Z</time>
      </trkpt>
      <trkpt lat="43.02336" lon="0.79893">
        <ele>463.97</ele>
        <time>2019-07-28T07:03:27Z</time>
      </trkpt>
      <trkpt lat="43.02333" lon="0.79893">
        <ele>463.97</ele>
        <time>2019-07-28T07:03:44Z</time>
      </trkpt>
      <trkpt lat="43.02332" lon="0.79894">
        <ele>463.97</ele>
        <time>2019-07-28T07:03:51Z</time>
      </trkpt>
      <trkpt lat="43.02336" lon="0.79896">
        <ele>463.97</ele>
        <time>2019-07-28T07:04:01Z</time>
      </trkpt>
      <trkpt lat="43.02336" lon="0.79895">
        <ele>463.97</ele>
        <time>2019-07-28T07:04:03Z</time>
      </trkpt>
      <trkpt lat="43.02343" lon="0.79885">
        <ele>463.97</ele>
        <time>2019-07-28T07:04:09Z</time>
      </trkpt>
      <trkpt lat="43.02345" lon="0.79883">
        <ele>463.97</ele>
        <time>2019-07-28T07:04:10Z</time>
      </trkpt>
      <trkpt lat="43.02348" lon="0.79882">
        <ele>463.97</ele>
        <time>2019-07-28T07:04:11Z</time>
      </trkpt>
      <trkpt lat="43.02353" lon="0.7988">
        <ele>463.97</ele>
        <time>2019-07-28T07:04:13Z</time>
      </trkpt>
      <trkpt lat="43.02373" lon="0.7989">
        <ele>463.97</ele>
        <time>2019-07-28T07:04:20Z</time>
      </trkpt>
      <trkpt lat="43.02378" lon="0.79891">
        <ele>463.97</ele>
        <time>2019-07-28T07:04:21Z</time>
      </trkpt>
      <trkpt lat="43.02383" lon="0.7989">
        <ele>462.53</ele>
        <time>2019-07-28T07:04:22Z</time>
      </trkpt>
      <trkpt lat="43.02388" lon="0.79886">
        <ele>462.05</ele>
        <time>2019-07-28T07:04:23Z</time>
      </trkpt>
      <trkpt lat="43.02392" lon="0.7988">
        <ele>462.05</ele>
        <time>2019-07-28T07:04:24Z</time>
      </trkpt>
      <trkpt lat="43.02395" lon="0.79873">
        <ele>462.05</ele>
        <time>2019-07-28T07:04:25Z</time>
      </trkpt>
      <trkpt lat="43.02397" lon="0.79867">
        <ele>462.05</ele>
        <time>2019-07-28T07:04:26Z</time>
      </trkpt>
      <trkpt lat="43.02401" lon="0.79853">
        <ele>462.05</ele>
        <time>2019-07-28T07:04:28Z</time>
      </trkpt>
      <trkpt lat="43.02418" lon="0.79805">
        <ele>461.09</ele>
        <time>2019-07-28T07:04:35Z</time>
      </trkpt>
      <trkpt lat="43.0242" lon="0.79798">
        <ele>461.09</ele>
        <time>2019-07-28T07:04:36Z</time>
      </trkpt>
      <trkpt lat="43.02422" lon="0.79791">
        <ele>461.09</ele>
        <time>2019-07-28T07:04:37Z</time>
      </trkpt>
      <trkpt lat="43.02424" lon="0.79785">
        <ele>461.09</ele>
        <time>2019-07-28T07:04:38Z</time>
      </trkpt>
      <trkpt lat="43.02428" lon="0.7978">
        <ele>461.09</ele>
        <time>2019-07-28T07:04:39Z</time>
      </trkpt>
      <trkpt lat="43.02432" lon="0.79775">
        <ele>461.09</ele>
        <time>2019-07-28T07:04:40Z</time>
      </trkpt>
      <trkpt lat="43.02436" lon="0.7977">
        <ele>461.09</ele>
        <time>2019-07-28T07:04:41Z</time>
      </trkpt>
      <trkpt lat="43.02439" lon="0.79765">
        <ele>461.09</ele>
        <time>2019-07-28T07:04:42Z</time>
      </trkpt>
      <trkpt lat="43.02441" lon="0.79759">
        <ele>461.09</ele>
        <time>2019-07-28T07:04:43Z</time>
      </trkpt>
      <trkpt lat="43.02442" lon="0.79754">
        <ele>461.09</ele>
        <time>2019-07-28T07:04:44Z</time>
      </trkpt>
      <trkpt lat="43.02445" lon="0.79743">
        <ele>462.53</ele>
        <time>2019-07-28T07:04:46Z</time>
      </trkpt>
      <trkpt lat="43.02465" lon="0.79705">
        <ele>464.93</ele>
        <time>2019-07-28T07:04:56Z</time>
      </trkpt>
      <trkpt lat="43.02466" lon="0.797">
        <ele>465.42</ele>
        <time>2019-07-28T07:04:57Z</time>
      </trkpt>
      <trkpt lat="43.02466" lon="0.79696">
        <ele>465.42</ele>
        <time>2019-07-28T07:04:58Z</time>
      </trkpt>
      <trkpt lat="43.02465" lon="0.79691">
        <ele>465.42</ele>
        <time>2019-07-28T07:04:59Z</time>
      </trkpt>
      <trkpt lat="43.02464" lon="0.79687">
        <ele>465.42</ele>
        <time>2019-07-28T07:05:00Z</time>
      </trkpt>
      <trkpt lat="43.02468" lon="0.79638">
        <ele>465.9</ele>
        <time>2019-07-28T07:05:11Z</time>
      </trkpt>
      <trkpt lat="43.02471" lon="0.79633">
        <ele>465.9</ele>
        <time>2019-07-28T07:05:12Z</time>
      </trkpt>
      <trkpt lat="43.02474" lon="0.79629">
        <ele>465.9</ele>
        <time>2019-07-28T07:05:13Z</time>
      </trkpt>
      <trkpt lat="43.02478" lon="0.79623">
        <ele>465.9</ele>
        <time>2019-07-28T07:05:14Z</time>
      </trkpt>
      <trkpt lat="43.02481" lon="0.79617">
        <ele>465.9</ele>
        <time>2019-07-28T07:05:15Z</time>
      </trkpt>
      <trkpt lat="43.02483" lon="0.7961">
        <ele>464.45</ele>
        <time>2019-07-28T07:05:16Z</time>
      </trkpt>
      <trkpt lat="43.02484" lon="0.79603">
        <ele>464.45</ele>
        <time>2019-07-28T07:05:17Z</time>
      </trkpt>
      <trkpt lat="43.02485" lon="0.79596">
        <ele>464.45</ele>
        <time>2019-07-28T07:05:18Z</time>
      </trkpt>
      <trkpt lat="43.02485" lon="0.7959">
        <ele>464.45</ele>
        <time>2019-07-28T07:05:19Z</time>
      </trkpt>
      <trkpt lat="43.02478" lon="0.7952">
        <ele>465.9</ele>
        <time>2019-07-28T07:05:32Z</time>
      </trkpt>
      <trkpt lat="43.02477" lon="0.79511">
        <ele>465.9</ele>
        <time>2019-07-28T07:05:34Z</time>
      </trkpt>
      <trkpt lat="43.02474" lon="0.79507">
        <ele>465.9</ele>
        <time>2019-07-28T07:05:35Z</time>
      </trkpt>
      <trkpt lat="43.02472" lon="0.79503">
        <ele>465.9</ele>
        <time>2019-07-28T07:05:36Z</time>
      </trkpt>
      <trkpt lat="43.02467" lon="0.79491">
        <ele>465.9</ele>
        <time>2019-07-28T07:05:39Z</time>
      </trkpt>
      <trkpt lat="43.02469" lon="0.79487">
        <ele>465.9</ele>
        <time>2019-07-28T07:05:40Z</time>
      </trkpt>
      <trkpt lat="43.0247" lon="0.79482">
        <ele>465.9</ele>
        <time>2019-07-28T07:05:41Z</time>
      </trkpt>
      <trkpt lat="43.0247" lon="0.79475">
        <ele>464.45</ele>
        <time>2019-07-28T07:05:42Z</time>
      </trkpt>
      <trkpt lat="43.0247" lon="0.79467">
        <ele>464.45</ele>
        <time>2019-07-28T07:05:43Z</time>
      </trkpt>
      <trkpt lat="43.0247" lon="0.7945">
        <ele>463.01</ele>
        <time>2019-07-28T07:05:45Z</time>
      </trkpt>
      <trkpt lat="43.0247" lon="0.79425">
        <ele>461.57</ele>
        <time>2019-07-28T07:05:48Z</time>
      </trkpt>
      <trkpt lat="43.0247" lon="0.79417">
        <ele>459.65</ele>
        <time>2019-07-28T07:05:49Z</time>
      </trkpt>
      <trkpt lat="43.02474" lon="0.7939">
        <ele>457.24</ele>
        <time>2019-07-28T07:05:52Z</time>
      </trkpt>
      <trkpt lat="43.02476" lon="0.79381">
        <ele>456.28</ele>
        <time>2019-07-28T07:05:53Z</time>
      </trkpt>
      <trkpt lat="43.02478" lon="0.79373">
        <ele>454.84</ele>
        <time>2019-07-28T07:05:54Z</time>
      </trkpt>
      <trkpt lat="43.02482" lon="0.79366">
        <ele>454.36</ele>
        <time>2019-07-28T07:05:55Z</time>
      </trkpt>
      <trkpt lat="43.02485" lon="0.79362">
        <ele>453.88</ele>
        <time>2019-07-28T07:05:56Z</time>
      </trkpt>
      <trkpt lat="43.02488" lon="0.79361">
        <ele>452.92</ele>
        <time>2019-07-28T07:05:57Z</time>
      </trkpt>
      <trkpt lat="43.02492" lon="0.7936">
        <ele>452.92</ele>
        <time>2019-07-28T07:05:58Z</time>
      </trkpt>
      <trkpt lat="43.02524" lon="0.79367">
        <ele>451</ele>
        <time>2019-07-28T07:06:05Z</time>
      </trkpt>
      <trkpt lat="43.02528" lon="0.79367">
        <ele>450.52</ele>
        <time>2019-07-28T07:06:06Z</time>
      </trkpt>
      <trkpt lat="43.0253" lon="0.79357">
        <ele>450.03</ele>
        <time>2019-07-28T07:06:10Z</time>
      </trkpt>
      <trkpt lat="43.02532" lon="0.79353">
        <ele>449.07</ele>
        <time>2019-07-28T07:06:11Z</time>
      </trkpt>
      <trkpt lat="43.02532" lon="0.79347">
        <ele>448.59</ele>
        <time>2019-07-28T07:06:12Z</time>
      </trkpt>
      <trkpt lat="43.02532" lon="0.79341">
        <ele>448.59</ele>
        <time>2019-07-28T07:06:13Z</time>
      </trkpt>
      <trkpt lat="43.02531" lon="0.79335">
        <ele>448.59</ele>
        <time>2019-07-28T07:06:14Z</time>
      </trkpt>
      <trkpt lat="43.02528" lon="0.79305">
        <ele>446.67</ele>
        <time>2019-07-28T07:06:19Z</time>
      </trkpt>
      <trkpt lat="43.02527" lon="0.79298">
        <ele>446.19</ele>
        <time>2019-07-28T07:06:20Z</time>
      </trkpt>
      <trkpt lat="43.02526" lon="0.7929">
        <ele>445.71</ele>
        <time>2019-07-28T07:06:21Z</time>
      </trkpt>
      <trkpt lat="43.02526" lon="0.79282">
        <ele>445.23</ele>
        <time>2019-07-28T07:06:22Z</time>
      </trkpt>
      <trkpt lat="43.02526" lon="0.79274">
        <ele>444.75</ele>
        <time>2019-07-28T07:06:23Z</time>
      </trkpt>
      <trkpt lat="43.02527" lon="0.79265">
        <ele>444.75</ele>
        <time>2019-07-28T07:06:24Z</time>
      </trkpt>
      <trkpt lat="43.02528" lon="0.79256">
        <ele>443.79</ele>
        <time>2019-07-28T07:06:25Z</time>
      </trkpt>
      <trkpt lat="43.0253" lon="0.7922">
        <ele>440.9</ele>
        <time>2019-07-28T07:06:31Z</time>
      </trkpt>
      <trkpt lat="43.02529" lon="0.79219">
        <ele>440.9</ele>
        <time>2019-07-28T07:06:32Z</time>
      </trkpt>
      <trkpt lat="43.02527" lon="0.79219">
        <ele>440.42</ele>
        <time>2019-07-28T07:06:33Z</time>
      </trkpt>
      <trkpt lat="43.02524" lon="0.79221">
        <ele>440.42</ele>
        <time>2019-07-28T07:06:34Z</time>
      </trkpt>
      <trkpt lat="43.02521" lon="0.79224">
        <ele>439.46</ele>
        <time>2019-07-28T07:06:35Z</time>
      </trkpt>
      <trkpt lat="43.02517" lon="0.79229">
        <ele>438.5</ele>
        <time>2019-07-28T07:06:36Z</time>
      </trkpt>
      <trkpt lat="43.02512" lon="0.79234">
        <ele>437.54</ele>
        <time>2019-07-28T07:06:37Z</time>
      </trkpt>
      <trkpt lat="43.02491" lon="0.79257">
        <ele>435.13</ele>
        <time>2019-07-28T07:06:41Z</time>
      </trkpt>
      <trkpt lat="43.02439" lon="0.79331">
        <ele>431.77</ele>
        <time>2019-07-28T07:06:50Z</time>
      </trkpt>
      <trkpt lat="43.02414" lon="0.79366">
        <ele>429.37</ele>
        <time>2019-07-28T07:06:54Z</time>
      </trkpt>
      <trkpt lat="43.02408" lon="0.79373">
        <ele>427.92</ele>
        <time>2019-07-28T07:06:55Z</time>
      </trkpt>
      <trkpt lat="43.02401" lon="0.79379">
        <ele>426.96</ele>
        <time>2019-07-28T07:06:56Z</time>
      </trkpt>
      <trkpt lat="43.02392" lon="0.79384">
        <ele>426.48</ele>
        <time>2019-07-28T07:06:57Z</time>
      </trkpt>
      <trkpt lat="43.02384" lon="0.79388">
        <ele>425.52</ele>
        <time>2019-07-28T07:06:58Z</time>
      </trkpt>
      <trkpt lat="43.02375" lon="0.7939">
        <ele>425.52</ele>
        <time>2019-07-28T07:06:59Z</time>
      </trkpt>
      <trkpt lat="43.02343" lon="0.79398">
        <ele>425.04</ele>
        <time>2019-07-28T07:07:03Z</time>
      </trkpt>
      <trkpt lat="43.02335" lon="0.79398">
        <ele>425.04</ele>
        <time>2019-07-28T07:07:04Z</time>
      </trkpt>
      <trkpt lat="43.02329" lon="0.79397">
        <ele>425.04</ele>
        <time>2019-07-28T07:07:05Z</time>
      </trkpt>
      <trkpt lat="43.02317" lon="0.79392">
        <ele>424.08</ele>
        <time>2019-07-28T07:07:09Z</time>
      </trkpt>
      <trkpt lat="43.02313" lon="0.79393">
        <ele>424.08</ele>
        <time>2019-07-28T07:07:10Z</time>
      </trkpt>
      <trkpt lat="43.0231" lon="0.79396">
        <ele>424.08</ele>
        <time>2019-07-28T07:07:11Z</time>
      </trkpt>
      <trkpt lat="43.02307" lon="0.794">
        <ele>424.08</ele>
        <time>2019-07-28T07:07:12Z</time>
      </trkpt>
      <trkpt lat="43.02303" lon="0.79404">
        <ele>424.08</ele>
        <time>2019-07-28T07:07:13Z</time>
      </trkpt>
      <trkpt lat="43.023" lon="0.79408">
        <ele>424.08</ele>
        <time>2019-07-28T07:07:14Z</time>
      </trkpt>
      <trkpt lat="43.02254" lon="0.7947">
        <ele>424.08</ele>
        <time>2019-07-28T07:07:27Z</time>
      </trkpt>
      <trkpt lat="43.0225" lon="0.79474">
        <ele>424.08</ele>
        <time>2019-07-28T07:07:28Z</time>
      </trkpt>
      <trkpt lat="43.02243" lon="0.79483">
        <ele>425.52</ele>
        <time>2019-07-28T07:07:30Z</time>
      </trkpt>
      <trkpt lat="43.0216" lon="0.79553">
        <ele>426</ele>
        <time>2019-07-28T07:07:49Z</time>
      </trkpt>
      <trkpt lat="43.02148" lon="0.79562">
        <ele>426</ele>
        <time>2019-07-28T07:07:52Z</time>
      </trkpt>
      <trkpt lat="43.02143" lon="0.79564">
        <ele>426</ele>
        <time>2019-07-28T07:07:53Z</time>
      </trkpt>
      <trkpt lat="43.02138" lon="0.79564">
        <ele>426.48</ele>
        <time>2019-07-28T07:07:54Z</time>
      </trkpt>
      <trkpt lat="43.02133" lon="0.79563">
        <ele>426.48</ele>
        <time>2019-07-28T07:07:55Z</time>
      </trkpt>
      <trkpt lat="43.02129" lon="0.7956">
        <ele>426.48</ele>
        <time>2019-07-28T07:07:56Z</time>
      </trkpt>
      <trkpt lat="43.02124" lon="0.79557">
        <ele>426.48</ele>
        <time>2019-07-28T07:07:57Z</time>
      </trkpt>
      <trkpt lat="43.02121" lon="0.79551">
        <ele>426.48</ele>
        <time>2019-07-28T07:07:58Z</time>
      </trkpt>
      <trkpt lat="43.02119" lon="0.79545">
        <ele>426.48</ele>
        <time>2019-07-28T07:07:59Z</time>
      </trkpt>
      <trkpt lat="43.02117" lon="0.79539">
        <ele>426.48</ele>
        <time>2019-07-28T07:08:00Z</time>
      </trkpt>
      <trkpt lat="43.02114" lon="0.79534">
        <ele>426.48</ele>
        <time>2019-07-28T07:08:01Z</time>
      </trkpt>
      <trkpt lat="43.0211" lon="0.79531">
        <ele>426.48</ele>
        <time>2019-07-28T07:08:02Z</time>
      </trkpt>
      <trkpt lat="43.02105" lon="0.79531">
        <ele>426.48</ele>
        <time>2019-07-28T07:08:03Z</time>
      </trkpt>
      <trkpt lat="43.02101" lon="0.79534">
        <ele>426.48</ele>
        <time>2019-07-28T07:08:04Z</time>
      </trkpt>
      <trkpt lat="43.02096" lon="0.79537">
        <ele>426.48</ele>
        <time>2019-07-28T07:08:05Z</time>
      </trkpt>
      <trkpt lat="43.02092" lon="0.79542">
        <ele>426.48</ele>
        <time>2019-07-28T07:08:06Z</time>
      </trkpt>
      <trkpt lat="43.0207" lon="0.7956">
        <ele>426.48</ele>
        <time>2019-07-28T07:08:11Z</time>
      </trkpt>
      <trkpt lat="43.02004" lon="0.79604">
        <ele>426.48</ele>
        <time>2019-07-28T07:08:26Z</time>
      </trkpt>
      <trkpt lat="43.0198" lon="0.79621">
        <ele>427.44</ele>
        <time>2019-07-28T07:08:32Z</time>
      </trkpt>
      <trkpt lat="43.019" lon="0.79672">
        <ele>427.92</ele>
        <time>2019-07-28T07:08:52Z</time>
      </trkpt>
      <trkpt lat="43.01844" lon="0.79677">
        <ele>429.37</ele>
        <time>2019-07-28T07:09:06Z</time>
      </trkpt>
      <trkpt lat="43.01811" lon="0.79681">
        <ele>431.29</ele>
        <time>2019-07-28T07:09:18Z</time>
      </trkpt>
      <trkpt lat="43.01793" lon="0.79685">
        <ele>433.21</ele>
        <time>2019-07-28T07:09:25Z</time>
      </trkpt>
      <trkpt lat="43.01791" lon="0.79684">
        <ele>433.69</ele>
        <time>2019-07-28T07:09:26Z</time>
      </trkpt>
      <trkpt lat="43.0179" lon="0.79681">
        <ele>433.21</ele>
        <time>2019-07-28T07:09:27Z</time>
      </trkpt>
      <trkpt lat="43.0179" lon="0.79679">
        <ele>433.69</ele>
        <time>2019-07-28T07:09:28Z</time>
      </trkpt>
      <trkpt lat="43.01791" lon="0.79678">
        <ele>434.17</ele>
        <time>2019-07-28T07:09:29Z</time>
      </trkpt>
      <trkpt lat="43.01792" lon="0.79677">
        <ele>434.17</ele>
        <time>2019-07-28T07:09:30Z</time>
      </trkpt>
      <trkpt lat="43.01805" lon="0.79667">
        <ele>436.1</ele>
        <time>2019-07-28T07:09:39Z</time>
      </trkpt>
      <trkpt lat="43.01806" lon="0.79665">
        <ele>436.1</ele>
        <time>2019-07-28T07:09:40Z</time>
      </trkpt>
      <trkpt lat="43.01831" lon="0.79645">
        <ele>438.5</ele>
        <time>2019-07-28T07:09:56Z</time>
      </trkpt>
      <trkpt lat="43.01838" lon="0.79635">
        <ele>439.46</ele>
        <time>2019-07-28T07:10:02Z</time>
      </trkpt>
      <trkpt lat="43.01839" lon="0.79634">
        <ele>440.42</ele>
        <time>2019-07-28T07:10:03Z</time>
      </trkpt>
      <trkpt lat="43.0184" lon="0.79632">
        <ele>440.42</ele>
        <time>2019-07-28T07:10:04Z</time>
      </trkpt>
      <trkpt lat="43.0185" lon="0.7962">
        <ele>441.86</ele>
        <time>2019-07-28T07:10:12Z</time>
      </trkpt>
      <trkpt lat="43.0185" lon="0.79618">
        <ele>441.86</ele>
        <time>2019-07-28T07:10:13Z</time>
      </trkpt>
      <trkpt lat="43.01852" lon="0.79616">
        <ele>441.86</ele>
        <time>2019-07-28T07:10:14Z</time>
      </trkpt>
      <trkpt lat="43.01853" lon="0.79615">
        <ele>442.34</ele>
        <time>2019-07-28T07:10:15Z</time>
      </trkpt>
      <trkpt lat="43.01854" lon="0.79613">
        <ele>442.34</ele>
        <time>2019-07-28T07:10:16Z</time>
      </trkpt>
      <trkpt lat="43.01855" lon="0.79612">
        <ele>442.82</ele>
        <time>2019-07-28T07:10:17Z</time>
      </trkpt>
      <trkpt lat="43.01856" lon="0.7961">
        <ele>442.82</ele>
        <time>2019-07-28T07:10:18Z</time>
      </trkpt>
      <trkpt lat="43.01867" lon="0.79589">
        <ele>445.23</ele>
        <time>2019-07-28T07:10:31Z</time>
      </trkpt>
      <trkpt lat="43.01869" lon="0.79581">
        <ele>445.71</ele>
        <time>2019-07-28T07:10:35Z</time>
      </trkpt>
      <trkpt lat="43.01869" lon="0.79579">
        <ele>445.71</ele>
        <time>2019-07-28T07:10:36Z</time>
      </trkpt>
      <trkpt lat="43.01872" lon="0.7957">
        <ele>446.67</ele>
        <time>2019-07-28T07:10:41Z</time>
      </trkpt>
      <trkpt lat="43.01872" lon="0.79568">
        <ele>447.15</ele>
        <time>2019-07-28T07:10:42Z</time>
      </trkpt>
      <trkpt lat="43.01872" lon="0.79566">
        <ele>447.15</ele>
        <time>2019-07-28T07:10:43Z</time>
      </trkpt>
      <trkpt lat="43.01872" lon="0.79564">
        <ele>447.63</ele>
        <time>2019-07-28T07:10:44Z</time>
      </trkpt>
      <trkpt lat="43.01873" lon="0.79562">
        <ele>447.63</ele>
        <time>2019-07-28T07:10:45Z</time>
      </trkpt>
      <trkpt lat="43.01874" lon="0.7956">
        <ele>447.63</ele>
        <time>2019-07-28T07:10:46Z</time>
      </trkpt>
      <trkpt lat="43.01875" lon="0.79558">
        <ele>447.63</ele>
        <time>2019-07-28T07:10:47Z</time>
      </trkpt>
      <trkpt lat="43.01877" lon="0.79556">
        <ele>447.63</ele>
        <time>2019-07-28T07:10:48Z</time>
      </trkpt>
      <trkpt lat="43.01889" lon="0.79521">
        <ele>450.03</ele>
        <time>2019-07-28T07:11:04Z</time>
      </trkpt>
      <trkpt lat="43.01868" lon="0.79462">
        <ele>451.48</ele>
        <time>2019-07-28T07:11:23Z</time>
      </trkpt>
      <trkpt lat="43.01836" lon="0.79433">
        <ele>452.92</ele>
        <time>2019-07-28T07:11:38Z</time>
      </trkpt>
      <trkpt lat="43.01806" lon="0.79411">
        <ele>455.32</ele>
        <time>2019-07-28T07:11:53Z</time>
      </trkpt>
      <trkpt lat="43.01778" lon="0.7939">
        <ele>456.76</ele>
        <time>2019-07-28T07:12:08Z</time>
      </trkpt>
      <trkpt lat="43.01747" lon="0.79366">
        <ele>458.69</ele>
        <time>2019-07-28T07:12:23Z</time>
      </trkpt>
      <trkpt lat="43.0173" lon="0.79334">
        <ele>460.61</ele>
        <time>2019-07-28T07:12:37Z</time>
      </trkpt>
      <trkpt lat="43.01729" lon="0.79327">
        <ele>461.09</ele>
        <time>2019-07-28T07:12:40Z</time>
      </trkpt>
      <trkpt lat="43.01729" lon="0.79324">
        <ele>461.57</ele>
        <time>2019-07-28T07:12:42Z</time>
      </trkpt>
      <trkpt lat="43.01728" lon="0.79321">
        <ele>462.05</ele>
        <time>2019-07-28T07:12:43Z</time>
      </trkpt>
      <trkpt lat="43.01718" lon="0.7929">
        <ele>463.97</ele>
        <time>2019-07-28T07:12:56Z</time>
      </trkpt>
      <trkpt lat="43.01717" lon="0.79288">
        <ele>464.45</ele>
        <time>2019-07-28T07:12:57Z</time>
      </trkpt>
      <trkpt lat="43.01716" lon="0.79285">
        <ele>464.45</ele>
        <time>2019-07-28T07:12:58Z</time>
      </trkpt>
      <trkpt lat="43.01716" lon="0.79283">
        <ele>464.93</ele>
        <time>2019-07-28T07:12:59Z</time>
      </trkpt>
      <trkpt lat="43.01711" lon="0.79266">
        <ele>466.38</ele>
        <time>2019-07-28T07:13:08Z</time>
      </trkpt>
      <trkpt lat="43.01719" lon="0.79243">
        <ele>467.82</ele>
        <time>2019-07-28T07:13:19Z</time>
      </trkpt>
      <trkpt lat="43.01729" lon="0.79218">
        <ele>468.78</ele>
        <time>2019-07-28T07:13:29Z</time>
      </trkpt>
      <trkpt lat="43.01738" lon="0.79197">
        <ele>470.22</ele>
        <time>2019-07-28T07:13:41Z</time>
      </trkpt>
      <trkpt lat="43.01743" lon="0.79185">
        <ele>471.18</ele>
        <time>2019-07-28T07:13:49Z</time>
      </trkpt>
      <trkpt lat="43.01744" lon="0.79182">
        <ele>471.66</ele>
        <time>2019-07-28T07:13:51Z</time>
      </trkpt>
      <trkpt lat="43.01745" lon="0.7918">
        <ele>471.66</ele>
        <time>2019-07-28T07:13:52Z</time>
      </trkpt>
      <trkpt lat="43.01746" lon="0.79177">
        <ele>471.66</ele>
        <time>2019-07-28T07:13:53Z</time>
      </trkpt>
      <trkpt lat="43.01747" lon="0.79174">
        <ele>472.14</ele>
        <time>2019-07-28T07:13:54Z</time>
      </trkpt>
      <trkpt lat="43.01748" lon="0.79171">
        <ele>472.14</ele>
        <time>2019-07-28T07:13:55Z</time>
      </trkpt>
      <trkpt lat="43.01749" lon="0.79167">
        <ele>472.14</ele>
        <time>2019-07-28T07:13:56Z</time>
      </trkpt>
      <trkpt lat="43.0175" lon="0.79164">
        <ele>472.14</ele>
        <time>2019-07-28T07:13:57Z</time>
      </trkpt>
      <trkpt lat="43.0175" lon="0.79162">
        <ele>472.14</ele>
        <time>2019-07-28T07:13:58Z</time>
      </trkpt>
      <trkpt lat="43.0175" lon="0.7916">
        <ele>472.14</ele>
        <time>2019-07-28T07:13:59Z</time>
      </trkpt>
      <trkpt lat="43.01752" lon="0.79154">
        <ele>472.63</ele>
        <time>2019-07-28T07:14:02Z</time>
      </trkpt>
      <trkpt lat="43.01753" lon="0.79151">
        <ele>473.59</ele>
        <time>2019-07-28T07:14:03Z</time>
      </trkpt>
      <trkpt lat="43.01762" lon="0.79134">
        <ele>474.55</ele>
        <time>2019-07-28T07:14:15Z</time>
      </trkpt>
      <trkpt lat="43.01765" lon="0.79115">
        <ele>476.47</ele>
        <time>2019-07-28T07:14:25Z</time>
      </trkpt>
      <trkpt lat="43.01765" lon="0.79107">
        <ele>477.43</ele>
        <time>2019-07-28T07:14:31Z</time>
      </trkpt>
      <trkpt lat="43.01764" lon="0.79105">
        <ele>477.43</ele>
        <time>2019-07-28T07:14:32Z</time>
      </trkpt>
      <trkpt lat="43.01764" lon="0.79099">
        <ele>477.91</ele>
        <time>2019-07-28T07:14:35Z</time>
      </trkpt>
      <trkpt lat="43.01767" lon="0.79081">
        <ele>478.87</ele>
        <time>2019-07-28T07:14:46Z</time>
      </trkpt>
      <trkpt lat="43.01769" lon="0.79076">
        <ele>479.35</ele>
        <time>2019-07-28T07:14:49Z</time>
      </trkpt>
      <trkpt lat="43.0177" lon="0.79074">
        <ele>479.35</ele>
        <time>2019-07-28T07:14:50Z</time>
      </trkpt>
      <trkpt lat="43.01782" lon="0.79049">
        <ele>480.8</ele>
        <time>2019-07-28T07:15:02Z</time>
      </trkpt>
      <trkpt lat="43.01793" lon="0.79024">
        <ele>482.72</ele>
        <time>2019-07-28T07:15:14Z</time>
      </trkpt>
      <trkpt lat="43.01797" lon="0.79008">
        <ele>484.16</ele>
        <time>2019-07-28T07:15:21Z</time>
      </trkpt>
      <trkpt lat="43.01796" lon="0.79005">
        <ele>484.16</ele>
        <time>2019-07-28T07:15:22Z</time>
      </trkpt>
      <trkpt lat="43.01796" lon="0.79003">
        <ele>484.64</ele>
        <time>2019-07-28T07:15:23Z</time>
      </trkpt>
      <trkpt lat="43.01797" lon="0.78997">
        <ele>484.64</ele>
        <time>2019-07-28T07:15:25Z</time>
      </trkpt>
      <trkpt lat="43.018" lon="0.78984">
        <ele>486.08</ele>
        <time>2019-07-28T07:15:30Z</time>
      </trkpt>
      <trkpt lat="43.01801" lon="0.7898">
        <ele>486.08</ele>
        <time>2019-07-28T07:15:31Z</time>
      </trkpt>
      <trkpt lat="43.01802" lon="0.78966">
        <ele>486.56</ele>
        <time>2019-07-28T07:15:36Z</time>
      </trkpt>
      <trkpt lat="43.01798" lon="0.78933">
        <ele>487.53</ele>
        <time>2019-07-28T07:15:49Z</time>
      </trkpt>
      <trkpt lat="43.01791" lon="0.78906">
        <ele>488.97</ele>
        <time>2019-07-28T07:16:01Z</time>
      </trkpt>
      <trkpt lat="43.01789" lon="0.78899">
        <ele>489.45</ele>
        <time>2019-07-28T07:16:04Z</time>
      </trkpt>
      <trkpt lat="43.01788" lon="0.78896">
        <ele>489.45</ele>
        <time>2019-07-28T07:16:05Z</time>
      </trkpt>
      <trkpt lat="43.01788" lon="0.78894">
        <ele>489.45</ele>
        <time>2019-07-28T07:16:06Z</time>
      </trkpt>
      <trkpt lat="43.01787" lon="0.78891">
        <ele>489.45</ele>
        <time>2019-07-28T07:16:07Z</time>
      </trkpt>
      <trkpt lat="43.01787" lon="0.78889">
        <ele>489.45</ele>
        <time>2019-07-28T07:16:08Z</time>
      </trkpt>
      <trkpt lat="43.01786" lon="0.78887">
        <ele>489.45</ele>
        <time>2019-07-28T07:16:09Z</time>
      </trkpt>
      <trkpt lat="43.01786" lon="0.78886">
        <ele>489.93</ele>
        <time>2019-07-28T07:16:10Z</time>
      </trkpt>
      <trkpt lat="43.01785" lon="0.78883">
        <ele>489.93</ele>
        <time>2019-07-28T07:16:11Z</time>
      </trkpt>
      <trkpt lat="43.01784" lon="0.78881">
        <ele>489.93</ele>
        <time>2019-07-28T07:16:12Z</time>
      </trkpt>
      <trkpt lat="43.01784" lon="0.78879">
        <ele>489.93</ele>
        <time>2019-07-28T07:16:13Z</time>
      </trkpt>
      <trkpt lat="43.01777" lon="0.78844">
        <ele>490.89</ele>
        <time>2019-07-28T07:16:27Z</time>
      </trkpt>
      <trkpt lat="43.01777" lon="0.78841">
        <ele>490.89</ele>
        <time>2019-07-28T07:16:28Z</time>
      </trkpt>
      <trkpt lat="43.01777" lon="0.78839">
        <ele>490.89</ele>
        <time>2019-07-28T07:16:29Z</time>
      </trkpt>
      <trkpt lat="43.01768" lon="0.78809">
        <ele>492.81</ele>
        <time>2019-07-28T07:16:43Z</time>
      </trkpt>
      <trkpt lat="43.01767" lon="0.78806">
        <ele>493.29</ele>
        <time>2019-07-28T07:16:45Z</time>
      </trkpt>
      <trkpt lat="43.01766" lon="0.78803">
        <ele>493.29</ele>
        <time>2019-07-28T07:16:46Z</time>
      </trkpt>
      <trkpt lat="43.01765" lon="0.78801">
        <ele>493.29</ele>
        <time>2019-07-28T07:16:47Z</time>
      </trkpt>
      <trkpt lat="43.01764" lon="0.78798">
        <ele>493.77</ele>
        <time>2019-07-28T07:16:48Z</time>
      </trkpt>
      <trkpt lat="43.01763" lon="0.78796">
        <ele>493.77</ele>
        <time>2019-07-28T07:16:49Z</time>
      </trkpt>
      <trkpt lat="43.01763" lon="0.78794">
        <ele>493.77</ele>
        <time>2019-07-28T07:16:50Z</time>
      </trkpt>
      <trkpt lat="43.01761" lon="0.78779">
        <ele>494.26</ele>
        <time>2019-07-28T07:16:56Z</time>
      </trkpt>
      <trkpt lat="43.0176" lon="0.78776">
        <ele>494.26</ele>
        <time>2019-07-28T07:16:57Z</time>
      </trkpt>
      <trkpt lat="43.01759" lon="0.78772">
        <ele>494.26</ele>
        <time>2019-07-28T07:16:58Z</time>
      </trkpt>
      <trkpt lat="43.01745" lon="0.78727">
        <ele>493.77</ele>
        <time>2019-07-28T07:17:10Z</time>
      </trkpt>
      <trkpt lat="43.01743" lon="0.78719">
        <ele>492.33</ele>
        <time>2019-07-28T07:17:12Z</time>
      </trkpt>
      <trkpt lat="43.01736" lon="0.78692">
        <ele>491.37</ele>
        <time>2019-07-28T07:17:19Z</time>
      </trkpt>
      <trkpt lat="43.01734" lon="0.78687">
        <ele>491.37</ele>
        <time>2019-07-28T07:17:20Z</time>
      </trkpt>
      <trkpt lat="43.01733" lon="0.78683">
        <ele>491.37</ele>
        <time>2019-07-28T07:17:21Z</time>
      </trkpt>
      <trkpt lat="43.0173" lon="0.78639">
        <ele>490.89</ele>
        <time>2019-07-28T07:17:31Z</time>
      </trkpt>
      <trkpt lat="43.01736" lon="0.7861">
        <ele>492.33</ele>
        <time>2019-07-28T07:17:37Z</time>
      </trkpt>
      <trkpt lat="43.01723" lon="0.78557">
        <ele>493.29</ele>
        <time>2019-07-28T07:17:51Z</time>
      </trkpt>
      <trkpt lat="43.01707" lon="0.78535">
        <ele>493.29</ele>
        <time>2019-07-28T07:18:00Z</time>
      </trkpt>
      <trkpt lat="43.01706" lon="0.78533">
        <ele>493.29</ele>
        <time>2019-07-28T07:18:01Z</time>
      </trkpt>
      <trkpt lat="43.01704" lon="0.7853">
        <ele>493.29</ele>
        <time>2019-07-28T07:18:02Z</time>
      </trkpt>
      <trkpt lat="43.01703" lon="0.78527">
        <ele>493.29</ele>
        <time>2019-07-28T07:18:03Z</time>
      </trkpt>
      <trkpt lat="43.01701" lon="0.78525">
        <ele>493.29</ele>
        <time>2019-07-28T07:18:04Z</time>
      </trkpt>
      <trkpt lat="43.017" lon="0.78522">
        <ele>493.29</ele>
        <time>2019-07-28T07:18:05Z</time>
      </trkpt>
      <trkpt lat="43.01698" lon="0.7852">
        <ele>493.29</ele>
        <time>2019-07-28T07:18:06Z</time>
      </trkpt>
      <trkpt lat="43.01677" lon="0.7849">
        <ele>493.77</ele>
        <time>2019-07-28T07:18:17Z</time>
      </trkpt>
      <trkpt lat="43.01659" lon="0.78464">
        <ele>493.77</ele>
        <time>2019-07-28T07:18:27Z</time>
      </trkpt>
      <trkpt lat="43.01644" lon="0.78443">
        <ele>493.77</ele>
        <time>2019-07-28T07:18:35Z</time>
      </trkpt>
      <trkpt lat="43.01628" lon="0.78416">
        <ele>494.26</ele>
        <time>2019-07-28T07:18:44Z</time>
      </trkpt>
      <trkpt lat="43.01604" lon="0.78378">
        <ele>494.26</ele>
        <time>2019-07-28T07:18:55Z</time>
      </trkpt>
      <trkpt lat="43.0158" lon="0.78342">
        <ele>496.18</ele>
        <time>2019-07-28T07:19:08Z</time>
      </trkpt>
      <trkpt lat="43.01554" lon="0.78303">
        <ele>495.7</ele>
        <time>2019-07-28T07:19:19Z</time>
      </trkpt>
      <trkpt lat="43.01535" lon="0.78279">
        <ele>495.7</ele>
        <time>2019-07-28T07:19:29Z</time>
      </trkpt>
      <trkpt lat="43.01524" lon="0.78261">
        <ele>494.74</ele>
        <time>2019-07-28T07:19:45Z</time>
      </trkpt>
      <trkpt lat="43.01519" lon="0.78251">
        <ele>494.74</ele>
        <time>2019-07-28T07:19:47Z</time>
      </trkpt>
      <trkpt lat="43.01516" lon="0.78247">
        <ele>494.74</ele>
        <time>2019-07-28T07:19:48Z</time>
      </trkpt>
      <trkpt lat="43.01513" lon="0.78243">
        <ele>494.74</ele>
        <time>2019-07-28T07:19:49Z</time>
      </trkpt>
      <trkpt lat="43.01511" lon="0.78239">
        <ele>494.74</ele>
        <time>2019-07-28T07:19:50Z</time>
      </trkpt>
      <trkpt lat="43.01509" lon="0.78236">
        <ele>494.74</ele>
        <time>2019-07-28T07:19:51Z</time>
      </trkpt>
      <trkpt lat="43.01506" lon="0.78232">
        <ele>494.74</ele>
        <time>2019-07-28T07:19:52Z</time>
      </trkpt>
      <trkpt lat="43.01481" lon="0.78204">
        <ele>495.7</ele>
        <time>2019-07-28T07:20:02Z</time>
      </trkpt>
      <trkpt lat="43.01456" lon="0.7819">
        <ele>496.18</ele>
        <time>2019-07-28T07:20:11Z</time>
      </trkpt>
      <trkpt lat="43.01455" lon="0.78187">
        <ele>494.74</ele>
        <time>2019-07-28T07:20:12Z</time>
      </trkpt>
      <trkpt lat="43.01454" lon="0.78183">
        <ele>494.74</ele>
        <time>2019-07-28T07:20:13Z</time>
      </trkpt>
      <trkpt lat="43.01453" lon="0.78179">
        <ele>494.74</ele>
        <time>2019-07-28T07:20:14Z</time>
      </trkpt>
      <trkpt lat="43.01453" lon="0.78174">
        <ele>494.26</ele>
        <time>2019-07-28T07:20:15Z</time>
      </trkpt>
      <trkpt lat="43.01452" lon="0.78168">
        <ele>494.26</ele>
        <time>2019-07-28T07:20:16Z</time>
      </trkpt>
      <trkpt lat="43.01451" lon="0.78161">
        <ele>493.77</ele>
        <time>2019-07-28T07:20:17Z</time>
      </trkpt>
      <trkpt lat="43.01449" lon="0.78155">
        <ele>493.77</ele>
        <time>2019-07-28T07:20:18Z</time>
      </trkpt>
      <trkpt lat="43.01443" lon="0.78133">
        <ele>491.85</ele>
        <time>2019-07-28T07:20:22Z</time>
      </trkpt>
      <trkpt lat="43.01444" lon="0.78128">
        <ele>491.37</ele>
        <time>2019-07-28T07:20:23Z</time>
      </trkpt>
      <trkpt lat="43.01447" lon="0.78123">
        <ele>491.37</ele>
        <time>2019-07-28T07:20:24Z</time>
      </trkpt>
      <trkpt lat="43.01496" lon="0.78058">
        <ele>488.97</ele>
        <time>2019-07-28T07:20:35Z</time>
      </trkpt>
      <trkpt lat="43.01507" lon="0.78036">
        <ele>488.49</ele>
        <time>2019-07-28T07:20:38Z</time>
      </trkpt>
      <trkpt lat="43.0151" lon="0.78029">
        <ele>487.53</ele>
        <time>2019-07-28T07:20:39Z</time>
      </trkpt>
      <trkpt lat="43.01514" lon="0.78021">
        <ele>487.53</ele>
        <time>2019-07-28T07:20:40Z</time>
      </trkpt>
      <trkpt lat="43.01535" lon="0.77994">
        <ele>485.6</ele>
        <time>2019-07-28T07:20:46Z</time>
      </trkpt>
      <trkpt lat="43.01539" lon="0.77991">
        <ele>485.6</ele>
        <time>2019-07-28T07:20:47Z</time>
      </trkpt>
      <trkpt lat="43.01549" lon="0.77982">
        <ele>483.68</ele>
        <time>2019-07-28T07:20:50Z</time>
      </trkpt>
      <trkpt lat="43.0155" lon="0.77978">
        <ele>483.68</ele>
        <time>2019-07-28T07:20:51Z</time>
      </trkpt>
      <trkpt lat="43.01549" lon="0.77973">
        <ele>483.2</ele>
        <time>2019-07-28T07:20:52Z</time>
      </trkpt>
      <trkpt lat="43.01546" lon="0.77968">
        <ele>482.72</ele>
        <time>2019-07-28T07:20:53Z</time>
      </trkpt>
      <trkpt lat="43.01542" lon="0.77964">
        <ele>482.24</ele>
        <time>2019-07-28T07:20:54Z</time>
      </trkpt>
      <trkpt lat="43.01538" lon="0.77959">
        <ele>482.24</ele>
        <time>2019-07-28T07:20:55Z</time>
      </trkpt>
      <trkpt lat="43.01504" lon="0.77922">
        <ele>478.87</ele>
        <time>2019-07-28T07:21:01Z</time>
      </trkpt>
      <trkpt lat="43.0149" lon="0.77913">
        <ele>476.95</ele>
        <time>2019-07-28T07:21:03Z</time>
      </trkpt>
      <trkpt lat="43.01484" lon="0.77911">
        <ele>476.95</ele>
        <time>2019-07-28T07:21:04Z</time>
      </trkpt>
      <trkpt lat="43.01456" lon="0.77904">
        <ele>474.55</ele>
        <time>2019-07-28T07:21:11Z</time>
      </trkpt>
      <trkpt lat="43.01447" lon="0.77898">
        <ele>474.07</ele>
        <time>2019-07-28T07:21:13Z</time>
      </trkpt>
      <trkpt lat="43.01442" lon="0.77894">
        <ele>474.07</ele>
        <time>2019-07-28T07:21:14Z</time>
      </trkpt>
      <trkpt lat="43.01381" lon="0.7785">
        <ele>472.63</ele>
        <time>2019-07-28T07:21:26Z</time>
      </trkpt>
      <trkpt lat="43.01369" lon="0.77843">
        <ele>472.63</ele>
        <time>2019-07-28T07:21:29Z</time>
      </trkpt>
      <trkpt lat="43.01318" lon="0.77825">
        <ele>475.51</ele>
        <time>2019-07-28T07:21:43Z</time>
      </trkpt>
      <trkpt lat="43.01291" lon="0.77798">
        <ele>476.47</ele>
        <time>2019-07-28T07:21:54Z</time>
      </trkpt>
      <trkpt lat="43.01277" lon="0.77773">
        <ele>476.47</ele>
        <time>2019-07-28T07:21:59Z</time>
      </trkpt>
      <trkpt lat="43.01274" lon="0.77768">
        <ele>476.47</ele>
        <time>2019-07-28T07:22:00Z</time>
      </trkpt>
      <trkpt lat="43.01271" lon="0.77764">
        <ele>476.47</ele>
        <time>2019-07-28T07:22:01Z</time>
      </trkpt>
      <trkpt lat="43.01269" lon="0.77762">
        <ele>476.47</ele>
        <time>2019-07-28T07:22:02Z</time>
      </trkpt>
      <trkpt lat="43.01266" lon="0.7776">
        <ele>476.47</ele>
        <time>2019-07-28T07:22:03Z</time>
      </trkpt>
      <trkpt lat="43.01263" lon="0.77759">
        <ele>476.47</ele>
        <time>2019-07-28T07:22:04Z</time>
      </trkpt>
      <trkpt lat="43.01233" lon="0.77746">
        <ele>477.43</ele>
        <time>2019-07-28T07:22:13Z</time>
      </trkpt>
      <trkpt lat="43.0121" lon="0.77744">
        <ele>475.99</ele>
        <time>2019-07-28T07:22:18Z</time>
      </trkpt>
      <trkpt lat="43.01205" lon="0.77743">
        <ele>475.99</ele>
        <time>2019-07-28T07:22:19Z</time>
      </trkpt>
      <trkpt lat="43.0115" lon="0.7773">
        <ele>477.91</ele>
        <time>2019-07-28T07:22:34Z</time>
      </trkpt>
      <trkpt lat="43.01126" lon="0.77728">
        <ele>481.28</ele>
        <time>2019-07-28T07:22:49Z</time>
      </trkpt>
      <trkpt lat="43.01098" lon="0.77727">
        <ele>482.72</ele>
        <time>2019-07-28T07:23:04Z</time>
      </trkpt>
      <trkpt lat="43.0106" lon="0.77733">
        <ele>484.64</ele>
        <time>2019-07-28T07:23:23Z</time>
      </trkpt>
      <trkpt lat="43.01033" lon="0.77739">
        <ele>487.53</ele>
        <time>2019-07-28T07:23:38Z</time>
      </trkpt>
      <trkpt lat="43.01008" lon="0.77744">
        <ele>490.89</ele>
        <time>2019-07-28T07:23:54Z</time>
      </trkpt>
      <trkpt lat="43.00984" lon="0.77751">
        <ele>494.26</ele>
        <time>2019-07-28T07:24:10Z</time>
      </trkpt>
      <trkpt lat="43.00977" lon="0.77761">
        <ele>496.18</ele>
        <time>2019-07-28T07:24:19Z</time>
      </trkpt>
      <trkpt lat="43.00975" lon="0.77764">
        <ele>497.14</ele>
        <time>2019-07-28T07:24:21Z</time>
      </trkpt>
      <trkpt lat="43.00978" lon="0.77782">
        <ele>500.5</ele>
        <time>2019-07-28T07:24:33Z</time>
      </trkpt>
      <trkpt lat="43.00991" lon="0.7779">
        <ele>503.39</ele>
        <time>2019-07-28T07:24:47Z</time>
      </trkpt>
      <trkpt lat="43.01012" lon="0.77799">
        <ele>506.27</ele>
        <time>2019-07-28T07:25:03Z</time>
      </trkpt>
      <trkpt lat="43.01029" lon="0.7781">
        <ele>509.64</ele>
        <time>2019-07-28T07:25:18Z</time>
      </trkpt>
      <trkpt lat="43.01038" lon="0.77821">
        <ele>512.04</ele>
        <time>2019-07-28T07:25:28Z</time>
      </trkpt>
      <trkpt lat="43.01038" lon="0.77827">
        <ele>513</ele>
        <time>2019-07-28T07:25:32Z</time>
      </trkpt>
      <trkpt lat="43.01037" lon="0.77828">
        <ele>513</ele>
        <time>2019-07-28T07:25:33Z</time>
      </trkpt>
      <trkpt lat="43.01036" lon="0.77829">
        <ele>513.48</ele>
        <time>2019-07-28T07:25:34Z</time>
      </trkpt>
      <trkpt lat="43.01035" lon="0.7783">
        <ele>513.48</ele>
        <time>2019-07-28T07:25:35Z</time>
      </trkpt>
      <trkpt lat="43.01033" lon="0.7783">
        <ele>513.96</ele>
        <time>2019-07-28T07:25:36Z</time>
      </trkpt>
      <trkpt lat="43.01032" lon="0.77831">
        <ele>513.96</ele>
        <time>2019-07-28T07:25:37Z</time>
      </trkpt>
      <trkpt lat="43.01017" lon="0.77839">
        <ele>517.33</ele>
        <time>2019-07-28T07:25:51Z</time>
      </trkpt>
      <trkpt lat="43.00999" lon="0.77851">
        <ele>520.69</ele>
        <time>2019-07-28T07:26:07Z</time>
      </trkpt>
      <trkpt lat="43.00998" lon="0.77852">
        <ele>520.69</ele>
        <time>2019-07-28T07:26:08Z</time>
      </trkpt>
      <trkpt lat="43.00982" lon="0.77865">
        <ele>524.06</ele>
        <time>2019-07-28T07:26:23Z</time>
      </trkpt>
      <trkpt lat="43.00968" lon="0.77878">
        <ele>527.42</ele>
        <time>2019-07-28T07:26:37Z</time>
      </trkpt>
      <trkpt lat="43.00956" lon="0.77888">
        <ele>530.79</ele>
        <time>2019-07-28T07:26:49Z</time>
      </trkpt>
      <trkpt lat="43.00941" lon="0.77898">
        <ele>533.19</ele>
        <time>2019-07-28T07:27:04Z</time>
      </trkpt>
      <trkpt lat="43.00932" lon="0.77901">
        <ele>534.15</ele>
        <time>2019-07-28T07:27:12Z</time>
      </trkpt>
      <trkpt lat="43.00913" lon="0.779">
        <ele>534.63</ele>
        <time>2019-07-28T07:27:25Z</time>
      </trkpt>
      <trkpt lat="43.00894" lon="0.77896">
        <ele>536.07</ele>
        <time>2019-07-28T07:27:37Z</time>
      </trkpt>
      <trkpt lat="43.00871" lon="0.77885">
        <ele>537.99</ele>
        <time>2019-07-28T07:27:52Z</time>
      </trkpt>
      <trkpt lat="43.0085" lon="0.77868">
        <ele>539.44</ele>
        <time>2019-07-28T07:28:05Z</time>
      </trkpt>
      <trkpt lat="43.00826" lon="0.77837">
        <ele>540.88</ele>
        <time>2019-07-28T07:28:21Z</time>
      </trkpt>
      <trkpt lat="43.00793" lon="0.77831">
        <ele>542.8</ele>
        <time>2019-07-28T07:28:36Z</time>
      </trkpt>
      <trkpt lat="43.00771" lon="0.77835">
        <ele>544.24</ele>
        <time>2019-07-28T07:28:48Z</time>
      </trkpt>
      <trkpt lat="43.00756" lon="0.77846">
        <ele>547.13</ele>
        <time>2019-07-28T07:29:00Z</time>
      </trkpt>
      <trkpt lat="43.00754" lon="0.77847">
        <ele>547.13</ele>
        <time>2019-07-28T07:29:01Z</time>
      </trkpt>
      <trkpt lat="43.00753" lon="0.77848">
        <ele>547.61</ele>
        <time>2019-07-28T07:29:02Z</time>
      </trkpt>
      <trkpt lat="43.00752" lon="0.77849">
        <ele>547.61</ele>
        <time>2019-07-28T07:29:03Z</time>
      </trkpt>
      <trkpt lat="43.00738" lon="0.77861">
        <ele>550.49</ele>
        <time>2019-07-28T07:29:15Z</time>
      </trkpt>
      <trkpt lat="43.00736" lon="0.77863">
        <ele>550.49</ele>
        <time>2019-07-28T07:29:17Z</time>
      </trkpt>
      <trkpt lat="43.00735" lon="0.77864">
        <ele>550.97</ele>
        <time>2019-07-28T07:29:18Z</time>
      </trkpt>
      <trkpt lat="43.00717" lon="0.77882">
        <ele>552.9</ele>
        <time>2019-07-28T07:29:31Z</time>
      </trkpt>
      <trkpt lat="43.00703" lon="0.77911">
        <ele>554.34</ele>
        <time>2019-07-28T07:29:44Z</time>
      </trkpt>
      <trkpt lat="43.00694" lon="0.7794">
        <ele>555.3</ele>
        <time>2019-07-28T07:29:56Z</time>
      </trkpt>
      <trkpt lat="43.0068" lon="0.77964">
        <ele>556.74</ele>
        <time>2019-07-28T07:30:08Z</time>
      </trkpt>
      <trkpt lat="43.00668" lon="0.77979">
        <ele>557.7</ele>
        <time>2019-07-28T07:30:17Z</time>
      </trkpt>
      <trkpt lat="43.00667" lon="0.77981">
        <ele>557.7</ele>
        <time>2019-07-28T07:30:18Z</time>
      </trkpt>
      <trkpt lat="43.00666" lon="0.77982">
        <ele>558.18</ele>
        <time>2019-07-28T07:30:19Z</time>
      </trkpt>
      <trkpt lat="43.00649" lon="0.77999">
        <ele>561.07</ele>
        <time>2019-07-28T07:30:34Z</time>
      </trkpt>
      <trkpt lat="43.00636" lon="0.78003">
        <ele>563.47</ele>
        <time>2019-07-28T07:30:44Z</time>
      </trkpt>
      <trkpt lat="43.00629" lon="0.78003">
        <ele>564.91</ele>
        <time>2019-07-28T07:30:50Z</time>
      </trkpt>
      <trkpt lat="43.00612" lon="0.77992">
        <ele>567.8</ele>
        <time>2019-07-28T07:31:02Z</time>
      </trkpt>
      <trkpt lat="43.0061" lon="0.77992">
        <ele>568.28</ele>
        <time>2019-07-28T07:31:03Z</time>
      </trkpt>
      <trkpt lat="43.00609" lon="0.77991">
        <ele>568.28</ele>
        <time>2019-07-28T07:31:04Z</time>
      </trkpt>
      <trkpt lat="43.00608" lon="0.7799">
        <ele>568.76</ele>
        <time>2019-07-28T07:31:05Z</time>
      </trkpt>
      <trkpt lat="43.00606" lon="0.7799">
        <ele>568.76</ele>
        <time>2019-07-28T07:31:06Z</time>
      </trkpt>
      <trkpt lat="43.00605" lon="0.7799">
        <ele>568.76</ele>
        <time>2019-07-28T07:31:07Z</time>
      </trkpt>
      <trkpt lat="43.00592" lon="0.77994">
        <ele>571.64</ele>
        <time>2019-07-28T07:31:19Z</time>
      </trkpt>
      <trkpt lat="43.00581" lon="0.78006">
        <ele>573.08</ele>
        <time>2019-07-28T07:31:32Z</time>
      </trkpt>
      <trkpt lat="43.00569" lon="0.78019">
        <ele>575.01</ele>
        <time>2019-07-28T07:31:43Z</time>
      </trkpt>
      <trkpt lat="43.00568" lon="0.7802">
        <ele>575.01</ele>
        <time>2019-07-28T07:31:44Z</time>
      </trkpt>
      <trkpt lat="43.00567" lon="0.78021">
        <ele>575.01</ele>
        <time>2019-07-28T07:31:45Z</time>
      </trkpt>
      <trkpt lat="43.0055" lon="0.7804">
        <ele>576.45</ele>
        <time>2019-07-28T07:32:00Z</time>
      </trkpt>
      <trkpt lat="43.00546" lon="0.78042">
        <ele>576.93</ele>
        <time>2019-07-28T07:32:03Z</time>
      </trkpt>
      <trkpt lat="43.00545" lon="0.78043">
        <ele>576.93</ele>
        <time>2019-07-28T07:32:04Z</time>
      </trkpt>
      <trkpt lat="43.00528" lon="0.7805">
        <ele>576.93</ele>
        <time>2019-07-28T07:32:12Z</time>
      </trkpt>
      <trkpt lat="43.00525" lon="0.78048">
        <ele>576.93</ele>
        <time>2019-07-28T07:32:13Z</time>
      </trkpt>
      <trkpt lat="43.00521" lon="0.78046">
        <ele>576.93</ele>
        <time>2019-07-28T07:32:14Z</time>
      </trkpt>
      <trkpt lat="43.00497" lon="0.78014">
        <ele>576.93</ele>
        <time>2019-07-28T07:32:25Z</time>
      </trkpt>
      <trkpt lat="43.00486" lon="0.77994">
        <ele>579.33</ele>
        <time>2019-07-28T07:32:36Z</time>
      </trkpt>
      <trkpt lat="43.00479" lon="0.77976">
        <ele>582.7</ele>
        <time>2019-07-28T07:32:46Z</time>
      </trkpt>
      <trkpt lat="43.00468" lon="0.77962">
        <ele>585.1</ele>
        <time>2019-07-28T07:32:56Z</time>
      </trkpt>
      <trkpt lat="43.00457" lon="0.77974">
        <ele>587.98</ele>
        <time>2019-07-28T07:33:08Z</time>
      </trkpt>
      <trkpt lat="43.00457" lon="0.77995">
        <ele>591.35</ele>
        <time>2019-07-28T07:33:21Z</time>
      </trkpt>
      <trkpt lat="43.00457" lon="0.78018">
        <ele>594.71</ele>
        <time>2019-07-28T07:33:35Z</time>
      </trkpt>
      <trkpt lat="43.00457" lon="0.78027">
        <ele>596.15</ele>
        <time>2019-07-28T07:33:41Z</time>
      </trkpt>
      <trkpt lat="43.00457" lon="0.78028">
        <ele>595.67</ele>
        <time>2019-07-28T07:33:42Z</time>
      </trkpt>
      <trkpt lat="43.00455" lon="0.78046">
        <ele>599.04</ele>
        <time>2019-07-28T07:33:54Z</time>
      </trkpt>
      <trkpt lat="43.00453" lon="0.78066">
        <ele>602.4</ele>
        <time>2019-07-28T07:34:06Z</time>
      </trkpt>
      <trkpt lat="43.0045" lon="0.78083">
        <ele>605.77</ele>
        <time>2019-07-28T07:34:17Z</time>
      </trkpt>
      <trkpt lat="43.00448" lon="0.78103">
        <ele>609.13</ele>
        <time>2019-07-28T07:34:28Z</time>
      </trkpt>
      <trkpt lat="43.00448" lon="0.78113">
        <ele>610.57</ele>
        <time>2019-07-28T07:34:33Z</time>
      </trkpt>
      <trkpt lat="43.00449" lon="0.78124">
        <ele>612.02</ele>
        <time>2019-07-28T07:34:44Z</time>
      </trkpt>
      <trkpt lat="43.00451" lon="0.78139">
        <ele>614.9</ele>
        <time>2019-07-28T07:34:56Z</time>
      </trkpt>
      <trkpt lat="43.00452" lon="0.78158">
        <ele>618.26</ele>
        <time>2019-07-28T07:35:11Z</time>
      </trkpt>
      <trkpt lat="43.00454" lon="0.78176">
        <ele>621.15</ele>
        <time>2019-07-28T07:35:26Z</time>
      </trkpt>
      <trkpt lat="43.00458" lon="0.78195">
        <ele>624.51</ele>
        <time>2019-07-28T07:35:41Z</time>
      </trkpt>
      <trkpt lat="43.00468" lon="0.78217">
        <ele>627.4</ele>
        <time>2019-07-28T07:35:59Z</time>
      </trkpt>
      <trkpt lat="43.0048" lon="0.78231">
        <ele>629.8</ele>
        <time>2019-07-28T07:36:15Z</time>
      </trkpt>
      <trkpt lat="43.00492" lon="0.78236">
        <ele>630.76</ele>
        <time>2019-07-28T07:36:28Z</time>
      </trkpt>
      <trkpt lat="43.00515" lon="0.7824">
        <ele>633.17</ele>
        <time>2019-07-28T07:36:46Z</time>
      </trkpt>
      <trkpt lat="43.00536" lon="0.78239">
        <ele>636.53</ele>
        <time>2019-07-28T07:37:04Z</time>
      </trkpt>
      <trkpt lat="43.0054" lon="0.78239">
        <ele>636.53</ele>
        <time>2019-07-28T07:37:07Z</time>
      </trkpt>
      <trkpt lat="43.00557" lon="0.78239">
        <ele>638.45</ele>
        <time>2019-07-28T07:37:21Z</time>
      </trkpt>
      <trkpt lat="43.00561" lon="0.78239">
        <ele>638.93</ele>
        <time>2019-07-28T07:37:24Z</time>
      </trkpt>
      <trkpt lat="43.00563" lon="0.78238">
        <ele>639.41</ele>
        <time>2019-07-28T07:37:37Z</time>
      </trkpt>
      <trkpt lat="43.00577" lon="0.78237">
        <ele>639.89</ele>
        <time>2019-07-28T07:37:54Z</time>
      </trkpt>
      <trkpt lat="43.00622" lon="0.78236">
        <ele>640.38</ele>
        <time>2019-07-28T07:38:10Z</time>
      </trkpt>
      <trkpt lat="43.00655" lon="0.78236">
        <ele>640.38</ele>
        <time>2019-07-28T07:38:23Z</time>
      </trkpt>
      <trkpt lat="43.00656" lon="0.78237">
        <ele>641.34</ele>
        <time>2019-07-28T07:38:24Z</time>
      </trkpt>
      <trkpt lat="43.00658" lon="0.78239">
        <ele>641.34</ele>
        <time>2019-07-28T07:38:25Z</time>
      </trkpt>
      <trkpt lat="43.00659" lon="0.78241">
        <ele>641.82</ele>
        <time>2019-07-28T07:38:26Z</time>
      </trkpt>
      <trkpt lat="43.00659" lon="0.78243">
        <ele>641.82</ele>
        <time>2019-07-28T07:38:27Z</time>
      </trkpt>
      <trkpt lat="43.00659" lon="0.78244">
        <ele>641.82</ele>
        <time>2019-07-28T07:38:28Z</time>
      </trkpt>
      <trkpt lat="43.00658" lon="0.78245">
        <ele>642.3</ele>
        <time>2019-07-28T07:38:29Z</time>
      </trkpt>
      <trkpt lat="43.00657" lon="0.78246">
        <ele>642.3</ele>
        <time>2019-07-28T07:38:30Z</time>
      </trkpt>
      <trkpt lat="43.00656" lon="0.78247">
        <ele>642.3</ele>
        <time>2019-07-28T07:38:31Z</time>
      </trkpt>
      <trkpt lat="43.00656" lon="0.78248">
        <ele>642.3</ele>
        <time>2019-07-28T07:38:32Z</time>
      </trkpt>
      <trkpt lat="43.00655" lon="0.78249">
        <ele>642.78</ele>
        <time>2019-07-28T07:38:33Z</time>
      </trkpt>
      <trkpt lat="43.00654" lon="0.7825">
        <ele>642.78</ele>
        <time>2019-07-28T07:38:34Z</time>
      </trkpt>
      <trkpt lat="43.00652" lon="0.78251">
        <ele>643.26</ele>
        <time>2019-07-28T07:38:35Z</time>
      </trkpt>
      <trkpt lat="43.00651" lon="0.78252">
        <ele>643.26</ele>
        <time>2019-07-28T07:38:36Z</time>
      </trkpt>
      <trkpt lat="43.00643" lon="0.78266">
        <ele>646.14</ele>
        <time>2019-07-28T07:38:49Z</time>
      </trkpt>
      <trkpt lat="43.00641" lon="0.78269">
        <ele>647.1</ele>
        <time>2019-07-28T07:38:52Z</time>
      </trkpt>
      <trkpt lat="43.00629" lon="0.78284">
        <ele>649.51</ele>
        <time>2019-07-28T07:39:06Z</time>
      </trkpt>
      <trkpt lat="43.00619" lon="0.78297">
        <ele>652.39</ele>
        <time>2019-07-28T07:39:19Z</time>
      </trkpt>
      <trkpt lat="43.00611" lon="0.78305">
        <ele>654.31</ele>
        <time>2019-07-28T07:39:28Z</time>
      </trkpt>
      <trkpt lat="43.0061" lon="0.78306">
        <ele>654.8</ele>
        <time>2019-07-28T07:39:29Z</time>
      </trkpt>
      <trkpt lat="43.00596" lon="0.7832">
        <ele>657.68</ele>
        <time>2019-07-28T07:39:43Z</time>
      </trkpt>
      <trkpt lat="43.0058" lon="0.78333">
        <ele>660.08</ele>
        <time>2019-07-28T07:39:58Z</time>
      </trkpt>
      <trkpt lat="43.00573" lon="0.7834">
        <ele>661.52</ele>
        <time>2019-07-28T07:40:05Z</time>
      </trkpt>
      <trkpt lat="43.00565" lon="0.78358">
        <ele>664.41</ele>
        <time>2019-07-28T07:40:19Z</time>
      </trkpt>
      <trkpt lat="43.00563" lon="0.78363">
        <ele>665.85</ele>
        <time>2019-07-28T07:40:22Z</time>
      </trkpt>
      <trkpt lat="43.00562" lon="0.78364">
        <ele>665.85</ele>
        <time>2019-07-28T07:40:23Z</time>
      </trkpt>
      <trkpt lat="43.00554" lon="0.78386">
        <ele>669.22</ele>
        <time>2019-07-28T07:40:35Z</time>
      </trkpt>
      <trkpt lat="43.00553" lon="0.78397">
        <ele>670.66</ele>
        <time>2019-07-28T07:40:42Z</time>
      </trkpt>
      <trkpt lat="43.0055" lon="0.78411">
        <ele>673.54</ele>
        <time>2019-07-28T07:40:52Z</time>
      </trkpt>
      <trkpt lat="43.00549" lon="0.78412">
        <ele>673.54</ele>
        <time>2019-07-28T07:40:53Z</time>
      </trkpt>
      <trkpt lat="43.00549" lon="0.78414">
        <ele>673.54</ele>
        <time>2019-07-28T07:40:54Z</time>
      </trkpt>
      <trkpt lat="43.00548" lon="0.78416">
        <ele>674.02</ele>
        <time>2019-07-28T07:40:55Z</time>
      </trkpt>
      <trkpt lat="43.00548" lon="0.78418">
        <ele>674.02</ele>
        <time>2019-07-28T07:40:56Z</time>
      </trkpt>
      <trkpt lat="43.00544" lon="0.78443">
        <ele>676.91</ele>
        <time>2019-07-28T07:41:10Z</time>
      </trkpt>
      <trkpt lat="43.00531" lon="0.78461">
        <ele>680.27</ele>
        <time>2019-07-28T07:41:25Z</time>
      </trkpt>
      <trkpt lat="43.00513" lon="0.78469">
        <ele>681.71</ele>
        <time>2019-07-28T07:41:40Z</time>
      </trkpt>
      <trkpt lat="43.00507" lon="0.78471">
        <ele>682.19</ele>
        <time>2019-07-28T07:41:53Z</time>
      </trkpt>
      <trkpt lat="43.00507" lon="0.78473">
        <ele>682.67</ele>
        <time>2019-07-28T07:42:03Z</time>
      </trkpt>
      <trkpt lat="43.00507" lon="0.78475">
        <ele>682.67</ele>
        <time>2019-07-28T07:42:04Z</time>
      </trkpt>
      <trkpt lat="43.00508" lon="0.78486">
        <ele>681.23</ele>
        <time>2019-07-28T07:42:07Z</time>
      </trkpt>
      <trkpt lat="43.00509" lon="0.78491">
        <ele>680.75</ele>
        <time>2019-07-28T07:42:08Z</time>
      </trkpt>
      <trkpt lat="43.00519" lon="0.7852">
        <ele>679.79</ele>
        <time>2019-07-28T07:42:13Z</time>
      </trkpt>
      <trkpt lat="43.0052" lon="0.78526">
        <ele>679.31</ele>
        <time>2019-07-28T07:42:14Z</time>
      </trkpt>
      <trkpt lat="43.00521" lon="0.78532">
        <ele>679.31</ele>
        <time>2019-07-28T07:42:15Z</time>
      </trkpt>
      <trkpt lat="43.00521" lon="0.78538">
        <ele>678.83</ele>
        <time>2019-07-28T07:42:16Z</time>
      </trkpt>
      <trkpt lat="43.00521" lon="0.78542">
        <ele>678.83</ele>
        <time>2019-07-28T07:42:17Z</time>
      </trkpt>
      <trkpt lat="43.00521" lon="0.78547">
        <ele>678.83</ele>
        <time>2019-07-28T07:42:18Z</time>
      </trkpt>
      <trkpt lat="43.0052" lon="0.7855">
        <ele>678.83</ele>
        <time>2019-07-28T07:42:19Z</time>
      </trkpt>
      <trkpt lat="43.0052" lon="0.78554">
        <ele>678.83</ele>
        <time>2019-07-28T07:42:20Z</time>
      </trkpt>
      <trkpt lat="43.00509" lon="0.78601">
        <ele>679.31</ele>
        <time>2019-07-28T07:42:33Z</time>
      </trkpt>
      <trkpt lat="43.005" lon="0.78636">
        <ele>680.75</ele>
        <time>2019-07-28T07:42:42Z</time>
      </trkpt>
      <trkpt lat="43.00499" lon="0.78649">
        <ele>681.23</ele>
        <time>2019-07-28T07:42:46Z</time>
      </trkpt>
      <trkpt lat="43.005" lon="0.78651">
        <ele>681.23</ele>
        <time>2019-07-28T07:42:47Z</time>
      </trkpt>
      <trkpt lat="43.0051" lon="0.78682">
        <ele>682.67</ele>
        <time>2019-07-28T07:42:59Z</time>
      </trkpt>
      <trkpt lat="43.00512" lon="0.78684">
        <ele>682.67</ele>
        <time>2019-07-28T07:43:00Z</time>
      </trkpt>
      <trkpt lat="43.00514" lon="0.78686">
        <ele>682.67</ele>
        <time>2019-07-28T07:43:01Z</time>
      </trkpt>
      <trkpt lat="43.00515" lon="0.78688">
        <ele>682.67</ele>
        <time>2019-07-28T07:43:02Z</time>
      </trkpt>
      <trkpt lat="43.00517" lon="0.7869">
        <ele>682.67</ele>
        <time>2019-07-28T07:43:03Z</time>
      </trkpt>
      <trkpt lat="43.00518" lon="0.78692">
        <ele>683.15</ele>
        <time>2019-07-28T07:43:04Z</time>
      </trkpt>
      <trkpt lat="43.0052" lon="0.78694">
        <ele>683.15</ele>
        <time>2019-07-28T07:43:05Z</time>
      </trkpt>
      <trkpt lat="43.00521" lon="0.78696">
        <ele>683.15</ele>
        <time>2019-07-28T07:43:06Z</time>
      </trkpt>
      <trkpt lat="43.00544" lon="0.78716">
        <ele>684.6</ele>
        <time>2019-07-28T07:43:19Z</time>
      </trkpt>
      <trkpt lat="43.00571" lon="0.78729">
        <ele>684.6</ele>
        <time>2019-07-28T07:43:31Z</time>
      </trkpt>
      <trkpt lat="43.00584" lon="0.7873">
        <ele>683.15</ele>
        <time>2019-07-28T07:43:35Z</time>
      </trkpt>
      <trkpt lat="43.00588" lon="0.78731">
        <ele>682.67</ele>
        <time>2019-07-28T07:43:36Z</time>
      </trkpt>
      <trkpt lat="43.00594" lon="0.78733">
        <ele>682.67</ele>
        <time>2019-07-28T07:43:37Z</time>
      </trkpt>
      <trkpt lat="43.00599" lon="0.78734">
        <ele>682.19</ele>
        <time>2019-07-28T07:43:38Z</time>
      </trkpt>
      <trkpt lat="43.00605" lon="0.78736">
        <ele>682.19</ele>
        <time>2019-07-28T07:43:39Z</time>
      </trkpt>
      <trkpt lat="43.0061" lon="0.78737">
        <ele>680.75</ele>
        <time>2019-07-28T07:43:40Z</time>
      </trkpt>
      <trkpt lat="43.00615" lon="0.78739">
        <ele>680.27</ele>
        <time>2019-07-28T07:43:41Z</time>
      </trkpt>
      <trkpt lat="43.0062" lon="0.78741">
        <ele>680.27</ele>
        <time>2019-07-28T07:43:42Z</time>
      </trkpt>
      <trkpt lat="43.00625" lon="0.78744">
        <ele>679.31</ele>
        <time>2019-07-28T07:43:43Z</time>
      </trkpt>
      <trkpt lat="43.00642" lon="0.78756">
        <ele>677.87</ele>
        <time>2019-07-28T07:43:47Z</time>
      </trkpt>
      <trkpt lat="43.00646" lon="0.78756">
        <ele>677.87</ele>
        <time>2019-07-28T07:43:48Z</time>
      </trkpt>
      <trkpt lat="43.00688" lon="0.7876">
        <ele>675.94</ele>
        <time>2019-07-28T07:44:00Z</time>
      </trkpt>
      <trkpt lat="43.00714" lon="0.78768">
        <ele>676.42</ele>
        <time>2019-07-28T07:44:10Z</time>
      </trkpt>
      <trkpt lat="43.00723" lon="0.78764">
        <ele>676.42</ele>
        <time>2019-07-28T07:44:14Z</time>
      </trkpt>
      <trkpt lat="43.00734" lon="0.78755">
        <ele>677.87</ele>
        <time>2019-07-28T07:44:20Z</time>
      </trkpt>
      <trkpt lat="43.00751" lon="0.78731">
        <ele>678.35</ele>
        <time>2019-07-28T07:44:31Z</time>
      </trkpt>
      <trkpt lat="43.00771" lon="0.78702">
        <ele>677.39</ele>
        <time>2019-07-28T07:44:41Z</time>
      </trkpt>
      <trkpt lat="43.00808" lon="0.78679">
        <ele>675.46</ele>
        <time>2019-07-28T07:44:52Z</time>
      </trkpt>
      <trkpt lat="43.0083" lon="0.78662">
        <ele>675.46</ele>
        <time>2019-07-28T07:45:05Z</time>
      </trkpt>
      <trkpt lat="43.0085" lon="0.78648">
        <ele>675.94</ele>
        <time>2019-07-28T07:45:20Z</time>
      </trkpt>
      <trkpt lat="43.00881" lon="0.78638">
        <ele>675.46</ele>
        <time>2019-07-28T07:45:34Z</time>
      </trkpt>
      <trkpt lat="43.0092" lon="0.78663">
        <ele>672.58</ele>
        <time>2019-07-28T07:45:45Z</time>
      </trkpt>
      <trkpt lat="43.00949" lon="0.78697">
        <ele>670.18</ele>
        <time>2019-07-28T07:45:58Z</time>
      </trkpt>
      <trkpt lat="43.00988" lon="0.78738">
        <ele>669.22</ele>
        <time>2019-07-28T07:46:14Z</time>
      </trkpt>
      <trkpt lat="43.0103" lon="0.7878">
        <ele>668.25</ele>
        <time>2019-07-28T07:46:31Z</time>
      </trkpt>
      <trkpt lat="43.01039" lon="0.78802">
        <ele>667.77</ele>
        <time>2019-07-28T07:46:42Z</time>
      </trkpt>
      <trkpt lat="43.01039" lon="0.78803">
        <ele>667.29</ele>
        <time>2019-07-28T07:47:00Z</time>
      </trkpt>
      <trkpt lat="43.0104" lon="0.78805">
        <ele>667.29</ele>
        <time>2019-07-28T07:47:01Z</time>
      </trkpt>
      <trkpt lat="43.01042" lon="0.78807">
        <ele>667.29</ele>
        <time>2019-07-28T07:47:02Z</time>
      </trkpt>
      <trkpt lat="43.01062" lon="0.78827">
        <ele>664.41</ele>
        <time>2019-07-28T07:47:07Z</time>
      </trkpt>
      <trkpt lat="43.01096" lon="0.78849">
        <ele>661.04</ele>
        <time>2019-07-28T07:47:13Z</time>
      </trkpt>
      <trkpt lat="43.01106" lon="0.78852">
        <ele>659.6</ele>
        <time>2019-07-28T07:47:15Z</time>
      </trkpt>
      <trkpt lat="43.01111" lon="0.78852">
        <ele>659.6</ele>
        <time>2019-07-28T07:47:16Z</time>
      </trkpt>
      <trkpt lat="43.01116" lon="0.78852">
        <ele>658.64</ele>
        <time>2019-07-28T07:47:17Z</time>
      </trkpt>
      <trkpt lat="43.01121" lon="0.78851">
        <ele>658.16</ele>
        <time>2019-07-28T07:47:18Z</time>
      </trkpt>
      <trkpt lat="43.01126" lon="0.78849">
        <ele>658.16</ele>
        <time>2019-07-28T07:47:19Z</time>
      </trkpt>
      <trkpt lat="43.01131" lon="0.78847">
        <ele>657.68</ele>
        <time>2019-07-28T07:47:20Z</time>
      </trkpt>
      <trkpt lat="43.01153" lon="0.78838">
        <ele>654.31</ele>
        <time>2019-07-28T07:47:24Z</time>
      </trkpt>
      <trkpt lat="43.0116" lon="0.78839">
        <ele>653.83</ele>
        <time>2019-07-28T07:47:25Z</time>
      </trkpt>
      <trkpt lat="43.01167" lon="0.78842">
        <ele>652.87</ele>
        <time>2019-07-28T07:47:26Z</time>
      </trkpt>
      <trkpt lat="43.01173" lon="0.78846">
        <ele>651.91</ele>
        <time>2019-07-28T07:47:27Z</time>
      </trkpt>
      <trkpt lat="43.01178" lon="0.78851">
        <ele>650.47</ele>
        <time>2019-07-28T07:47:28Z</time>
      </trkpt>
      <trkpt lat="43.01182" lon="0.78857">
        <ele>649.03</ele>
        <time>2019-07-28T07:47:29Z</time>
      </trkpt>
      <trkpt lat="43.01185" lon="0.78863">
        <ele>647.59</ele>
        <time>2019-07-28T07:47:30Z</time>
      </trkpt>
      <trkpt lat="43.01188" lon="0.78868">
        <ele>646.62</ele>
        <time>2019-07-28T07:47:31Z</time>
      </trkpt>
      <trkpt lat="43.01191" lon="0.78872">
        <ele>644.7</ele>
        <time>2019-07-28T07:47:32Z</time>
      </trkpt>
      <trkpt lat="43.01213" lon="0.78876">
        <ele>640.86</ele>
        <time>2019-07-28T07:47:36Z</time>
      </trkpt>
      <trkpt lat="43.01232" lon="0.78877">
        <ele>638.93</ele>
        <time>2019-07-28T07:47:39Z</time>
      </trkpt>
      <trkpt lat="43.01243" lon="0.78878">
        <ele>638.93</ele>
        <time>2019-07-28T07:47:41Z</time>
      </trkpt>
      <trkpt lat="43.01258" lon="0.78884">
        <ele>638.45</ele>
        <time>2019-07-28T07:47:45Z</time>
      </trkpt>
      <trkpt lat="43.01261" lon="0.78888">
        <ele>638.45</ele>
        <time>2019-07-28T07:47:46Z</time>
      </trkpt>
      <trkpt lat="43.0127" lon="0.78907">
        <ele>637.49</ele>
        <time>2019-07-28T07:47:50Z</time>
      </trkpt>
      <trkpt lat="43.01272" lon="0.78912">
        <ele>637.01</ele>
        <time>2019-07-28T07:47:51Z</time>
      </trkpt>
      <trkpt lat="43.01282" lon="0.7895">
        <ele>635.57</ele>
        <time>2019-07-28T07:48:00Z</time>
      </trkpt>
      <trkpt lat="43.01298" lon="0.78979">
        <ele>636.53</ele>
        <time>2019-07-28T07:48:11Z</time>
      </trkpt>
      <trkpt lat="43.01317" lon="0.79008">
        <ele>637.97</ele>
        <time>2019-07-28T07:48:26Z</time>
      </trkpt>
      <trkpt lat="43.01317" lon="0.79008">
        <ele>636.53</ele>
        <time>2019-07-28T07:48:28Z</time>
      </trkpt>
      <trkpt lat="43.01315" lon="0.79016">
        <ele>633.17</ele>
        <time>2019-07-28T07:48:42Z</time>
      </trkpt>
      <trkpt lat="43.01314" lon="0.7902">
        <ele>632.2</ele>
        <time>2019-07-28T07:48:48Z</time>
      </trkpt>
      <trkpt lat="43.01314" lon="0.79032">
        <ele>628.36</ele>
        <time>2019-07-28T07:48:54Z</time>
      </trkpt>
      <trkpt lat="43.01314" lon="0.79038">
        <ele>626.44</ele>
        <time>2019-07-28T07:48:57Z</time>
      </trkpt>
      <trkpt lat="43.01318" lon="0.79044">
        <ele>625.96</ele>
        <time>2019-07-28T07:49:00Z</time>
      </trkpt>
      <trkpt lat="43.01319" lon="0.79051">
        <ele>624.51</ele>
        <time>2019-07-28T07:49:06Z</time>
      </trkpt>
      <trkpt lat="43.01311" lon="0.79053">
        <ele>622.59</ele>
        <time>2019-07-28T07:49:10Z</time>
      </trkpt>
      <trkpt lat="43.01308" lon="0.79053">
        <ele>621.15</ele>
        <time>2019-07-28T07:49:12Z</time>
      </trkpt>
      <trkpt lat="43.01304" lon="0.79054">
        <ele>620.19</ele>
        <time>2019-07-28T07:49:14Z</time>
      </trkpt>
      <trkpt lat="43.01289" lon="0.79053">
        <ele>616.82</ele>
        <time>2019-07-28T07:49:17Z</time>
      </trkpt>
      <trkpt lat="43.01264" lon="0.79068">
        <ele>617.78</ele>
        <time>2019-07-28T07:49:25Z</time>
      </trkpt>
      <trkpt lat="43.01255" lon="0.791">
        <ele>620.19</ele>
        <time>2019-07-28T07:49:40Z</time>
      </trkpt>
      <trkpt lat="43.01245" lon="0.79127">
        <ele>622.59</ele>
        <time>2019-07-28T07:49:54Z</time>
      </trkpt>
      <trkpt lat="43.01241" lon="0.79141">
        <ele>622.59</ele>
        <time>2019-07-28T07:49:59Z</time>
      </trkpt>
      <trkpt lat="43.0124" lon="0.79146">
        <ele>621.15</ele>
        <time>2019-07-28T07:50:01Z</time>
      </trkpt>
      <trkpt lat="43.01234" lon="0.79165">
        <ele>618.26</ele>
        <time>2019-07-28T07:50:07Z</time>
      </trkpt>
      <trkpt lat="43.01228" lon="0.79186">
        <ele>615.86</ele>
        <time>2019-07-28T07:50:12Z</time>
      </trkpt>
      <trkpt lat="43.01222" lon="0.79218">
        <ele>612.5</ele>
        <time>2019-07-28T07:50:19Z</time>
      </trkpt>
      <trkpt lat="43.01219" lon="0.79246">
        <ele>608.65</ele>
        <time>2019-07-28T07:50:24Z</time>
      </trkpt>
      <trkpt lat="43.01219" lon="0.79256">
        <ele>608.17</ele>
        <time>2019-07-28T07:50:26Z</time>
      </trkpt>
      <trkpt lat="43.01218" lon="0.79268">
        <ele>607.21</ele>
        <time>2019-07-28T07:50:28Z</time>
      </trkpt>
      <trkpt lat="43.01216" lon="0.79282">
        <ele>605.29</ele>
        <time>2019-07-28T07:50:30Z</time>
      </trkpt>
      <trkpt lat="43.01214" lon="0.79287">
        <ele>603.85</ele>
        <time>2019-07-28T07:50:31Z</time>
      </trkpt>
      <trkpt lat="43.01211" lon="0.79299">
        <ele>603.36</ele>
        <time>2019-07-28T07:50:33Z</time>
      </trkpt>
      <trkpt lat="43.01196" lon="0.79332">
        <ele>600.48</ele>
        <time>2019-07-28T07:50:40Z</time>
      </trkpt>
      <trkpt lat="43.01192" lon="0.79335">
        <ele>600.48</ele>
        <time>2019-07-28T07:50:41Z</time>
      </trkpt>
      <trkpt lat="43.01188" lon="0.79338">
        <ele>599.52</ele>
        <time>2019-07-28T07:50:42Z</time>
      </trkpt>
      <trkpt lat="43.01185" lon="0.7934">
        <ele>599.52</ele>
        <time>2019-07-28T07:50:43Z</time>
      </trkpt>
      <trkpt lat="43.0118" lon="0.79341">
        <ele>599.52</ele>
        <time>2019-07-28T07:50:44Z</time>
      </trkpt>
      <trkpt lat="43.01176" lon="0.79343">
        <ele>599.04</ele>
        <time>2019-07-28T07:50:45Z</time>
      </trkpt>
      <trkpt lat="43.01171" lon="0.79344">
        <ele>599.04</ele>
        <time>2019-07-28T07:50:46Z</time>
      </trkpt>
      <trkpt lat="43.0115" lon="0.79346">
        <ele>596.15</ele>
        <time>2019-07-28T07:50:52Z</time>
      </trkpt>
      <trkpt lat="43.01117" lon="0.79342">
        <ele>593.27</ele>
        <time>2019-07-28T07:51:01Z</time>
      </trkpt>
      <trkpt lat="43.01094" lon="0.79339">
        <ele>589.91</ele>
        <time>2019-07-28T07:51:08Z</time>
      </trkpt>
      <trkpt lat="43.01065" lon="0.79332">
        <ele>586.54</ele>
        <time>2019-07-28T07:51:16Z</time>
      </trkpt>
      <trkpt lat="43.0105" lon="0.79328">
        <ele>583.66</ele>
        <time>2019-07-28T07:51:21Z</time>
      </trkpt>
      <trkpt lat="43.01031" lon="0.7932">
        <ele>580.77</ele>
        <time>2019-07-28T07:51:27Z</time>
      </trkpt>
      <trkpt lat="43.01021" lon="0.79318">
        <ele>579.81</ele>
        <time>2019-07-28T07:51:29Z</time>
      </trkpt>
      <trkpt lat="43.01006" lon="0.79314">
        <ele>577.41</ele>
        <time>2019-07-28T07:51:32Z</time>
      </trkpt>
      <trkpt lat="43.00992" lon="0.79309">
        <ele>575.49</ele>
        <time>2019-07-28T07:51:35Z</time>
      </trkpt>
      <trkpt lat="43.00972" lon="0.79299">
        <ele>572.12</ele>
        <time>2019-07-28T07:51:39Z</time>
      </trkpt>
      <trkpt lat="43.00966" lon="0.79295">
        <ele>570.68</ele>
        <time>2019-07-28T07:51:41Z</time>
      </trkpt>
      <trkpt lat="43.00955" lon="0.79286">
        <ele>568.76</ele>
        <time>2019-07-28T07:51:47Z</time>
      </trkpt>
      <trkpt lat="43.00935" lon="0.7928">
        <ele>565.39</ele>
        <time>2019-07-28T07:51:52Z</time>
      </trkpt>
      <trkpt lat="43.00931" lon="0.79291">
        <ele>560.59</ele>
        <time>2019-07-28T07:51:58Z</time>
      </trkpt>
      <trkpt lat="43.00934" lon="0.79298">
        <ele>558.66</ele>
        <time>2019-07-28T07:52:00Z</time>
      </trkpt>
      <trkpt lat="43.00938" lon="0.79306">
        <ele>556.74</ele>
        <time>2019-07-28T07:52:12Z</time>
      </trkpt>
      <trkpt lat="43.00937" lon="0.79312">
        <ele>555.78</ele>
        <time>2019-07-28T07:52:32Z</time>
      </trkpt>
      <trkpt lat="43.00937" lon="0.79313">
        <ele>555.3</ele>
        <time>2019-07-28T07:52:34Z</time>
      </trkpt>
      <trkpt lat="43.00948" lon="0.79333">
        <ele>551.93</ele>
        <time>2019-07-28T07:52:43Z</time>
      </trkpt>
      <trkpt lat="43.00951" lon="0.79348">
        <ele>548.57</ele>
        <time>2019-07-28T07:52:51Z</time>
      </trkpt>
      <trkpt lat="43.00954" lon="0.79355">
        <ele>547.13</ele>
        <time>2019-07-28T07:52:54Z</time>
      </trkpt>
      <trkpt lat="43.00959" lon="0.79366">
        <ele>544.24</ele>
        <time>2019-07-28T07:52:58Z</time>
      </trkpt>
      <trkpt lat="43.00966" lon="0.79382">
        <ele>541.36</ele>
        <time>2019-07-28T07:53:07Z</time>
      </trkpt>
      <trkpt lat="43.00975" lon="0.79398">
        <ele>537.03</ele>
        <time>2019-07-28T07:53:16Z</time>
      </trkpt>
      <trkpt lat="43.00982" lon="0.79406">
        <ele>535.59</ele>
        <time>2019-07-28T07:53:22Z</time>
      </trkpt>
      <trkpt lat="43.00991" lon="0.79415">
        <ele>533.19</ele>
        <time>2019-07-28T07:53:28Z</time>
      </trkpt>
      <trkpt lat="43.00994" lon="0.79418">
        <ele>532.23</ele>
        <time>2019-07-28T07:53:30Z</time>
      </trkpt>
      <trkpt lat="43.01002" lon="0.79426">
        <ele>529.82</ele>
        <time>2019-07-28T07:53:42Z</time>
      </trkpt>
      <trkpt lat="43.01005" lon="0.79431">
        <ele>528.38</ele>
        <time>2019-07-28T07:53:47Z</time>
      </trkpt>
      <trkpt lat="43.01008" lon="0.79435">
        <ele>527.42</ele>
        <time>2019-07-28T07:53:50Z</time>
      </trkpt>
      <trkpt lat="43.01021" lon="0.79451">
        <ele>523.58</ele>
        <time>2019-07-28T07:53:59Z</time>
      </trkpt>
      <trkpt lat="43.01022" lon="0.79453">
        <ele>523.09</ele>
        <time>2019-07-28T07:54:00Z</time>
      </trkpt>
      <trkpt lat="43.01031" lon="0.79468">
        <ele>519.73</ele>
        <time>2019-07-28T07:54:11Z</time>
      </trkpt>
      <trkpt lat="43.01044" lon="0.79485">
        <ele>515.88</ele>
        <time>2019-07-28T07:54:23Z</time>
      </trkpt>
      <trkpt lat="43.01056" lon="0.795">
        <ele>513</ele>
        <time>2019-07-28T07:54:31Z</time>
      </trkpt>
      <trkpt lat="43.0107" lon="0.79517">
        <ele>509.64</ele>
        <time>2019-07-28T07:54:44Z</time>
      </trkpt>
      <trkpt lat="43.01076" lon="0.79527">
        <ele>507.71</ele>
        <time>2019-07-28T07:54:56Z</time>
      </trkpt>
      <trkpt lat="43.01085" lon="0.79536">
        <ele>505.31</ele>
        <time>2019-07-28T07:55:09Z</time>
      </trkpt>
      <trkpt lat="43.01088" lon="0.7954">
        <ele>504.35</ele>
        <time>2019-07-28T07:55:14Z</time>
      </trkpt>
      <trkpt lat="43.01101" lon="0.79553">
        <ele>500.98</ele>
        <time>2019-07-28T07:55:21Z</time>
      </trkpt>
      <trkpt lat="43.01111" lon="0.79563">
        <ele>500.02</ele>
        <time>2019-07-28T07:55:24Z</time>
      </trkpt>
      <trkpt lat="43.01134" lon="0.79581">
        <ele>497.62</ele>
        <time>2019-07-28T07:55:29Z</time>
      </trkpt>
      <trkpt lat="43.01143" lon="0.79585">
        <ele>496.66</ele>
        <time>2019-07-28T07:55:31Z</time>
      </trkpt>
      <trkpt lat="43.01162" lon="0.79592">
        <ele>495.22</ele>
        <time>2019-07-28T07:55:35Z</time>
      </trkpt>
      <trkpt lat="43.01167" lon="0.79595">
        <ele>493.77</ele>
        <time>2019-07-28T07:55:36Z</time>
      </trkpt>
      <trkpt lat="43.01172" lon="0.79598">
        <ele>493.29</ele>
        <time>2019-07-28T07:55:37Z</time>
      </trkpt>
      <trkpt lat="43.01186" lon="0.79603">
        <ele>491.85</ele>
        <time>2019-07-28T07:55:40Z</time>
      </trkpt>
      <trkpt lat="43.01191" lon="0.79605">
        <ele>491.37</ele>
        <time>2019-07-28T07:55:41Z</time>
      </trkpt>
      <trkpt lat="43.01195" lon="0.79606">
        <ele>490.41</ele>
        <time>2019-07-28T07:55:42Z</time>
      </trkpt>
      <trkpt lat="43.01199" lon="0.79607">
        <ele>489.93</ele>
        <time>2019-07-28T07:55:43Z</time>
      </trkpt>
      <trkpt lat="43.01203" lon="0.79607">
        <ele>489.93</ele>
        <time>2019-07-28T07:55:44Z</time>
      </trkpt>
      <trkpt lat="43.01209" lon="0.79609">
        <ele>489.45</ele>
        <time>2019-07-28T07:55:45Z</time>
      </trkpt>
      <trkpt lat="43.01213" lon="0.7961">
        <ele>488.97</ele>
        <time>2019-07-28T07:55:46Z</time>
      </trkpt>
      <trkpt lat="43.01218" lon="0.79611">
        <ele>488.49</ele>
        <time>2019-07-28T07:55:47Z</time>
      </trkpt>
      <trkpt lat="43.01223" lon="0.79611">
        <ele>488.49</ele>
        <time>2019-07-28T07:55:48Z</time>
      </trkpt>
      <trkpt lat="43.01254" lon="0.79612">
        <ele>485.12</ele>
        <time>2019-07-28T07:55:54Z</time>
      </trkpt>
      <trkpt lat="43.01263" lon="0.79612">
        <ele>483.2</ele>
        <time>2019-07-28T07:55:56Z</time>
      </trkpt>
      <trkpt lat="43.01267" lon="0.79612">
        <ele>483.2</ele>
        <time>2019-07-28T07:55:57Z</time>
      </trkpt>
      <trkpt lat="43.01276" lon="0.79613">
        <ele>481.76</ele>
        <time>2019-07-28T07:55:59Z</time>
      </trkpt>
      <trkpt lat="43.01281" lon="0.79613">
        <ele>480.8</ele>
        <time>2019-07-28T07:56:00Z</time>
      </trkpt>
      <trkpt lat="43.01295" lon="0.79613">
        <ele>479.35</ele>
        <time>2019-07-28T07:56:03Z</time>
      </trkpt>
      <trkpt lat="43.01313" lon="0.7961">
        <ele>476.95</ele>
        <time>2019-07-28T07:56:07Z</time>
      </trkpt>
      <trkpt lat="43.01324" lon="0.79608">
        <ele>476.95</ele>
        <time>2019-07-28T07:56:09Z</time>
      </trkpt>
      <trkpt lat="43.01329" lon="0.79607">
        <ele>476.47</ele>
        <time>2019-07-28T07:56:10Z</time>
      </trkpt>
      <trkpt lat="43.01334" lon="0.79607">
        <ele>475.51</ele>
        <time>2019-07-28T07:56:11Z</time>
      </trkpt>
      <trkpt lat="43.01337" lon="0.79607">
        <ele>474.55</ele>
        <time>2019-07-28T07:56:12Z</time>
      </trkpt>
      <trkpt lat="43.01339" lon="0.79608">
        <ele>474.07</ele>
        <time>2019-07-28T07:56:13Z</time>
      </trkpt>
      <trkpt lat="43.01344" lon="0.7961">
        <ele>472.63</ele>
        <time>2019-07-28T07:56:15Z</time>
      </trkpt>
      <trkpt lat="43.01353" lon="0.79612">
        <ele>470.7</ele>
        <time>2019-07-28T07:56:26Z</time>
      </trkpt>
      <trkpt lat="43.01366" lon="0.79616">
        <ele>467.34</ele>
        <time>2019-07-28T07:56:38Z</time>
      </trkpt>
      <trkpt lat="43.01371" lon="0.7962">
        <ele>465.9</ele>
        <time>2019-07-28T07:56:41Z</time>
      </trkpt>
      <trkpt lat="43.01375" lon="0.79622">
        <ele>464.45</ele>
        <time>2019-07-28T07:56:44Z</time>
      </trkpt>
      <trkpt lat="43.01387" lon="0.7963">
        <ele>462.05</ele>
        <time>2019-07-28T07:56:50Z</time>
      </trkpt>
      <trkpt lat="43.01388" lon="0.79633">
        <ele>462.05</ele>
        <time>2019-07-28T07:56:51Z</time>
      </trkpt>
      <trkpt lat="43.01389" lon="0.79636">
        <ele>462.05</ele>
        <time>2019-07-28T07:56:52Z</time>
      </trkpt>
      <trkpt lat="43.01389" lon="0.79639">
        <ele>462.05</ele>
        <time>2019-07-28T07:56:53Z</time>
      </trkpt>
      <trkpt lat="43.01389" lon="0.79641">
        <ele>462.05</ele>
        <time>2019-07-28T07:56:54Z</time>
      </trkpt>
      <trkpt lat="43.0139" lon="0.79643">
        <ele>462.05</ele>
        <time>2019-07-28T07:56:55Z</time>
      </trkpt>
      <trkpt lat="43.0139" lon="0.79645">
        <ele>462.05</ele>
        <time>2019-07-28T07:56:56Z</time>
      </trkpt>
      <trkpt lat="43.01377" lon="0.79667">
        <ele>462.53</ele>
        <time>2019-07-28T07:57:09Z</time>
      </trkpt>
      <trkpt lat="43.01342" lon="0.79677">
        <ele>462.05</ele>
        <time>2019-07-28T07:57:20Z</time>
      </trkpt>
      <trkpt lat="43.01298" lon="0.79695">
        <ele>460.61</ele>
        <time>2019-07-28T07:57:30Z</time>
      </trkpt>
      <trkpt lat="43.01293" lon="0.79696">
        <ele>460.61</ele>
        <time>2019-07-28T07:57:31Z</time>
      </trkpt>
      <trkpt lat="43.01251" lon="0.79709">
        <ele>461.57</ele>
        <time>2019-07-28T07:57:42Z</time>
      </trkpt>
      <trkpt lat="43.01219" lon="0.79714">
        <ele>461.09</ele>
        <time>2019-07-28T07:57:51Z</time>
      </trkpt>
      <trkpt lat="43.01215" lon="0.79714">
        <ele>460.61</ele>
        <time>2019-07-28T07:57:52Z</time>
      </trkpt>
      <trkpt lat="43.01201" lon="0.79703">
        <ele>459.65</ele>
        <time>2019-07-28T07:57:56Z</time>
      </trkpt>
      <trkpt lat="43.01176" lon="0.79692">
        <ele>455.8</ele>
        <time>2019-07-28T07:58:02Z</time>
      </trkpt>
      <trkpt lat="43.0115" lon="0.79683">
        <ele>451.48</ele>
        <time>2019-07-28T07:58:07Z</time>
      </trkpt>
      <trkpt lat="43.01147" lon="0.79682">
        <ele>451.48</ele>
        <time>2019-07-28T07:58:08Z</time>
      </trkpt>
      <trkpt lat="43.01129" lon="0.79674">
        <ele>448.11</ele>
        <time>2019-07-28T07:58:13Z</time>
      </trkpt>
      <trkpt lat="43.0112" lon="0.79693">
        <ele>446.19</ele>
        <time>2019-07-28T07:58:20Z</time>
      </trkpt>
      <trkpt lat="43.01106" lon="0.79749">
        <ele>445.71</ele>
        <time>2019-07-28T07:58:36Z</time>
      </trkpt>
      <trkpt lat="43.0111" lon="0.79756">
        <ele>445.71</ele>
        <time>2019-07-28T07:58:40Z</time>
      </trkpt>
      <trkpt lat="43.01119" lon="0.79797">
        <ele>445.71</ele>
        <time>2019-07-28T07:58:52Z</time>
      </trkpt>
      <trkpt lat="43.01133" lon="0.79831">
        <ele>448.59</ele>
        <time>2019-07-28T07:59:03Z</time>
      </trkpt>
      <trkpt lat="43.0119" lon="0.79839">
        <ele>448.59</ele>
        <time>2019-07-28T07:59:17Z</time>
      </trkpt>
      <trkpt lat="43.01244" lon="0.79847">
        <ele>446.67</ele>
        <time>2019-07-28T07:59:29Z</time>
      </trkpt>
      <trkpt lat="43.01286" lon="0.79853">
        <ele>446.67</ele>
        <time>2019-07-28T07:59:42Z</time>
      </trkpt>
      <trkpt lat="43.01297" lon="0.79848">
        <ele>447.63</ele>
        <time>2019-07-28T07:59:45Z</time>
      </trkpt>
      <trkpt lat="43.01343" lon="0.79814">
        <ele>449.07</ele>
        <time>2019-07-28T07:59:58Z</time>
      </trkpt>
      <trkpt lat="43.01371" lon="0.79786">
        <ele>447.15</ele>
        <time>2019-07-28T08:00:03Z</time>
      </trkpt>
      <trkpt lat="43.01409" lon="0.79779">
        <ele>445.71</ele>
        <time>2019-07-28T08:00:08Z</time>
      </trkpt>
      <trkpt lat="43.01478" lon="0.79824">
        <ele>444.27</ele>
        <time>2019-07-28T08:00:19Z</time>
      </trkpt>
      <trkpt lat="43.01509" lon="0.79851">
        <ele>444.27</ele>
        <time>2019-07-28T08:00:24Z</time>
      </trkpt>
      <trkpt lat="43.01529" lon="0.79862">
        <ele>443.79</ele>
        <time>2019-07-28T08:00:27Z</time>
      </trkpt>
      <trkpt lat="43.01551" lon="0.7987">
        <ele>442.82</ele>
        <time>2019-07-28T08:00:30Z</time>
      </trkpt>
      <trkpt lat="43.01581" lon="0.79875">
        <ele>441.86</ele>
        <time>2019-07-28T08:00:34Z</time>
      </trkpt>
      <trkpt lat="43.01589" lon="0.79875">
        <ele>441.86</ele>
        <time>2019-07-28T08:00:35Z</time>
      </trkpt>
      <trkpt lat="43.01613" lon="0.7987">
        <ele>441.38</ele>
        <time>2019-07-28T08:00:38Z</time>
      </trkpt>
      <trkpt lat="43.0162" lon="0.79866">
        <ele>440.9</ele>
        <time>2019-07-28T08:00:39Z</time>
      </trkpt>
      <trkpt lat="43.01627" lon="0.7986">
        <ele>440.9</ele>
        <time>2019-07-28T08:00:40Z</time>
      </trkpt>
      <trkpt lat="43.01634" lon="0.79853">
        <ele>439.94</ele>
        <time>2019-07-28T08:00:41Z</time>
      </trkpt>
      <trkpt lat="43.01639" lon="0.79846">
        <ele>439.94</ele>
        <time>2019-07-28T08:00:42Z</time>
      </trkpt>
      <trkpt lat="43.01644" lon="0.79837">
        <ele>439.94</ele>
        <time>2019-07-28T08:00:43Z</time>
      </trkpt>
      <trkpt lat="43.01649" lon="0.79828">
        <ele>439.94</ele>
        <time>2019-07-28T08:00:44Z</time>
      </trkpt>
      <trkpt lat="43.01653" lon="0.79819">
        <ele>439.46</ele>
        <time>2019-07-28T08:00:45Z</time>
      </trkpt>
      <trkpt lat="43.01672" lon="0.79783">
        <ele>438.5</ele>
        <time>2019-07-28T08:00:49Z</time>
      </trkpt>
      <trkpt lat="43.01678" lon="0.79777">
        <ele>438.02</ele>
        <time>2019-07-28T08:00:50Z</time>
      </trkpt>
      <trkpt lat="43.01682" lon="0.79773">
        <ele>437.54</ele>
        <time>2019-07-28T08:00:51Z</time>
      </trkpt>
      <trkpt lat="43.01704" lon="0.79765">
        <ele>437.54</ele>
        <time>2019-07-28T08:00:55Z</time>
      </trkpt>
      <trkpt lat="43.01727" lon="0.79768">
        <ele>436.58</ele>
        <time>2019-07-28T08:00:59Z</time>
      </trkpt>
      <trkpt lat="43.01748" lon="0.79776">
        <ele>436.58</ele>
        <time>2019-07-28T08:01:03Z</time>
      </trkpt>
      <trkpt lat="43.01753" lon="0.79781">
        <ele>436.58</ele>
        <time>2019-07-28T08:01:04Z</time>
      </trkpt>
      <trkpt lat="43.01757" lon="0.79786">
        <ele>436.58</ele>
        <time>2019-07-28T08:01:05Z</time>
      </trkpt>
      <trkpt lat="43.01814" lon="0.79841">
        <ele>435.13</ele>
        <time>2019-07-28T08:01:18Z</time>
      </trkpt>
      <trkpt lat="43.01815" lon="0.79844">
        <ele>434.65</ele>
        <time>2019-07-28T08:01:30Z</time>
      </trkpt>
      <trkpt lat="43.01816" lon="0.79843">
        <ele>434.65</ele>
        <time>2019-07-28T08:01:42Z</time>
      </trkpt>
      <trkpt lat="43.01817" lon="0.79842">
        <ele>434.65</ele>
        <time>2019-07-28T08:01:43Z</time>
      </trkpt>
      <trkpt lat="43.01817" lon="0.7984">
        <ele>434.65</ele>
        <time>2019-07-28T08:01:44Z</time>
      </trkpt>
      <trkpt lat="43.01816" lon="0.79838">
        <ele>434.65</ele>
        <time>2019-07-28T08:01:45Z</time>
      </trkpt>
      <trkpt lat="43.01814" lon="0.79836">
        <ele>434.65</ele>
        <time>2019-07-28T08:01:46Z</time>
      </trkpt>
      <trkpt lat="43.01812" lon="0.79835">
        <ele>434.65</ele>
        <time>2019-07-28T08:01:47Z</time>
      </trkpt>
      <trkpt lat="43.0177" lon="0.79795">
        <ele>436.1</ele>
        <time>2019-07-28T08:02:02Z</time>
      </trkpt>
      <trkpt lat="43.01752" lon="0.79775">
        <ele>437.06</ele>
        <time>2019-07-28T08:02:07Z</time>
      </trkpt>
      <trkpt lat="43.01747" lon="0.79772">
        <ele>437.06</ele>
        <time>2019-07-28T08:02:08Z</time>
      </trkpt>
      <trkpt lat="43.01743" lon="0.7977">
        <ele>437.06</ele>
        <time>2019-07-28T08:02:09Z</time>
      </trkpt>
      <trkpt lat="43.01729" lon="0.79763">
        <ele>437.06</ele>
        <time>2019-07-28T08:02:12Z</time>
      </trkpt>
      <trkpt lat="43.01725" lon="0.79761">
        <ele>437.06</ele>
        <time>2019-07-28T08:02:13Z</time>
      </trkpt>
      <trkpt lat="43.01722" lon="0.79757">
        <ele>437.06</ele>
        <time>2019-07-28T08:02:14Z</time>
      </trkpt>
      <trkpt lat="43.01719" lon="0.79752">
        <ele>437.06</ele>
        <time>2019-07-28T08:02:15Z</time>
      </trkpt>
      <trkpt lat="43.01718" lon="0.79746">
        <ele>437.06</ele>
        <time>2019-07-28T08:02:16Z</time>
      </trkpt>
      <trkpt lat="43.01719" lon="0.79741">
        <ele>437.54</ele>
        <time>2019-07-28T08:02:17Z</time>
      </trkpt>
      <trkpt lat="43.0172" lon="0.79735">
        <ele>437.54</ele>
        <time>2019-07-28T08:02:18Z</time>
      </trkpt>
      <trkpt lat="43.01721" lon="0.79729">
        <ele>437.54</ele>
        <time>2019-07-28T08:02:19Z</time>
      </trkpt>
      <trkpt lat="43.01722" lon="0.79724">
        <ele>437.54</ele>
        <time>2019-07-28T08:02:20Z</time>
      </trkpt>
      <trkpt lat="43.01724" lon="0.79718">
        <ele>438.02</ele>
        <time>2019-07-28T08:02:21Z</time>
      </trkpt>
      <trkpt lat="43.01728" lon="0.79714">
        <ele>438.02</ele>
        <time>2019-07-28T08:02:22Z</time>
      </trkpt>
      <trkpt lat="43.01732" lon="0.79711">
        <ele>438.02</ele>
        <time>2019-07-28T08:02:23Z</time>
      </trkpt>
      <trkpt lat="43.01737" lon="0.79709">
        <ele>438.02</ele>
        <time>2019-07-28T08:02:24Z</time>
      </trkpt>
      <trkpt lat="43.01741" lon="0.79707">
        <ele>438.02</ele>
        <time>2019-07-28T08:02:25Z</time>
      </trkpt>
      <trkpt lat="43.01792" lon="0.79685">
        <ele>439.94</ele>
        <time>2019-07-28T08:02:38Z</time>
      </trkpt>
      <trkpt lat="43.01861" lon="0.79679">
        <ele>436.58</ele>
        <time>2019-07-28T08:02:48Z</time>
      </trkpt>
      <trkpt lat="43.01897" lon="0.79676">
        <ele>435.61</ele>
        <time>2019-07-28T08:02:53Z</time>
      </trkpt>
      <trkpt lat="43.01904" lon="0.79674">
        <ele>435.13</ele>
        <time>2019-07-28T08:02:54Z</time>
      </trkpt>
      <trkpt lat="43.01983" lon="0.79619">
        <ele>436.1</ele>
        <time>2019-07-28T08:03:08Z</time>
      </trkpt>
      <trkpt lat="43.02048" lon="0.79577">
        <ele>432.73</ele>
        <time>2019-07-28T08:03:19Z</time>
      </trkpt>
      <trkpt lat="43.02105" lon="0.79533">
        <ele>430.81</ele>
        <time>2019-07-28T08:03:30Z</time>
      </trkpt>
      <trkpt lat="43.02109" lon="0.79533">
        <ele>430.81</ele>
        <time>2019-07-28T08:03:31Z</time>
      </trkpt>
      <trkpt lat="43.02112" lon="0.79536">
        <ele>430.81</ele>
        <time>2019-07-28T08:03:32Z</time>
      </trkpt>
      <trkpt lat="43.02114" lon="0.7954">
        <ele>430.81</ele>
        <time>2019-07-28T08:03:33Z</time>
      </trkpt>
      <trkpt lat="43.02116" lon="0.79543">
        <ele>430.81</ele>
        <time>2019-07-28T08:03:34Z</time>
      </trkpt>
      <trkpt lat="43.02119" lon="0.79546">
        <ele>430.81</ele>
        <time>2019-07-28T08:03:35Z</time>
      </trkpt>
      <trkpt lat="43.02121" lon="0.79549">
        <ele>430.81</ele>
        <time>2019-07-28T08:03:36Z</time>
      </trkpt>
      <trkpt lat="43.02122" lon="0.79553">
        <ele>430.81</ele>
        <time>2019-07-28T08:03:37Z</time>
      </trkpt>
      <trkpt lat="43.02125" lon="0.79557">
        <ele>430.81</ele>
        <time>2019-07-28T08:03:38Z</time>
      </trkpt>
      <trkpt lat="43.02128" lon="0.7956">
        <ele>430.81</ele>
        <time>2019-07-28T08:03:39Z</time>
      </trkpt>
      <trkpt lat="43.02132" lon="0.79561">
        <ele>430.81</ele>
        <time>2019-07-28T08:03:40Z</time>
      </trkpt>
      <trkpt lat="43.02136" lon="0.79562">
        <ele>430.81</ele>
        <time>2019-07-28T08:03:41Z</time>
      </trkpt>
      <trkpt lat="43.02145" lon="0.79561">
        <ele>430.81</ele>
        <time>2019-07-28T08:03:43Z</time>
      </trkpt>
      <trkpt lat="43.0215" lon="0.79558">
        <ele>430.81</ele>
        <time>2019-07-28T08:03:44Z</time>
      </trkpt>
      <trkpt lat="43.02154" lon="0.79555">
        <ele>430.81</ele>
        <time>2019-07-28T08:03:45Z</time>
      </trkpt>
      <trkpt lat="43.02219" lon="0.79503">
        <ele>430.81</ele>
        <time>2019-07-28T08:03:59Z</time>
      </trkpt>
      <trkpt lat="43.02223" lon="0.795">
        <ele>430.81</ele>
        <time>2019-07-28T08:04:00Z</time>
      </trkpt>
      <trkpt lat="43.02233" lon="0.79495">
        <ele>430.81</ele>
        <time>2019-07-28T08:04:02Z</time>
      </trkpt>
      <trkpt lat="43.02245" lon="0.79487">
        <ele>430.81</ele>
        <time>2019-07-28T08:04:05Z</time>
      </trkpt>
      <trkpt lat="43.02249" lon="0.79483">
        <ele>430.81</ele>
        <time>2019-07-28T08:04:06Z</time>
      </trkpt>
      <trkpt lat="43.02273" lon="0.79455">
        <ele>432.73</ele>
        <time>2019-07-28T08:04:12Z</time>
      </trkpt>
      <trkpt lat="43.02301" lon="0.79421">
        <ele>433.21</ele>
        <time>2019-07-28T08:04:19Z</time>
      </trkpt>
      <trkpt lat="43.02306" lon="0.79418">
        <ele>430.81</ele>
        <time>2019-07-28T08:04:20Z</time>
      </trkpt>
      <trkpt lat="43.0231" lon="0.79415">
        <ele>430.81</ele>
        <time>2019-07-28T08:04:21Z</time>
      </trkpt>
      <trkpt lat="43.02315" lon="0.79413">
        <ele>430.33</ele>
        <time>2019-07-28T08:04:22Z</time>
      </trkpt>
      <trkpt lat="43.0232" lon="0.79412">
        <ele>430.33</ele>
        <time>2019-07-28T08:04:23Z</time>
      </trkpt>
      <trkpt lat="43.02345" lon="0.79404">
        <ele>432.25</ele>
        <time>2019-07-28T08:04:28Z</time>
      </trkpt>
      <trkpt lat="43.02373" lon="0.79396">
        <ele>432.25</ele>
        <time>2019-07-28T08:04:34Z</time>
      </trkpt>
      <trkpt lat="43.02377" lon="0.79397">
        <ele>431.77</ele>
        <time>2019-07-28T08:04:35Z</time>
      </trkpt>
      <trkpt lat="43.02401" lon="0.79381">
        <ele>432.73</ele>
        <time>2019-07-28T08:04:44Z</time>
      </trkpt>
      <trkpt lat="43.02426" lon="0.79346">
        <ele>436.1</ele>
        <time>2019-07-28T08:05:00Z</time>
      </trkpt>
      <trkpt lat="43.02455" lon="0.79296">
        <ele>438.5</ele>
        <time>2019-07-28T08:05:20Z</time>
      </trkpt>
      <trkpt lat="43.02478" lon="0.79266">
        <ele>439.94</ele>
        <time>2019-07-28T08:05:33Z</time>
      </trkpt>
      <trkpt lat="43.02503" lon="0.79238">
        <ele>442.34</ele>
        <time>2019-07-28T08:05:47Z</time>
      </trkpt>
      <trkpt lat="43.02524" lon="0.79218">
        <ele>446.19</ele>
        <time>2019-07-28T08:06:00Z</time>
      </trkpt>
      <trkpt lat="43.02555" lon="0.79201">
        <ele>447.63</ele>
        <time>2019-07-28T08:06:16Z</time>
      </trkpt>
      <trkpt lat="43.02608" lon="0.79196">
        <ele>448.11</ele>
        <time>2019-07-28T08:06:31Z</time>
      </trkpt>
      <trkpt lat="43.02641" lon="0.79193">
        <ele>446.67</ele>
        <time>2019-07-28T08:06:37Z</time>
      </trkpt>
      <trkpt lat="43.02737" lon="0.79205">
        <ele>446.19</ele>
        <time>2019-07-28T08:06:54Z</time>
      </trkpt>
      <trkpt lat="43.0277" lon="0.79212">
        <ele>447.63</ele>
        <time>2019-07-28T08:07:01Z</time>
      </trkpt>
      <trkpt lat="43.02802" lon="0.79219">
        <ele>448.59</ele>
        <time>2019-07-28T08:07:08Z</time>
      </trkpt>
      <trkpt lat="43.02821" lon="0.7923">
        <ele>448.59</ele>
        <time>2019-07-28T08:07:12Z</time>
      </trkpt>
      <trkpt lat="43.02831" lon="0.79239">
        <ele>448.59</ele>
        <time>2019-07-28T08:07:14Z</time>
      </trkpt>
      <trkpt lat="43.02849" lon="0.79254">
        <ele>446.19</ele>
        <time>2019-07-28T08:07:17Z</time>
      </trkpt>
      <trkpt lat="43.02882" lon="0.79275">
        <ele>445.23</ele>
        <time>2019-07-28T08:07:22Z</time>
      </trkpt>
      <trkpt lat="43.0297" lon="0.79365">
        <ele>442.34</ele>
        <time>2019-07-28T08:07:38Z</time>
      </trkpt>
      <trkpt lat="43.02973" lon="0.79373">
        <ele>442.34</ele>
        <time>2019-07-28T08:07:39Z</time>
      </trkpt>
      <trkpt lat="43.02991" lon="0.79446">
        <ele>440.9</ele>
        <time>2019-07-28T08:07:49Z</time>
      </trkpt>
      <trkpt lat="43.02994" lon="0.79453">
        <ele>440.9</ele>
        <time>2019-07-28T08:08:01Z</time>
      </trkpt>
      <trkpt lat="43.03002" lon="0.79469">
        <ele>440.9</ele>
        <time>2019-07-28T08:08:18Z</time>
      </trkpt>
      <trkpt lat="43.03006" lon="0.79475">
        <ele>441.86</ele>
        <time>2019-07-28T08:08:34Z</time>
      </trkpt>
      <trkpt lat="43.03006" lon="0.7948">
        <ele>442.34</ele>
        <time>2019-07-28T08:08:55Z</time>
      </trkpt>
      <trkpt lat="43.03008" lon="0.79487">
        <ele>442.82</ele>
        <time>2019-07-28T08:09:15Z</time>
      </trkpt>
      <trkpt lat="43.03013" lon="0.79499">
        <ele>443.31</ele>
        <time>2019-07-28T08:09:34Z</time>
      </trkpt>
      <trkpt lat="43.03016" lon="0.7951">
        <ele>443.79</ele>
        <time>2019-07-28T08:09:46Z</time>
      </trkpt>
      <trkpt lat="43.03017" lon="0.79513">
        <ele>443.79</ele>
        <time>2019-07-28T08:09:56Z</time>
      </trkpt>
      <trkpt lat="43.03019" lon="0.79521">
        <ele>444.27</ele>
        <time>2019-07-28T08:10:14Z</time>
      </trkpt>
      <trkpt lat="43.03021" lon="0.79528">
        <ele>444.75</ele>
        <time>2019-07-28T08:10:27Z</time>
      </trkpt>
      <trkpt lat="43.03024" lon="0.79533">
        <ele>445.23</ele>
        <time>2019-07-28T08:10:37Z</time>
      </trkpt>
      <trkpt lat="43.03025" lon="0.79539">
        <ele>445.71</ele>
        <time>2019-07-28T08:10:42Z</time>
      </trkpt>
      <trkpt lat="43.03031" lon="0.79568">
        <ele>447.15</ele>
        <time>2019-07-28T08:11:03Z</time>
      </trkpt>
      <trkpt lat="43.03032" lon="0.79569">
        <ele>447.15</ele>
        <time>2019-07-28T08:11:06Z</time>
      </trkpt>
      <trkpt lat="43.03033" lon="0.79572">
        <ele>447.15</ele>
        <time>2019-07-28T08:11:08Z</time>
      </trkpt>
      <trkpt lat="43.03034" lon="0.79574">
        <ele>447.63</ele>
        <time>2019-07-28T08:11:09Z</time>
      </trkpt>
      <trkpt lat="43.03034" lon="0.79576">
        <ele>447.63</ele>
        <time>2019-07-28T08:11:10Z</time>
      </trkpt>
      <trkpt lat="43.03035" lon="0.79578">
        <ele>448.11</ele>
        <time>2019-07-28T08:11:11Z</time>
      </trkpt>
      <trkpt lat="43.03036" lon="0.79581">
        <ele>448.11</ele>
        <time>2019-07-28T08:11:12Z</time>
      </trkpt>
      <trkpt lat="43.03046" lon="0.79619">
        <ele>450.03</ele>
        <time>2019-07-28T08:11:23Z</time>
      </trkpt>
      <trkpt lat="43.03058" lon="0.79671">
        <ele>452.44</ele>
        <time>2019-07-28T08:11:39Z</time>
      </trkpt>
      <trkpt lat="43.03062" lon="0.79707">
        <ele>453.88</ele>
        <time>2019-07-28T08:11:51Z</time>
      </trkpt>
      <trkpt lat="43.0307" lon="0.79745">
        <ele>455.32</ele>
        <time>2019-07-28T08:12:05Z</time>
      </trkpt>
      <trkpt lat="43.0308" lon="0.79773">
        <ele>457.24</ele>
        <time>2019-07-28T08:12:18Z</time>
      </trkpt>
      <trkpt lat="43.03079" lon="0.79797">
        <ele>457.72</ele>
        <time>2019-07-28T08:12:28Z</time>
      </trkpt>
      <trkpt lat="43.03079" lon="0.798">
        <ele>457.72</ele>
        <time>2019-07-28T08:12:29Z</time>
      </trkpt>
      <trkpt lat="43.03075" lon="0.79838">
        <ele>458.21</ele>
        <time>2019-07-28T08:12:40Z</time>
      </trkpt>
      <trkpt lat="43.03078" lon="0.79868">
        <ele>458.21</ele>
        <time>2019-07-28T08:12:49Z</time>
      </trkpt>
      <trkpt lat="43.03078" lon="0.79909">
        <ele>456.76</ele>
        <time>2019-07-28T08:12:58Z</time>
      </trkpt>
      <trkpt lat="43.0308" lon="0.79946">
        <ele>456.28</ele>
        <time>2019-07-28T08:13:03Z</time>
      </trkpt>
      <trkpt lat="43.03083" lon="0.79983">
        <ele>455.8</ele>
        <time>2019-07-28T08:13:08Z</time>
      </trkpt>
      <trkpt lat="43.03084" lon="0.79991">
        <ele>456.28</ele>
        <time>2019-07-28T08:13:09Z</time>
      </trkpt>
      <trkpt lat="43.03085" lon="0.80026">
        <ele>456.28</ele>
        <time>2019-07-28T08:13:14Z</time>
      </trkpt>
      <trkpt lat="43.03085" lon="0.80033">
        <ele>456.28</ele>
        <time>2019-07-28T08:13:15Z</time>
      </trkpt>
      <trkpt lat="43.03085" lon="0.8004">
        <ele>456.28</ele>
        <time>2019-07-28T08:13:16Z</time>
      </trkpt>
      <trkpt lat="43.03086" lon="0.80047">
        <ele>456.28</ele>
        <time>2019-07-28T08:13:17Z</time>
      </trkpt>
      <trkpt lat="43.03086" lon="0.80053">
        <ele>456.28</ele>
        <time>2019-07-28T08:13:18Z</time>
      </trkpt>
      <trkpt lat="43.03094" lon="0.80119">
        <ele>456.28</ele>
        <time>2019-07-28T08:13:28Z</time>
      </trkpt>
      <trkpt lat="43.03095" lon="0.80126">
        <ele>455.8</ele>
        <time>2019-07-28T08:13:29Z</time>
      </trkpt>
      <trkpt lat="43.03094" lon="0.80133">
        <ele>455.8</ele>
        <time>2019-07-28T08:13:30Z</time>
      </trkpt>
      <trkpt lat="43.03093" lon="0.80149">
        <ele>455.32</ele>
        <time>2019-07-28T08:13:32Z</time>
      </trkpt>
      <trkpt lat="43.03094" lon="0.80156">
        <ele>454.84</ele>
        <time>2019-07-28T08:13:33Z</time>
      </trkpt>
      <trkpt lat="43.03098" lon="0.80177">
        <ele>453.4</ele>
        <time>2019-07-28T08:13:36Z</time>
      </trkpt>
      <trkpt lat="43.03099" lon="0.80184">
        <ele>453.4</ele>
        <time>2019-07-28T08:13:37Z</time>
      </trkpt>
      <trkpt lat="43.03101" lon="0.80191">
        <ele>453.4</ele>
        <time>2019-07-28T08:13:38Z</time>
      </trkpt>
      <trkpt lat="43.03104" lon="0.80198">
        <ele>453.4</ele>
        <time>2019-07-28T08:13:39Z</time>
      </trkpt>
      <trkpt lat="43.03107" lon="0.80203">
        <ele>453.4</ele>
        <time>2019-07-28T08:13:40Z</time>
      </trkpt>
      <trkpt lat="43.0311" lon="0.80208">
        <ele>453.4</ele>
        <time>2019-07-28T08:13:41Z</time>
      </trkpt>
      <trkpt lat="43.03114" lon="0.80213">
        <ele>452.92</ele>
        <time>2019-07-28T08:13:42Z</time>
      </trkpt>
      <trkpt lat="43.03117" lon="0.80219">
        <ele>452.92</ele>
        <time>2019-07-28T08:13:43Z</time>
      </trkpt>
      <trkpt lat="43.0312" lon="0.80224">
        <ele>452.92</ele>
        <time>2019-07-28T08:13:44Z</time>
      </trkpt>
      <trkpt lat="43.03122" lon="0.80229">
        <ele>452.92</ele>
        <time>2019-07-28T08:13:45Z</time>
      </trkpt>
      <trkpt lat="43.03137" lon="0.8029">
        <ele>454.84</ele>
        <time>2019-07-28T08:13:57Z</time>
      </trkpt>
      <trkpt lat="43.03139" lon="0.80322">
        <ele>453.4</ele>
        <time>2019-07-28T08:14:02Z</time>
      </trkpt>
      <trkpt lat="43.03144" lon="0.80392">
        <ele>451</ele>
        <time>2019-07-28T08:14:11Z</time>
      </trkpt>
      <trkpt lat="43.03147" lon="0.80413">
        <ele>449.07</ele>
        <time>2019-07-28T08:14:14Z</time>
      </trkpt>
      <trkpt lat="43.03153" lon="0.80435">
        <ele>448.59</ele>
        <time>2019-07-28T08:14:18Z</time>
      </trkpt>
      <trkpt lat="43.03153" lon="0.80442">
        <ele>448.59</ele>
        <time>2019-07-28T08:14:19Z</time>
      </trkpt>
      <trkpt lat="43.03154" lon="0.80448">
        <ele>448.59</ele>
        <time>2019-07-28T08:14:20Z</time>
      </trkpt>
      <trkpt lat="43.03154" lon="0.80454">
        <ele>448.59</ele>
        <time>2019-07-28T08:14:21Z</time>
      </trkpt>
      <trkpt lat="43.03155" lon="0.80461">
        <ele>448.59</ele>
        <time>2019-07-28T08:14:22Z</time>
      </trkpt>
      <trkpt lat="43.03155" lon="0.80468">
        <ele>448.59</ele>
        <time>2019-07-28T08:14:23Z</time>
      </trkpt>
      <trkpt lat="43.03156" lon="0.80475">
        <ele>449.07</ele>
        <time>2019-07-28T08:14:24Z</time>
      </trkpt>
      <trkpt lat="43.03156" lon="0.80483">
        <ele>448.59</ele>
        <time>2019-07-28T08:14:25Z</time>
      </trkpt>
      <trkpt lat="43.03156" lon="0.8049">
        <ele>448.59</ele>
        <time>2019-07-28T08:14:26Z</time>
      </trkpt>
      <trkpt lat="43.03155" lon="0.80504">
        <ele>448.59</ele>
        <time>2019-07-28T08:14:28Z</time>
      </trkpt>
      <trkpt lat="43.03155" lon="0.80511">
        <ele>448.59</ele>
        <time>2019-07-28T08:14:29Z</time>
      </trkpt>
      <trkpt lat="43.03156" lon="0.80518">
        <ele>448.59</ele>
        <time>2019-07-28T08:14:30Z</time>
      </trkpt>
      <trkpt lat="43.03156" lon="0.80525">
        <ele>448.59</ele>
        <time>2019-07-28T08:14:31Z</time>
      </trkpt>
      <trkpt lat="43.03157" lon="0.80532">
        <ele>448.59</ele>
        <time>2019-07-28T08:14:32Z</time>
      </trkpt>
      <trkpt lat="43.03158" lon="0.80538">
        <ele>448.59</ele>
        <time>2019-07-28T08:14:33Z</time>
      </trkpt>
      <trkpt lat="43.0316" lon="0.80543">
        <ele>448.59</ele>
        <time>2019-07-28T08:14:34Z</time>
      </trkpt>
      <trkpt lat="43.03162" lon="0.80548">
        <ele>448.59</ele>
        <time>2019-07-28T08:14:35Z</time>
      </trkpt>
      <trkpt lat="43.03165" lon="0.80553">
        <ele>448.59</ele>
        <time>2019-07-28T08:14:36Z</time>
      </trkpt>
      <trkpt lat="43.03182" lon="0.80603">
        <ele>450.03</ele>
        <time>2019-07-28T08:14:47Z</time>
      </trkpt>
      <trkpt lat="43.0318" lon="0.80658">
        <ele>447.63</ele>
        <time>2019-07-28T08:14:54Z</time>
      </trkpt>
      <trkpt lat="43.03181" lon="0.80666">
        <ele>446.67</ele>
        <time>2019-07-28T08:14:55Z</time>
      </trkpt>
      <trkpt lat="43.03182" lon="0.80673">
        <ele>446.67</ele>
        <time>2019-07-28T08:14:56Z</time>
      </trkpt>
      <trkpt lat="43.03185" lon="0.8068">
        <ele>446.67</ele>
        <time>2019-07-28T08:14:57Z</time>
      </trkpt>
      <trkpt lat="43.03188" lon="0.80685">
        <ele>446.19</ele>
        <time>2019-07-28T08:14:58Z</time>
      </trkpt>
      <trkpt lat="43.03192" lon="0.8069">
        <ele>446.19</ele>
        <time>2019-07-28T08:14:59Z</time>
      </trkpt>
      <trkpt lat="43.03199" lon="0.80699">
        <ele>445.71</ele>
        <time>2019-07-28T08:15:01Z</time>
      </trkpt>
      <trkpt lat="43.03205" lon="0.8071">
        <ele>445.71</ele>
        <time>2019-07-28T08:15:03Z</time>
      </trkpt>
      <trkpt lat="43.03207" lon="0.80716">
        <ele>445.71</ele>
        <time>2019-07-28T08:15:04Z</time>
      </trkpt>
      <trkpt lat="43.03208" lon="0.80723">
        <ele>445.71</ele>
        <time>2019-07-28T08:15:05Z</time>
      </trkpt>
      <trkpt lat="43.03207" lon="0.80731">
        <ele>445.71</ele>
        <time>2019-07-28T08:15:06Z</time>
      </trkpt>
      <trkpt lat="43.03206" lon="0.80738">
        <ele>445.71</ele>
        <time>2019-07-28T08:15:07Z</time>
      </trkpt>
      <trkpt lat="43.03205" lon="0.80745">
        <ele>445.71</ele>
        <time>2019-07-28T08:15:08Z</time>
      </trkpt>
      <trkpt lat="43.03204" lon="0.80761">
        <ele>445.71</ele>
        <time>2019-07-28T08:15:10Z</time>
      </trkpt>
      <trkpt lat="43.03204" lon="0.80782">
        <ele>445.23</ele>
        <time>2019-07-28T08:15:13Z</time>
      </trkpt>
      <trkpt lat="43.03205" lon="0.80788">
        <ele>445.23</ele>
        <time>2019-07-28T08:15:14Z</time>
      </trkpt>
      <trkpt lat="43.0322" lon="0.80867">
        <ele>444.27</ele>
        <time>2019-07-28T08:15:27Z</time>
      </trkpt>
      <trkpt lat="43.03239" lon="0.80959">
        <ele>444.27</ele>
        <time>2019-07-28T08:15:41Z</time>
      </trkpt>
      <trkpt lat="43.03249" lon="0.80999">
        <ele>445.71</ele>
        <time>2019-07-28T08:15:49Z</time>
      </trkpt>
      <trkpt lat="43.03252" lon="0.81055">
        <ele>446.67</ele>
        <time>2019-07-28T08:16:00Z</time>
      </trkpt>
      <trkpt lat="43.03252" lon="0.8106">
        <ele>446.67</ele>
        <time>2019-07-28T08:16:01Z</time>
      </trkpt>
      <trkpt lat="43.03253" lon="0.81131">
        <ele>448.11</ele>
        <time>2019-07-28T08:16:14Z</time>
      </trkpt>
      <trkpt lat="43.03253" lon="0.81142">
        <ele>448.11</ele>
        <time>2019-07-28T08:16:16Z</time>
      </trkpt>
      <trkpt lat="43.03255" lon="0.8116">
        <ele>448.11</ele>
        <time>2019-07-28T08:16:19Z</time>
      </trkpt>
      <trkpt lat="43.03263" lon="0.81198">
        <ele>448.59</ele>
        <time>2019-07-28T08:16:26Z</time>
      </trkpt>
      <trkpt lat="43.03265" lon="0.81209">
        <ele>448.59</ele>
        <time>2019-07-28T08:16:28Z</time>
      </trkpt>
      <trkpt lat="43.03266" lon="0.81216">
        <ele>448.11</ele>
        <time>2019-07-28T08:16:29Z</time>
      </trkpt>
      <trkpt lat="43.03266" lon="0.81221">
        <ele>448.59</ele>
        <time>2019-07-28T08:16:30Z</time>
      </trkpt>
      <trkpt lat="43.03265" lon="0.81227">
        <ele>448.11</ele>
        <time>2019-07-28T08:16:31Z</time>
      </trkpt>
      <trkpt lat="43.03264" lon="0.81233">
        <ele>448.11</ele>
        <time>2019-07-28T08:16:32Z</time>
      </trkpt>
      <trkpt lat="43.03263" lon="0.81239">
        <ele>448.11</ele>
        <time>2019-07-28T08:16:33Z</time>
      </trkpt>
      <trkpt lat="43.03261" lon="0.81245">
        <ele>448.11</ele>
        <time>2019-07-28T08:16:34Z</time>
      </trkpt>
      <trkpt lat="43.0326" lon="0.8125">
        <ele>448.11</ele>
        <time>2019-07-28T08:16:35Z</time>
      </trkpt>
      <trkpt lat="43.03253" lon="0.81268">
        <ele>448.11</ele>
        <time>2019-07-28T08:16:38Z</time>
      </trkpt>
      <trkpt lat="43.03248" lon="0.81283">
        <ele>446.67</ele>
        <time>2019-07-28T08:16:41Z</time>
      </trkpt>
      <trkpt lat="43.03252" lon="0.81323">
        <ele>444.27</ele>
        <time>2019-07-28T08:16:49Z</time>
      </trkpt>
      <trkpt lat="43.03252" lon="0.81329">
        <ele>443.79</ele>
        <time>2019-07-28T08:16:50Z</time>
      </trkpt>
      <trkpt lat="43.03251" lon="0.81361">
        <ele>440.42</ele>
        <time>2019-07-28T08:16:55Z</time>
      </trkpt>
      <trkpt lat="43.03252" lon="0.81368">
        <ele>438.98</ele>
        <time>2019-07-28T08:17:03Z</time>
      </trkpt>
      <trkpt lat="43.03254" lon="0.8137">
        <ele>438.98</ele>
        <time>2019-07-28T08:17:24Z</time>
      </trkpt>
      <trkpt lat="43.03256" lon="0.81371">
        <ele>438.98</ele>
        <time>2019-07-28T08:17:25Z</time>
      </trkpt>
      <trkpt lat="43.03258" lon="0.8137">
        <ele>438.98</ele>
        <time>2019-07-28T08:17:26Z</time>
      </trkpt>
      <trkpt lat="43.03259" lon="0.81368">
        <ele>438.98</ele>
        <time>2019-07-28T08:17:27Z</time>
      </trkpt>
      <trkpt lat="43.03261" lon="0.81365">
        <ele>438.98</ele>
        <time>2019-07-28T08:17:28Z</time>
      </trkpt>
      <trkpt lat="43.03287" lon="0.8133">
        <ele>435.13</ele>
        <time>2019-07-28T08:17:35Z</time>
      </trkpt>
      <trkpt lat="43.0331" lon="0.81301">
        <ele>432.73</ele>
        <time>2019-07-28T08:17:40Z</time>
      </trkpt>
      <trkpt lat="43.03315" lon="0.81298">
        <ele>432.73</ele>
        <time>2019-07-28T08:17:41Z</time>
      </trkpt>
      <trkpt lat="43.0332" lon="0.81296">
        <ele>432.25</ele>
        <time>2019-07-28T08:17:42Z</time>
      </trkpt>
      <trkpt lat="43.03326" lon="0.81296">
        <ele>431.77</ele>
        <time>2019-07-28T08:17:43Z</time>
      </trkpt>
      <trkpt lat="43.03332" lon="0.81298">
        <ele>431.29</ele>
        <time>2019-07-28T08:17:44Z</time>
      </trkpt>
      <trkpt lat="43.03337" lon="0.81302">
        <ele>431.29</ele>
        <time>2019-07-28T08:17:45Z</time>
      </trkpt>
      <trkpt lat="43.03343" lon="0.81305">
        <ele>431.29</ele>
        <time>2019-07-28T08:17:46Z</time>
      </trkpt>
      <trkpt lat="43.03387" lon="0.8134">
        <ele>428.89</ele>
        <time>2019-07-28T08:17:53Z</time>
      </trkpt>
      <trkpt lat="43.03467" lon="0.8141">
        <ele>426.96</ele>
        <time>2019-07-28T08:18:05Z</time>
      </trkpt>
      <trkpt lat="43.03557" lon="0.81473">
        <ele>424.08</ele>
        <time>2019-07-28T08:18:17Z</time>
      </trkpt>
      <trkpt lat="43.03573" lon="0.81482">
        <ele>423.12</ele>
        <time>2019-07-28T08:18:19Z</time>
      </trkpt>
      <trkpt lat="43.03632" lon="0.81522">
        <ele>419.27</ele>
        <time>2019-07-28T08:18:26Z</time>
      </trkpt>
      <trkpt lat="43.0364" lon="0.81529">
        <ele>419.27</ele>
        <time>2019-07-28T08:18:27Z</time>
      </trkpt>
      <trkpt lat="43.03684" lon="0.8157">
        <ele>415.43</ele>
        <time>2019-07-28T08:18:33Z</time>
      </trkpt>
      <trkpt lat="43.03694" lon="0.81583">
        <ele>414.95</ele>
        <time>2019-07-28T08:18:35Z</time>
      </trkpt>
      <trkpt lat="43.03698" lon="0.8159">
        <ele>415.43</ele>
        <time>2019-07-28T08:18:36Z</time>
      </trkpt>
      <trkpt lat="43.03701" lon="0.81597">
        <ele>415.43</ele>
        <time>2019-07-28T08:18:37Z</time>
      </trkpt>
      <trkpt lat="43.03703" lon="0.81603">
        <ele>415.43</ele>
        <time>2019-07-28T08:18:38Z</time>
      </trkpt>
      <trkpt lat="43.03704" lon="0.81609">
        <ele>415.43</ele>
        <time>2019-07-28T08:18:39Z</time>
      </trkpt>
      <trkpt lat="43.03704" lon="0.81613">
        <ele>415.43</ele>
        <time>2019-07-28T08:18:40Z</time>
      </trkpt>
      <trkpt lat="43.03705" lon="0.81617">
        <ele>415.43</ele>
        <time>2019-07-28T08:18:41Z</time>
      </trkpt>
      <trkpt lat="43.03707" lon="0.81643">
        <ele>418.79</ele>
        <time>2019-07-28T08:18:50Z</time>
      </trkpt>
      <trkpt lat="43.03709" lon="0.81674">
        <ele>422.16</ele>
        <time>2019-07-28T08:19:03Z</time>
      </trkpt>
      <trkpt lat="43.03712" lon="0.81714">
        <ele>425.52</ele>
        <time>2019-07-28T08:19:19Z</time>
      </trkpt>
      <trkpt lat="43.03714" lon="0.81751">
        <ele>428.4</ele>
        <time>2019-07-28T08:19:34Z</time>
      </trkpt>
      <trkpt lat="43.03716" lon="0.8179">
        <ele>430.81</ele>
        <time>2019-07-28T08:19:50Z</time>
      </trkpt>
      <trkpt lat="43.03718" lon="0.81824">
        <ele>433.69</ele>
        <time>2019-07-28T08:20:05Z</time>
      </trkpt>
      <trkpt lat="43.0372" lon="0.81862">
        <ele>436.1</ele>
        <time>2019-07-28T08:20:22Z</time>
      </trkpt>
      <trkpt lat="43.0372" lon="0.81903">
        <ele>438.5</ele>
        <time>2019-07-28T08:20:40Z</time>
      </trkpt>
      <trkpt lat="43.0372" lon="0.81933">
        <ele>440.42</ele>
        <time>2019-07-28T08:20:54Z</time>
      </trkpt>
      <trkpt lat="43.03725" lon="0.81979">
        <ele>442.34</ele>
        <time>2019-07-28T08:21:12Z</time>
      </trkpt>
      <trkpt lat="43.03706" lon="0.82004">
        <ele>444.75</ele>
        <time>2019-07-28T08:21:27Z</time>
      </trkpt>
      <trkpt lat="43.03687" lon="0.82015">
        <ele>447.63</ele>
        <time>2019-07-28T08:21:40Z</time>
      </trkpt>
      <trkpt lat="43.03665" lon="0.82027">
        <ele>451.48</ele>
        <time>2019-07-28T08:21:56Z</time>
      </trkpt>
      <trkpt lat="43.03646" lon="0.82033">
        <ele>454.36</ele>
        <time>2019-07-28T08:22:10Z</time>
      </trkpt>
      <trkpt lat="43.03628" lon="0.82034">
        <ele>457.72</ele>
        <time>2019-07-28T08:22:24Z</time>
      </trkpt>
      <trkpt lat="43.036" lon="0.82042">
        <ele>460.61</ele>
        <time>2019-07-28T08:22:43Z</time>
      </trkpt>
      <trkpt lat="43.03563" lon="0.82054">
        <ele>463.01</ele>
        <time>2019-07-28T08:23:03Z</time>
      </trkpt>
      <trkpt lat="43.03525" lon="0.82054">
        <ele>463.49</ele>
        <time>2019-07-28T08:23:18Z</time>
      </trkpt>
      <trkpt lat="43.03463" lon="0.82047">
        <ele>463.49</ele>
        <time>2019-07-28T08:23:31Z</time>
      </trkpt>
      <trkpt lat="43.03426" lon="0.82047">
        <ele>464.93</ele>
        <time>2019-07-28T08:23:42Z</time>
      </trkpt>
      <trkpt lat="43.03407" lon="0.82061">
        <ele>464.93</ele>
        <time>2019-07-28T08:23:49Z</time>
      </trkpt>
      <trkpt lat="43.03406" lon="0.82063">
        <ele>464.45</ele>
        <time>2019-07-28T08:23:50Z</time>
      </trkpt>
      <trkpt lat="43.03405" lon="0.82066">
        <ele>463.49</ele>
        <time>2019-07-28T08:23:51Z</time>
      </trkpt>
      <trkpt lat="43.03405" lon="0.82069">
        <ele>463.49</ele>
        <time>2019-07-28T08:23:52Z</time>
      </trkpt>
      <trkpt lat="43.03406" lon="0.82072">
        <ele>463.49</ele>
        <time>2019-07-28T08:23:53Z</time>
      </trkpt>
      <trkpt lat="43.03407" lon="0.82075">
        <ele>463.49</ele>
        <time>2019-07-28T08:23:54Z</time>
      </trkpt>
      <trkpt lat="43.03408" lon="0.82077">
        <ele>463.49</ele>
        <time>2019-07-28T08:23:55Z</time>
      </trkpt>
      <trkpt lat="43.03409" lon="0.8208">
        <ele>463.49</ele>
        <time>2019-07-28T08:23:56Z</time>
      </trkpt>
      <trkpt lat="43.03411" lon="0.82085">
        <ele>464.93</ele>
        <time>2019-07-28T08:23:58Z</time>
      </trkpt>
      <trkpt lat="43.03415" lon="0.82147">
        <ele>465.9</ele>
        <time>2019-07-28T08:24:17Z</time>
      </trkpt>
      <trkpt lat="43.03423" lon="0.82165">
        <ele>465.9</ele>
        <time>2019-07-28T08:24:25Z</time>
      </trkpt>
      <trkpt lat="43.03424" lon="0.82165">
        <ele>465.9</ele>
        <time>2019-07-28T08:24:26Z</time>
      </trkpt>
      <trkpt lat="43.03426" lon="0.82165">
        <ele>465.9</ele>
        <time>2019-07-28T08:24:27Z</time>
      </trkpt>
      <trkpt lat="43.03427" lon="0.82164">
        <ele>465.9</ele>
        <time>2019-07-28T08:24:28Z</time>
      </trkpt>
      <trkpt lat="43.03429" lon="0.82163">
        <ele>465.9</ele>
        <time>2019-07-28T08:24:29Z</time>
      </trkpt>
      <trkpt lat="43.03428" lon="0.82161">
        <ele>466.38</ele>
        <time>2019-07-28T08:24:40Z</time>
      </trkpt>
      <trkpt lat="43.03427" lon="0.82161">
        <ele>466.38</ele>
        <time>2019-07-28T08:24:42Z</time>
      </trkpt>
      <trkpt lat="43.03425" lon="0.82162">
        <ele>466.38</ele>
        <time>2019-07-28T08:24:43Z</time>
      </trkpt>
      <trkpt lat="43.03418" lon="0.82167">
        <ele>466.38</ele>
        <time>2019-07-28T08:24:46Z</time>
      </trkpt>
      <trkpt lat="43.03417" lon="0.8217">
        <ele>464.93</ele>
        <time>2019-07-28T08:24:47Z</time>
      </trkpt>
      <trkpt lat="43.03415" lon="0.82175">
        <ele>464.45</ele>
        <time>2019-07-28T08:24:48Z</time>
      </trkpt>
      <trkpt lat="43.03415" lon="0.82179">
        <ele>463.97</ele>
        <time>2019-07-28T08:24:49Z</time>
      </trkpt>
      <trkpt lat="43.03415" lon="0.82183">
        <ele>463.49</ele>
        <time>2019-07-28T08:24:50Z</time>
      </trkpt>
      <trkpt lat="43.03416" lon="0.82187">
        <ele>463.01</ele>
        <time>2019-07-28T08:24:51Z</time>
      </trkpt>
      <trkpt lat="43.03416" lon="0.8219">
        <ele>463.01</ele>
        <time>2019-07-28T08:24:52Z</time>
      </trkpt>
      <trkpt lat="43.03417" lon="0.82192">
        <ele>462.53</ele>
        <time>2019-07-28T08:24:53Z</time>
      </trkpt>
      <trkpt lat="43.03423" lon="0.82199">
        <ele>462.05</ele>
        <time>2019-07-28T08:25:02Z</time>
      </trkpt>
      <trkpt lat="43.03425" lon="0.82199">
        <ele>462.05</ele>
        <time>2019-07-28T08:25:03Z</time>
      </trkpt>
      <trkpt lat="43.03439" lon="0.82201">
        <ele>461.57</ele>
        <time>2019-07-28T08:25:07Z</time>
      </trkpt>
      <trkpt lat="43.03453" lon="0.82207">
        <ele>461.57</ele>
        <time>2019-07-28T08:25:10Z</time>
      </trkpt>
      <trkpt lat="43.03457" lon="0.82211">
        <ele>461.57</ele>
        <time>2019-07-28T08:25:11Z</time>
      </trkpt>
      <trkpt lat="43.0346" lon="0.82216">
        <ele>461.57</ele>
        <time>2019-07-28T08:25:12Z</time>
      </trkpt>
      <trkpt lat="43.03464" lon="0.82221">
        <ele>461.57</ele>
        <time>2019-07-28T08:25:13Z</time>
      </trkpt>
      <trkpt lat="43.03467" lon="0.82227">
        <ele>461.57</ele>
        <time>2019-07-28T08:25:14Z</time>
      </trkpt>
      <trkpt lat="43.0347" lon="0.82234">
        <ele>461.57</ele>
        <time>2019-07-28T08:25:15Z</time>
      </trkpt>
      <trkpt lat="43.03508" lon="0.82359">
        <ele>461.09</ele>
        <time>2019-07-28T08:25:33Z</time>
      </trkpt>
      <trkpt lat="43.0353" lon="0.82438">
        <ele>462.53</ele>
        <time>2019-07-28T08:25:46Z</time>
      </trkpt>
      <trkpt lat="43.03542" lon="0.82498">
        <ele>465.42</ele>
        <time>2019-07-28T08:26:01Z</time>
      </trkpt>
      <trkpt lat="43.03539" lon="0.82538">
        <ele>469.26</ele>
        <time>2019-07-28T08:26:14Z</time>
      </trkpt>
      <trkpt lat="43.03529" lon="0.82584">
        <ele>472.14</ele>
        <time>2019-07-28T08:26:29Z</time>
      </trkpt>
      <trkpt lat="43.03518" lon="0.82642">
        <ele>475.03</ele>
        <time>2019-07-28T08:26:47Z</time>
      </trkpt>
      <trkpt lat="43.03503" lon="0.82703">
        <ele>477.91</ele>
        <time>2019-07-28T08:27:06Z</time>
      </trkpt>
      <trkpt lat="43.03489" lon="0.82746">
        <ele>481.28</ele>
        <time>2019-07-28T08:27:21Z</time>
      </trkpt>
      <trkpt lat="43.03476" lon="0.82789">
        <ele>484.64</ele>
        <time>2019-07-28T08:27:37Z</time>
      </trkpt>
      <trkpt lat="43.03467" lon="0.82833">
        <ele>488.01</ele>
        <time>2019-07-28T08:27:53Z</time>
      </trkpt>
      <trkpt lat="43.03464" lon="0.82843">
        <ele>488.97</ele>
        <time>2019-07-28T08:27:57Z</time>
      </trkpt>
      <trkpt lat="43.03463" lon="0.82845">
        <ele>488.97</ele>
        <time>2019-07-28T08:27:58Z</time>
      </trkpt>
      <trkpt lat="43.03445" lon="0.82855">
        <ele>490.89</ele>
        <time>2019-07-28T08:28:12Z</time>
      </trkpt>
      <trkpt lat="43.03429" lon="0.82872">
        <ele>493.77</ele>
        <time>2019-07-28T08:28:29Z</time>
      </trkpt>
      <trkpt lat="43.03422" lon="0.82878">
        <ele>495.7</ele>
        <time>2019-07-28T08:28:36Z</time>
      </trkpt>
      <trkpt lat="43.03421" lon="0.82878">
        <ele>496.18</ele>
        <time>2019-07-28T08:28:37Z</time>
      </trkpt>
      <trkpt lat="43.03419" lon="0.82879">
        <ele>496.18</ele>
        <time>2019-07-28T08:28:40Z</time>
      </trkpt>
      <trkpt lat="43.03418" lon="0.8288">
        <ele>496.66</ele>
        <time>2019-07-28T08:28:41Z</time>
      </trkpt>
      <trkpt lat="43.03417" lon="0.8288">
        <ele>496.66</ele>
        <time>2019-07-28T08:28:42Z</time>
      </trkpt>
      <trkpt lat="43.03408" lon="0.82888">
        <ele>499.06</ele>
        <time>2019-07-28T08:28:51Z</time>
      </trkpt>
      <trkpt lat="43.03407" lon="0.82888">
        <ele>499.06</ele>
        <time>2019-07-28T08:28:52Z</time>
      </trkpt>
      <trkpt lat="43.03392" lon="0.82896">
        <ele>502.43</ele>
        <time>2019-07-28T08:29:05Z</time>
      </trkpt>
      <trkpt lat="43.03375" lon="0.8291">
        <ele>505.31</ele>
        <time>2019-07-28T08:29:22Z</time>
      </trkpt>
      <trkpt lat="43.03357" lon="0.82923">
        <ele>507.23</ele>
        <time>2019-07-28T08:29:39Z</time>
      </trkpt>
      <trkpt lat="43.03335" lon="0.82941">
        <ele>509.64</ele>
        <time>2019-07-28T08:29:59Z</time>
      </trkpt>
      <trkpt lat="43.03319" lon="0.82959">
        <ele>512.04</ele>
        <time>2019-07-28T08:30:16Z</time>
      </trkpt>
      <trkpt lat="43.03297" lon="0.82992">
        <ele>514.44</ele>
        <time>2019-07-28T08:30:36Z</time>
      </trkpt>
      <trkpt lat="43.03274" lon="0.83034">
        <ele>515.88</ele>
        <time>2019-07-28T08:30:59Z</time>
      </trkpt>
      <trkpt lat="43.03255" lon="0.83071">
        <ele>517.33</ele>
        <time>2019-07-28T08:31:17Z</time>
      </trkpt>
      <trkpt lat="43.03243" lon="0.83088">
        <ele>517.81</ele>
        <time>2019-07-28T08:31:26Z</time>
      </trkpt>
      <trkpt lat="43.03242" lon="0.83089">
        <ele>517.81</ele>
        <time>2019-07-28T08:31:27Z</time>
      </trkpt>
      <trkpt lat="43.03241" lon="0.83091">
        <ele>517.81</ele>
        <time>2019-07-28T08:31:28Z</time>
      </trkpt>
      <trkpt lat="43.03216" lon="0.83122">
        <ele>518.77</ele>
        <time>2019-07-28T08:31:43Z</time>
      </trkpt>
      <trkpt lat="43.032" lon="0.83143">
        <ele>518.29</ele>
        <time>2019-07-28T08:31:57Z</time>
      </trkpt>
      <trkpt lat="43.03202" lon="0.83143">
        <ele>518.29</ele>
        <time>2019-07-28T08:32:15Z</time>
      </trkpt>
      <trkpt lat="43.03201" lon="0.83144">
        <ele>518.29</ele>
        <time>2019-07-28T08:32:56Z</time>
      </trkpt>
      <trkpt lat="43.03201" lon="0.83143">
        <ele>518.29</ele>
        <time>2019-07-28T08:33:47Z</time>
      </trkpt>
      <trkpt lat="43.03201" lon="0.83143">
        <ele>518.29</ele>
        <time>2019-07-28T08:34:16Z</time>
      </trkpt>
      <trkpt lat="43.03189" lon="0.83159">
        <ele>518.29</ele>
        <time>2019-07-28T08:34:30Z</time>
      </trkpt>
      <trkpt lat="43.0315" lon="0.83207">
        <ele>518.29</ele>
        <time>2019-07-28T08:34:44Z</time>
      </trkpt>
      <trkpt lat="43.03104" lon="0.8326">
        <ele>518.29</ele>
        <time>2019-07-28T08:34:58Z</time>
      </trkpt>
      <trkpt lat="43.03101" lon="0.83264">
        <ele>518.29</ele>
        <time>2019-07-28T08:34:59Z</time>
      </trkpt>
      <trkpt lat="43.03097" lon="0.83267">
        <ele>518.29</ele>
        <time>2019-07-28T08:35:00Z</time>
      </trkpt>
      <trkpt lat="43.03094" lon="0.8327">
        <ele>518.29</ele>
        <time>2019-07-28T08:35:01Z</time>
      </trkpt>
      <trkpt lat="43.0309" lon="0.83272">
        <ele>518.29</ele>
        <time>2019-07-28T08:35:02Z</time>
      </trkpt>
      <trkpt lat="43.03038" lon="0.83315">
        <ele>518.29</ele>
        <time>2019-07-28T08:35:16Z</time>
      </trkpt>
      <trkpt lat="43.0295" lon="0.83372">
        <ele>519.25</ele>
        <time>2019-07-28T08:35:35Z</time>
      </trkpt>
      <trkpt lat="43.02886" lon="0.83394">
        <ele>521.17</ele>
        <time>2019-07-28T08:35:49Z</time>
      </trkpt>
      <trkpt lat="43.02837" lon="0.83411">
        <ele>523.09</ele>
        <time>2019-07-28T08:36:05Z</time>
      </trkpt>
      <trkpt lat="43.02797" lon="0.83424">
        <ele>525.98</ele>
        <time>2019-07-28T08:36:22Z</time>
      </trkpt>
      <trkpt lat="43.02753" lon="0.83437">
        <ele>528.86</ele>
        <time>2019-07-28T08:36:40Z</time>
      </trkpt>
      <trkpt lat="43.02709" lon="0.8345">
        <ele>532.23</ele>
        <time>2019-07-28T08:36:58Z</time>
      </trkpt>
      <trkpt lat="43.02665" lon="0.8348">
        <ele>531.75</ele>
        <time>2019-07-28T08:37:13Z</time>
      </trkpt>
      <trkpt lat="43.02633" lon="0.83505">
        <ele>528.38</ele>
        <time>2019-07-28T08:37:19Z</time>
      </trkpt>
      <trkpt lat="43.02622" lon="0.83516">
        <ele>527.9</ele>
        <time>2019-07-28T08:37:21Z</time>
      </trkpt>
      <trkpt lat="43.02617" lon="0.83523">
        <ele>527.42</ele>
        <time>2019-07-28T08:37:22Z</time>
      </trkpt>
      <trkpt lat="43.02608" lon="0.83538">
        <ele>524.54</ele>
        <time>2019-07-28T08:37:24Z</time>
      </trkpt>
      <trkpt lat="43.02605" lon="0.83547">
        <ele>524.06</ele>
        <time>2019-07-28T08:37:25Z</time>
      </trkpt>
      <trkpt lat="43.02602" lon="0.83554">
        <ele>524.06</ele>
        <time>2019-07-28T08:37:26Z</time>
      </trkpt>
      <trkpt lat="43.02595" lon="0.83568">
        <ele>522.61</ele>
        <time>2019-07-28T08:37:28Z</time>
      </trkpt>
      <trkpt lat="43.02591" lon="0.83573">
        <ele>521.65</ele>
        <time>2019-07-28T08:37:29Z</time>
      </trkpt>
      <trkpt lat="43.02585" lon="0.83577">
        <ele>521.65</ele>
        <time>2019-07-28T08:37:30Z</time>
      </trkpt>
      <trkpt lat="43.02579" lon="0.83579">
        <ele>521.65</ele>
        <time>2019-07-28T08:37:31Z</time>
      </trkpt>
      <trkpt lat="43.02573" lon="0.83582">
        <ele>521.65</ele>
        <time>2019-07-28T08:37:32Z</time>
      </trkpt>
      <trkpt lat="43.02514" lon="0.83609">
        <ele>519.73</ele>
        <time>2019-07-28T08:37:43Z</time>
      </trkpt>
      <trkpt lat="43.02459" lon="0.8363">
        <ele>522.61</ele>
        <time>2019-07-28T08:37:58Z</time>
      </trkpt>
      <trkpt lat="43.02423" lon="0.83629">
        <ele>525.98</ele>
        <time>2019-07-28T08:38:13Z</time>
      </trkpt>
      <trkpt lat="43.02401" lon="0.83629">
        <ele>529.34</ele>
        <time>2019-07-28T08:38:25Z</time>
      </trkpt>
      <trkpt lat="43.02366" lon="0.83625">
        <ele>532.23</ele>
        <time>2019-07-28T08:38:42Z</time>
      </trkpt>
      <trkpt lat="43.02312" lon="0.83632">
        <ele>533.67</ele>
        <time>2019-07-28T08:39:02Z</time>
      </trkpt>
      <trkpt lat="43.02266" lon="0.83652">
        <ele>536.55</ele>
        <time>2019-07-28T08:39:20Z</time>
      </trkpt>
      <trkpt lat="43.02238" lon="0.83658">
        <ele>539.44</ele>
        <time>2019-07-28T08:39:36Z</time>
      </trkpt>
      <trkpt lat="43.02212" lon="0.83655">
        <ele>542.8</ele>
        <time>2019-07-28T08:39:53Z</time>
      </trkpt>
      <trkpt lat="43.02188" lon="0.83657">
        <ele>546.17</ele>
        <time>2019-07-28T08:40:09Z</time>
      </trkpt>
      <trkpt lat="43.02164" lon="0.83669">
        <ele>548.57</ele>
        <time>2019-07-28T08:40:24Z</time>
      </trkpt>
      <trkpt lat="43.02134" lon="0.83683">
        <ele>550.01</ele>
        <time>2019-07-28T08:40:39Z</time>
      </trkpt>
      <trkpt lat="43.02081" lon="0.83704">
        <ele>552.9</ele>
        <time>2019-07-28T08:41:00Z</time>
      </trkpt>
      <trkpt lat="43.02034" lon="0.83726">
        <ele>555.78</ele>
        <time>2019-07-28T08:41:20Z</time>
      </trkpt>
      <trkpt lat="43.01991" lon="0.83752">
        <ele>559.14</ele>
        <time>2019-07-28T08:41:40Z</time>
      </trkpt>
      <trkpt lat="43.01962" lon="0.83799">
        <ele>560.59</ele>
        <time>2019-07-28T08:41:58Z</time>
      </trkpt>
      <trkpt lat="43.01962" lon="0.83834">
        <ele>559.14</ele>
        <time>2019-07-28T08:42:05Z</time>
      </trkpt>
      <trkpt lat="43.01975" lon="0.83908">
        <ele>558.66</ele>
        <time>2019-07-28T08:42:18Z</time>
      </trkpt>
      <trkpt lat="43.01977" lon="0.83922">
        <ele>558.66</ele>
        <time>2019-07-28T08:42:20Z</time>
      </trkpt>
      <trkpt lat="43.01977" lon="0.83929">
        <ele>558.66</ele>
        <time>2019-07-28T08:42:21Z</time>
      </trkpt>
      <trkpt lat="43.01979" lon="0.84012">
        <ele>558.66</ele>
        <time>2019-07-28T08:42:33Z</time>
      </trkpt>
      <trkpt lat="43.01981" lon="0.84054">
        <ele>558.66</ele>
        <time>2019-07-28T08:42:39Z</time>
      </trkpt>
      <trkpt lat="43.01986" lon="0.84087">
        <ele>559.62</ele>
        <time>2019-07-28T08:42:44Z</time>
      </trkpt>
      <trkpt lat="43.01991" lon="0.84115">
        <ele>559.62</ele>
        <time>2019-07-28T08:42:48Z</time>
      </trkpt>
      <trkpt lat="43.01993" lon="0.84122">
        <ele>559.62</ele>
        <time>2019-07-28T08:42:49Z</time>
      </trkpt>
      <trkpt lat="43.0201" lon="0.84165">
        <ele>560.11</ele>
        <time>2019-07-28T08:42:56Z</time>
      </trkpt>
      <trkpt lat="43.02011" lon="0.84171">
        <ele>560.11</ele>
        <time>2019-07-28T08:42:57Z</time>
      </trkpt>
      <trkpt lat="43.02012" lon="0.84178">
        <ele>560.59</ele>
        <time>2019-07-28T08:42:58Z</time>
      </trkpt>
      <trkpt lat="43.02012" lon="0.84184">
        <ele>560.59</ele>
        <time>2019-07-28T08:42:59Z</time>
      </trkpt>
      <trkpt lat="43.02012" lon="0.8419">
        <ele>561.55</ele>
        <time>2019-07-28T08:43:00Z</time>
      </trkpt>
      <trkpt lat="43.02013" lon="0.84215">
        <ele>561.55</ele>
        <time>2019-07-28T08:43:04Z</time>
      </trkpt>
      <trkpt lat="43.02021" lon="0.84261">
        <ele>560.11</ele>
        <time>2019-07-28T08:43:10Z</time>
      </trkpt>
      <trkpt lat="43.02025" lon="0.84286">
        <ele>559.14</ele>
        <time>2019-07-28T08:43:13Z</time>
      </trkpt>
      <trkpt lat="43.02028" lon="0.84375">
        <ele>557.7</ele>
        <time>2019-07-28T08:43:23Z</time>
      </trkpt>
      <trkpt lat="43.02021" lon="0.84453">
        <ele>559.14</ele>
        <time>2019-07-28T08:43:33Z</time>
      </trkpt>
      <trkpt lat="43.02021" lon="0.8446">
        <ele>559.14</ele>
        <time>2019-07-28T08:43:34Z</time>
      </trkpt>
      <trkpt lat="43.02021" lon="0.84468">
        <ele>559.14</ele>
        <time>2019-07-28T08:43:35Z</time>
      </trkpt>
      <trkpt lat="43.02029" lon="0.84541">
        <ele>557.22</ele>
        <time>2019-07-28T08:43:44Z</time>
      </trkpt>
      <trkpt lat="43.02032" lon="0.84547">
        <ele>556.74</ele>
        <time>2019-07-28T08:43:45Z</time>
      </trkpt>
      <trkpt lat="43.02036" lon="0.84553">
        <ele>556.74</ele>
        <time>2019-07-28T08:43:46Z</time>
      </trkpt>
      <trkpt lat="43.02041" lon="0.84558">
        <ele>556.74</ele>
        <time>2019-07-28T08:43:47Z</time>
      </trkpt>
      <trkpt lat="43.02047" lon="0.84562">
        <ele>556.74</ele>
        <time>2019-07-28T08:43:48Z</time>
      </trkpt>
      <trkpt lat="43.02053" lon="0.84566">
        <ele>556.74</ele>
        <time>2019-07-28T08:43:49Z</time>
      </trkpt>
      <trkpt lat="43.02058" lon="0.84569">
        <ele>556.74</ele>
        <time>2019-07-28T08:43:50Z</time>
      </trkpt>
      <trkpt lat="43.02064" lon="0.84571">
        <ele>556.74</ele>
        <time>2019-07-28T08:43:51Z</time>
      </trkpt>
      <trkpt lat="43.02102" lon="0.84586">
        <ele>554.82</ele>
        <time>2019-07-28T08:44:02Z</time>
      </trkpt>
      <trkpt lat="43.02102" lon="0.84589">
        <ele>554.82</ele>
        <time>2019-07-28T08:44:03Z</time>
      </trkpt>
      <trkpt lat="43.02102" lon="0.84591">
        <ele>554.82</ele>
        <time>2019-07-28T08:44:04Z</time>
      </trkpt>
      <trkpt lat="43.02101" lon="0.84593">
        <ele>554.82</ele>
        <time>2019-07-28T08:44:05Z</time>
      </trkpt>
      <trkpt lat="43.021" lon="0.84594">
        <ele>554.82</ele>
        <time>2019-07-28T08:44:06Z</time>
      </trkpt>
      <trkpt lat="43.02098" lon="0.84596">
        <ele>554.82</ele>
        <time>2019-07-28T08:44:07Z</time>
      </trkpt>
      <trkpt lat="43.02097" lon="0.84598">
        <ele>554.82</ele>
        <time>2019-07-28T08:44:08Z</time>
      </trkpt>
      <trkpt lat="43.02095" lon="0.846">
        <ele>554.82</ele>
        <time>2019-07-28T08:44:09Z</time>
      </trkpt>
      <trkpt lat="43.02086" lon="0.8461">
        <ele>556.26</ele>
        <time>2019-07-28T08:44:14Z</time>
      </trkpt>
      <trkpt lat="43.02066" lon="0.84635">
        <ele>559.14</ele>
        <time>2019-07-28T08:44:28Z</time>
      </trkpt>
      <trkpt lat="43.02049" lon="0.84654">
        <ele>561.55</ele>
        <time>2019-07-28T08:44:40Z</time>
      </trkpt>
      <trkpt lat="43.02034" lon="0.84676">
        <ele>564.91</ele>
        <time>2019-07-28T08:44:53Z</time>
      </trkpt>
      <trkpt lat="43.02016" lon="0.84707">
        <ele>567.8</ele>
        <time>2019-07-28T08:45:11Z</time>
      </trkpt>
      <trkpt lat="43.01998" lon="0.84735">
        <ele>571.16</ele>
        <time>2019-07-28T08:45:29Z</time>
      </trkpt>
      <trkpt lat="43.01983" lon="0.84754">
        <ele>573.56</ele>
        <time>2019-07-28T08:45:43Z</time>
      </trkpt>
      <trkpt lat="43.01974" lon="0.84762">
        <ele>575.49</ele>
        <time>2019-07-28T08:45:51Z</time>
      </trkpt>
      <trkpt lat="43.01973" lon="0.84763">
        <ele>575.49</ele>
        <time>2019-07-28T08:45:52Z</time>
      </trkpt>
      <trkpt lat="43.01972" lon="0.84764">
        <ele>575.49</ele>
        <time>2019-07-28T08:45:53Z</time>
      </trkpt>
      <trkpt lat="43.01971" lon="0.84765">
        <ele>575.97</ele>
        <time>2019-07-28T08:45:54Z</time>
      </trkpt>
      <trkpt lat="43.01969" lon="0.84766">
        <ele>575.97</ele>
        <time>2019-07-28T08:45:55Z</time>
      </trkpt>
      <trkpt lat="43.01968" lon="0.84768">
        <ele>575.97</ele>
        <time>2019-07-28T08:45:56Z</time>
      </trkpt>
      <trkpt lat="43.01967" lon="0.84769">
        <ele>575.97</ele>
        <time>2019-07-28T08:45:57Z</time>
      </trkpt>
      <trkpt lat="43.01965" lon="0.8477">
        <ele>576.45</ele>
        <time>2019-07-28T08:45:58Z</time>
      </trkpt>
      <trkpt lat="43.01963" lon="0.84771">
        <ele>576.45</ele>
        <time>2019-07-28T08:45:59Z</time>
      </trkpt>
      <trkpt lat="43.01961" lon="0.84772">
        <ele>576.45</ele>
        <time>2019-07-28T08:46:00Z</time>
      </trkpt>
      <trkpt lat="43.01935" lon="0.84801">
        <ele>576.45</ele>
        <time>2019-07-28T08:46:12Z</time>
      </trkpt>
      <trkpt lat="43.01906" lon="0.84828">
        <ele>577.41</ele>
        <time>2019-07-28T08:46:24Z</time>
      </trkpt>
      <trkpt lat="43.01881" lon="0.84853">
        <ele>577.89</ele>
        <time>2019-07-28T08:46:36Z</time>
      </trkpt>
      <trkpt lat="43.01837" lon="0.84883">
        <ele>576.93</ele>
        <time>2019-07-28T08:46:48Z</time>
      </trkpt>
      <trkpt lat="43.01832" lon="0.84887">
        <ele>576.93</ele>
        <time>2019-07-28T08:46:49Z</time>
      </trkpt>
      <trkpt lat="43.01828" lon="0.8489">
        <ele>576.93</ele>
        <time>2019-07-28T08:46:50Z</time>
      </trkpt>
      <trkpt lat="43.01823" lon="0.84893">
        <ele>576.45</ele>
        <time>2019-07-28T08:46:51Z</time>
      </trkpt>
      <trkpt lat="43.01819" lon="0.84896">
        <ele>576.45</ele>
        <time>2019-07-28T08:46:52Z</time>
      </trkpt>
      <trkpt lat="43.01815" lon="0.849">
        <ele>576.93</ele>
        <time>2019-07-28T08:46:53Z</time>
      </trkpt>
      <trkpt lat="43.01811" lon="0.84904">
        <ele>576.93</ele>
        <time>2019-07-28T08:46:54Z</time>
      </trkpt>
      <trkpt lat="43.0178" lon="0.84924">
        <ele>575.49</ele>
        <time>2019-07-28T08:47:03Z</time>
      </trkpt>
      <trkpt lat="43.01775" lon="0.84926">
        <ele>575.49</ele>
        <time>2019-07-28T08:47:04Z</time>
      </trkpt>
      <trkpt lat="43.01738" lon="0.84951">
        <ele>574.53</ele>
        <time>2019-07-28T08:47:13Z</time>
      </trkpt>
      <trkpt lat="43.01692" lon="0.84971">
        <ele>573.08</ele>
        <time>2019-07-28T08:47:22Z</time>
      </trkpt>
      <trkpt lat="43.01671" lon="0.84976">
        <ele>573.08</ele>
        <time>2019-07-28T08:47:27Z</time>
      </trkpt>
      <trkpt lat="43.01666" lon="0.84975">
        <ele>572.6</ele>
        <time>2019-07-28T08:47:28Z</time>
      </trkpt>
      <trkpt lat="43.01647" lon="0.84974">
        <ele>571.16</ele>
        <time>2019-07-28T08:47:32Z</time>
      </trkpt>
      <trkpt lat="43.01644" lon="0.84976">
        <ele>571.16</ele>
        <time>2019-07-28T08:47:33Z</time>
      </trkpt>
      <trkpt lat="43.01641" lon="0.8498">
        <ele>571.16</ele>
        <time>2019-07-28T08:47:34Z</time>
      </trkpt>
      <trkpt lat="43.01638" lon="0.84983">
        <ele>571.16</ele>
        <time>2019-07-28T08:47:35Z</time>
      </trkpt>
      <trkpt lat="43.01636" lon="0.84985">
        <ele>571.16</ele>
        <time>2019-07-28T08:47:36Z</time>
      </trkpt>
      <trkpt lat="43.01635" lon="0.84986">
        <ele>571.16</ele>
        <time>2019-07-28T08:47:37Z</time>
      </trkpt>
      <trkpt lat="43.0163" lon="0.85009">
        <ele>574.04</ele>
        <time>2019-07-28T08:47:50Z</time>
      </trkpt>
      <trkpt lat="43.01633" lon="0.85023">
        <ele>575.49</ele>
        <time>2019-07-28T08:47:57Z</time>
      </trkpt>
      <trkpt lat="43.01634" lon="0.85025">
        <ele>575.49</ele>
        <time>2019-07-28T08:47:58Z</time>
      </trkpt>
      <trkpt lat="43.01635" lon="0.85031">
        <ele>576.45</ele>
        <time>2019-07-28T08:48:02Z</time>
      </trkpt>
      <trkpt lat="43.01635" lon="0.85033">
        <ele>576.93</ele>
        <time>2019-07-28T08:48:03Z</time>
      </trkpt>
      <trkpt lat="43.01634" lon="0.85041">
        <ele>578.37</ele>
        <time>2019-07-28T08:48:08Z</time>
      </trkpt>
      <trkpt lat="43.01633" lon="0.85042">
        <ele>578.37</ele>
        <time>2019-07-28T08:48:09Z</time>
      </trkpt>
      <trkpt lat="43.01632" lon="0.85044">
        <ele>578.85</ele>
        <time>2019-07-28T08:48:10Z</time>
      </trkpt>
      <trkpt lat="43.01631" lon="0.85045">
        <ele>578.85</ele>
        <time>2019-07-28T08:48:11Z</time>
      </trkpt>
      <trkpt lat="43.0163" lon="0.85046">
        <ele>579.33</ele>
        <time>2019-07-28T08:48:12Z</time>
      </trkpt>
      <trkpt lat="43.01624" lon="0.85044">
        <ele>580.29</ele>
        <time>2019-07-28T08:48:19Z</time>
      </trkpt>
      <trkpt lat="43.01621" lon="0.85039">
        <ele>581.73</ele>
        <time>2019-07-28T08:48:23Z</time>
      </trkpt>
      <trkpt lat="43.0162" lon="0.85038">
        <ele>581.73</ele>
        <time>2019-07-28T08:48:24Z</time>
      </trkpt>
      <trkpt lat="43.01619" lon="0.85037">
        <ele>582.22</ele>
        <time>2019-07-28T08:48:25Z</time>
      </trkpt>
      <trkpt lat="43.01607" lon="0.85027">
        <ele>585.1</ele>
        <time>2019-07-28T08:48:38Z</time>
      </trkpt>
      <trkpt lat="43.01587" lon="0.85023">
        <ele>587.98</ele>
        <time>2019-07-28T08:48:55Z</time>
      </trkpt>
      <trkpt lat="43.01575" lon="0.85023">
        <ele>589.91</ele>
        <time>2019-07-28T08:49:03Z</time>
      </trkpt>
      <trkpt lat="43.01574" lon="0.85023">
        <ele>589.91</ele>
        <time>2019-07-28T08:49:04Z</time>
      </trkpt>
      <trkpt lat="43.01573" lon="0.85023">
        <ele>589.91</ele>
        <time>2019-07-28T08:49:05Z</time>
      </trkpt>
      <trkpt lat="43.01554" lon="0.85028">
        <ele>593.27</ele>
        <time>2019-07-28T08:49:21Z</time>
      </trkpt>
      <trkpt lat="43.01535" lon="0.85034">
        <ele>596.64</ele>
        <time>2019-07-28T08:49:37Z</time>
      </trkpt>
      <trkpt lat="43.01521" lon="0.8505">
        <ele>599.52</ele>
        <time>2019-07-28T08:49:52Z</time>
      </trkpt>
      <trkpt lat="43.01509" lon="0.85066">
        <ele>602.4</ele>
        <time>2019-07-28T08:50:07Z</time>
      </trkpt>
      <trkpt lat="43.01501" lon="0.8507">
        <ele>604.33</ele>
        <time>2019-07-28T08:50:15Z</time>
      </trkpt>
      <trkpt lat="43.0149" lon="0.85073">
        <ele>605.29</ele>
        <time>2019-07-28T08:50:28Z</time>
      </trkpt>
      <trkpt lat="43.01475" lon="0.85077">
        <ele>605.77</ele>
        <time>2019-07-28T08:50:42Z</time>
      </trkpt>
      <trkpt lat="43.0144" lon="0.85084">
        <ele>606.73</ele>
        <time>2019-07-28T08:50:58Z</time>
      </trkpt>
      <trkpt lat="43.01414" lon="0.85098">
        <ele>607.69</ele>
        <time>2019-07-28T08:51:11Z</time>
      </trkpt>
      <trkpt lat="43.01375" lon="0.85097">
        <ele>607.69</ele>
        <time>2019-07-28T08:51:25Z</time>
      </trkpt>
      <trkpt lat="43.01358" lon="0.85092">
        <ele>609.13</ele>
        <time>2019-07-28T08:51:37Z</time>
      </trkpt>
      <trkpt lat="43.01342" lon="0.85087">
        <ele>612.5</ele>
        <time>2019-07-28T08:51:49Z</time>
      </trkpt>
      <trkpt lat="43.0134" lon="0.85087">
        <ele>612.98</ele>
        <time>2019-07-28T08:51:50Z</time>
      </trkpt>
      <trkpt lat="43.01339" lon="0.85087">
        <ele>612.98</ele>
        <time>2019-07-28T08:51:51Z</time>
      </trkpt>
      <trkpt lat="43.01318" lon="0.85081">
        <ele>613.46</ele>
        <time>2019-07-28T08:52:02Z</time>
      </trkpt>
      <trkpt lat="43.01316" lon="0.8508">
        <ele>613.46</ele>
        <time>2019-07-28T08:52:03Z</time>
      </trkpt>
      <trkpt lat="43.01315" lon="0.85079">
        <ele>613.46</ele>
        <time>2019-07-28T08:52:04Z</time>
      </trkpt>
      <trkpt lat="43.01314" lon="0.85075">
        <ele>613.46</ele>
        <time>2019-07-28T08:52:07Z</time>
      </trkpt>
      <trkpt lat="43.01315" lon="0.85065">
        <ele>614.9</ele>
        <time>2019-07-28T08:52:13Z</time>
      </trkpt>
      <trkpt lat="43.01316" lon="0.85063">
        <ele>614.9</ele>
        <time>2019-07-28T08:52:14Z</time>
      </trkpt>
      <trkpt lat="43.01317" lon="0.85062">
        <ele>614.9</ele>
        <time>2019-07-28T08:52:15Z</time>
      </trkpt>
      <trkpt lat="43.01317" lon="0.85061">
        <ele>615.86</ele>
        <time>2019-07-28T08:52:16Z</time>
      </trkpt>
      <trkpt lat="43.01319" lon="0.85061">
        <ele>615.86</ele>
        <time>2019-07-28T08:52:17Z</time>
      </trkpt>
      <trkpt lat="43.0132" lon="0.8506">
        <ele>616.34</ele>
        <time>2019-07-28T08:52:18Z</time>
      </trkpt>
      <trkpt lat="43.01342" lon="0.85055">
        <ele>618.26</ele>
        <time>2019-07-28T08:52:35Z</time>
      </trkpt>
      <trkpt lat="43.01363" lon="0.85052">
        <ele>621.15</ele>
        <time>2019-07-28T08:52:50Z</time>
      </trkpt>
      <trkpt lat="43.0138" lon="0.85039">
        <ele>622.11</ele>
        <time>2019-07-28T08:53:05Z</time>
      </trkpt>
      <trkpt lat="43.01391" lon="0.85021">
        <ele>624.99</ele>
        <time>2019-07-28T08:53:19Z</time>
      </trkpt>
      <trkpt lat="43.01396" lon="0.85001">
        <ele>627.88</ele>
        <time>2019-07-28T08:53:35Z</time>
      </trkpt>
      <trkpt lat="43.014" lon="0.8498">
        <ele>629.8</ele>
        <time>2019-07-28T08:53:49Z</time>
      </trkpt>
      <trkpt lat="43.01402" lon="0.84953">
        <ele>633.17</ele>
        <time>2019-07-28T08:54:06Z</time>
      </trkpt>
      <trkpt lat="43.01398" lon="0.84931">
        <ele>635.09</ele>
        <time>2019-07-28T08:54:20Z</time>
      </trkpt>
      <trkpt lat="43.01391" lon="0.84909">
        <ele>637.01</ele>
        <time>2019-07-28T08:54:36Z</time>
      </trkpt>
      <trkpt lat="43.01384" lon="0.8489">
        <ele>639.41</ele>
        <time>2019-07-28T08:54:54Z</time>
      </trkpt>
      <trkpt lat="43.01379" lon="0.84877">
        <ele>640.86</ele>
        <time>2019-07-28T08:55:06Z</time>
      </trkpt>
      <trkpt lat="43.01364" lon="0.84857">
        <ele>643.26</ele>
        <time>2019-07-28T08:55:20Z</time>
      </trkpt>
      <trkpt lat="43.01359" lon="0.84841">
        <ele>644.22</ele>
        <time>2019-07-28T08:55:32Z</time>
      </trkpt>
      <trkpt lat="43.01359" lon="0.84839">
        <ele>644.22</ele>
        <time>2019-07-28T08:55:33Z</time>
      </trkpt>
      <trkpt lat="43.01356" lon="0.84821">
        <ele>645.18</ele>
        <time>2019-07-28T08:55:44Z</time>
      </trkpt>
      <trkpt lat="43.01352" lon="0.84795">
        <ele>646.14</ele>
        <time>2019-07-28T08:55:57Z</time>
      </trkpt>
      <trkpt lat="43.01352" lon="0.84793">
        <ele>646.14</ele>
        <time>2019-07-28T08:55:58Z</time>
      </trkpt>
      <trkpt lat="43.01352" lon="0.84791">
        <ele>646.62</ele>
        <time>2019-07-28T08:55:59Z</time>
      </trkpt>
      <trkpt lat="43.01351" lon="0.84789">
        <ele>646.62</ele>
        <time>2019-07-28T08:56:00Z</time>
      </trkpt>
      <trkpt lat="43.0135" lon="0.84786">
        <ele>646.62</ele>
        <time>2019-07-28T08:56:01Z</time>
      </trkpt>
      <trkpt lat="43.01343" lon="0.84752">
        <ele>647.1</ele>
        <time>2019-07-28T08:56:16Z</time>
      </trkpt>
      <trkpt lat="43.01337" lon="0.8473">
        <ele>647.59</ele>
        <time>2019-07-28T08:56:28Z</time>
      </trkpt>
      <trkpt lat="43.01336" lon="0.84724">
        <ele>647.59</ele>
        <time>2019-07-28T08:56:50Z</time>
      </trkpt>
      <trkpt lat="43.01334" lon="0.84721">
        <ele>647.59</ele>
        <time>2019-07-28T08:56:54Z</time>
      </trkpt>
      <trkpt lat="43.01346" lon="0.84697">
        <ele>648.55</ele>
        <time>2019-07-28T08:57:08Z</time>
      </trkpt>
      <trkpt lat="43.01353" lon="0.84685">
        <ele>649.03</ele>
        <time>2019-07-28T08:57:20Z</time>
      </trkpt>
      <trkpt lat="43.01359" lon="0.84675">
        <ele>649.99</ele>
        <time>2019-07-28T08:57:28Z</time>
      </trkpt>
      <trkpt lat="43.01359" lon="0.84674">
        <ele>649.99</ele>
        <time>2019-07-28T08:57:29Z</time>
      </trkpt>
      <trkpt lat="43.0136" lon="0.84672">
        <ele>650.47</ele>
        <time>2019-07-28T08:57:31Z</time>
      </trkpt>
      <trkpt lat="43.01365" lon="0.84661">
        <ele>652.87</ele>
        <time>2019-07-28T08:57:40Z</time>
      </trkpt>
      <trkpt lat="43.01364" lon="0.8466">
        <ele>652.87</ele>
        <time>2019-07-28T08:57:41Z</time>
      </trkpt>
      <trkpt lat="43.01363" lon="0.84659">
        <ele>652.87</ele>
        <time>2019-07-28T08:57:42Z</time>
      </trkpt>
      <trkpt lat="43.01362" lon="0.8466">
        <ele>653.35</ele>
        <time>2019-07-28T08:57:43Z</time>
      </trkpt>
      <trkpt lat="43.01345" lon="0.84679">
        <ele>656.24</ele>
        <time>2019-07-28T08:57:59Z</time>
      </trkpt>
      <trkpt lat="43.01328" lon="0.84701">
        <ele>657.68</ele>
        <time>2019-07-28T08:58:15Z</time>
      </trkpt>
      <trkpt lat="43.01316" lon="0.84711">
        <ele>659.12</ele>
        <time>2019-07-28T08:58:26Z</time>
      </trkpt>
      <trkpt lat="43.01308" lon="0.84714">
        <ele>659.6</ele>
        <time>2019-07-28T08:58:31Z</time>
      </trkpt>
      <trkpt lat="43.01283" lon="0.84732">
        <ele>662.01</ele>
        <time>2019-07-28T08:58:45Z</time>
      </trkpt>
      <trkpt lat="43.01287" lon="0.84765">
        <ele>664.41</ele>
        <time>2019-07-28T08:59:01Z</time>
      </trkpt>
      <trkpt lat="43.01291" lon="0.84815">
        <ele>666.33</ele>
        <time>2019-07-28T08:59:20Z</time>
      </trkpt>
      <trkpt lat="43.01288" lon="0.84868">
        <ele>664.41</ele>
        <time>2019-07-28T08:59:32Z</time>
      </trkpt>
      <trkpt lat="43.0128" lon="0.84907">
        <ele>661.52</ele>
        <time>2019-07-28T08:59:40Z</time>
      </trkpt>
      <trkpt lat="43.01279" lon="0.84913">
        <ele>661.52</ele>
        <time>2019-07-28T08:59:41Z</time>
      </trkpt>
      <trkpt lat="43.01268" lon="0.84952">
        <ele>658.16</ele>
        <time>2019-07-28T08:59:49Z</time>
      </trkpt>
      <trkpt lat="43.01259" lon="0.84968">
        <ele>654.8</ele>
        <time>2019-07-28T08:59:54Z</time>
      </trkpt>
      <trkpt lat="43.01254" lon="0.84972">
        <ele>653.83</ele>
        <time>2019-07-28T09:00:05Z</time>
      </trkpt>
      <trkpt lat="43.01252" lon="0.84974">
        <ele>653.35</ele>
        <time>2019-07-28T09:00:29Z</time>
      </trkpt>
      <trkpt lat="43.01251" lon="0.84974">
        <ele>653.35</ele>
        <time>2019-07-28T09:00:32Z</time>
      </trkpt>
      <trkpt lat="43.01249" lon="0.84974">
        <ele>653.35</ele>
        <time>2019-07-28T09:00:33Z</time>
      </trkpt>
      <trkpt lat="43.01247" lon="0.84975">
        <ele>652.87</ele>
        <time>2019-07-28T09:00:34Z</time>
      </trkpt>
      <trkpt lat="43.01245" lon="0.84977">
        <ele>652.39</ele>
        <time>2019-07-28T09:00:35Z</time>
      </trkpt>
      <trkpt lat="43.01243" lon="0.84978">
        <ele>651.91</ele>
        <time>2019-07-28T09:00:36Z</time>
      </trkpt>
      <trkpt lat="43.0124" lon="0.8498">
        <ele>651.43</ele>
        <time>2019-07-28T09:00:37Z</time>
      </trkpt>
      <trkpt lat="43.01236" lon="0.84983">
        <ele>651.43</ele>
        <time>2019-07-28T09:00:38Z</time>
      </trkpt>
      <trkpt lat="43.01233" lon="0.84984">
        <ele>649.99</ele>
        <time>2019-07-28T09:00:39Z</time>
      </trkpt>
      <trkpt lat="43.01221" lon="0.84991">
        <ele>646.14</ele>
        <time>2019-07-28T09:00:43Z</time>
      </trkpt>
      <trkpt lat="43.0121" lon="0.85005">
        <ele>643.26</ele>
        <time>2019-07-28T09:00:47Z</time>
      </trkpt>
      <trkpt lat="43.01194" lon="0.85016">
        <ele>639.89</ele>
        <time>2019-07-28T09:00:53Z</time>
      </trkpt>
      <trkpt lat="43.01187" lon="0.85027">
        <ele>638.45</ele>
        <time>2019-07-28T09:00:56Z</time>
      </trkpt>
      <trkpt lat="43.01169" lon="0.85054">
        <ele>637.01</ele>
        <time>2019-07-28T09:01:05Z</time>
      </trkpt>
      <trkpt lat="43.01168" lon="0.85063">
        <ele>637.49</ele>
        <time>2019-07-28T09:01:17Z</time>
      </trkpt>
      <trkpt lat="43.0117" lon="0.85074">
        <ele>639.89</ele>
        <time>2019-07-28T09:01:30Z</time>
      </trkpt>
      <trkpt lat="43.01177" lon="0.85084">
        <ele>641.82</ele>
        <time>2019-07-28T09:01:44Z</time>
      </trkpt>
      <trkpt lat="43.01178" lon="0.85087">
        <ele>642.3</ele>
        <time>2019-07-28T09:01:46Z</time>
      </trkpt>
      <trkpt lat="43.01187" lon="0.85105">
        <ele>644.7</ele>
        <time>2019-07-28T09:02:01Z</time>
      </trkpt>
      <trkpt lat="43.01191" lon="0.85124">
        <ele>648.07</ele>
        <time>2019-07-28T09:02:16Z</time>
      </trkpt>
      <trkpt lat="43.01193" lon="0.85144">
        <ele>650.95</ele>
        <time>2019-07-28T09:02:32Z</time>
      </trkpt>
      <trkpt lat="43.01194" lon="0.85159">
        <ele>653.35</ele>
        <time>2019-07-28T09:02:50Z</time>
      </trkpt>
      <trkpt lat="43.01195" lon="0.85175">
        <ele>656.24</ele>
        <time>2019-07-28T09:03:07Z</time>
      </trkpt>
      <trkpt lat="43.01196" lon="0.85189">
        <ele>658.16</ele>
        <time>2019-07-28T09:03:19Z</time>
      </trkpt>
      <trkpt lat="43.012" lon="0.85209">
        <ele>660.56</ele>
        <time>2019-07-28T09:03:35Z</time>
      </trkpt>
      <trkpt lat="43.01203" lon="0.85234">
        <ele>662.97</ele>
        <time>2019-07-28T09:03:51Z</time>
      </trkpt>
      <trkpt lat="43.01211" lon="0.85255">
        <ele>665.85</ele>
        <time>2019-07-28T09:04:08Z</time>
      </trkpt>
      <trkpt lat="43.0122" lon="0.85265">
        <ele>666.81</ele>
        <time>2019-07-28T09:04:21Z</time>
      </trkpt>
      <trkpt lat="43.01231" lon="0.85274">
        <ele>670.18</ele>
        <time>2019-07-28T09:04:34Z</time>
      </trkpt>
      <trkpt lat="43.01242" lon="0.85286">
        <ele>673.06</ele>
        <time>2019-07-28T09:04:47Z</time>
      </trkpt>
      <trkpt lat="43.01243" lon="0.85287">
        <ele>673.06</ele>
        <time>2019-07-28T09:04:48Z</time>
      </trkpt>
      <trkpt lat="43.01244" lon="0.85288">
        <ele>673.54</ele>
        <time>2019-07-28T09:04:49Z</time>
      </trkpt>
      <trkpt lat="43.01247" lon="0.85292">
        <ele>674.02</ele>
        <time>2019-07-28T09:04:52Z</time>
      </trkpt>
      <trkpt lat="43.01255" lon="0.85314">
        <ele>677.39</ele>
        <time>2019-07-28T09:05:06Z</time>
      </trkpt>
      <trkpt lat="43.01265" lon="0.85331">
        <ele>678.83</ele>
        <time>2019-07-28T09:05:20Z</time>
      </trkpt>
      <trkpt lat="43.01278" lon="0.85351">
        <ele>681.23</ele>
        <time>2019-07-28T09:05:36Z</time>
      </trkpt>
      <trkpt lat="43.01292" lon="0.85366">
        <ele>683.15</ele>
        <time>2019-07-28T09:05:51Z</time>
      </trkpt>
      <trkpt lat="43.01309" lon="0.85379">
        <ele>685.56</ele>
        <time>2019-07-28T09:06:06Z</time>
      </trkpt>
      <trkpt lat="43.01322" lon="0.85386">
        <ele>688.44</ele>
        <time>2019-07-28T09:06:20Z</time>
      </trkpt>
      <trkpt lat="43.0133" lon="0.85392">
        <ele>690.36</ele>
        <time>2019-07-28T09:06:35Z</time>
      </trkpt>
      <trkpt lat="43.01344" lon="0.85405">
        <ele>693.25</ele>
        <time>2019-07-28T09:06:51Z</time>
      </trkpt>
      <trkpt lat="43.01355" lon="0.85421">
        <ele>695.65</ele>
        <time>2019-07-28T09:07:07Z</time>
      </trkpt>
      <trkpt lat="43.01358" lon="0.85427">
        <ele>696.13</ele>
        <time>2019-07-28T09:07:16Z</time>
      </trkpt>
      <trkpt lat="43.01368" lon="0.85441">
        <ele>699.02</ele>
        <time>2019-07-28T09:07:33Z</time>
      </trkpt>
      <trkpt lat="43.01374" lon="0.8546">
        <ele>700.94</ele>
        <time>2019-07-28T09:07:42Z</time>
      </trkpt>
      <trkpt lat="43.01384" lon="0.85484">
        <ele>703.34</ele>
        <time>2019-07-28T09:07:57Z</time>
      </trkpt>
      <trkpt lat="43.01386" lon="0.855">
        <ele>705.75</ele>
        <time>2019-07-28T09:08:08Z</time>
      </trkpt>
      <trkpt lat="43.01383" lon="0.85508">
        <ele>706.23</ele>
        <time>2019-07-28T09:08:14Z</time>
      </trkpt>
      <trkpt lat="43.01384" lon="0.85553">
        <ele>707.19</ele>
        <time>2019-07-28T09:08:29Z</time>
      </trkpt>
      <trkpt lat="43.01389" lon="0.85607">
        <ele>708.63</ele>
        <time>2019-07-28T09:08:44Z</time>
      </trkpt>
      <trkpt lat="43.01407" lon="0.85667">
        <ele>710.07</ele>
        <time>2019-07-28T09:08:59Z</time>
      </trkpt>
      <trkpt lat="43.01421" lon="0.85692">
        <ele>710.07</ele>
        <time>2019-07-28T09:09:05Z</time>
      </trkpt>
      <trkpt lat="43.01427" lon="0.85699">
        <ele>710.55</ele>
        <time>2019-07-28T09:09:07Z</time>
      </trkpt>
      <trkpt lat="43.01482" lon="0.85737">
        <ele>710.55</ele>
        <time>2019-07-28T09:09:21Z</time>
      </trkpt>
      <trkpt lat="43.01565" lon="0.85759">
        <ele>711.99</ele>
        <time>2019-07-28T09:09:40Z</time>
      </trkpt>
      <trkpt lat="43.01573" lon="0.85766">
        <ele>711.99</ele>
        <time>2019-07-28T09:09:42Z</time>
      </trkpt>
      <trkpt lat="43.01577" lon="0.8577">
        <ele>711.99</ele>
        <time>2019-07-28T09:09:43Z</time>
      </trkpt>
      <trkpt lat="43.01593" lon="0.85793">
        <ele>711.99</ele>
        <time>2019-07-28T09:09:48Z</time>
      </trkpt>
      <trkpt lat="43.01601" lon="0.85812">
        <ele>711.99</ele>
        <time>2019-07-28T09:09:51Z</time>
      </trkpt>
      <trkpt lat="43.01603" lon="0.8582">
        <ele>711.99</ele>
        <time>2019-07-28T09:09:52Z</time>
      </trkpt>
      <trkpt lat="43.0161" lon="0.85864">
        <ele>710.55</ele>
        <time>2019-07-28T09:09:57Z</time>
      </trkpt>
      <trkpt lat="43.01616" lon="0.85943">
        <ele>708.63</ele>
        <time>2019-07-28T09:10:08Z</time>
      </trkpt>
      <trkpt lat="43.01618" lon="0.85944">
        <ele>708.15</ele>
        <time>2019-07-28T09:10:09Z</time>
      </trkpt>
      <trkpt lat="43.01621" lon="0.85945">
        <ele>708.15</ele>
        <time>2019-07-28T09:10:10Z</time>
      </trkpt>
      <trkpt lat="43.01624" lon="0.85946">
        <ele>708.15</ele>
        <time>2019-07-28T09:10:11Z</time>
      </trkpt>
      <trkpt lat="43.01626" lon="0.85947">
        <ele>708.15</ele>
        <time>2019-07-28T09:10:12Z</time>
      </trkpt>
      <trkpt lat="43.01662" lon="0.85951">
        <ele>706.71</ele>
        <time>2019-07-28T09:10:25Z</time>
      </trkpt>
      <trkpt lat="43.01685" lon="0.85958">
        <ele>706.71</ele>
        <time>2019-07-28T09:10:39Z</time>
      </trkpt>
      <trkpt lat="43.01689" lon="0.85958">
        <ele>707.67</ele>
        <time>2019-07-28T09:10:41Z</time>
      </trkpt>
      <trkpt lat="43.0169" lon="0.85959">
        <ele>707.67</ele>
        <time>2019-07-28T09:10:42Z</time>
      </trkpt>
      <trkpt lat="43.01691" lon="0.8596">
        <ele>707.67</ele>
        <time>2019-07-28T09:10:43Z</time>
      </trkpt>
      <trkpt lat="43.01693" lon="0.85961">
        <ele>707.67</ele>
        <time>2019-07-28T09:10:44Z</time>
      </trkpt>
      <trkpt lat="43.01694" lon="0.85962">
        <ele>708.63</ele>
        <time>2019-07-28T09:10:45Z</time>
      </trkpt>
      <trkpt lat="43.01695" lon="0.85964">
        <ele>708.15</ele>
        <time>2019-07-28T09:10:46Z</time>
      </trkpt>
      <trkpt lat="43.01698" lon="0.85967">
        <ele>708.15</ele>
        <time>2019-07-28T09:10:58Z</time>
      </trkpt>
      <trkpt lat="43.01698" lon="0.85967">
        <ele>708.15</ele>
        <time>2019-07-28T09:11:27Z</time>
      </trkpt>
      <trkpt lat="43.01699" lon="0.85968">
        <ele>708.15</ele>
        <time>2019-07-28T09:11:54Z</time>
      </trkpt>
      <trkpt lat="43.01696" lon="0.85965">
        <ele>708.63</ele>
        <time>2019-07-28T09:12:10Z</time>
      </trkpt>
      <trkpt lat="43.01664" lon="0.85953">
        <ele>708.63</ele>
        <time>2019-07-28T09:12:21Z</time>
      </trkpt>
      <trkpt lat="43.01657" lon="0.85953">
        <ele>707.19</ele>
        <time>2019-07-28T09:12:23Z</time>
      </trkpt>
      <trkpt lat="43.01622" lon="0.85948">
        <ele>707.19</ele>
        <time>2019-07-28T09:12:36Z</time>
      </trkpt>
      <trkpt lat="43.0162" lon="0.85947">
        <ele>707.19</ele>
        <time>2019-07-28T09:12:37Z</time>
      </trkpt>
      <trkpt lat="43.01619" lon="0.85945">
        <ele>707.19</ele>
        <time>2019-07-28T09:12:38Z</time>
      </trkpt>
      <trkpt lat="43.01618" lon="0.85944">
        <ele>707.19</ele>
        <time>2019-07-28T09:12:39Z</time>
      </trkpt>
      <trkpt lat="43.01618" lon="0.85943">
        <ele>707.19</ele>
        <time>2019-07-28T09:12:40Z</time>
      </trkpt>
      <trkpt lat="43.01618" lon="0.85944">
        <ele>708.63</ele>
        <time>2019-07-28T09:12:54Z</time>
      </trkpt>
      <trkpt lat="43.01616" lon="0.85944">
        <ele>708.63</ele>
        <time>2019-07-28T09:13:21Z</time>
      </trkpt>
      <trkpt lat="43.01615" lon="0.85943">
        <ele>708.63</ele>
        <time>2019-07-28T09:13:42Z</time>
      </trkpt>
      <trkpt lat="43.01618" lon="0.8594">
        <ele>708.15</ele>
        <time>2019-07-28T09:14:08Z</time>
      </trkpt>
      <trkpt lat="43.01617" lon="0.85938">
        <ele>708.15</ele>
        <time>2019-07-28T09:14:34Z</time>
      </trkpt>
      <trkpt lat="43.01617" lon="0.85941">
        <ele>708.15</ele>
        <time>2019-07-28T09:15:13Z</time>
      </trkpt>
      <trkpt lat="43.01617" lon="0.85937">
        <ele>708.63</ele>
        <time>2019-07-28T09:15:47Z</time>
      </trkpt>
      <trkpt lat="43.01618" lon="0.85936">
        <ele>708.63</ele>
        <time>2019-07-28T09:15:55Z</time>
      </trkpt>
      <trkpt lat="43.01617" lon="0.85935">
        <ele>708.63</ele>
        <time>2019-07-28T09:15:56Z</time>
      </trkpt>
      <trkpt lat="43.01616" lon="0.85935">
        <ele>708.63</ele>
        <time>2019-07-28T09:15:57Z</time>
      </trkpt>
      <trkpt lat="43.01615" lon="0.85934">
        <ele>708.63</ele>
        <time>2019-07-28T09:15:58Z</time>
      </trkpt>
      <trkpt lat="43.01613" lon="0.85935">
        <ele>708.63</ele>
        <time>2019-07-28T09:15:59Z</time>
      </trkpt>
      <trkpt lat="43.01612" lon="0.85937">
        <ele>708.63</ele>
        <time>2019-07-28T09:16:00Z</time>
      </trkpt>
      <trkpt lat="43.01612" lon="0.8594">
        <ele>708.63</ele>
        <time>2019-07-28T09:16:01Z</time>
      </trkpt>
      <trkpt lat="43.01612" lon="0.85944">
        <ele>708.63</ele>
        <time>2019-07-28T09:16:02Z</time>
      </trkpt>
      <trkpt lat="43.01611" lon="0.85946">
        <ele>708.63</ele>
        <time>2019-07-28T09:16:03Z</time>
      </trkpt>
      <trkpt lat="43.01609" lon="0.85948">
        <ele>708.63</ele>
        <time>2019-07-28T09:16:04Z</time>
      </trkpt>
      <trkpt lat="43.01606" lon="0.85947">
        <ele>708.63</ele>
        <time>2019-07-28T09:16:05Z</time>
      </trkpt>
      <trkpt lat="43.01604" lon="0.85946">
        <ele>708.63</ele>
        <time>2019-07-28T09:16:06Z</time>
      </trkpt>
      <trkpt lat="43.01603" lon="0.85943">
        <ele>708.63</ele>
        <time>2019-07-28T09:16:07Z</time>
      </trkpt>
      <trkpt lat="43.01602" lon="0.85941">
        <ele>708.63</ele>
        <time>2019-07-28T09:16:08Z</time>
      </trkpt>
      <trkpt lat="43.01602" lon="0.85938">
        <ele>708.63</ele>
        <time>2019-07-28T09:16:09Z</time>
      </trkpt>
      <trkpt lat="43.01605" lon="0.85901">
        <ele>710.07</ele>
        <time>2019-07-28T09:16:22Z</time>
      </trkpt>
      <trkpt lat="43.016" lon="0.85861">
        <ele>711.99</ele>
        <time>2019-07-28T09:16:37Z</time>
      </trkpt>
      <trkpt lat="43.01594" lon="0.8583">
        <ele>713.44</ele>
        <time>2019-07-28T09:16:50Z</time>
      </trkpt>
      <trkpt lat="43.01576" lon="0.85801">
        <ele>714.88</ele>
        <time>2019-07-28T09:17:03Z</time>
      </trkpt>
      <trkpt lat="43.01537" lon="0.85784">
        <ele>717.28</ele>
        <time>2019-07-28T09:17:22Z</time>
      </trkpt>
      <trkpt lat="43.01499" lon="0.85784">
        <ele>719.68</ele>
        <time>2019-07-28T09:17:40Z</time>
      </trkpt>
      <trkpt lat="43.01464" lon="0.85778">
        <ele>723.05</ele>
        <time>2019-07-28T09:17:59Z</time>
      </trkpt>
      <trkpt lat="43.01429" lon="0.85763">
        <ele>724.97</ele>
        <time>2019-07-28T09:18:18Z</time>
      </trkpt>
      <trkpt lat="43.01401" lon="0.85742">
        <ele>726.41</ele>
        <time>2019-07-28T09:18:35Z</time>
      </trkpt>
      <trkpt lat="43.01378" lon="0.85717">
        <ele>728.34</ele>
        <time>2019-07-28T09:18:49Z</time>
      </trkpt>
      <trkpt lat="43.01362" lon="0.85684">
        <ele>730.26</ele>
        <time>2019-07-28T09:19:03Z</time>
      </trkpt>
      <trkpt lat="43.01345" lon="0.8564">
        <ele>732.18</ele>
        <time>2019-07-28T09:19:17Z</time>
      </trkpt>
      <trkpt lat="43.01335" lon="0.85599">
        <ele>733.14</ele>
        <time>2019-07-28T09:19:30Z</time>
      </trkpt>
      <trkpt lat="43.01332" lon="0.85591">
        <ele>734.1</ele>
        <time>2019-07-28T09:19:33Z</time>
      </trkpt>
      <trkpt lat="43.01301" lon="0.8556">
        <ele>736.03</ele>
        <time>2019-07-28T09:19:48Z</time>
      </trkpt>
      <trkpt lat="43.01251" lon="0.85541">
        <ele>738.43</ele>
        <time>2019-07-28T09:20:08Z</time>
      </trkpt>
      <trkpt lat="43.01214" lon="0.85527">
        <ele>740.83</ele>
        <time>2019-07-28T09:20:24Z</time>
      </trkpt>
      <trkpt lat="43.01165" lon="0.85516">
        <ele>743.72</ele>
        <time>2019-07-28T09:20:46Z</time>
      </trkpt>
      <trkpt lat="43.01123" lon="0.85512">
        <ele>745.64</ele>
        <time>2019-07-28T09:21:04Z</time>
      </trkpt>
      <trkpt lat="43.01079" lon="0.85504">
        <ele>749</ele>
        <time>2019-07-28T09:21:24Z</time>
      </trkpt>
      <trkpt lat="43.01042" lon="0.85472">
        <ele>750.93</ele>
        <time>2019-07-28T09:21:43Z</time>
      </trkpt>
      <trkpt lat="43.01007" lon="0.85445">
        <ele>752.85</ele>
        <time>2019-07-28T09:22:00Z</time>
      </trkpt>
      <trkpt lat="43.00966" lon="0.85443">
        <ele>755.25</ele>
        <time>2019-07-28T09:22:18Z</time>
      </trkpt>
      <trkpt lat="43.00924" lon="0.85468">
        <ele>758.14</ele>
        <time>2019-07-28T09:22:37Z</time>
      </trkpt>
      <trkpt lat="43.0088" lon="0.85493">
        <ele>760.06</ele>
        <time>2019-07-28T09:22:56Z</time>
      </trkpt>
      <trkpt lat="43.00842" lon="0.85494">
        <ele>761.5</ele>
        <time>2019-07-28T09:23:12Z</time>
      </trkpt>
      <trkpt lat="43.00824" lon="0.85476">
        <ele>763.42</ele>
        <time>2019-07-28T09:23:24Z</time>
      </trkpt>
      <trkpt lat="43.00807" lon="0.85452">
        <ele>765.83</ele>
        <time>2019-07-28T09:23:37Z</time>
      </trkpt>
      <trkpt lat="43.00803" lon="0.85447">
        <ele>765.83</ele>
        <time>2019-07-28T09:23:40Z</time>
      </trkpt>
      <trkpt lat="43.00802" lon="0.85445">
        <ele>765.83</ele>
        <time>2019-07-28T09:23:41Z</time>
      </trkpt>
      <trkpt lat="43.008" lon="0.85443">
        <ele>766.79</ele>
        <time>2019-07-28T09:23:42Z</time>
      </trkpt>
      <trkpt lat="43.00799" lon="0.85442">
        <ele>766.79</ele>
        <time>2019-07-28T09:23:43Z</time>
      </trkpt>
      <trkpt lat="43.00798" lon="0.8544">
        <ele>766.79</ele>
        <time>2019-07-28T09:23:44Z</time>
      </trkpt>
      <trkpt lat="43.00796" lon="0.85438">
        <ele>766.79</ele>
        <time>2019-07-28T09:23:45Z</time>
      </trkpt>
      <trkpt lat="43.00778" lon="0.85405">
        <ele>769.67</ele>
        <time>2019-07-28T09:24:00Z</time>
      </trkpt>
      <trkpt lat="43.00766" lon="0.85372">
        <ele>771.6</ele>
        <time>2019-07-28T09:24:14Z</time>
      </trkpt>
      <trkpt lat="43.00766" lon="0.8537">
        <ele>771.6</ele>
        <time>2019-07-28T09:24:15Z</time>
      </trkpt>
      <trkpt lat="43.00765" lon="0.85367">
        <ele>771.6</ele>
        <time>2019-07-28T09:24:16Z</time>
      </trkpt>
      <trkpt lat="43.00755" lon="0.85329">
        <ele>774.48</ele>
        <time>2019-07-28T09:24:32Z</time>
      </trkpt>
      <trkpt lat="43.00752" lon="0.85301">
        <ele>776.88</ele>
        <time>2019-07-28T09:24:46Z</time>
      </trkpt>
      <trkpt lat="43.00753" lon="0.85281">
        <ele>778.32</ele>
        <time>2019-07-28T09:24:54Z</time>
      </trkpt>
      <trkpt lat="43.00753" lon="0.85278">
        <ele>778.81</ele>
        <time>2019-07-28T09:24:55Z</time>
      </trkpt>
      <trkpt lat="43.00751" lon="0.85268">
        <ele>779.29</ele>
        <time>2019-07-28T09:25:00Z</time>
      </trkpt>
      <trkpt lat="43.00751" lon="0.85265">
        <ele>779.77</ele>
        <time>2019-07-28T09:25:01Z</time>
      </trkpt>
      <trkpt lat="43.0075" lon="0.85263">
        <ele>779.77</ele>
        <time>2019-07-28T09:25:02Z</time>
      </trkpt>
      <trkpt lat="43.0075" lon="0.85261">
        <ele>779.77</ele>
        <time>2019-07-28T09:25:03Z</time>
      </trkpt>
      <trkpt lat="43.00749" lon="0.8526">
        <ele>780.25</ele>
        <time>2019-07-28T09:25:04Z</time>
      </trkpt>
      <trkpt lat="43.00742" lon="0.85228">
        <ele>782.17</ele>
        <time>2019-07-28T09:25:19Z</time>
      </trkpt>
      <trkpt lat="43.00736" lon="0.85214">
        <ele>783.13</ele>
        <time>2019-07-28T09:25:25Z</time>
      </trkpt>
      <trkpt lat="43.00735" lon="0.85212">
        <ele>783.13</ele>
        <time>2019-07-28T09:25:26Z</time>
      </trkpt>
      <trkpt lat="43.00734" lon="0.8521">
        <ele>783.61</ele>
        <time>2019-07-28T09:25:27Z</time>
      </trkpt>
      <trkpt lat="43.00733" lon="0.85209">
        <ele>783.13</ele>
        <time>2019-07-28T09:25:28Z</time>
      </trkpt>
      <trkpt lat="43.00732" lon="0.85208">
        <ele>783.13</ele>
        <time>2019-07-28T09:25:29Z</time>
      </trkpt>
      <trkpt lat="43.00731" lon="0.85207">
        <ele>783.13</ele>
        <time>2019-07-28T09:25:30Z</time>
      </trkpt>
      <trkpt lat="43.00727" lon="0.85209">
        <ele>783.61</ele>
        <time>2019-07-28T09:25:35Z</time>
      </trkpt>
      <trkpt lat="43.00727" lon="0.8521">
        <ele>783.61</ele>
        <time>2019-07-28T09:25:36Z</time>
      </trkpt>
      <trkpt lat="43.00732" lon="0.85247">
        <ele>785.05</ele>
        <time>2019-07-28T09:25:52Z</time>
      </trkpt>
      <trkpt lat="43.00731" lon="0.85278">
        <ele>786.98</ele>
        <time>2019-07-28T09:26:05Z</time>
      </trkpt>
      <trkpt lat="43.00728" lon="0.85317">
        <ele>788.42</ele>
        <time>2019-07-28T09:26:20Z</time>
      </trkpt>
      <trkpt lat="43.00727" lon="0.85324">
        <ele>788.9</ele>
        <time>2019-07-28T09:26:23Z</time>
      </trkpt>
      <trkpt lat="43.00727" lon="0.85327">
        <ele>788.9</ele>
        <time>2019-07-28T09:26:24Z</time>
      </trkpt>
      <trkpt lat="43.00727" lon="0.8533">
        <ele>788.9</ele>
        <time>2019-07-28T09:26:25Z</time>
      </trkpt>
      <trkpt lat="43.00727" lon="0.85333">
        <ele>789.38</ele>
        <time>2019-07-28T09:26:26Z</time>
      </trkpt>
      <trkpt lat="43.00727" lon="0.85336">
        <ele>789.38</ele>
        <time>2019-07-28T09:26:27Z</time>
      </trkpt>
      <trkpt lat="43.00726" lon="0.85374">
        <ele>791.3</ele>
        <time>2019-07-28T09:26:41Z</time>
      </trkpt>
      <trkpt lat="43.00728" lon="0.85419">
        <ele>793.71</ele>
        <time>2019-07-28T09:26:57Z</time>
      </trkpt>
      <trkpt lat="43.00729" lon="0.85458">
        <ele>795.15</ele>
        <time>2019-07-28T09:27:12Z</time>
      </trkpt>
      <trkpt lat="43.00728" lon="0.85487">
        <ele>797.07</ele>
        <time>2019-07-28T09:27:23Z</time>
      </trkpt>
      <trkpt lat="43.00727" lon="0.8549">
        <ele>797.07</ele>
        <time>2019-07-28T09:27:24Z</time>
      </trkpt>
      <trkpt lat="43.00717" lon="0.85531">
        <ele>798.99</ele>
        <time>2019-07-28T09:27:40Z</time>
      </trkpt>
      <trkpt lat="43.0071" lon="0.85561">
        <ele>801.88</ele>
        <time>2019-07-28T09:27:51Z</time>
      </trkpt>
      <trkpt lat="43.00692" lon="0.85605">
        <ele>802.84</ele>
        <time>2019-07-28T09:28:09Z</time>
      </trkpt>
      <trkpt lat="43.00664" lon="0.85637">
        <ele>806.2</ele>
        <time>2019-07-28T09:28:28Z</time>
      </trkpt>
      <trkpt lat="43.00646" lon="0.85652">
        <ele>808.13</ele>
        <time>2019-07-28T09:28:41Z</time>
      </trkpt>
      <trkpt lat="43.00625" lon="0.85658">
        <ele>810.05</ele>
        <time>2019-07-28T09:28:54Z</time>
      </trkpt>
      <trkpt lat="43.00601" lon="0.85663">
        <ele>811.97</ele>
        <time>2019-07-28T09:29:07Z</time>
      </trkpt>
      <trkpt lat="43.0058" lon="0.85669">
        <ele>813.41</ele>
        <time>2019-07-28T09:29:19Z</time>
      </trkpt>
      <trkpt lat="43.00558" lon="0.85671">
        <ele>815.34</ele>
        <time>2019-07-28T09:29:31Z</time>
      </trkpt>
      <trkpt lat="43.00529" lon="0.85667">
        <ele>816.78</ele>
        <time>2019-07-28T09:29:43Z</time>
      </trkpt>
      <trkpt lat="43.00505" lon="0.85646">
        <ele>818.22</ele>
        <time>2019-07-28T09:29:57Z</time>
      </trkpt>
      <trkpt lat="43.00479" lon="0.85612">
        <ele>819.66</ele>
        <time>2019-07-28T09:30:13Z</time>
      </trkpt>
      <trkpt lat="43.0045" lon="0.8558">
        <ele>821.58</ele>
        <time>2019-07-28T09:30:28Z</time>
      </trkpt>
      <trkpt lat="43.0041" lon="0.85554">
        <ele>822.55</ele>
        <time>2019-07-28T09:30:43Z</time>
      </trkpt>
      <trkpt lat="43.00368" lon="0.85528">
        <ele>823.99</ele>
        <time>2019-07-28T09:30:59Z</time>
      </trkpt>
      <trkpt lat="43.00324" lon="0.85479">
        <ele>826.39</ele>
        <time>2019-07-28T09:31:19Z</time>
      </trkpt>
      <trkpt lat="43.00305" lon="0.85414">
        <ele>828.31</ele>
        <time>2019-07-28T09:31:37Z</time>
      </trkpt>
      <trkpt lat="43.00285" lon="0.85354">
        <ele>830.24</ele>
        <time>2019-07-28T09:31:55Z</time>
      </trkpt>
      <trkpt lat="43.00256" lon="0.85298">
        <ele>832.64</ele>
        <time>2019-07-28T09:32:12Z</time>
      </trkpt>
      <trkpt lat="43.00233" lon="0.85267">
        <ele>833.6</ele>
        <time>2019-07-28T09:32:25Z</time>
      </trkpt>
      <trkpt lat="43.00208" lon="0.85239">
        <ele>835.52</ele>
        <time>2019-07-28T09:32:38Z</time>
      </trkpt>
      <trkpt lat="43.00178" lon="0.85214">
        <ele>837.45</ele>
        <time>2019-07-28T09:32:52Z</time>
      </trkpt>
      <trkpt lat="43.00154" lon="0.85207">
        <ele>838.41</ele>
        <time>2019-07-28T09:33:04Z</time>
      </trkpt>
      <trkpt lat="43.00129" lon="0.85223">
        <ele>838.89</ele>
        <time>2019-07-28T09:33:16Z</time>
      </trkpt>
      <trkpt lat="43.00127" lon="0.85225">
        <ele>838.89</ele>
        <time>2019-07-28T09:33:17Z</time>
      </trkpt>
      <trkpt lat="43.00092" lon="0.85254">
        <ele>840.33</ele>
        <time>2019-07-28T09:33:32Z</time>
      </trkpt>
      <trkpt lat="43.00062" lon="0.8526">
        <ele>841.77</ele>
        <time>2019-07-28T09:33:47Z</time>
      </trkpt>
      <trkpt lat="43.00057" lon="0.85264">
        <ele>841.77</ele>
        <time>2019-07-28T09:34:02Z</time>
      </trkpt>
      <trkpt lat="43.00048" lon="0.85266">
        <ele>841.77</ele>
        <time>2019-07-28T09:34:40Z</time>
      </trkpt>
      <trkpt lat="43.00049" lon="0.85273">
        <ele>842.25</ele>
        <time>2019-07-28T09:35:15Z</time>
      </trkpt>
      <trkpt lat="43.00045" lon="0.85271">
        <ele>842.25</ele>
        <time>2019-07-28T09:35:41Z</time>
      </trkpt>
      <trkpt lat="43.0004" lon="0.85272">
        <ele>842.73</ele>
        <time>2019-07-28T09:35:55Z</time>
      </trkpt>
      <trkpt lat="43.0004" lon="0.85274">
        <ele>842.73</ele>
        <time>2019-07-28T09:36:19Z</time>
      </trkpt>
      <trkpt lat="43.00037" lon="0.85272">
        <ele>842.73</ele>
        <time>2019-07-28T09:36:42Z</time>
      </trkpt>
      <trkpt lat="43.00014" lon="0.85273">
        <ele>844.18</ele>
        <time>2019-07-28T09:36:54Z</time>
      </trkpt>
      <trkpt lat="42.99986" lon="0.85276">
        <ele>845.62</ele>
        <time>2019-07-28T09:37:06Z</time>
      </trkpt>
      <trkpt lat="42.99964" lon="0.85281">
        <ele>846.1</ele>
        <time>2019-07-28T09:37:16Z</time>
      </trkpt>
      <trkpt lat="42.99931" lon="0.85287">
        <ele>847.54</ele>
        <time>2019-07-28T09:37:28Z</time>
      </trkpt>
      <trkpt lat="42.99892" lon="0.85306">
        <ele>849.46</ele>
        <time>2019-07-28T09:37:43Z</time>
      </trkpt>
      <trkpt lat="42.99847" lon="0.85321">
        <ele>850.9</ele>
        <time>2019-07-28T09:37:59Z</time>
      </trkpt>
      <trkpt lat="42.99802" lon="0.8535">
        <ele>852.35</ele>
        <time>2019-07-28T09:38:16Z</time>
      </trkpt>
      <trkpt lat="42.99776" lon="0.85363">
        <ele>852.83</ele>
        <time>2019-07-28T09:38:26Z</time>
      </trkpt>
      <trkpt lat="42.99773" lon="0.85363">
        <ele>852.83</ele>
        <time>2019-07-28T09:38:27Z</time>
      </trkpt>
      <trkpt lat="42.9977" lon="0.85364">
        <ele>852.83</ele>
        <time>2019-07-28T09:38:28Z</time>
      </trkpt>
      <trkpt lat="42.99736" lon="0.85354">
        <ele>854.75</ele>
        <time>2019-07-28T09:38:40Z</time>
      </trkpt>
      <trkpt lat="42.99701" lon="0.85371">
        <ele>855.71</ele>
        <time>2019-07-28T09:38:51Z</time>
      </trkpt>
      <trkpt lat="42.9966" lon="0.85355">
        <ele>856.19</ele>
        <time>2019-07-28T09:39:03Z</time>
      </trkpt>
      <trkpt lat="42.99626" lon="0.85348">
        <ele>858.11</ele>
        <time>2019-07-28T09:39:17Z</time>
      </trkpt>
      <trkpt lat="42.99592" lon="0.85358">
        <ele>860.04</ele>
        <time>2019-07-28T09:39:31Z</time>
      </trkpt>
      <trkpt lat="42.9956" lon="0.85342">
        <ele>861.48</ele>
        <time>2019-07-28T09:39:44Z</time>
      </trkpt>
      <trkpt lat="42.99522" lon="0.85323">
        <ele>863.4</ele>
        <time>2019-07-28T09:39:59Z</time>
      </trkpt>
      <trkpt lat="42.99489" lon="0.85316">
        <ele>865.32</ele>
        <time>2019-07-28T09:40:13Z</time>
      </trkpt>
      <trkpt lat="42.99453" lon="0.85312">
        <ele>866.77</ele>
        <time>2019-07-28T09:40:28Z</time>
      </trkpt>
      <trkpt lat="42.99422" lon="0.85317">
        <ele>868.21</ele>
        <time>2019-07-28T09:40:41Z</time>
      </trkpt>
      <trkpt lat="42.99387" lon="0.85335">
        <ele>868.69</ele>
        <time>2019-07-28T09:40:54Z</time>
      </trkpt>
      <trkpt lat="42.99348" lon="0.85363">
        <ele>868.69</ele>
        <time>2019-07-28T09:41:06Z</time>
      </trkpt>
      <trkpt lat="42.99322" lon="0.85392">
        <ele>866.77</ele>
        <time>2019-07-28T09:41:18Z</time>
      </trkpt>
      <trkpt lat="42.99321" lon="0.85394">
        <ele>866.77</ele>
        <time>2019-07-28T09:41:19Z</time>
      </trkpt>
      <trkpt lat="42.99321" lon="0.85398">
        <ele>866.77</ele>
        <time>2019-07-28T09:41:24Z</time>
      </trkpt>
      <trkpt lat="42.9931" lon="0.85406">
        <ele>865.8</ele>
        <time>2019-07-28T09:41:43Z</time>
      </trkpt>
      <trkpt lat="42.99309" lon="0.85393">
        <ele>866.29</ele>
        <time>2019-07-28T09:42:19Z</time>
      </trkpt>
      <trkpt lat="42.99312" lon="0.85399">
        <ele>866.29</ele>
        <time>2019-07-28T09:42:36Z</time>
      </trkpt>
      <trkpt lat="42.99312" lon="0.85402">
        <ele>866.77</ele>
        <time>2019-07-28T09:42:37Z</time>
      </trkpt>
      <trkpt lat="42.99312" lon="0.85405">
        <ele>866.77</ele>
        <time>2019-07-28T09:42:38Z</time>
      </trkpt>
      <trkpt lat="42.99312" lon="0.85408">
        <ele>866.77</ele>
        <time>2019-07-28T09:42:39Z</time>
      </trkpt>
      <trkpt lat="42.99312" lon="0.85411">
        <ele>868.21</ele>
        <time>2019-07-28T09:42:40Z</time>
      </trkpt>
      <trkpt lat="42.99313" lon="0.85415">
        <ele>868.21</ele>
        <time>2019-07-28T09:42:41Z</time>
      </trkpt>
      <trkpt lat="42.99324" lon="0.85459">
        <ele>870.13</ele>
        <time>2019-07-28T09:42:54Z</time>
      </trkpt>
      <trkpt lat="42.99343" lon="0.85499">
        <ele>872.53</ele>
        <time>2019-07-28T09:43:10Z</time>
      </trkpt>
      <trkpt lat="42.99357" lon="0.85534">
        <ele>874.46</ele>
        <time>2019-07-28T09:43:22Z</time>
      </trkpt>
      <trkpt lat="42.99365" lon="0.85577">
        <ele>876.38</ele>
        <time>2019-07-28T09:43:37Z</time>
      </trkpt>
      <trkpt lat="42.99366" lon="0.85581">
        <ele>876.86</ele>
        <time>2019-07-28T09:43:39Z</time>
      </trkpt>
      <trkpt lat="42.99366" lon="0.85583">
        <ele>876.86</ele>
        <time>2019-07-28T09:43:40Z</time>
      </trkpt>
      <trkpt lat="42.99366" lon="0.85585">
        <ele>876.86</ele>
        <time>2019-07-28T09:43:41Z</time>
      </trkpt>
      <trkpt lat="42.99367" lon="0.85587">
        <ele>877.34</ele>
        <time>2019-07-28T09:43:42Z</time>
      </trkpt>
      <trkpt lat="42.99367" lon="0.85589">
        <ele>877.34</ele>
        <time>2019-07-28T09:43:43Z</time>
      </trkpt>
      <trkpt lat="42.99368" lon="0.85592">
        <ele>877.82</ele>
        <time>2019-07-28T09:43:44Z</time>
      </trkpt>
      <trkpt lat="42.99368" lon="0.85594">
        <ele>877.82</ele>
        <time>2019-07-28T09:43:45Z</time>
      </trkpt>
      <trkpt lat="42.99369" lon="0.85633">
        <ele>879.26</ele>
        <time>2019-07-28T09:43:59Z</time>
      </trkpt>
      <trkpt lat="42.99372" lon="0.85678">
        <ele>880.22</ele>
        <time>2019-07-28T09:44:13Z</time>
      </trkpt>
      <trkpt lat="42.99404" lon="0.85712">
        <ele>880.71</ele>
        <time>2019-07-28T09:44:28Z</time>
      </trkpt>
      <trkpt lat="42.99412" lon="0.85721">
        <ele>880.71</ele>
        <time>2019-07-28T09:44:32Z</time>
      </trkpt>
      <trkpt lat="42.99441" lon="0.8575">
        <ele>881.19</ele>
        <time>2019-07-28T09:44:45Z</time>
      </trkpt>
      <trkpt lat="42.99444" lon="0.85796">
        <ele>881.67</ele>
        <time>2019-07-28T09:44:57Z</time>
      </trkpt>
      <trkpt lat="42.99435" lon="0.85832">
        <ele>882.15</ele>
        <time>2019-07-28T09:45:06Z</time>
      </trkpt>
      <trkpt lat="42.99433" lon="0.85835">
        <ele>882.15</ele>
        <time>2019-07-28T09:45:07Z</time>
      </trkpt>
      <trkpt lat="42.9943" lon="0.85838">
        <ele>882.15</ele>
        <time>2019-07-28T09:45:08Z</time>
      </trkpt>
      <trkpt lat="42.99417" lon="0.85845">
        <ele>880.71</ele>
        <time>2019-07-28T09:45:13Z</time>
      </trkpt>
      <trkpt lat="42.99412" lon="0.85849">
        <ele>880.22</ele>
        <time>2019-07-28T09:45:26Z</time>
      </trkpt>
      <trkpt lat="42.9941" lon="0.85853">
        <ele>880.22</ele>
        <time>2019-07-28T09:45:41Z</time>
      </trkpt>
      <trkpt lat="42.99408" lon="0.85854">
        <ele>880.22</ele>
        <time>2019-07-28T09:45:42Z</time>
      </trkpt>
      <trkpt lat="42.99406" lon="0.85855">
        <ele>880.22</ele>
        <time>2019-07-28T09:45:43Z</time>
      </trkpt>
      <trkpt lat="42.99404" lon="0.85855">
        <ele>880.22</ele>
        <time>2019-07-28T09:45:44Z</time>
      </trkpt>
      <trkpt lat="42.99402" lon="0.85856">
        <ele>880.22</ele>
        <time>2019-07-28T09:45:45Z</time>
      </trkpt>
      <trkpt lat="42.99358" lon="0.85862">
        <ele>877.34</ele>
        <time>2019-07-28T09:45:55Z</time>
      </trkpt>
      <trkpt lat="42.99353" lon="0.85861">
        <ele>876.86</ele>
        <time>2019-07-28T09:45:56Z</time>
      </trkpt>
      <trkpt lat="42.99348" lon="0.8586">
        <ele>875.9</ele>
        <time>2019-07-28T09:45:57Z</time>
      </trkpt>
      <trkpt lat="42.99323" lon="0.8585">
        <ele>873.5</ele>
        <time>2019-07-28T09:46:02Z</time>
      </trkpt>
      <trkpt lat="42.99317" lon="0.85848">
        <ele>873.01</ele>
        <time>2019-07-28T09:46:03Z</time>
      </trkpt>
      <trkpt lat="42.9931" lon="0.85848">
        <ele>873.01</ele>
        <time>2019-07-28T09:46:04Z</time>
      </trkpt>
      <trkpt lat="42.99304" lon="0.85848">
        <ele>872.53</ele>
        <time>2019-07-28T09:46:05Z</time>
      </trkpt>
      <trkpt lat="42.99297" lon="0.8585">
        <ele>872.53</ele>
        <time>2019-07-28T09:46:06Z</time>
      </trkpt>
      <trkpt lat="42.99291" lon="0.85852">
        <ele>871.57</ele>
        <time>2019-07-28T09:46:07Z</time>
      </trkpt>
      <trkpt lat="42.99284" lon="0.85856">
        <ele>871.09</ele>
        <time>2019-07-28T09:46:08Z</time>
      </trkpt>
      <trkpt lat="42.99278" lon="0.8586">
        <ele>871.09</ele>
        <time>2019-07-28T09:46:09Z</time>
      </trkpt>
      <trkpt lat="42.99247" lon="0.85885">
        <ele>868.69</ele>
        <time>2019-07-28T09:46:14Z</time>
      </trkpt>
      <trkpt lat="42.99233" lon="0.85895">
        <ele>867.25</ele>
        <time>2019-07-28T09:46:16Z</time>
      </trkpt>
      <trkpt lat="42.99207" lon="0.85908">
        <ele>864.84</ele>
        <time>2019-07-28T09:46:20Z</time>
      </trkpt>
      <trkpt lat="42.99201" lon="0.85913">
        <ele>863.88</ele>
        <time>2019-07-28T09:46:21Z</time>
      </trkpt>
      <trkpt lat="42.99197" lon="0.85919">
        <ele>863.88</ele>
        <time>2019-07-28T09:46:22Z</time>
      </trkpt>
      <trkpt lat="42.99192" lon="0.85926">
        <ele>863.4</ele>
        <time>2019-07-28T09:46:23Z</time>
      </trkpt>
      <trkpt lat="42.99188" lon="0.85934">
        <ele>862.92</ele>
        <time>2019-07-28T09:46:24Z</time>
      </trkpt>
      <trkpt lat="42.99183" lon="0.85942">
        <ele>861.96</ele>
        <time>2019-07-28T09:46:25Z</time>
      </trkpt>
      <trkpt lat="42.99177" lon="0.85948">
        <ele>861</ele>
        <time>2019-07-28T09:46:26Z</time>
      </trkpt>
      <trkpt lat="42.99172" lon="0.85954">
        <ele>860.04</ele>
        <time>2019-07-28T09:46:27Z</time>
      </trkpt>
      <trkpt lat="42.99162" lon="0.85961">
        <ele>858.59</ele>
        <time>2019-07-28T09:46:29Z</time>
      </trkpt>
      <trkpt lat="42.99157" lon="0.85962">
        <ele>857.63</ele>
        <time>2019-07-28T09:46:30Z</time>
      </trkpt>
      <trkpt lat="42.99152" lon="0.85962">
        <ele>857.63</ele>
        <time>2019-07-28T09:46:31Z</time>
      </trkpt>
      <trkpt lat="42.99146" lon="0.8596">
        <ele>857.15</ele>
        <time>2019-07-28T09:46:32Z</time>
      </trkpt>
      <trkpt lat="42.9914" lon="0.85958">
        <ele>857.15</ele>
        <time>2019-07-28T09:46:33Z</time>
      </trkpt>
      <trkpt lat="42.99133" lon="0.85956">
        <ele>856.67</ele>
        <time>2019-07-28T09:46:34Z</time>
      </trkpt>
      <trkpt lat="42.99127" lon="0.85955">
        <ele>856.19</ele>
        <time>2019-07-28T09:46:35Z</time>
      </trkpt>
      <trkpt lat="42.9912" lon="0.85955">
        <ele>856.19</ele>
        <time>2019-07-28T09:46:36Z</time>
      </trkpt>
      <trkpt lat="42.99106" lon="0.85954">
        <ele>855.71</ele>
        <time>2019-07-28T09:46:38Z</time>
      </trkpt>
      <trkpt lat="42.99099" lon="0.85955">
        <ele>854.75</ele>
        <time>2019-07-28T09:46:39Z</time>
      </trkpt>
      <trkpt lat="42.99062" lon="0.85963">
        <ele>851.38</ele>
        <time>2019-07-28T09:46:44Z</time>
      </trkpt>
      <trkpt lat="42.99055" lon="0.85962">
        <ele>850.42</ele>
        <time>2019-07-28T09:46:45Z</time>
      </trkpt>
      <trkpt lat="42.99048" lon="0.8596">
        <ele>849.94</ele>
        <time>2019-07-28T09:46:46Z</time>
      </trkpt>
      <trkpt lat="42.99042" lon="0.85957">
        <ele>848.98</ele>
        <time>2019-07-28T09:46:47Z</time>
      </trkpt>
      <trkpt lat="42.99036" lon="0.85954">
        <ele>848.98</ele>
        <time>2019-07-28T09:46:48Z</time>
      </trkpt>
      <trkpt lat="42.9903" lon="0.85953">
        <ele>848.98</ele>
        <time>2019-07-28T09:46:49Z</time>
      </trkpt>
      <trkpt lat="42.99024" lon="0.85953">
        <ele>848.98</ele>
        <time>2019-07-28T09:46:50Z</time>
      </trkpt>
      <trkpt lat="42.99019" lon="0.85954">
        <ele>848.5</ele>
        <time>2019-07-28T09:46:51Z</time>
      </trkpt>
      <trkpt lat="42.99013" lon="0.85955">
        <ele>848.98</ele>
        <time>2019-07-28T09:46:52Z</time>
      </trkpt>
      <trkpt lat="42.99009" lon="0.85956">
        <ele>848.5</ele>
        <time>2019-07-28T09:46:53Z</time>
      </trkpt>
      <trkpt lat="42.98991" lon="0.8596">
        <ele>848.5</ele>
        <time>2019-07-28T09:46:57Z</time>
      </trkpt>
      <trkpt lat="42.9896" lon="0.85972">
        <ele>845.62</ele>
        <time>2019-07-28T09:47:03Z</time>
      </trkpt>
      <trkpt lat="42.98925" lon="0.85982">
        <ele>843.21</ele>
        <time>2019-07-28T09:47:09Z</time>
      </trkpt>
      <trkpt lat="42.989" lon="0.85984">
        <ele>841.29</ele>
        <time>2019-07-28T09:47:13Z</time>
      </trkpt>
      <trkpt lat="42.98894" lon="0.85985">
        <ele>840.33</ele>
        <time>2019-07-28T09:47:14Z</time>
      </trkpt>
      <trkpt lat="42.98884" lon="0.85987">
        <ele>839.85</ele>
        <time>2019-07-28T09:47:16Z</time>
      </trkpt>
      <trkpt lat="42.98879" lon="0.85989">
        <ele>839.37</ele>
        <time>2019-07-28T09:47:17Z</time>
      </trkpt>
      <trkpt lat="42.98875" lon="0.85991">
        <ele>839.37</ele>
        <time>2019-07-28T09:47:18Z</time>
      </trkpt>
      <trkpt lat="42.98873" lon="0.85993">
        <ele>838.89</ele>
        <time>2019-07-28T09:47:19Z</time>
      </trkpt>
      <trkpt lat="42.98871" lon="0.85995">
        <ele>838.89</ele>
        <time>2019-07-28T09:47:20Z</time>
      </trkpt>
      <trkpt lat="42.9887" lon="0.85997">
        <ele>838.89</ele>
        <time>2019-07-28T09:47:21Z</time>
      </trkpt>
      <trkpt lat="42.98866" lon="0.86003">
        <ele>838.89</ele>
        <time>2019-07-28T09:47:24Z</time>
      </trkpt>
      <trkpt lat="42.98862" lon="0.86011">
        <ele>838.89</ele>
        <time>2019-07-28T09:47:28Z</time>
      </trkpt>
      <trkpt lat="42.98862" lon="0.86014">
        <ele>838.89</ele>
        <time>2019-07-28T09:47:29Z</time>
      </trkpt>
      <trkpt lat="42.98862" lon="0.86017">
        <ele>838.89</ele>
        <time>2019-07-28T09:47:30Z</time>
      </trkpt>
      <trkpt lat="42.98865" lon="0.8602">
        <ele>838.89</ele>
        <time>2019-07-28T09:47:41Z</time>
      </trkpt>
      <trkpt lat="42.98874" lon="0.86016">
        <ele>838.89</ele>
        <time>2019-07-28T09:48:10Z</time>
      </trkpt>
      <trkpt lat="42.98871" lon="0.86019">
        <ele>838.89</ele>
        <time>2019-07-28T09:48:40Z</time>
      </trkpt>
      <trkpt lat="42.98869" lon="0.86025">
        <ele>838.89</ele>
        <time>2019-07-28T09:49:11Z</time>
      </trkpt>
      <trkpt lat="42.98869" lon="0.86024">
        <ele>838.41</ele>
        <time>2019-07-28T09:49:42Z</time>
      </trkpt>
      <trkpt lat="42.98864" lon="0.86024">
        <ele>838.89</ele>
        <time>2019-07-28T09:50:13Z</time>
      </trkpt>
      <trkpt lat="42.98868" lon="0.86023">
        <ele>838.89</ele>
        <time>2019-07-28T09:50:36Z</time>
      </trkpt>
      <trkpt lat="42.98861" lon="0.86028">
        <ele>838.89</ele>
        <time>2019-07-28T09:50:55Z</time>
      </trkpt>
      <trkpt lat="42.98861" lon="0.86041">
        <ele>838.89</ele>
        <time>2019-07-28T09:51:16Z</time>
      </trkpt>
      <trkpt lat="42.98862" lon="0.8605">
        <ele>840.33</ele>
        <time>2019-07-28T09:51:19Z</time>
      </trkpt>
      <trkpt lat="42.98872" lon="0.86093">
        <ele>842.25</ele>
        <time>2019-07-28T09:51:32Z</time>
      </trkpt>
      <trkpt lat="42.98882" lon="0.86137">
        <ele>844.66</ele>
        <time>2019-07-28T09:51:48Z</time>
      </trkpt>
      <trkpt lat="42.98897" lon="0.8618">
        <ele>845.62</ele>
        <time>2019-07-28T09:52:00Z</time>
      </trkpt>
      <trkpt lat="42.98916" lon="0.86235">
        <ele>845.62</ele>
        <time>2019-07-28T09:52:14Z</time>
      </trkpt>
      <trkpt lat="42.9893" lon="0.86275">
        <ele>848.02</ele>
        <time>2019-07-28T09:52:27Z</time>
      </trkpt>
      <trkpt lat="42.98947" lon="0.86311">
        <ele>850.9</ele>
        <time>2019-07-28T09:52:42Z</time>
      </trkpt>
      <trkpt lat="42.98967" lon="0.86351">
        <ele>852.83</ele>
        <time>2019-07-28T09:52:58Z</time>
      </trkpt>
      <trkpt lat="42.98994" lon="0.86382">
        <ele>853.31</ele>
        <time>2019-07-28T09:53:11Z</time>
      </trkpt>
      <trkpt lat="42.99" lon="0.86386">
        <ele>851.87</ele>
        <time>2019-07-28T09:53:13Z</time>
      </trkpt>
      <trkpt lat="42.99011" lon="0.8639">
        <ele>851.38</ele>
        <time>2019-07-28T09:53:16Z</time>
      </trkpt>
      <trkpt lat="42.99016" lon="0.8639">
        <ele>851.38</ele>
        <time>2019-07-28T09:53:17Z</time>
      </trkpt>
      <trkpt lat="42.9902" lon="0.86392">
        <ele>851.38</ele>
        <time>2019-07-28T09:53:18Z</time>
      </trkpt>
      <trkpt lat="42.99024" lon="0.86394">
        <ele>850.9</ele>
        <time>2019-07-28T09:53:19Z</time>
      </trkpt>
      <trkpt lat="42.99028" lon="0.86396">
        <ele>850.9</ele>
        <time>2019-07-28T09:53:20Z</time>
      </trkpt>
      <trkpt lat="42.99032" lon="0.864">
        <ele>850.42</ele>
        <time>2019-07-28T09:53:21Z</time>
      </trkpt>
      <trkpt lat="42.99041" lon="0.86407">
        <ele>849.46</ele>
        <time>2019-07-28T09:53:23Z</time>
      </trkpt>
      <trkpt lat="42.99067" lon="0.86422">
        <ele>848.98</ele>
        <time>2019-07-28T09:53:28Z</time>
      </trkpt>
      <trkpt lat="42.99095" lon="0.86451">
        <ele>846.58</ele>
        <time>2019-07-28T09:53:34Z</time>
      </trkpt>
      <trkpt lat="42.99099" lon="0.86458">
        <ele>845.62</ele>
        <time>2019-07-28T09:53:35Z</time>
      </trkpt>
      <trkpt lat="42.99102" lon="0.86465">
        <ele>845.62</ele>
        <time>2019-07-28T09:53:36Z</time>
      </trkpt>
      <trkpt lat="42.99114" lon="0.86485">
        <ele>844.18</ele>
        <time>2019-07-28T09:53:39Z</time>
      </trkpt>
      <trkpt lat="42.99121" lon="0.865">
        <ele>843.69</ele>
        <time>2019-07-28T09:53:41Z</time>
      </trkpt>
      <trkpt lat="42.99124" lon="0.86508">
        <ele>843.69</ele>
        <time>2019-07-28T09:53:42Z</time>
      </trkpt>
      <trkpt lat="42.99129" lon="0.86529">
        <ele>843.21</ele>
        <time>2019-07-28T09:53:45Z</time>
      </trkpt>
      <trkpt lat="42.9913" lon="0.86535">
        <ele>842.73</ele>
        <time>2019-07-28T09:53:46Z</time>
      </trkpt>
      <trkpt lat="42.99123" lon="0.86565">
        <ele>842.73</ele>
        <time>2019-07-28T09:53:55Z</time>
      </trkpt>
      <trkpt lat="42.99116" lon="0.86571">
        <ele>844.18</ele>
        <time>2019-07-28T09:53:59Z</time>
      </trkpt>
      <trkpt lat="42.99096" lon="0.86589">
        <ele>846.58</ele>
        <time>2019-07-28T09:54:13Z</time>
      </trkpt>
      <trkpt lat="42.99074" lon="0.86606">
        <ele>849.46</ele>
        <time>2019-07-28T09:54:27Z</time>
      </trkpt>
      <trkpt lat="42.99053" lon="0.86625">
        <ele>852.35</ele>
        <time>2019-07-28T09:54:42Z</time>
      </trkpt>
      <trkpt lat="42.99036" lon="0.86651">
        <ele>855.71</ele>
        <time>2019-07-28T09:54:57Z</time>
      </trkpt>
      <trkpt lat="42.99022" lon="0.86679">
        <ele>858.59</ele>
        <time>2019-07-28T09:55:13Z</time>
      </trkpt>
      <trkpt lat="42.99011" lon="0.86707">
        <ele>861.48</ele>
        <time>2019-07-28T09:55:29Z</time>
      </trkpt>
      <trkpt lat="42.99006" lon="0.86725">
        <ele>863.4</ele>
        <time>2019-07-28T09:55:38Z</time>
      </trkpt>
      <trkpt lat="42.99003" lon="0.86733">
        <ele>864.36</ele>
        <time>2019-07-28T09:55:42Z</time>
      </trkpt>
      <trkpt lat="42.9899" lon="0.86761">
        <ele>866.77</ele>
        <time>2019-07-28T09:55:58Z</time>
      </trkpt>
      <trkpt lat="42.98982" lon="0.86779">
        <ele>868.21</ele>
        <time>2019-07-28T09:56:07Z</time>
      </trkpt>
      <trkpt lat="42.98975" lon="0.86808">
        <ele>869.65</ele>
        <time>2019-07-28T09:56:22Z</time>
      </trkpt>
      <trkpt lat="42.98961" lon="0.86849">
        <ele>871.09</ele>
        <time>2019-07-28T09:56:37Z</time>
      </trkpt>
      <trkpt lat="42.98958" lon="0.86854">
        <ele>871.57</ele>
        <time>2019-07-28T09:56:40Z</time>
      </trkpt>
      <trkpt lat="42.98953" lon="0.86854">
        <ele>871.57</ele>
        <time>2019-07-28T09:56:44Z</time>
      </trkpt>
      <trkpt lat="42.9895" lon="0.86847">
        <ele>872.05</ele>
        <time>2019-07-28T09:56:56Z</time>
      </trkpt>
      <trkpt lat="42.98948" lon="0.86862">
        <ele>872.53</ele>
        <time>2019-07-28T09:57:05Z</time>
      </trkpt>
      <trkpt lat="42.98939" lon="0.86863">
        <ele>874.94</ele>
        <time>2019-07-28T09:57:17Z</time>
      </trkpt>
      <trkpt lat="42.98931" lon="0.8686">
        <ele>877.82</ele>
        <time>2019-07-28T09:57:30Z</time>
      </trkpt>
      <trkpt lat="42.98921" lon="0.86854">
        <ele>881.19</ele>
        <time>2019-07-28T09:57:46Z</time>
      </trkpt>
      <trkpt lat="42.98914" lon="0.86831">
        <ele>884.55</ele>
        <time>2019-07-28T09:58:04Z</time>
      </trkpt>
      <trkpt lat="42.98911" lon="0.86816">
        <ele>887.91</ele>
        <time>2019-07-28T09:58:20Z</time>
      </trkpt>
      <trkpt lat="42.98913" lon="0.86801">
        <ele>891.28</ele>
        <time>2019-07-28T09:58:36Z</time>
      </trkpt>
      <trkpt lat="42.98917" lon="0.86786">
        <ele>893.2</ele>
        <time>2019-07-28T09:58:50Z</time>
      </trkpt>
      <trkpt lat="42.98921" lon="0.86773">
        <ele>896.09</ele>
        <time>2019-07-28T09:59:04Z</time>
      </trkpt>
      <trkpt lat="42.98919" lon="0.86754">
        <ele>899.45</ele>
        <time>2019-07-28T09:59:21Z</time>
      </trkpt>
      <trkpt lat="42.98913" lon="0.86728">
        <ele>902.33</ele>
        <time>2019-07-28T09:59:40Z</time>
      </trkpt>
      <trkpt lat="42.9891" lon="0.86712">
        <ele>905.22</ele>
        <time>2019-07-28T09:59:54Z</time>
      </trkpt>
      <trkpt lat="42.98905" lon="0.86692">
        <ele>908.1</ele>
        <time>2019-07-28T10:00:11Z</time>
      </trkpt>
      <trkpt lat="42.98905" lon="0.86676">
        <ele>910.99</ele>
        <time>2019-07-28T10:00:27Z</time>
      </trkpt>
      <trkpt lat="42.98909" lon="0.86665">
        <ele>913.87</ele>
        <time>2019-07-28T10:00:43Z</time>
      </trkpt>
      <trkpt lat="42.98911" lon="0.86648">
        <ele>916.75</ele>
        <time>2019-07-28T10:00:59Z</time>
      </trkpt>
      <trkpt lat="42.98909" lon="0.86632">
        <ele>919.16</ele>
        <time>2019-07-28T10:01:14Z</time>
      </trkpt>
      <trkpt lat="42.98907" lon="0.86625">
        <ele>919.64</ele>
        <time>2019-07-28T10:01:30Z</time>
      </trkpt>
      <trkpt lat="42.98908" lon="0.86618">
        <ele>921.08</ele>
        <time>2019-07-28T10:01:41Z</time>
      </trkpt>
      <trkpt lat="42.98912" lon="0.86607">
        <ele>923.96</ele>
        <time>2019-07-28T10:01:55Z</time>
      </trkpt>
      <trkpt lat="42.98912" lon="0.8659">
        <ele>926.85</ele>
        <time>2019-07-28T10:02:11Z</time>
      </trkpt>
      <trkpt lat="42.98912" lon="0.86573">
        <ele>930.21</ele>
        <time>2019-07-28T10:02:26Z</time>
      </trkpt>
      <trkpt lat="42.9891" lon="0.86559">
        <ele>933.58</ele>
        <time>2019-07-28T10:02:41Z</time>
      </trkpt>
      <trkpt lat="42.98907" lon="0.86542">
        <ele>936.94</ele>
        <time>2019-07-28T10:02:59Z</time>
      </trkpt>
      <trkpt lat="42.98904" lon="0.86529">
        <ele>939.35</ele>
        <time>2019-07-28T10:03:15Z</time>
      </trkpt>
      <trkpt lat="42.98899" lon="0.86518">
        <ele>940.79</ele>
        <time>2019-07-28T10:03:30Z</time>
      </trkpt>
      <trkpt lat="42.9889" lon="0.86498">
        <ele>943.67</ele>
        <time>2019-07-28T10:03:48Z</time>
      </trkpt>
      <trkpt lat="42.98889" lon="0.86494">
        <ele>944.15</ele>
        <time>2019-07-28T10:03:52Z</time>
      </trkpt>
      <trkpt lat="42.98881" lon="0.86481">
        <ele>946.56</ele>
        <time>2019-07-28T10:04:09Z</time>
      </trkpt>
      <trkpt lat="42.98871" lon="0.86473">
        <ele>948.96</ele>
        <time>2019-07-28T10:04:23Z</time>
      </trkpt>
      <trkpt lat="42.98862" lon="0.86464">
        <ele>950.88</ele>
        <time>2019-07-28T10:04:37Z</time>
      </trkpt>
      <trkpt lat="42.98854" lon="0.86456">
        <ele>954.25</ele>
        <time>2019-07-28T10:04:52Z</time>
      </trkpt>
      <trkpt lat="42.98846" lon="0.86451">
        <ele>956.65</ele>
        <time>2019-07-28T10:05:06Z</time>
      </trkpt>
      <trkpt lat="42.98837" lon="0.86443">
        <ele>960.01</ele>
        <time>2019-07-28T10:05:22Z</time>
      </trkpt>
      <trkpt lat="42.98828" lon="0.86437">
        <ele>963.38</ele>
        <time>2019-07-28T10:05:37Z</time>
      </trkpt>
      <trkpt lat="42.98821" lon="0.86431">
        <ele>964.82</ele>
        <time>2019-07-28T10:05:52Z</time>
      </trkpt>
      <trkpt lat="42.98815" lon="0.86426">
        <ele>966.74</ele>
        <time>2019-07-28T10:06:12Z</time>
      </trkpt>
      <trkpt lat="42.9881" lon="0.86421">
        <ele>970.11</ele>
        <time>2019-07-28T10:06:24Z</time>
      </trkpt>
      <trkpt lat="42.98801" lon="0.86411">
        <ele>972.51</ele>
        <time>2019-07-28T10:06:39Z</time>
      </trkpt>
      <trkpt lat="42.98795" lon="0.86402">
        <ele>974.91</ele>
        <time>2019-07-28T10:06:51Z</time>
      </trkpt>
      <trkpt lat="42.98787" lon="0.8639">
        <ele>977.8</ele>
        <time>2019-07-28T10:07:08Z</time>
      </trkpt>
      <trkpt lat="42.98779" lon="0.86381">
        <ele>980.2</ele>
        <time>2019-07-28T10:07:22Z</time>
      </trkpt>
      <trkpt lat="42.98778" lon="0.86382">
        <ele>980.68</ele>
        <time>2019-07-28T10:07:43Z</time>
      </trkpt>
      <trkpt lat="42.98768" lon="0.86367">
        <ele>983.57</ele>
        <time>2019-07-28T10:08:00Z</time>
      </trkpt>
      <trkpt lat="42.98757" lon="0.8635">
        <ele>985.97</ele>
        <time>2019-07-28T10:08:18Z</time>
      </trkpt>
      <trkpt lat="42.98749" lon="0.86336">
        <ele>987.89</ele>
        <time>2019-07-28T10:08:35Z</time>
      </trkpt>
      <trkpt lat="42.98743" lon="0.86326">
        <ele>989.81</ele>
        <time>2019-07-28T10:08:49Z</time>
      </trkpt>
      <trkpt lat="42.98734" lon="0.86317">
        <ele>993.18</ele>
        <time>2019-07-28T10:09:04Z</time>
      </trkpt>
      <trkpt lat="42.98731" lon="0.8631">
        <ele>995.58</ele>
        <time>2019-07-28T10:09:17Z</time>
      </trkpt>
      <trkpt lat="42.98722" lon="0.86297">
        <ele>997.99</ele>
        <time>2019-07-28T10:09:32Z</time>
      </trkpt>
      <trkpt lat="42.98714" lon="0.86287">
        <ele>1000.87</ele>
        <time>2019-07-28T10:09:49Z</time>
      </trkpt>
      <trkpt lat="42.98709" lon="0.86284">
        <ele>1002.31</ele>
        <time>2019-07-28T10:10:00Z</time>
      </trkpt>
      <trkpt lat="42.98706" lon="0.8628">
        <ele>1003.27</ele>
        <time>2019-07-28T10:10:13Z</time>
      </trkpt>
      <trkpt lat="42.98704" lon="0.86278">
        <ele>1004.23</ele>
        <time>2019-07-28T10:10:25Z</time>
      </trkpt>
      <trkpt lat="42.98698" lon="0.86276">
        <ele>1006.16</ele>
        <time>2019-07-28T10:10:37Z</time>
      </trkpt>
      <trkpt lat="42.98691" lon="0.86267">
        <ele>1008.56</ele>
        <time>2019-07-28T10:10:53Z</time>
      </trkpt>
      <trkpt lat="42.98685" lon="0.86259">
        <ele>1011.44</ele>
        <time>2019-07-28T10:11:08Z</time>
      </trkpt>
      <trkpt lat="42.98679" lon="0.86248">
        <ele>1013.37</ele>
        <time>2019-07-28T10:11:25Z</time>
      </trkpt>
      <trkpt lat="42.98673" lon="0.86241">
        <ele>1015.29</ele>
        <time>2019-07-28T10:11:43Z</time>
      </trkpt>
      <trkpt lat="42.98667" lon="0.86229">
        <ele>1018.17</ele>
        <time>2019-07-28T10:12:02Z</time>
      </trkpt>
      <trkpt lat="42.9866" lon="0.86223">
        <ele>1020.1</ele>
        <time>2019-07-28T10:12:15Z</time>
      </trkpt>
      <trkpt lat="42.98654" lon="0.86212">
        <ele>1022.98</ele>
        <time>2019-07-28T10:12:29Z</time>
      </trkpt>
      <trkpt lat="42.98649" lon="0.86203">
        <ele>1024.42</ele>
        <time>2019-07-28T10:12:42Z</time>
      </trkpt>
      <trkpt lat="42.98642" lon="0.86192">
        <ele>1026.34</ele>
        <time>2019-07-28T10:12:55Z</time>
      </trkpt>
      <trkpt lat="42.98635" lon="0.86181">
        <ele>1029.71</ele>
        <time>2019-07-28T10:13:11Z</time>
      </trkpt>
      <trkpt lat="42.98629" lon="0.86168">
        <ele>1031.63</ele>
        <time>2019-07-28T10:13:29Z</time>
      </trkpt>
      <trkpt lat="42.98625" lon="0.86162">
        <ele>1034.52</ele>
        <time>2019-07-28T10:13:42Z</time>
      </trkpt>
      <trkpt lat="42.9862" lon="0.86152">
        <ele>1036.92</ele>
        <time>2019-07-28T10:13:57Z</time>
      </trkpt>
      <trkpt lat="42.98613" lon="0.86141">
        <ele>1039.8</ele>
        <time>2019-07-28T10:14:14Z</time>
      </trkpt>
      <trkpt lat="42.98607" lon="0.86134">
        <ele>1042.69</ele>
        <time>2019-07-28T10:14:32Z</time>
      </trkpt>
      <trkpt lat="42.98598" lon="0.86123">
        <ele>1045.09</ele>
        <time>2019-07-28T10:14:50Z</time>
      </trkpt>
      <trkpt lat="42.98589" lon="0.86113">
        <ele>1047.97</ele>
        <time>2019-07-28T10:15:07Z</time>
      </trkpt>
      <trkpt lat="42.98581" lon="0.86104">
        <ele>1050.86</ele>
        <time>2019-07-28T10:15:24Z</time>
      </trkpt>
      <trkpt lat="42.98573" lon="0.86095">
        <ele>1053.74</ele>
        <time>2019-07-28T10:15:40Z</time>
      </trkpt>
      <trkpt lat="42.98564" lon="0.86086">
        <ele>1056.63</ele>
        <time>2019-07-28T10:15:57Z</time>
      </trkpt>
      <trkpt lat="42.98562" lon="0.8608">
        <ele>1057.11</ele>
        <time>2019-07-28T10:16:12Z</time>
      </trkpt>
      <trkpt lat="42.98563" lon="0.86075">
        <ele>1057.11</ele>
        <time>2019-07-28T10:16:52Z</time>
      </trkpt>
      <trkpt lat="42.98558" lon="0.86075">
        <ele>1057.11</ele>
        <time>2019-07-28T10:17:23Z</time>
      </trkpt>
      <trkpt lat="42.98561" lon="0.86074">
        <ele>1057.11</ele>
        <time>2019-07-28T10:17:44Z</time>
      </trkpt>
      <trkpt lat="42.9856" lon="0.86079">
        <ele>1056.63</ele>
        <time>2019-07-28T10:18:13Z</time>
      </trkpt>
      <trkpt lat="42.98559" lon="0.86078">
        <ele>1056.63</ele>
        <time>2019-07-28T10:18:36Z</time>
      </trkpt>
      <trkpt lat="42.98559" lon="0.86079">
        <ele>1056.63</ele>
        <time>2019-07-28T10:19:03Z</time>
      </trkpt>
      <trkpt lat="42.9856" lon="0.86072">
        <ele>1056.63</ele>
        <time>2019-07-28T10:19:35Z</time>
      </trkpt>
      <trkpt lat="42.9856" lon="0.86074">
        <ele>1056.63</ele>
        <time>2019-07-28T10:19:55Z</time>
      </trkpt>
      <trkpt lat="42.98561" lon="0.86077">
        <ele>1056.63</ele>
        <time>2019-07-28T10:20:16Z</time>
      </trkpt>
      <trkpt lat="42.98563" lon="0.86078">
        <ele>1056.63</ele>
        <time>2019-07-28T10:20:40Z</time>
      </trkpt>
      <trkpt lat="42.9856" lon="0.86074">
        <ele>1056.63</ele>
        <time>2019-07-28T10:21:10Z</time>
      </trkpt>
      <trkpt lat="42.98562" lon="0.86076">
        <ele>1056.63</ele>
        <time>2019-07-28T10:21:41Z</time>
      </trkpt>
      <trkpt lat="42.98563" lon="0.86079">
        <ele>1056.63</ele>
        <time>2019-07-28T10:22:04Z</time>
      </trkpt>
      <trkpt lat="42.98563" lon="0.86082">
        <ele>1056.63</ele>
        <time>2019-07-28T10:22:26Z</time>
      </trkpt>
      <trkpt lat="42.98561" lon="0.86081">
        <ele>1056.63</ele>
        <time>2019-07-28T10:22:58Z</time>
      </trkpt>
      <trkpt lat="42.98565" lon="0.86084">
        <ele>1056.63</ele>
        <time>2019-07-28T10:23:22Z</time>
      </trkpt>
      <trkpt lat="42.98562" lon="0.86079">
        <ele>1056.63</ele>
        <time>2019-07-28T10:23:55Z</time>
      </trkpt>
      <trkpt lat="42.98558" lon="0.86078">
        <ele>1057.11</ele>
        <time>2019-07-28T10:24:25Z</time>
      </trkpt>
      <trkpt lat="42.98559" lon="0.86081">
        <ele>1057.11</ele>
        <time>2019-07-28T10:24:50Z</time>
      </trkpt>
      <trkpt lat="42.98559" lon="0.86079">
        <ele>1057.11</ele>
        <time>2019-07-28T10:25:20Z</time>
      </trkpt>
      <trkpt lat="42.98562" lon="0.86075">
        <ele>1057.11</ele>
        <time>2019-07-28T10:25:57Z</time>
      </trkpt>
      <trkpt lat="42.9856" lon="0.86078">
        <ele>1057.11</ele>
        <time>2019-07-28T10:26:24Z</time>
      </trkpt>
      <trkpt lat="42.9856" lon="0.86079">
        <ele>1057.11</ele>
        <time>2019-07-28T10:26:50Z</time>
      </trkpt>
      <trkpt lat="42.98561" lon="0.86077">
        <ele>1057.11</ele>
        <time>2019-07-28T10:27:26Z</time>
      </trkpt>
      <trkpt lat="42.98563" lon="0.86079">
        <ele>1057.59</ele>
        <time>2019-07-28T10:28:01Z</time>
      </trkpt>
      <trkpt lat="42.9856" lon="0.86078">
        <ele>1057.59</ele>
        <time>2019-07-28T10:28:28Z</time>
      </trkpt>
      <trkpt lat="42.98559" lon="0.86078">
        <ele>1057.59</ele>
        <time>2019-07-28T10:28:59Z</time>
      </trkpt>
      <trkpt lat="42.98561" lon="0.8608">
        <ele>1057.59</ele>
        <time>2019-07-28T10:29:22Z</time>
      </trkpt>
      <trkpt lat="42.9856" lon="0.8608">
        <ele>1057.59</ele>
        <time>2019-07-28T10:29:50Z</time>
      </trkpt>
      <trkpt lat="42.98558" lon="0.86078">
        <ele>1057.59</ele>
        <time>2019-07-28T10:30:18Z</time>
      </trkpt>
      <trkpt lat="42.9856" lon="0.86081">
        <ele>1057.59</ele>
        <time>2019-07-28T10:30:35Z</time>
      </trkpt>
      <trkpt lat="42.98559" lon="0.86082">
        <ele>1057.59</ele>
        <time>2019-07-28T10:30:36Z</time>
      </trkpt>
      <trkpt lat="42.98555" lon="0.86081">
        <ele>1057.59</ele>
        <time>2019-07-28T10:30:42Z</time>
      </trkpt>
      <trkpt lat="42.98543" lon="0.86072">
        <ele>1060.95</ele>
        <time>2019-07-28T10:30:58Z</time>
      </trkpt>
      <trkpt lat="42.98534" lon="0.86068">
        <ele>1063.84</ele>
        <time>2019-07-28T10:31:11Z</time>
      </trkpt>
      <trkpt lat="42.98522" lon="0.86071">
        <ele>1067.2</ele>
        <time>2019-07-28T10:31:27Z</time>
      </trkpt>
      <trkpt lat="42.98512" lon="0.86073">
        <ele>1070.08</ele>
        <time>2019-07-28T10:31:41Z</time>
      </trkpt>
      <trkpt lat="42.98504" lon="0.8607">
        <ele>1072.97</ele>
        <time>2019-07-28T10:31:55Z</time>
      </trkpt>
      <trkpt lat="42.98494" lon="0.8606">
        <ele>1076.33</ele>
        <time>2019-07-28T10:32:11Z</time>
      </trkpt>
      <trkpt lat="42.98489" lon="0.86046">
        <ele>1079.7</ele>
        <time>2019-07-28T10:32:27Z</time>
      </trkpt>
      <trkpt lat="42.98486" lon="0.86026">
        <ele>1082.1</ele>
        <time>2019-07-28T10:32:46Z</time>
      </trkpt>
      <trkpt lat="42.98481" lon="0.86013">
        <ele>1084.5</ele>
        <time>2019-07-28T10:32:59Z</time>
      </trkpt>
      <trkpt lat="42.98479" lon="0.85993">
        <ele>1086.91</ele>
        <time>2019-07-28T10:33:16Z</time>
      </trkpt>
      <trkpt lat="42.98482" lon="0.85972">
        <ele>1088.83</ele>
        <time>2019-07-28T10:33:34Z</time>
      </trkpt>
      <trkpt lat="42.98483" lon="0.85961">
        <ele>1090.75</ele>
        <time>2019-07-28T10:33:43Z</time>
      </trkpt>
      <trkpt lat="42.98486" lon="0.85941">
        <ele>1092.2</ele>
        <time>2019-07-28T10:34:00Z</time>
      </trkpt>
      <trkpt lat="42.98485" lon="0.85931">
        <ele>1092.68</ele>
        <time>2019-07-28T10:34:06Z</time>
      </trkpt>
      <trkpt lat="42.98479" lon="0.85899">
        <ele>1094.6</ele>
        <time>2019-07-28T10:34:25Z</time>
      </trkpt>
      <trkpt lat="42.98474" lon="0.85878">
        <ele>1096.04</ele>
        <time>2019-07-28T10:34:40Z</time>
      </trkpt>
      <trkpt lat="42.98467" lon="0.85857">
        <ele>1098.92</ele>
        <time>2019-07-28T10:34:57Z</time>
      </trkpt>
      <trkpt lat="42.9846" lon="0.85844">
        <ele>1101.33</ele>
        <time>2019-07-28T10:35:14Z</time>
      </trkpt>
      <trkpt lat="42.98455" lon="0.85835">
        <ele>1103.73</ele>
        <time>2019-07-28T10:35:29Z</time>
      </trkpt>
      <trkpt lat="42.98448" lon="0.85822">
        <ele>1107.1</ele>
        <time>2019-07-28T10:35:47Z</time>
      </trkpt>
      <trkpt lat="42.98443" lon="0.85816">
        <ele>1109.5</ele>
        <time>2019-07-28T10:36:03Z</time>
      </trkpt>
      <trkpt lat="42.98438" lon="0.85806">
        <ele>1111.9</ele>
        <time>2019-07-28T10:36:20Z</time>
      </trkpt>
      <trkpt lat="42.98431" lon="0.85794">
        <ele>1115.27</ele>
        <time>2019-07-28T10:36:37Z</time>
      </trkpt>
      <trkpt lat="42.98424" lon="0.85782">
        <ele>1117.67</ele>
        <time>2019-07-28T10:36:53Z</time>
      </trkpt>
      <trkpt lat="42.98419" lon="0.85764">
        <ele>1118.63</ele>
        <time>2019-07-28T10:37:10Z</time>
      </trkpt>
      <trkpt lat="42.98417" lon="0.8575">
        <ele>1120.07</ele>
        <time>2019-07-28T10:37:25Z</time>
      </trkpt>
      <trkpt lat="42.98415" lon="0.85747">
        <ele>1120.07</ele>
        <time>2019-07-28T10:37:47Z</time>
      </trkpt>
      <trkpt lat="42.98416" lon="0.85747">
        <ele>1120.55</ele>
        <time>2019-07-28T10:38:05Z</time>
      </trkpt>
      <trkpt lat="42.98416" lon="0.85746">
        <ele>1120.55</ele>
        <time>2019-07-28T10:38:22Z</time>
      </trkpt>
      <trkpt lat="42.98415" lon="0.85745">
        <ele>1121.03</ele>
        <time>2019-07-28T10:38:45Z</time>
      </trkpt>
      <trkpt lat="42.98414" lon="0.85728">
        <ele>1122</ele>
        <time>2019-07-28T10:38:59Z</time>
      </trkpt>
      <trkpt lat="42.98413" lon="0.85717">
        <ele>1123.44</ele>
        <time>2019-07-28T10:39:13Z</time>
      </trkpt>
      <trkpt lat="42.9841" lon="0.85721">
        <ele>1123.44</ele>
        <time>2019-07-28T10:39:29Z</time>
      </trkpt>
      <trkpt lat="42.98408" lon="0.85731">
        <ele>1122</ele>
        <time>2019-07-28T10:39:42Z</time>
      </trkpt>
      <trkpt lat="42.98405" lon="0.85739">
        <ele>1120.07</ele>
        <time>2019-07-28T10:39:57Z</time>
      </trkpt>
      <trkpt lat="42.98399" lon="0.85734">
        <ele>1119.11</ele>
        <time>2019-07-28T10:40:14Z</time>
      </trkpt>
      <trkpt lat="42.98398" lon="0.85732">
        <ele>1118.63</ele>
        <time>2019-07-28T10:40:27Z</time>
      </trkpt>
      <trkpt lat="42.98393" lon="0.85737">
        <ele>1117.67</ele>
        <time>2019-07-28T10:40:40Z</time>
      </trkpt>
      <trkpt lat="42.98393" lon="0.85739">
        <ele>1117.67</ele>
        <time>2019-07-28T10:40:43Z</time>
      </trkpt>
      <trkpt lat="42.98396" lon="0.85745">
        <ele>1117.19</ele>
        <time>2019-07-28T10:40:48Z</time>
      </trkpt>
      <trkpt lat="42.98397" lon="0.85754">
        <ele>1116.23</ele>
        <time>2019-07-28T10:40:54Z</time>
      </trkpt>
      <trkpt lat="42.98401" lon="0.85771">
        <ele>1114.79</ele>
        <time>2019-07-28T10:41:10Z</time>
      </trkpt>
      <trkpt lat="42.98401" lon="0.85768">
        <ele>1114.79</ele>
        <time>2019-07-28T10:41:18Z</time>
      </trkpt>
      <trkpt lat="42.98397" lon="0.85752">
        <ele>1116.23</ele>
        <time>2019-07-28T10:41:28Z</time>
      </trkpt>
      <trkpt lat="42.98395" lon="0.85738">
        <ele>1117.19</ele>
        <time>2019-07-28T10:41:37Z</time>
      </trkpt>
      <trkpt lat="42.98391" lon="0.85737">
        <ele>1117.67</ele>
        <time>2019-07-28T10:41:42Z</time>
      </trkpt>
      <trkpt lat="42.98376" lon="0.8575">
        <ele>1119.59</ele>
        <time>2019-07-28T10:41:58Z</time>
      </trkpt>
      <trkpt lat="42.98374" lon="0.85753">
        <ele>1120.07</ele>
        <time>2019-07-28T10:42:01Z</time>
      </trkpt>
      <trkpt lat="42.98364" lon="0.8576">
        <ele>1122</ele>
        <time>2019-07-28T10:42:11Z</time>
      </trkpt>
      <trkpt lat="42.98351" lon="0.85764">
        <ele>1125.84</ele>
        <time>2019-07-28T10:42:23Z</time>
      </trkpt>
      <trkpt lat="42.98346" lon="0.85766">
        <ele>1126.8</ele>
        <time>2019-07-28T10:42:36Z</time>
      </trkpt>
      <trkpt lat="42.98338" lon="0.85762">
        <ele>1128.24</ele>
        <time>2019-07-28T10:42:54Z</time>
      </trkpt>
      <trkpt lat="42.98328" lon="0.85755">
        <ele>1130.65</ele>
        <time>2019-07-28T10:43:09Z</time>
      </trkpt>
      <trkpt lat="42.98321" lon="0.85752">
        <ele>1133.53</ele>
        <time>2019-07-28T10:43:21Z</time>
      </trkpt>
      <trkpt lat="42.98311" lon="0.8575">
        <ele>1135.94</ele>
        <time>2019-07-28T10:43:37Z</time>
      </trkpt>
      <trkpt lat="42.98295" lon="0.85755">
        <ele>1136.9</ele>
        <time>2019-07-28T10:43:55Z</time>
      </trkpt>
      <trkpt lat="42.98288" lon="0.85753">
        <ele>1136.9</ele>
        <time>2019-07-28T10:44:08Z</time>
      </trkpt>
      <trkpt lat="42.98277" lon="0.85737">
        <ele>1138.82</ele>
        <time>2019-07-28T10:44:25Z</time>
      </trkpt>
      <trkpt lat="42.98272" lon="0.85715">
        <ele>1142.66</ele>
        <time>2019-07-28T10:44:44Z</time>
      </trkpt>
      <trkpt lat="42.98268" lon="0.85703">
        <ele>1144.11</ele>
        <time>2019-07-28T10:44:55Z</time>
      </trkpt>
      <trkpt lat="42.98261" lon="0.85689">
        <ele>1144.59</ele>
        <time>2019-07-28T10:45:10Z</time>
      </trkpt>
      <trkpt lat="42.9826" lon="0.85687">
        <ele>1144.59</ele>
        <time>2019-07-28T10:45:11Z</time>
      </trkpt>
      <trkpt lat="42.98242" lon="0.85665">
        <ele>1144.59</ele>
        <time>2019-07-28T10:45:24Z</time>
      </trkpt>
      <trkpt lat="42.9824" lon="0.85665">
        <ele>1144.59</ele>
        <time>2019-07-28T10:45:25Z</time>
      </trkpt>
      <trkpt lat="42.98238" lon="0.85666">
        <ele>1144.59</ele>
        <time>2019-07-28T10:45:28Z</time>
      </trkpt>
      <trkpt lat="42.98237" lon="0.85667">
        <ele>1144.59</ele>
        <time>2019-07-28T10:45:29Z</time>
      </trkpt>
      <trkpt lat="42.98236" lon="0.85668">
        <ele>1144.59</ele>
        <time>2019-07-28T10:45:30Z</time>
      </trkpt>
      <trkpt lat="42.98235" lon="0.85669">
        <ele>1144.59</ele>
        <time>2019-07-28T10:45:31Z</time>
      </trkpt>
      <trkpt lat="42.98234" lon="0.85671">
        <ele>1144.59</ele>
        <time>2019-07-28T10:45:32Z</time>
      </trkpt>
      <trkpt lat="42.98233" lon="0.85672">
        <ele>1144.59</ele>
        <time>2019-07-28T10:45:33Z</time>
      </trkpt>
      <trkpt lat="42.98233" lon="0.85673">
        <ele>1144.59</ele>
        <time>2019-07-28T10:45:34Z</time>
      </trkpt>
      <trkpt lat="42.98232" lon="0.85674">
        <ele>1145.07</ele>
        <time>2019-07-28T10:45:35Z</time>
      </trkpt>
      <trkpt lat="42.98231" lon="0.85676">
        <ele>1145.07</ele>
        <time>2019-07-28T10:45:36Z</time>
      </trkpt>
      <trkpt lat="42.98228" lon="0.85678">
        <ele>1145.55</ele>
        <time>2019-07-28T10:45:39Z</time>
      </trkpt>
      <trkpt lat="42.98227" lon="0.85679">
        <ele>1145.55</ele>
        <time>2019-07-28T10:45:40Z</time>
      </trkpt>
      <trkpt lat="42.98222" lon="0.85682">
        <ele>1146.99</ele>
        <time>2019-07-28T10:45:45Z</time>
      </trkpt>
      <trkpt lat="42.98216" lon="0.85686">
        <ele>1148.43</ele>
        <time>2019-07-28T10:45:56Z</time>
      </trkpt>
      <trkpt lat="42.98205" lon="0.85686">
        <ele>1150.35</ele>
        <time>2019-07-28T10:46:11Z</time>
      </trkpt>
      <trkpt lat="42.98192" lon="0.85681">
        <ele>1151.8</ele>
        <time>2019-07-28T10:46:29Z</time>
      </trkpt>
      <trkpt lat="42.98185" lon="0.85685">
        <ele>1151.8</ele>
        <time>2019-07-28T10:47:12Z</time>
      </trkpt>
      <trkpt lat="42.98184" lon="0.85688">
        <ele>1150.84</ele>
        <time>2019-07-28T10:48:03Z</time>
      </trkpt>
      <trkpt lat="42.98183" lon="0.8569">
        <ele>1150.84</ele>
        <time>2019-07-28T10:48:39Z</time>
      </trkpt>
      <trkpt lat="42.98184" lon="0.8569">
        <ele>1151.32</ele>
        <time>2019-07-28T10:49:15Z</time>
      </trkpt>
      <trkpt lat="42.98185" lon="0.85692">
        <ele>1151.32</ele>
        <time>2019-07-28T10:50:03Z</time>
      </trkpt>
      <trkpt lat="42.98185" lon="0.85691">
        <ele>1151.8</ele>
        <time>2019-07-28T10:50:42Z</time>
      </trkpt>
      <trkpt lat="42.98187" lon="0.85681">
        <ele>1153.24</ele>
        <time>2019-07-28T10:51:05Z</time>
      </trkpt>
      <trkpt lat="42.98188" lon="0.85679">
        <ele>1153.72</ele>
        <time>2019-07-28T10:51:42Z</time>
      </trkpt>
      <trkpt lat="42.98188" lon="0.8568">
        <ele>1153.72</ele>
        <time>2019-07-28T10:52:02Z</time>
      </trkpt>
      <trkpt lat="42.98187" lon="0.85679">
        <ele>1153.72</ele>
        <time>2019-07-28T10:52:03Z</time>
      </trkpt>
      <trkpt lat="42.98185" lon="0.85678">
        <ele>1153.72</ele>
        <time>2019-07-28T10:52:04Z</time>
      </trkpt>
      <trkpt lat="42.98162" lon="0.85658">
        <ele>1153.72</ele>
        <time>2019-07-28T10:52:18Z</time>
      </trkpt>
      <trkpt lat="42.98148" lon="0.85645">
        <ele>1152.76</ele>
        <time>2019-07-28T10:52:25Z</time>
      </trkpt>
      <trkpt lat="42.98135" lon="0.85635">
        <ele>1149.39</ele>
        <time>2019-07-28T10:52:30Z</time>
      </trkpt>
      <trkpt lat="42.9813" lon="0.8563">
        <ele>1147.95</ele>
        <time>2019-07-28T10:52:33Z</time>
      </trkpt>
      <trkpt lat="42.98129" lon="0.85628">
        <ele>1147.95</ele>
        <time>2019-07-28T10:52:34Z</time>
      </trkpt>
      <trkpt lat="42.98127" lon="0.85625">
        <ele>1147.47</ele>
        <time>2019-07-28T10:52:35Z</time>
      </trkpt>
      <trkpt lat="42.98125" lon="0.85622">
        <ele>1147.47</ele>
        <time>2019-07-28T10:52:36Z</time>
      </trkpt>
      <trkpt lat="42.98121" lon="0.85618">
        <ele>1146.51</ele>
        <time>2019-07-28T10:52:37Z</time>
      </trkpt>
      <trkpt lat="42.98102" lon="0.85593">
        <ele>1143.63</ele>
        <time>2019-07-28T10:52:46Z</time>
      </trkpt>
      <trkpt lat="42.98096" lon="0.85582">
        <ele>1143.14</ele>
        <time>2019-07-28T10:52:51Z</time>
      </trkpt>
      <trkpt lat="42.98095" lon="0.85581">
        <ele>1142.66</ele>
        <time>2019-07-28T10:52:52Z</time>
      </trkpt>
      <trkpt lat="42.98094" lon="0.85581">
        <ele>1142.66</ele>
        <time>2019-07-28T10:52:53Z</time>
      </trkpt>
      <trkpt lat="42.98088" lon="0.85578">
        <ele>1142.18</ele>
        <time>2019-07-28T10:52:57Z</time>
      </trkpt>
      <trkpt lat="42.98086" lon="0.85576">
        <ele>1142.66</ele>
        <time>2019-07-28T10:53:12Z</time>
      </trkpt>
      <trkpt lat="42.98087" lon="0.85576">
        <ele>1141.22</ele>
        <time>2019-07-28T10:53:28Z</time>
      </trkpt>
      <trkpt lat="42.9809" lon="0.85576">
        <ele>1141.22</ele>
        <time>2019-07-28T10:53:35Z</time>
      </trkpt>
      <trkpt lat="42.98095" lon="0.85578">
        <ele>1141.22</ele>
        <time>2019-07-28T10:53:40Z</time>
      </trkpt>
      <trkpt lat="42.98095" lon="0.85579">
        <ele>1141.22</ele>
        <time>2019-07-28T10:53:41Z</time>
      </trkpt>
      <trkpt lat="42.98096" lon="0.8558">
        <ele>1141.22</ele>
        <time>2019-07-28T10:53:42Z</time>
      </trkpt>
      <trkpt lat="42.98097" lon="0.85581">
        <ele>1142.66</ele>
        <time>2019-07-28T10:53:43Z</time>
      </trkpt>
      <trkpt lat="42.98098" lon="0.85582">
        <ele>1142.66</ele>
        <time>2019-07-28T10:53:44Z</time>
      </trkpt>
      <trkpt lat="42.98101" lon="0.8559">
        <ele>1143.14</ele>
        <time>2019-07-28T10:53:50Z</time>
      </trkpt>
      <trkpt lat="42.98102" lon="0.85591">
        <ele>1143.14</ele>
        <time>2019-07-28T10:53:51Z</time>
      </trkpt>
      <trkpt lat="42.98105" lon="0.85594">
        <ele>1143.14</ele>
        <time>2019-07-28T10:54:04Z</time>
      </trkpt>
      <trkpt lat="42.98115" lon="0.85608">
        <ele>1144.59</ele>
        <time>2019-07-28T10:54:16Z</time>
      </trkpt>
      <trkpt lat="42.98127" lon="0.85621">
        <ele>1146.99</ele>
        <time>2019-07-28T10:54:29Z</time>
      </trkpt>
      <trkpt lat="42.98138" lon="0.85635">
        <ele>1149.87</ele>
        <time>2019-07-28T10:54:46Z</time>
      </trkpt>
      <trkpt lat="42.98153" lon="0.85648">
        <ele>1152.76</ele>
        <time>2019-07-28T10:55:02Z</time>
      </trkpt>
      <trkpt lat="42.98169" lon="0.85665">
        <ele>1153.24</ele>
        <time>2019-07-28T10:55:19Z</time>
      </trkpt>
      <trkpt lat="42.98184" lon="0.85676">
        <ele>1153.24</ele>
        <time>2019-07-28T10:55:30Z</time>
      </trkpt>
      <trkpt lat="42.98202" lon="0.85685">
        <ele>1153.72</ele>
        <time>2019-07-28T10:55:41Z</time>
      </trkpt>
      <trkpt lat="42.982" lon="0.8568">
        <ele>1154.68</ele>
        <time>2019-07-28T10:55:52Z</time>
      </trkpt>
      <trkpt lat="42.98199" lon="0.85679">
        <ele>1155.64</ele>
        <time>2019-07-28T10:55:55Z</time>
      </trkpt>
      <trkpt lat="42.98195" lon="0.85672">
        <ele>1158.53</ele>
        <time>2019-07-28T10:56:07Z</time>
      </trkpt>
      <trkpt lat="42.98192" lon="0.85666">
        <ele>1159.49</ele>
        <time>2019-07-28T10:56:17Z</time>
      </trkpt>
      <trkpt lat="42.98186" lon="0.8566">
        <ele>1161.89</ele>
        <time>2019-07-28T10:56:31Z</time>
      </trkpt>
      <trkpt lat="42.98185" lon="0.85659">
        <ele>1161.89</ele>
        <time>2019-07-28T10:56:32Z</time>
      </trkpt>
      <trkpt lat="42.98178" lon="0.85649">
        <ele>1162.85</ele>
        <time>2019-07-28T10:56:43Z</time>
      </trkpt>
      <trkpt lat="42.98171" lon="0.85635">
        <ele>1165.74</ele>
        <time>2019-07-28T10:56:58Z</time>
      </trkpt>
      <trkpt lat="42.98168" lon="0.85622">
        <ele>1168.14</ele>
        <time>2019-07-28T10:57:11Z</time>
      </trkpt>
      <trkpt lat="42.98162" lon="0.85612">
        <ele>1169.1</ele>
        <time>2019-07-28T10:57:24Z</time>
      </trkpt>
      <trkpt lat="42.9816" lon="0.8561">
        <ele>1169.1</ele>
        <time>2019-07-28T10:57:30Z</time>
      </trkpt>
      <trkpt lat="42.98158" lon="0.85605">
        <ele>1169.1</ele>
        <time>2019-07-28T10:57:33Z</time>
      </trkpt>
      <trkpt lat="42.98152" lon="0.85592">
        <ele>1167.66</ele>
        <time>2019-07-28T10:57:38Z</time>
      </trkpt>
      <trkpt lat="42.98149" lon="0.85583">
        <ele>1167.18</ele>
        <time>2019-07-28T10:57:46Z</time>
      </trkpt>
      <trkpt lat="42.98141" lon="0.85567">
        <ele>1168.62</ele>
        <time>2019-07-28T10:57:55Z</time>
      </trkpt>
      <trkpt lat="42.98126" lon="0.85542">
        <ele>1167.66</ele>
        <time>2019-07-28T10:58:08Z</time>
      </trkpt>
      <trkpt lat="42.98123" lon="0.85534">
        <ele>1168.62</ele>
        <time>2019-07-28T10:58:13Z</time>
      </trkpt>
      <trkpt lat="42.98116" lon="0.85526">
        <ele>1169.58</ele>
        <time>2019-07-28T10:58:25Z</time>
      </trkpt>
      <trkpt lat="42.98107" lon="0.85512">
        <ele>1171.02</ele>
        <time>2019-07-28T10:58:40Z</time>
      </trkpt>
      <trkpt lat="42.98098" lon="0.85505">
        <ele>1171.02</ele>
        <time>2019-07-28T10:58:53Z</time>
      </trkpt>
      <trkpt lat="42.9809" lon="0.85504">
        <ele>1172.95</ele>
        <time>2019-07-28T10:59:07Z</time>
      </trkpt>
      <trkpt lat="42.98083" lon="0.85505">
        <ele>1174.39</ele>
        <time>2019-07-28T10:59:19Z</time>
      </trkpt>
      <trkpt lat="42.98075" lon="0.85501">
        <ele>1177.27</ele>
        <time>2019-07-28T10:59:35Z</time>
      </trkpt>
      <trkpt lat="42.98071" lon="0.85501">
        <ele>1179.19</ele>
        <time>2019-07-28T10:59:49Z</time>
      </trkpt>
      <trkpt lat="42.98067" lon="0.85498">
        <ele>1180.16</ele>
        <time>2019-07-28T11:00:03Z</time>
      </trkpt>
      <trkpt lat="42.98066" lon="0.85496">
        <ele>1181.12</ele>
        <time>2019-07-28T11:00:24Z</time>
      </trkpt>
      <trkpt lat="42.98064" lon="0.85494">
        <ele>1182.08</ele>
        <time>2019-07-28T11:00:36Z</time>
      </trkpt>
      <trkpt lat="42.98059" lon="0.8549">
        <ele>1184.48</ele>
        <time>2019-07-28T11:00:48Z</time>
      </trkpt>
      <trkpt lat="42.98053" lon="0.85488">
        <ele>1186.4</ele>
        <time>2019-07-28T11:01:01Z</time>
      </trkpt>
      <trkpt lat="42.98047" lon="0.85486">
        <ele>1187.85</ele>
        <time>2019-07-28T11:01:14Z</time>
      </trkpt>
      <trkpt lat="42.98043" lon="0.85483">
        <ele>1188.81</ele>
        <time>2019-07-28T11:01:25Z</time>
      </trkpt>
      <trkpt lat="42.98037" lon="0.85481">
        <ele>1189.77</ele>
        <time>2019-07-28T11:01:39Z</time>
      </trkpt>
      <trkpt lat="42.98031" lon="0.85478">
        <ele>1191.69</ele>
        <time>2019-07-28T11:01:55Z</time>
      </trkpt>
      <trkpt lat="42.98029" lon="0.85479">
        <ele>1192.17</ele>
        <time>2019-07-28T11:02:20Z</time>
      </trkpt>
      <trkpt lat="42.98023" lon="0.85474">
        <ele>1194.58</ele>
        <time>2019-07-28T11:02:36Z</time>
      </trkpt>
      <trkpt lat="42.98019" lon="0.8547">
        <ele>1196.5</ele>
        <time>2019-07-28T11:02:50Z</time>
      </trkpt>
      <trkpt lat="42.98011" lon="0.85464">
        <ele>1199.38</ele>
        <time>2019-07-28T11:03:06Z</time>
      </trkpt>
      <trkpt lat="42.98005" lon="0.8546">
        <ele>1200.82</ele>
        <time>2019-07-28T11:03:20Z</time>
      </trkpt>
      <trkpt lat="42.98001" lon="0.85456">
        <ele>1202.75</ele>
        <time>2019-07-28T11:03:34Z</time>
      </trkpt>
      <trkpt lat="42.97994" lon="0.85451">
        <ele>1204.67</ele>
        <time>2019-07-28T11:03:50Z</time>
      </trkpt>
      <trkpt lat="42.97988" lon="0.85447">
        <ele>1206.59</ele>
        <time>2019-07-28T11:04:08Z</time>
      </trkpt>
      <trkpt lat="42.97988" lon="0.85448">
        <ele>1206.59</ele>
        <time>2019-07-28T11:04:23Z</time>
      </trkpt>
      <trkpt lat="42.97988" lon="0.85451">
        <ele>1206.59</ele>
        <time>2019-07-28T11:04:55Z</time>
      </trkpt>
      <trkpt lat="42.97987" lon="0.85447">
        <ele>1206.11</ele>
        <time>2019-07-28T11:05:25Z</time>
      </trkpt>
      <trkpt lat="42.97981" lon="0.85443">
        <ele>1207.55</ele>
        <time>2019-07-28T11:05:44Z</time>
      </trkpt>
      <trkpt lat="42.97977" lon="0.85439">
        <ele>1208.51</ele>
        <time>2019-07-28T11:05:56Z</time>
      </trkpt>
      <trkpt lat="42.97974" lon="0.85439">
        <ele>1208.51</ele>
        <time>2019-07-28T11:06:14Z</time>
      </trkpt>
      <trkpt lat="42.97967" lon="0.85433">
        <ele>1209.48</ele>
        <time>2019-07-28T11:06:29Z</time>
      </trkpt>
      <trkpt lat="42.97965" lon="0.85435">
        <ele>1209.48</ele>
        <time>2019-07-28T11:06:45Z</time>
      </trkpt>
      <trkpt lat="42.97965" lon="0.85436">
        <ele>1209.48</ele>
        <time>2019-07-28T11:07:22Z</time>
      </trkpt>
      <trkpt lat="42.9796" lon="0.85431">
        <ele>1209.48</ele>
        <time>2019-07-28T11:07:40Z</time>
      </trkpt>
      <trkpt lat="42.97951" lon="0.85425">
        <ele>1209.96</ele>
        <time>2019-07-28T11:07:55Z</time>
      </trkpt>
      <trkpt lat="42.97943" lon="0.85421">
        <ele>1209.96</ele>
        <time>2019-07-28T11:08:14Z</time>
      </trkpt>
      <trkpt lat="42.97939" lon="0.85413">
        <ele>1210.92</ele>
        <time>2019-07-28T11:08:31Z</time>
      </trkpt>
      <trkpt lat="42.97934" lon="0.85405">
        <ele>1212.36</ele>
        <time>2019-07-28T11:08:45Z</time>
      </trkpt>
      <trkpt lat="42.9793" lon="0.85397">
        <ele>1215.24</ele>
        <time>2019-07-28T11:08:58Z</time>
      </trkpt>
      <trkpt lat="42.97923" lon="0.85389">
        <ele>1217.65</ele>
        <time>2019-07-28T11:09:15Z</time>
      </trkpt>
      <trkpt lat="42.97919" lon="0.85386">
        <ele>1219.57</ele>
        <time>2019-07-28T11:09:30Z</time>
      </trkpt>
      <trkpt lat="42.97914" lon="0.85381">
        <ele>1221.49</ele>
        <time>2019-07-28T11:09:43Z</time>
      </trkpt>
      <trkpt lat="42.97909" lon="0.85375">
        <ele>1223.42</ele>
        <time>2019-07-28T11:09:58Z</time>
      </trkpt>
      <trkpt lat="42.97906" lon="0.8537">
        <ele>1224.86</ele>
        <time>2019-07-28T11:10:09Z</time>
      </trkpt>
      <trkpt lat="42.97903" lon="0.85364">
        <ele>1225.82</ele>
        <time>2019-07-28T11:10:25Z</time>
      </trkpt>
      <trkpt lat="42.97897" lon="0.85358">
        <ele>1227.74</ele>
        <time>2019-07-28T11:10:39Z</time>
      </trkpt>
      <trkpt lat="42.97894" lon="0.85353">
        <ele>1229.66</ele>
        <time>2019-07-28T11:10:50Z</time>
      </trkpt>
      <trkpt lat="42.9789" lon="0.85347">
        <ele>1231.59</ele>
        <time>2019-07-28T11:11:04Z</time>
      </trkpt>
      <trkpt lat="42.97891" lon="0.8535">
        <ele>1231.59</ele>
        <time>2019-07-28T11:11:18Z</time>
      </trkpt>
      <trkpt lat="42.9789" lon="0.8535">
        <ele>1230.62</ele>
        <time>2019-07-28T11:11:47Z</time>
      </trkpt>
      <trkpt lat="42.97888" lon="0.85348">
        <ele>1230.14</ele>
        <time>2019-07-28T11:12:25Z</time>
      </trkpt>
      <trkpt lat="42.97889" lon="0.85345">
        <ele>1230.14</ele>
        <time>2019-07-28T11:13:03Z</time>
      </trkpt>
      <trkpt lat="42.97889" lon="0.85349">
        <ele>1230.14</ele>
        <time>2019-07-28T11:13:29Z</time>
      </trkpt>
      <trkpt lat="42.97887" lon="0.85349">
        <ele>1230.14</ele>
        <time>2019-07-28T11:13:59Z</time>
      </trkpt>
      <trkpt lat="42.9789" lon="0.8535">
        <ele>1230.14</ele>
        <time>2019-07-28T11:14:27Z</time>
      </trkpt>
      <trkpt lat="42.97888" lon="0.85351">
        <ele>1230.14</ele>
        <time>2019-07-28T11:14:56Z</time>
      </trkpt>
      <trkpt lat="42.97885" lon="0.8535">
        <ele>1230.14</ele>
        <time>2019-07-28T11:15:22Z</time>
      </trkpt>
      <trkpt lat="42.97886" lon="0.85352">
        <ele>1230.14</ele>
        <time>2019-07-28T11:15:50Z</time>
      </trkpt>
      <trkpt lat="42.97887" lon="0.85352">
        <ele>1229.66</ele>
        <time>2019-07-28T11:16:19Z</time>
      </trkpt>
      <trkpt lat="42.97887" lon="0.85352">
        <ele>1230.14</ele>
        <time>2019-07-28T11:16:49Z</time>
      </trkpt>
      <trkpt lat="42.97884" lon="0.85356">
        <ele>1230.14</ele>
        <time>2019-07-28T11:17:18Z</time>
      </trkpt>
      <trkpt lat="42.97888" lon="0.85349">
        <ele>1230.14</ele>
        <time>2019-07-28T11:17:44Z</time>
      </trkpt>
      <trkpt lat="42.97887" lon="0.85346">
        <ele>1231.59</ele>
        <time>2019-07-28T11:17:50Z</time>
      </trkpt>
      <trkpt lat="42.9788" lon="0.85334">
        <ele>1234.47</ele>
        <time>2019-07-28T11:18:06Z</time>
      </trkpt>
      <trkpt lat="42.97877" lon="0.85326">
        <ele>1237.35</ele>
        <time>2019-07-28T11:18:20Z</time>
      </trkpt>
      <trkpt lat="42.97872" lon="0.85315">
        <ele>1239.76</ele>
        <time>2019-07-28T11:18:37Z</time>
      </trkpt>
      <trkpt lat="42.97864" lon="0.85306">
        <ele>1242.64</ele>
        <time>2019-07-28T11:18:55Z</time>
      </trkpt>
      <trkpt lat="42.97858" lon="0.85298">
        <ele>1244.08</ele>
        <time>2019-07-28T11:19:10Z</time>
      </trkpt>
      <trkpt lat="42.97851" lon="0.85291">
        <ele>1247.93</ele>
        <time>2019-07-28T11:19:27Z</time>
      </trkpt>
      <trkpt lat="42.9784" lon="0.85283">
        <ele>1250.33</ele>
        <time>2019-07-28T11:19:45Z</time>
      </trkpt>
      <trkpt lat="42.97833" lon="0.85278">
        <ele>1252.74</ele>
        <time>2019-07-28T11:20:00Z</time>
      </trkpt>
      <trkpt lat="42.97823" lon="0.85274">
        <ele>1254.18</ele>
        <time>2019-07-28T11:20:16Z</time>
      </trkpt>
      <trkpt lat="42.97816" lon="0.85274">
        <ele>1255.14</ele>
        <time>2019-07-28T11:20:30Z</time>
      </trkpt>
      <trkpt lat="42.97809" lon="0.85273">
        <ele>1256.1</ele>
        <time>2019-07-28T11:20:44Z</time>
      </trkpt>
      <trkpt lat="42.97799" lon="0.8527">
        <ele>1257.06</ele>
        <time>2019-07-28T11:21:01Z</time>
      </trkpt>
      <trkpt lat="42.97798" lon="0.85269">
        <ele>1257.06</ele>
        <time>2019-07-28T11:21:06Z</time>
      </trkpt>
      <trkpt lat="42.97795" lon="0.85267">
        <ele>1257.54</ele>
        <time>2019-07-28T11:21:24Z</time>
      </trkpt>
      <trkpt lat="42.9779" lon="0.85265">
        <ele>1258.5</ele>
        <time>2019-07-28T11:21:37Z</time>
      </trkpt>
      <trkpt lat="42.97781" lon="0.85259">
        <ele>1260.43</ele>
        <time>2019-07-28T11:21:53Z</time>
      </trkpt>
      <trkpt lat="42.97773" lon="0.85251">
        <ele>1262.83</ele>
        <time>2019-07-28T11:22:11Z</time>
      </trkpt>
      <trkpt lat="42.97769" lon="0.85248">
        <ele>1262.83</ele>
        <time>2019-07-28T11:22:25Z</time>
      </trkpt>
      <trkpt lat="42.97765" lon="0.8525">
        <ele>1262.83</ele>
        <time>2019-07-28T11:22:42Z</time>
      </trkpt>
      <trkpt lat="42.97762" lon="0.85253">
        <ele>1262.83</ele>
        <time>2019-07-28T11:22:59Z</time>
      </trkpt>
      <trkpt lat="42.97759" lon="0.85255">
        <ele>1263.31</ele>
        <time>2019-07-28T11:23:11Z</time>
      </trkpt>
      <trkpt lat="42.97754" lon="0.85258">
        <ele>1263.31</ele>
        <time>2019-07-28T11:23:19Z</time>
      </trkpt>
      <trkpt lat="42.97743" lon="0.85262">
        <ele>1262.35</ele>
        <time>2019-07-28T11:23:35Z</time>
      </trkpt>
      <trkpt lat="42.97738" lon="0.85265">
        <ele>1262.35</ele>
        <time>2019-07-28T11:23:50Z</time>
      </trkpt>
      <trkpt lat="42.97712" lon="0.85281">
        <ele>1260.91</ele>
        <time>2019-07-28T11:24:05Z</time>
      </trkpt>
      <trkpt lat="42.97703" lon="0.85298">
        <ele>1259.94</ele>
        <time>2019-07-28T11:24:17Z</time>
      </trkpt>
      <trkpt lat="42.97705" lon="0.853">
        <ele>1259.94</ele>
        <time>2019-07-28T11:24:29Z</time>
      </trkpt>
      <trkpt lat="42.97705" lon="0.85302">
        <ele>1259.94</ele>
        <time>2019-07-28T11:24:47Z</time>
      </trkpt>
      <trkpt lat="42.97705" lon="0.85299">
        <ele>1259.46</ele>
        <time>2019-07-28T11:25:22Z</time>
      </trkpt>
      <trkpt lat="42.97705" lon="0.853">
        <ele>1259.46</ele>
        <time>2019-07-28T11:26:03Z</time>
      </trkpt>
      <trkpt lat="42.97703" lon="0.85299">
        <ele>1259.46</ele>
        <time>2019-07-28T11:26:37Z</time>
      </trkpt>
      <trkpt lat="42.97706" lon="0.853">
        <ele>1258.98</ele>
        <time>2019-07-28T11:27:21Z</time>
      </trkpt>
      <trkpt lat="42.97703" lon="0.85301">
        <ele>1258.98</ele>
        <time>2019-07-28T11:27:57Z</time>
      </trkpt>
      <trkpt lat="42.97706" lon="0.853">
        <ele>1258.98</ele>
        <time>2019-07-28T11:28:32Z</time>
      </trkpt>
      <trkpt lat="42.97701" lon="0.85296">
        <ele>1258.98</ele>
        <time>2019-07-28T11:28:47Z</time>
      </trkpt>
      <trkpt lat="42.97688" lon="0.8531">
        <ele>1258.5</ele>
        <time>2019-07-28T11:28:58Z</time>
      </trkpt>
      <trkpt lat="42.97673" lon="0.85326">
        <ele>1255.14</ele>
        <time>2019-07-28T11:29:05Z</time>
      </trkpt>
      <trkpt lat="42.97668" lon="0.85334">
        <ele>1252.25</ele>
        <time>2019-07-28T11:29:08Z</time>
      </trkpt>
      <trkpt lat="42.97663" lon="0.85341">
        <ele>1250.81</ele>
        <time>2019-07-28T11:29:11Z</time>
      </trkpt>
      <trkpt lat="42.97655" lon="0.85352">
        <ele>1246.97</ele>
        <time>2019-07-28T11:29:15Z</time>
      </trkpt>
      <trkpt lat="42.97645" lon="0.85362">
        <ele>1244.56</ele>
        <time>2019-07-28T11:29:19Z</time>
      </trkpt>
      <trkpt lat="42.9764" lon="0.85369">
        <ele>1243.12</ele>
        <time>2019-07-28T11:29:21Z</time>
      </trkpt>
      <trkpt lat="42.97635" lon="0.85378">
        <ele>1241.2</ele>
        <time>2019-07-28T11:29:23Z</time>
      </trkpt>
      <trkpt lat="42.97631" lon="0.85383">
        <ele>1241.2</ele>
        <time>2019-07-28T11:29:24Z</time>
      </trkpt>
      <trkpt lat="42.97616" lon="0.85401">
        <ele>1238.8</ele>
        <time>2019-07-28T11:29:28Z</time>
      </trkpt>
      <trkpt lat="42.97597" lon="0.85422">
        <ele>1236.87</ele>
        <time>2019-07-28T11:29:38Z</time>
      </trkpt>
      <trkpt lat="42.97599" lon="0.85418">
        <ele>1236.39</ele>
        <time>2019-07-28T11:29:51Z</time>
      </trkpt>
      <trkpt lat="42.976" lon="0.85417">
        <ele>1236.39</ele>
        <time>2019-07-28T11:29:52Z</time>
      </trkpt>
      <trkpt lat="42.97614" lon="0.85404">
        <ele>1237.35</ele>
        <time>2019-07-28T11:30:07Z</time>
      </trkpt>
      <trkpt lat="42.97629" lon="0.85385">
        <ele>1239.28</ele>
        <time>2019-07-28T11:30:24Z</time>
      </trkpt>
      <trkpt lat="42.97641" lon="0.85369">
        <ele>1242.64</ele>
        <time>2019-07-28T11:30:40Z</time>
      </trkpt>
      <trkpt lat="42.97651" lon="0.85355">
        <ele>1245.04</ele>
        <time>2019-07-28T11:30:57Z</time>
      </trkpt>
      <trkpt lat="42.97658" lon="0.85347">
        <ele>1247.93</ele>
        <time>2019-07-28T11:31:13Z</time>
      </trkpt>
      <trkpt lat="42.97659" lon="0.85339">
        <ele>1249.37</ele>
        <time>2019-07-28T11:31:29Z</time>
      </trkpt>
      <trkpt lat="42.97656" lon="0.85333">
        <ele>1247.93</ele>
        <time>2019-07-28T11:31:36Z</time>
      </trkpt>
      <trkpt lat="42.97653" lon="0.85319">
        <ele>1246.97</ele>
        <time>2019-07-28T11:31:51Z</time>
      </trkpt>
      <trkpt lat="42.97658" lon="0.85302">
        <ele>1246.97</ele>
        <time>2019-07-28T11:32:09Z</time>
      </trkpt>
      <trkpt lat="42.97661" lon="0.85292">
        <ele>1246.97</ele>
        <time>2019-07-28T11:32:24Z</time>
      </trkpt>
      <trkpt lat="42.97667" lon="0.85282">
        <ele>1247.45</ele>
        <time>2019-07-28T11:32:39Z</time>
      </trkpt>
      <trkpt lat="42.9767" lon="0.85276">
        <ele>1247.45</ele>
        <time>2019-07-28T11:32:54Z</time>
      </trkpt>
      <trkpt lat="42.97676" lon="0.85272">
        <ele>1248.41</ele>
        <time>2019-07-28T11:33:09Z</time>
      </trkpt>
      <trkpt lat="42.97678" lon="0.85266">
        <ele>1248.89</ele>
        <time>2019-07-28T11:33:25Z</time>
      </trkpt>
      <trkpt lat="42.97677" lon="0.85264">
        <ele>1247.45</ele>
        <time>2019-07-28T11:33:29Z</time>
      </trkpt>
      <trkpt lat="42.97676" lon="0.85262">
        <ele>1246.97</ele>
        <time>2019-07-28T11:33:46Z</time>
      </trkpt>
      <trkpt lat="42.97678" lon="0.85263">
        <ele>1246.49</ele>
        <time>2019-07-28T11:34:06Z</time>
      </trkpt>
      <trkpt lat="42.97677" lon="0.85259">
        <ele>1246.97</ele>
        <time>2019-07-28T11:34:19Z</time>
      </trkpt>
      <trkpt lat="42.97676" lon="0.85252">
        <ele>1245.53</ele>
        <time>2019-07-28T11:34:29Z</time>
      </trkpt>
      <trkpt lat="42.97678" lon="0.85246">
        <ele>1244.56</ele>
        <time>2019-07-28T11:34:40Z</time>
      </trkpt>
      <trkpt lat="42.97678" lon="0.85234">
        <ele>1243.6</ele>
        <time>2019-07-28T11:34:53Z</time>
      </trkpt>
      <trkpt lat="42.97683" lon="0.85223">
        <ele>1243.12</ele>
        <time>2019-07-28T11:35:09Z</time>
      </trkpt>
      <trkpt lat="42.97688" lon="0.85213">
        <ele>1242.16</ele>
        <time>2019-07-28T11:35:22Z</time>
      </trkpt>
      <trkpt lat="42.97697" lon="0.85202">
        <ele>1241.2</ele>
        <time>2019-07-28T11:35:37Z</time>
      </trkpt>
      <trkpt lat="42.97702" lon="0.85197">
        <ele>1240.24</ele>
        <time>2019-07-28T11:35:51Z</time>
      </trkpt>
      <trkpt lat="42.97704" lon="0.85195">
        <ele>1239.76</ele>
        <time>2019-07-28T11:36:07Z</time>
      </trkpt>
      <trkpt lat="42.97705" lon="0.8519">
        <ele>1239.76</ele>
        <time>2019-07-28T11:36:41Z</time>
      </trkpt>
      <trkpt lat="42.97704" lon="0.8518">
        <ele>1236.87</ele>
        <time>2019-07-28T11:36:56Z</time>
      </trkpt>
      <trkpt lat="42.97707" lon="0.85174">
        <ele>1234.47</ele>
        <time>2019-07-28T11:37:12Z</time>
      </trkpt>
      <trkpt lat="42.9771" lon="0.85172">
        <ele>1234.47</ele>
        <time>2019-07-28T11:37:16Z</time>
      </trkpt>
      <trkpt lat="42.97724" lon="0.85163">
        <ele>1233.51</ele>
        <time>2019-07-28T11:37:32Z</time>
      </trkpt>
      <trkpt lat="42.9773" lon="0.85158">
        <ele>1233.51</ele>
        <time>2019-07-28T11:37:47Z</time>
      </trkpt>
      <trkpt lat="42.97739" lon="0.85151">
        <ele>1233.51</ele>
        <time>2019-07-28T11:38:01Z</time>
      </trkpt>
      <trkpt lat="42.97748" lon="0.85148">
        <ele>1233.51</ele>
        <time>2019-07-28T11:38:14Z</time>
      </trkpt>
      <trkpt lat="42.97758" lon="0.85145">
        <ele>1233.51</ele>
        <time>2019-07-28T11:38:30Z</time>
      </trkpt>
      <trkpt lat="42.97763" lon="0.85139">
        <ele>1232.55</ele>
        <time>2019-07-28T11:38:44Z</time>
      </trkpt>
      <trkpt lat="42.97765" lon="0.85137">
        <ele>1232.07</ele>
        <time>2019-07-28T11:38:59Z</time>
      </trkpt>
      <trkpt lat="42.97766" lon="0.85136">
        <ele>1231.59</ele>
        <time>2019-07-28T11:39:19Z</time>
      </trkpt>
      <trkpt lat="42.97771" lon="0.85133">
        <ele>1231.59</ele>
        <time>2019-07-28T11:39:34Z</time>
      </trkpt>
      <trkpt lat="42.97775" lon="0.85133">
        <ele>1233.03</ele>
        <time>2019-07-28T11:39:47Z</time>
      </trkpt>
      <trkpt lat="42.97782" lon="0.85131">
        <ele>1233.51</ele>
        <time>2019-07-28T11:40:01Z</time>
      </trkpt>
      <trkpt lat="42.97789" lon="0.85126">
        <ele>1233.99</ele>
        <time>2019-07-28T11:40:16Z</time>
      </trkpt>
      <trkpt lat="42.97799" lon="0.85121">
        <ele>1233.99</ele>
        <time>2019-07-28T11:40:31Z</time>
      </trkpt>
      <trkpt lat="42.97804" lon="0.85115">
        <ele>1233.03</ele>
        <time>2019-07-28T11:40:45Z</time>
      </trkpt>
      <trkpt lat="42.97801" lon="0.8511">
        <ele>1233.03</ele>
        <time>2019-07-28T11:41:03Z</time>
      </trkpt>
      <trkpt lat="42.97803" lon="0.85116">
        <ele>1233.03</ele>
        <time>2019-07-28T11:41:33Z</time>
      </trkpt>
      <trkpt lat="42.97807" lon="0.85125">
        <ele>1233.51</ele>
        <time>2019-07-28T11:42:16Z</time>
      </trkpt>
      <trkpt lat="42.97808" lon="0.85131">
        <ele>1233.51</ele>
        <time>2019-07-28T11:42:53Z</time>
      </trkpt>
      <trkpt lat="42.97807" lon="0.85125">
        <ele>1233.99</ele>
        <time>2019-07-28T11:43:28Z</time>
      </trkpt>
      <trkpt lat="42.97811" lon="0.85122">
        <ele>1233.99</ele>
        <time>2019-07-28T11:44:07Z</time>
      </trkpt>
      <trkpt lat="42.97808" lon="0.85122">
        <ele>1234.47</ele>
        <time>2019-07-28T11:44:48Z</time>
      </trkpt>
      <trkpt lat="42.97807" lon="0.85125">
        <ele>1234.95</ele>
        <time>2019-07-28T11:45:27Z</time>
      </trkpt>
      <trkpt lat="42.97808" lon="0.85126">
        <ele>1234.95</ele>
        <time>2019-07-28T11:45:56Z</time>
      </trkpt>
      <trkpt lat="42.9781" lon="0.85119">
        <ele>1235.43</ele>
        <time>2019-07-28T11:46:25Z</time>
      </trkpt>
      <trkpt lat="42.97809" lon="0.8512">
        <ele>1234.95</ele>
        <time>2019-07-28T11:46:49Z</time>
      </trkpt>
      <trkpt lat="42.97809" lon="0.85125">
        <ele>1235.43</ele>
        <time>2019-07-28T11:47:23Z</time>
      </trkpt>
      <trkpt lat="42.97806" lon="0.8512">
        <ele>1235.43</ele>
        <time>2019-07-28T11:47:49Z</time>
      </trkpt>
      <trkpt lat="42.97805" lon="0.85119">
        <ele>1236.87</ele>
        <time>2019-07-28T11:47:53Z</time>
      </trkpt>
      <trkpt lat="42.97803" lon="0.85119">
        <ele>1236.87</ele>
        <time>2019-07-28T11:48:10Z</time>
      </trkpt>
      <trkpt lat="42.97805" lon="0.85115">
        <ele>1236.87</ele>
        <time>2019-07-28T11:48:27Z</time>
      </trkpt>
      <trkpt lat="42.97807" lon="0.85113">
        <ele>1237.35</ele>
        <time>2019-07-28T11:48:44Z</time>
      </trkpt>
      <trkpt lat="42.97811" lon="0.85112">
        <ele>1237.35</ele>
        <time>2019-07-28T11:48:58Z</time>
      </trkpt>
      <trkpt lat="42.97816" lon="0.85109">
        <ele>1237.35</ele>
        <time>2019-07-28T11:49:14Z</time>
      </trkpt>
      <trkpt lat="42.97822" lon="0.85105">
        <ele>1237.35</ele>
        <time>2019-07-28T11:49:29Z</time>
      </trkpt>
      <trkpt lat="42.97831" lon="0.85098">
        <ele>1237.35</ele>
        <time>2019-07-28T11:49:44Z</time>
      </trkpt>
      <trkpt lat="42.97834" lon="0.85094">
        <ele>1236.39</ele>
        <time>2019-07-28T11:49:58Z</time>
      </trkpt>
      <trkpt lat="42.97835" lon="0.8509">
        <ele>1234.95</ele>
        <time>2019-07-28T11:50:12Z</time>
      </trkpt>
      <trkpt lat="42.97841" lon="0.85085">
        <ele>1235.43</ele>
        <time>2019-07-28T11:50:29Z</time>
      </trkpt>
      <trkpt lat="42.97847" lon="0.85081">
        <ele>1236.39</ele>
        <time>2019-07-28T11:50:40Z</time>
      </trkpt>
      <trkpt lat="42.97849" lon="0.85077">
        <ele>1236.39</ele>
        <time>2019-07-28T11:50:56Z</time>
      </trkpt>
      <trkpt lat="42.97854" lon="0.85073">
        <ele>1236.39</ele>
        <time>2019-07-28T11:51:10Z</time>
      </trkpt>
      <trkpt lat="42.97859" lon="0.85065">
        <ele>1236.39</ele>
        <time>2019-07-28T11:51:23Z</time>
      </trkpt>
      <trkpt lat="42.97864" lon="0.85051">
        <ele>1236.39</ele>
        <time>2019-07-28T11:51:38Z</time>
      </trkpt>
      <trkpt lat="42.97869" lon="0.85034">
        <ele>1236.39</ele>
        <time>2019-07-28T11:51:53Z</time>
      </trkpt>
      <trkpt lat="42.97875" lon="0.85024">
        <ele>1235.43</ele>
        <time>2019-07-28T11:52:08Z</time>
      </trkpt>
      <trkpt lat="42.9788" lon="0.85018">
        <ele>1234.95</ele>
        <time>2019-07-28T11:52:22Z</time>
      </trkpt>
      <trkpt lat="42.97884" lon="0.85013">
        <ele>1233.99</ele>
        <time>2019-07-28T11:52:36Z</time>
      </trkpt>
      <trkpt lat="42.97888" lon="0.8501">
        <ele>1233.99</ele>
        <time>2019-07-28T11:52:52Z</time>
      </trkpt>
      <trkpt lat="42.97889" lon="0.85007">
        <ele>1233.99</ele>
        <time>2019-07-28T11:53:08Z</time>
      </trkpt>
      <trkpt lat="42.97892" lon="0.85004">
        <ele>1233.51</ele>
        <time>2019-07-28T11:53:24Z</time>
      </trkpt>
      <trkpt lat="42.97895" lon="0.85">
        <ele>1233.99</ele>
        <time>2019-07-28T11:53:36Z</time>
      </trkpt>
      <trkpt lat="42.97901" lon="0.84993">
        <ele>1233.03</ele>
        <time>2019-07-28T11:53:51Z</time>
      </trkpt>
      <trkpt lat="42.97904" lon="0.84987">
        <ele>1233.03</ele>
        <time>2019-07-28T11:54:09Z</time>
      </trkpt>
      <trkpt lat="42.97904" lon="0.84982">
        <ele>1232.07</ele>
        <time>2019-07-28T11:54:24Z</time>
      </trkpt>
      <trkpt lat="42.97912" lon="0.84977">
        <ele>1231.59</ele>
        <time>2019-07-28T11:54:40Z</time>
      </trkpt>
      <trkpt lat="42.97919" lon="0.84972">
        <ele>1231.11</ele>
        <time>2019-07-28T11:54:55Z</time>
      </trkpt>
      <trkpt lat="42.9792" lon="0.8497">
        <ele>1231.59</ele>
        <time>2019-07-28T11:55:09Z</time>
      </trkpt>
      <trkpt lat="42.97924" lon="0.84968">
        <ele>1231.11</ele>
        <time>2019-07-28T11:55:22Z</time>
      </trkpt>
      <trkpt lat="42.97931" lon="0.84962">
        <ele>1230.62</ele>
        <time>2019-07-28T11:55:39Z</time>
      </trkpt>
      <trkpt lat="42.97932" lon="0.8496">
        <ele>1230.62</ele>
        <time>2019-07-28T11:55:52Z</time>
      </trkpt>
      <trkpt lat="42.97934" lon="0.84955">
        <ele>1229.66</ele>
        <time>2019-07-28T11:56:10Z</time>
      </trkpt>
      <trkpt lat="42.97941" lon="0.84949">
        <ele>1228.22</ele>
        <time>2019-07-28T11:56:24Z</time>
      </trkpt>
      <trkpt lat="42.97944" lon="0.84946">
        <ele>1227.74</ele>
        <time>2019-07-28T11:56:39Z</time>
      </trkpt>
      <trkpt lat="42.97946" lon="0.84942">
        <ele>1227.26</ele>
        <time>2019-07-28T11:56:52Z</time>
      </trkpt>
      <trkpt lat="42.97947" lon="0.84939">
        <ele>1226.78</ele>
        <time>2019-07-28T11:57:06Z</time>
      </trkpt>
      <trkpt lat="42.9795" lon="0.84935">
        <ele>1225.82</ele>
        <time>2019-07-28T11:57:23Z</time>
      </trkpt>
      <trkpt lat="42.97955" lon="0.8493">
        <ele>1224.86</ele>
        <time>2019-07-28T11:57:32Z</time>
      </trkpt>
      <trkpt lat="42.97961" lon="0.84926">
        <ele>1224.86</ele>
        <time>2019-07-28T11:57:44Z</time>
      </trkpt>
      <trkpt lat="42.97971" lon="0.84925">
        <ele>1224.86</ele>
        <time>2019-07-28T11:58:00Z</time>
      </trkpt>
      <trkpt lat="42.97981" lon="0.84925">
        <ele>1226.3</ele>
        <time>2019-07-28T11:58:15Z</time>
      </trkpt>
      <trkpt lat="42.97987" lon="0.84922">
        <ele>1225.34</ele>
        <time>2019-07-28T11:58:27Z</time>
      </trkpt>
      <trkpt lat="42.97996" lon="0.84919">
        <ele>1224.38</ele>
        <time>2019-07-28T11:58:41Z</time>
      </trkpt>
      <trkpt lat="42.98" lon="0.84914">
        <ele>1223.9</ele>
        <time>2019-07-28T11:58:56Z</time>
      </trkpt>
      <trkpt lat="42.98006" lon="0.84905">
        <ele>1222.93</ele>
        <time>2019-07-28T11:59:10Z</time>
      </trkpt>
      <trkpt lat="42.98012" lon="0.84894">
        <ele>1222.45</ele>
        <time>2019-07-28T11:59:24Z</time>
      </trkpt>
      <trkpt lat="42.98017" lon="0.84885">
        <ele>1221.49</ele>
        <time>2019-07-28T11:59:36Z</time>
      </trkpt>
      <trkpt lat="42.98022" lon="0.84878">
        <ele>1221.49</ele>
        <time>2019-07-28T11:59:48Z</time>
      </trkpt>
      <trkpt lat="42.98027" lon="0.84872">
        <ele>1221.01</ele>
        <time>2019-07-28T12:00:03Z</time>
      </trkpt>
      <trkpt lat="42.98026" lon="0.84875">
        <ele>1220.53</ele>
        <time>2019-07-28T12:00:24Z</time>
      </trkpt>
      <trkpt lat="42.98029" lon="0.84877">
        <ele>1221.97</ele>
        <time>2019-07-28T12:00:35Z</time>
      </trkpt>
      <trkpt lat="42.9803" lon="0.84872">
        <ele>1221.01</ele>
        <time>2019-07-28T12:00:52Z</time>
      </trkpt>
      <trkpt lat="42.98031" lon="0.84871">
        <ele>1221.01</ele>
        <time>2019-07-28T12:01:10Z</time>
      </trkpt>
      <trkpt lat="42.98034" lon="0.84866">
        <ele>1220.05</ele>
        <time>2019-07-28T12:01:29Z</time>
      </trkpt>
      <trkpt lat="42.9804" lon="0.84859">
        <ele>1219.57</ele>
        <time>2019-07-28T12:01:42Z</time>
      </trkpt>
      <trkpt lat="42.98048" lon="0.84853">
        <ele>1218.13</ele>
        <time>2019-07-28T12:01:56Z</time>
      </trkpt>
      <trkpt lat="42.98051" lon="0.84848">
        <ele>1217.65</ele>
        <time>2019-07-28T12:02:13Z</time>
      </trkpt>
      <trkpt lat="42.98053" lon="0.84848">
        <ele>1217.65</ele>
        <time>2019-07-28T12:02:26Z</time>
      </trkpt>
      <trkpt lat="42.9806" lon="0.84844">
        <ele>1217.65</ele>
        <time>2019-07-28T12:02:41Z</time>
      </trkpt>
      <trkpt lat="42.98066" lon="0.84836">
        <ele>1215.72</ele>
        <time>2019-07-28T12:02:58Z</time>
      </trkpt>
      <trkpt lat="42.9807" lon="0.84834">
        <ele>1215.72</ele>
        <time>2019-07-28T12:03:11Z</time>
      </trkpt>
      <trkpt lat="42.98074" lon="0.84831">
        <ele>1215.72</ele>
        <time>2019-07-28T12:03:24Z</time>
      </trkpt>
      <trkpt lat="42.98078" lon="0.8483">
        <ele>1215.72</ele>
        <time>2019-07-28T12:03:37Z</time>
      </trkpt>
      <trkpt lat="42.98089" lon="0.84826">
        <ele>1214.76</ele>
        <time>2019-07-28T12:03:55Z</time>
      </trkpt>
      <trkpt lat="42.98093" lon="0.84825">
        <ele>1214.76</ele>
        <time>2019-07-28T12:04:07Z</time>
      </trkpt>
      <trkpt lat="42.98099" lon="0.8482">
        <ele>1214.28</ele>
        <time>2019-07-28T12:04:20Z</time>
      </trkpt>
      <trkpt lat="42.98102" lon="0.84818">
        <ele>1214.28</ele>
        <time>2019-07-28T12:04:34Z</time>
      </trkpt>
      <trkpt lat="42.98104" lon="0.84817">
        <ele>1213.8</ele>
        <time>2019-07-28T12:04:53Z</time>
      </trkpt>
      <trkpt lat="42.98106" lon="0.84816">
        <ele>1212.84</ele>
        <time>2019-07-28T12:05:09Z</time>
      </trkpt>
      <trkpt lat="42.98109" lon="0.84818">
        <ele>1212.84</ele>
        <time>2019-07-28T12:05:30Z</time>
      </trkpt>
      <trkpt lat="42.9811" lon="0.84817">
        <ele>1212.84</ele>
        <time>2019-07-28T12:05:42Z</time>
      </trkpt>
      <trkpt lat="42.98113" lon="0.84813">
        <ele>1212.36</ele>
        <time>2019-07-28T12:05:55Z</time>
      </trkpt>
      <trkpt lat="42.98115" lon="0.8481">
        <ele>1212.36</ele>
        <time>2019-07-28T12:06:09Z</time>
      </trkpt>
      <trkpt lat="42.98119" lon="0.84807">
        <ele>1211.88</ele>
        <time>2019-07-28T12:06:20Z</time>
      </trkpt>
      <trkpt lat="42.98125" lon="0.84802">
        <ele>1211.88</ele>
        <time>2019-07-28T12:06:33Z</time>
      </trkpt>
      <trkpt lat="42.98129" lon="0.84795">
        <ele>1209.96</ele>
        <time>2019-07-28T12:06:48Z</time>
      </trkpt>
      <trkpt lat="42.98129" lon="0.84793">
        <ele>1209.96</ele>
        <time>2019-07-28T12:07:01Z</time>
      </trkpt>
      <trkpt lat="42.9813" lon="0.84788">
        <ele>1209.96</ele>
        <time>2019-07-28T12:07:19Z</time>
      </trkpt>
      <trkpt lat="42.98131" lon="0.84781">
        <ele>1209.96</ele>
        <time>2019-07-28T12:07:23Z</time>
      </trkpt>
      <trkpt lat="42.98131" lon="0.84763">
        <ele>1209</ele>
        <time>2019-07-28T12:07:38Z</time>
      </trkpt>
      <trkpt lat="42.98136" lon="0.84751">
        <ele>1208.03</ele>
        <time>2019-07-28T12:07:52Z</time>
      </trkpt>
      <trkpt lat="42.98144" lon="0.84738">
        <ele>1207.07</ele>
        <time>2019-07-28T12:08:07Z</time>
      </trkpt>
      <trkpt lat="42.98148" lon="0.84732">
        <ele>1206.11</ele>
        <time>2019-07-28T12:08:20Z</time>
      </trkpt>
      <trkpt lat="42.98155" lon="0.84725">
        <ele>1205.15</ele>
        <time>2019-07-28T12:08:34Z</time>
      </trkpt>
      <trkpt lat="42.98158" lon="0.84718">
        <ele>1205.15</ele>
        <time>2019-07-28T12:08:51Z</time>
      </trkpt>
      <trkpt lat="42.98167" lon="0.84715">
        <ele>1203.71</ele>
        <time>2019-07-28T12:09:04Z</time>
      </trkpt>
      <trkpt lat="42.98176" lon="0.8471">
        <ele>1202.75</ele>
        <time>2019-07-28T12:09:19Z</time>
      </trkpt>
      <trkpt lat="42.98186" lon="0.84705">
        <ele>1202.27</ele>
        <time>2019-07-28T12:09:37Z</time>
      </trkpt>
      <trkpt lat="42.98195" lon="0.847">
        <ele>1201.3</ele>
        <time>2019-07-28T12:09:50Z</time>
      </trkpt>
      <trkpt lat="42.98203" lon="0.84696">
        <ele>1200.34</ele>
        <time>2019-07-28T12:10:03Z</time>
      </trkpt>
      <trkpt lat="42.98215" lon="0.84687">
        <ele>1198.9</ele>
        <time>2019-07-28T12:10:21Z</time>
      </trkpt>
      <trkpt lat="42.98227" lon="0.84683">
        <ele>1197.94</ele>
        <time>2019-07-28T12:10:35Z</time>
      </trkpt>
      <trkpt lat="42.98236" lon="0.8468">
        <ele>1196.98</ele>
        <time>2019-07-28T12:10:47Z</time>
      </trkpt>
      <trkpt lat="42.98248" lon="0.84682">
        <ele>1196.02</ele>
        <time>2019-07-28T12:11:02Z</time>
      </trkpt>
      <trkpt lat="42.98254" lon="0.84685">
        <ele>1196.02</ele>
        <time>2019-07-28T12:11:14Z</time>
      </trkpt>
      <trkpt lat="42.98261" lon="0.84687">
        <ele>1195.06</ele>
        <time>2019-07-28T12:11:26Z</time>
      </trkpt>
      <trkpt lat="42.98267" lon="0.84691">
        <ele>1194.09</ele>
        <time>2019-07-28T12:11:39Z</time>
      </trkpt>
      <trkpt lat="42.98271" lon="0.84694">
        <ele>1193.13</ele>
        <time>2019-07-28T12:11:52Z</time>
      </trkpt>
      <trkpt lat="42.98274" lon="0.84697">
        <ele>1192.65</ele>
        <time>2019-07-28T12:12:09Z</time>
      </trkpt>
      <trkpt lat="42.98278" lon="0.84702">
        <ele>1192.65</ele>
        <time>2019-07-28T12:12:22Z</time>
      </trkpt>
      <trkpt lat="42.98282" lon="0.84705">
        <ele>1192.65</ele>
        <time>2019-07-28T12:12:39Z</time>
      </trkpt>
      <trkpt lat="42.98286" lon="0.84707">
        <ele>1192.17</ele>
        <time>2019-07-28T12:12:52Z</time>
      </trkpt>
      <trkpt lat="42.98288" lon="0.84709">
        <ele>1191.69</ele>
        <time>2019-07-28T12:13:07Z</time>
      </trkpt>
      <trkpt lat="42.98294" lon="0.84711">
        <ele>1191.21</ele>
        <time>2019-07-28T12:13:23Z</time>
      </trkpt>
      <trkpt lat="42.98299" lon="0.84715">
        <ele>1191.21</ele>
        <time>2019-07-28T12:13:40Z</time>
      </trkpt>
      <trkpt lat="42.98306" lon="0.84718">
        <ele>1190.73</ele>
        <time>2019-07-28T12:13:55Z</time>
      </trkpt>
      <trkpt lat="42.9831" lon="0.8472">
        <ele>1189.77</ele>
        <time>2019-07-28T12:14:06Z</time>
      </trkpt>
      <trkpt lat="42.98314" lon="0.84723">
        <ele>1189.77</ele>
        <time>2019-07-28T12:14:19Z</time>
      </trkpt>
      <trkpt lat="42.98317" lon="0.84725">
        <ele>1189.77</ele>
        <time>2019-07-28T12:14:34Z</time>
      </trkpt>
      <trkpt lat="42.9832" lon="0.84729">
        <ele>1189.29</ele>
        <time>2019-07-28T12:14:44Z</time>
      </trkpt>
      <trkpt lat="42.98324" lon="0.84732">
        <ele>1188.33</ele>
        <time>2019-07-28T12:14:58Z</time>
      </trkpt>
      <trkpt lat="42.98326" lon="0.84732">
        <ele>1188.33</ele>
        <time>2019-07-28T12:15:12Z</time>
      </trkpt>
      <trkpt lat="42.98328" lon="0.84733">
        <ele>1188.33</ele>
        <time>2019-07-28T12:15:23Z</time>
      </trkpt>
      <trkpt lat="42.98335" lon="0.8474">
        <ele>1187.37</ele>
        <time>2019-07-28T12:15:38Z</time>
      </trkpt>
      <trkpt lat="42.98337" lon="0.84743">
        <ele>1187.37</ele>
        <time>2019-07-28T12:15:48Z</time>
      </trkpt>
      <trkpt lat="42.98337" lon="0.84742">
        <ele>1187.37</ele>
        <time>2019-07-28T12:16:01Z</time>
      </trkpt>
      <trkpt lat="42.98339" lon="0.84745">
        <ele>1187.37</ele>
        <time>2019-07-28T12:16:34Z</time>
      </trkpt>
      <trkpt lat="42.98339" lon="0.84744">
        <ele>1187.37</ele>
        <time>2019-07-28T12:16:47Z</time>
      </trkpt>
      <trkpt lat="42.98341" lon="0.84747">
        <ele>1187.37</ele>
        <time>2019-07-28T12:17:00Z</time>
      </trkpt>
      <trkpt lat="42.98343" lon="0.84749">
        <ele>1187.37</ele>
        <time>2019-07-28T12:17:13Z</time>
      </trkpt>
      <trkpt lat="42.98343" lon="0.8475">
        <ele>1187.37</ele>
        <time>2019-07-28T12:17:30Z</time>
      </trkpt>
      <trkpt lat="42.98343" lon="0.84751">
        <ele>1187.37</ele>
        <time>2019-07-28T12:17:47Z</time>
      </trkpt>
      <trkpt lat="42.98346" lon="0.84755">
        <ele>1188.33</ele>
        <time>2019-07-28T12:18:00Z</time>
      </trkpt>
      <trkpt lat="42.98347" lon="0.84759">
        <ele>1188.33</ele>
        <time>2019-07-28T12:18:12Z</time>
      </trkpt>
      <trkpt lat="42.98347" lon="0.8476">
        <ele>1188.33</ele>
        <time>2019-07-28T12:18:30Z</time>
      </trkpt>
      <trkpt lat="42.98351" lon="0.84763">
        <ele>1187.85</ele>
        <time>2019-07-28T12:18:45Z</time>
      </trkpt>
      <trkpt lat="42.98355" lon="0.84764">
        <ele>1186.4</ele>
        <time>2019-07-28T12:18:59Z</time>
      </trkpt>
      <trkpt lat="42.98357" lon="0.84766">
        <ele>1185.44</ele>
        <time>2019-07-28T12:19:10Z</time>
      </trkpt>
      <trkpt lat="42.9836" lon="0.84769">
        <ele>1183.52</ele>
        <time>2019-07-28T12:19:27Z</time>
      </trkpt>
      <trkpt lat="42.98364" lon="0.84774">
        <ele>1182.56</ele>
        <time>2019-07-28T12:19:44Z</time>
      </trkpt>
      <trkpt lat="42.98368" lon="0.84784">
        <ele>1182.08</ele>
        <time>2019-07-28T12:19:58Z</time>
      </trkpt>
      <trkpt lat="42.98369" lon="0.84787">
        <ele>1181.12</ele>
        <time>2019-07-28T12:20:14Z</time>
      </trkpt>
      <trkpt lat="42.9837" lon="0.84786">
        <ele>1180.64</ele>
        <time>2019-07-28T12:20:36Z</time>
      </trkpt>
      <trkpt lat="42.98371" lon="0.84788">
        <ele>1179.67</ele>
        <time>2019-07-28T12:20:53Z</time>
      </trkpt>
      <trkpt lat="42.98371" lon="0.84785">
        <ele>1178.71</ele>
        <time>2019-07-28T12:21:25Z</time>
      </trkpt>
      <trkpt lat="42.98374" lon="0.84783">
        <ele>1178.23</ele>
        <time>2019-07-28T12:21:39Z</time>
      </trkpt>
      <trkpt lat="42.98375" lon="0.84784">
        <ele>1178.23</ele>
        <time>2019-07-28T12:22:05Z</time>
      </trkpt>
      <trkpt lat="42.98372" lon="0.84776">
        <ele>1176.79</ele>
        <time>2019-07-28T12:22:08Z</time>
      </trkpt>
      <trkpt lat="42.98372" lon="0.84773">
        <ele>1176.79</ele>
        <time>2019-07-28T12:22:09Z</time>
      </trkpt>
      <trkpt lat="42.98372" lon="0.8477">
        <ele>1176.31</ele>
        <time>2019-07-28T12:22:10Z</time>
      </trkpt>
      <trkpt lat="42.98372" lon="0.84767">
        <ele>1176.31</ele>
        <time>2019-07-28T12:22:11Z</time>
      </trkpt>
      <trkpt lat="42.98372" lon="0.84763">
        <ele>1175.83</ele>
        <time>2019-07-28T12:22:12Z</time>
      </trkpt>
      <trkpt lat="42.98372" lon="0.84761">
        <ele>1175.83</ele>
        <time>2019-07-28T12:22:13Z</time>
      </trkpt>
      <trkpt lat="42.98371" lon="0.84759">
        <ele>1175.35</ele>
        <time>2019-07-28T12:22:14Z</time>
      </trkpt>
      <trkpt lat="42.98361" lon="0.8473">
        <ele>1172.95</ele>
        <time>2019-07-28T12:22:26Z</time>
      </trkpt>
      <trkpt lat="42.9836" lon="0.84728">
        <ele>1172.47</ele>
        <time>2019-07-28T12:22:27Z</time>
      </trkpt>
      <trkpt lat="42.98342" lon="0.84707">
        <ele>1170.54</ele>
        <time>2019-07-28T12:22:42Z</time>
      </trkpt>
      <trkpt lat="42.98329" lon="0.84698">
        <ele>1169.1</ele>
        <time>2019-07-28T12:23:00Z</time>
      </trkpt>
      <trkpt lat="42.98308" lon="0.84678">
        <ele>1166.22</ele>
        <time>2019-07-28T12:23:11Z</time>
      </trkpt>
      <trkpt lat="42.98292" lon="0.8466">
        <ele>1162.85</ele>
        <time>2019-07-28T12:23:19Z</time>
      </trkpt>
      <trkpt lat="42.98289" lon="0.84657">
        <ele>1162.37</ele>
        <time>2019-07-28T12:23:29Z</time>
      </trkpt>
      <trkpt lat="42.98287" lon="0.84656">
        <ele>1161.41</ele>
        <time>2019-07-28T12:24:01Z</time>
      </trkpt>
      <trkpt lat="42.98286" lon="0.84658">
        <ele>1160.93</ele>
        <time>2019-07-28T12:24:33Z</time>
      </trkpt>
      <trkpt lat="42.98285" lon="0.84658">
        <ele>1162.37</ele>
        <time>2019-07-28T12:24:36Z</time>
      </trkpt>
      <trkpt lat="42.98285" lon="0.84656">
        <ele>1162.37</ele>
        <time>2019-07-28T12:25:00Z</time>
      </trkpt>
      <trkpt lat="42.98287" lon="0.84658">
        <ele>1162.37</ele>
        <time>2019-07-28T12:25:36Z</time>
      </trkpt>
      <trkpt lat="42.98287" lon="0.84659">
        <ele>1162.37</ele>
        <time>2019-07-28T12:26:15Z</time>
      </trkpt>
      <trkpt lat="42.98289" lon="0.84655">
        <ele>1162.37</ele>
        <time>2019-07-28T12:26:47Z</time>
      </trkpt>
      <trkpt lat="42.98284" lon="0.84656">
        <ele>1162.37</ele>
        <time>2019-07-28T12:27:21Z</time>
      </trkpt>
      <trkpt lat="42.98283" lon="0.84651">
        <ele>1162.37</ele>
        <time>2019-07-28T12:27:31Z</time>
      </trkpt>
      <trkpt lat="42.98282" lon="0.8465">
        <ele>1162.37</ele>
        <time>2019-07-28T12:27:32Z</time>
      </trkpt>
      <trkpt lat="42.98282" lon="0.84648">
        <ele>1162.37</ele>
        <time>2019-07-28T12:27:33Z</time>
      </trkpt>
      <trkpt lat="42.98275" lon="0.84635">
        <ele>1159.49</ele>
        <time>2019-07-28T12:27:45Z</time>
      </trkpt>
      <trkpt lat="42.98266" lon="0.84616">
        <ele>1157.08</ele>
        <time>2019-07-28T12:28:02Z</time>
      </trkpt>
      <trkpt lat="42.98259" lon="0.84603">
        <ele>1155.16</ele>
        <time>2019-07-28T12:28:16Z</time>
      </trkpt>
      <trkpt lat="42.98249" lon="0.84596">
        <ele>1151.8</ele>
        <time>2019-07-28T12:28:30Z</time>
      </trkpt>
      <trkpt lat="42.98245" lon="0.84594">
        <ele>1150.84</ele>
        <time>2019-07-28T12:28:45Z</time>
      </trkpt>
      <trkpt lat="42.98245" lon="0.84593">
        <ele>1151.8</ele>
        <time>2019-07-28T12:28:50Z</time>
      </trkpt>
      <trkpt lat="42.98241" lon="0.84595">
        <ele>1150.35</ele>
        <time>2019-07-28T12:29:14Z</time>
      </trkpt>
      <trkpt lat="42.98238" lon="0.84594">
        <ele>1149.87</ele>
        <time>2019-07-28T12:29:19Z</time>
      </trkpt>
      <trkpt lat="42.98236" lon="0.84594">
        <ele>1149.39</ele>
        <time>2019-07-28T12:29:20Z</time>
      </trkpt>
      <trkpt lat="42.98223" lon="0.84597">
        <ele>1146.03</ele>
        <time>2019-07-28T12:29:26Z</time>
      </trkpt>
      <trkpt lat="42.98222" lon="0.84598">
        <ele>1146.03</ele>
        <time>2019-07-28T12:29:27Z</time>
      </trkpt>
      <trkpt lat="42.98209" lon="0.84601">
        <ele>1142.66</ele>
        <time>2019-07-28T12:29:33Z</time>
      </trkpt>
      <trkpt lat="42.98193" lon="0.84602">
        <ele>1139.3</ele>
        <time>2019-07-28T12:29:40Z</time>
      </trkpt>
      <trkpt lat="42.98178" lon="0.846">
        <ele>1136.42</ele>
        <time>2019-07-28T12:29:49Z</time>
      </trkpt>
      <trkpt lat="42.98164" lon="0.84599">
        <ele>1132.57</ele>
        <time>2019-07-28T12:29:57Z</time>
      </trkpt>
      <trkpt lat="42.98163" lon="0.84599">
        <ele>1132.09</ele>
        <time>2019-07-28T12:29:58Z</time>
      </trkpt>
      <trkpt lat="42.98161" lon="0.84598">
        <ele>1132.09</ele>
        <time>2019-07-28T12:29:59Z</time>
      </trkpt>
      <trkpt lat="42.98157" lon="0.84599">
        <ele>1130.65</ele>
        <time>2019-07-28T12:30:10Z</time>
      </trkpt>
      <trkpt lat="42.98154" lon="0.84598">
        <ele>1130.65</ele>
        <time>2019-07-28T12:30:16Z</time>
      </trkpt>
      <trkpt lat="42.98152" lon="0.84598">
        <ele>1130.17</ele>
        <time>2019-07-28T12:30:17Z</time>
      </trkpt>
      <trkpt lat="42.98145" lon="0.84599">
        <ele>1129.21</ele>
        <time>2019-07-28T12:30:20Z</time>
      </trkpt>
      <trkpt lat="42.98133" lon="0.84601">
        <ele>1125.84</ele>
        <time>2019-07-28T12:30:27Z</time>
      </trkpt>
      <trkpt lat="42.98126" lon="0.84604">
        <ele>1123.92</ele>
        <time>2019-07-28T12:30:39Z</time>
      </trkpt>
      <trkpt lat="42.98111" lon="0.84605">
        <ele>1121.03</ele>
        <time>2019-07-28T12:30:54Z</time>
      </trkpt>
      <trkpt lat="42.98097" lon="0.8461">
        <ele>1117.67</ele>
        <time>2019-07-28T12:31:08Z</time>
      </trkpt>
      <trkpt lat="42.98091" lon="0.84615">
        <ele>1116.23</ele>
        <time>2019-07-28T12:31:18Z</time>
      </trkpt>
      <trkpt lat="42.98079" lon="0.84624">
        <ele>1112.86</ele>
        <time>2019-07-28T12:31:24Z</time>
      </trkpt>
      <trkpt lat="42.98077" lon="0.84625">
        <ele>1112.86</ele>
        <time>2019-07-28T12:31:25Z</time>
      </trkpt>
      <trkpt lat="42.98072" lon="0.84626">
        <ele>1111.42</ele>
        <time>2019-07-28T12:31:28Z</time>
      </trkpt>
      <trkpt lat="42.98071" lon="0.84627">
        <ele>1110.94</ele>
        <time>2019-07-28T12:31:29Z</time>
      </trkpt>
      <trkpt lat="42.98069" lon="0.84627">
        <ele>1110.46</ele>
        <time>2019-07-28T12:31:30Z</time>
      </trkpt>
      <trkpt lat="42.98067" lon="0.84628">
        <ele>1110.46</ele>
        <time>2019-07-28T12:31:31Z</time>
      </trkpt>
      <trkpt lat="42.98065" lon="0.84629">
        <ele>1109.5</ele>
        <time>2019-07-28T12:31:32Z</time>
      </trkpt>
      <trkpt lat="42.98063" lon="0.8463">
        <ele>1108.54</ele>
        <time>2019-07-28T12:31:33Z</time>
      </trkpt>
      <trkpt lat="42.9806" lon="0.8463">
        <ele>1108.54</ele>
        <time>2019-07-28T12:31:34Z</time>
      </trkpt>
      <trkpt lat="42.98044" lon="0.84651">
        <ele>1105.65</ele>
        <time>2019-07-28T12:31:43Z</time>
      </trkpt>
      <trkpt lat="42.98038" lon="0.8466">
        <ele>1105.17</ele>
        <time>2019-07-28T12:31:52Z</time>
      </trkpt>
      <trkpt lat="42.98036" lon="0.84663">
        <ele>1105.17</ele>
        <time>2019-07-28T12:31:55Z</time>
      </trkpt>
      <trkpt lat="42.98024" lon="0.84664">
        <ele>1104.69</ele>
        <time>2019-07-28T12:32:08Z</time>
      </trkpt>
      <trkpt lat="42.98" lon="0.84665">
        <ele>1100.85</ele>
        <time>2019-07-28T12:32:18Z</time>
      </trkpt>
      <trkpt lat="42.97988" lon="0.84668">
        <ele>1097.48</ele>
        <time>2019-07-28T12:32:24Z</time>
      </trkpt>
      <trkpt lat="42.9797" lon="0.84672">
        <ele>1094.6</ele>
        <time>2019-07-28T12:32:32Z</time>
      </trkpt>
      <trkpt lat="42.97963" lon="0.84672">
        <ele>1093.64</ele>
        <time>2019-07-28T12:32:44Z</time>
      </trkpt>
      <trkpt lat="42.97953" lon="0.84676">
        <ele>1091.23</ele>
        <time>2019-07-28T12:32:56Z</time>
      </trkpt>
      <trkpt lat="42.97947" lon="0.84678">
        <ele>1089.79</ele>
        <time>2019-07-28T12:33:04Z</time>
      </trkpt>
      <trkpt lat="42.97945" lon="0.84678">
        <ele>1089.79</ele>
        <time>2019-07-28T12:33:05Z</time>
      </trkpt>
      <trkpt lat="42.97942" lon="0.84679">
        <ele>1089.31</ele>
        <time>2019-07-28T12:33:06Z</time>
      </trkpt>
      <trkpt lat="42.97939" lon="0.8468">
        <ele>1089.31</ele>
        <time>2019-07-28T12:33:07Z</time>
      </trkpt>
      <trkpt lat="42.97937" lon="0.84682">
        <ele>1088.35</ele>
        <time>2019-07-28T12:33:08Z</time>
      </trkpt>
      <trkpt lat="42.97934" lon="0.84684">
        <ele>1088.35</ele>
        <time>2019-07-28T12:33:09Z</time>
      </trkpt>
      <trkpt lat="42.97932" lon="0.84686">
        <ele>1087.39</ele>
        <time>2019-07-28T12:33:10Z</time>
      </trkpt>
      <trkpt lat="42.9793" lon="0.84689">
        <ele>1086.91</ele>
        <time>2019-07-28T12:33:11Z</time>
      </trkpt>
      <trkpt lat="42.97928" lon="0.84692">
        <ele>1085.95</ele>
        <time>2019-07-28T12:33:12Z</time>
      </trkpt>
      <trkpt lat="42.97922" lon="0.84698">
        <ele>1084.02</ele>
        <time>2019-07-28T12:33:15Z</time>
      </trkpt>
      <trkpt lat="42.9792" lon="0.84699">
        <ele>1083.06</ele>
        <time>2019-07-28T12:33:16Z</time>
      </trkpt>
      <trkpt lat="42.97919" lon="0.84699">
        <ele>1083.54</ele>
        <time>2019-07-28T12:33:17Z</time>
      </trkpt>
      <trkpt lat="42.97896" lon="0.84689">
        <ele>1080.66</ele>
        <time>2019-07-28T12:33:28Z</time>
      </trkpt>
      <trkpt lat="42.97894" lon="0.84689">
        <ele>1080.66</ele>
        <time>2019-07-28T12:33:29Z</time>
      </trkpt>
      <trkpt lat="42.97882" lon="0.8469">
        <ele>1076.81</ele>
        <time>2019-07-28T12:33:35Z</time>
      </trkpt>
      <trkpt lat="42.97872" lon="0.84694">
        <ele>1073.45</ele>
        <time>2019-07-28T12:33:40Z</time>
      </trkpt>
      <trkpt lat="42.97861" lon="0.84698">
        <ele>1070.08</ele>
        <time>2019-07-28T12:33:47Z</time>
      </trkpt>
      <trkpt lat="42.97858" lon="0.84702">
        <ele>1069.12</ele>
        <time>2019-07-28T12:33:54Z</time>
      </trkpt>
      <trkpt lat="42.97856" lon="0.84705">
        <ele>1068.16</ele>
        <time>2019-07-28T12:34:03Z</time>
      </trkpt>
      <trkpt lat="42.97851" lon="0.84706">
        <ele>1067.2</ele>
        <time>2019-07-28T12:34:12Z</time>
      </trkpt>
      <trkpt lat="42.97848" lon="0.84713">
        <ele>1065.76</ele>
        <time>2019-07-28T12:34:21Z</time>
      </trkpt>
      <trkpt lat="42.97839" lon="0.84716">
        <ele>1062.87</ele>
        <time>2019-07-28T12:34:35Z</time>
      </trkpt>
      <trkpt lat="42.97833" lon="0.84719">
        <ele>1060.95</ele>
        <time>2019-07-28T12:34:44Z</time>
      </trkpt>
      <trkpt lat="42.9782" lon="0.84718">
        <ele>1057.59</ele>
        <time>2019-07-28T12:34:57Z</time>
      </trkpt>
      <trkpt lat="42.97808" lon="0.84719">
        <ele>1055.18</ele>
        <time>2019-07-28T12:35:09Z</time>
      </trkpt>
      <trkpt lat="42.97797" lon="0.84722">
        <ele>1051.82</ele>
        <time>2019-07-28T12:35:14Z</time>
      </trkpt>
      <trkpt lat="42.97787" lon="0.84727">
        <ele>1048.45</ele>
        <time>2019-07-28T12:35:21Z</time>
      </trkpt>
      <trkpt lat="42.97773" lon="0.8473">
        <ele>1045.09</ele>
        <time>2019-07-28T12:35:28Z</time>
      </trkpt>
      <trkpt lat="42.97765" lon="0.84731">
        <ele>1043.65</ele>
        <time>2019-07-28T12:35:31Z</time>
      </trkpt>
      <trkpt lat="42.97749" lon="0.84736">
        <ele>1039.8</ele>
        <time>2019-07-28T12:35:38Z</time>
      </trkpt>
      <trkpt lat="42.97732" lon="0.84743">
        <ele>1036.92</ele>
        <time>2019-07-28T12:35:46Z</time>
      </trkpt>
      <trkpt lat="42.97729" lon="0.84747">
        <ele>1035.96</ele>
        <time>2019-07-28T12:35:48Z</time>
      </trkpt>
      <trkpt lat="42.97727" lon="0.84747">
        <ele>1035.48</ele>
        <time>2019-07-28T12:35:49Z</time>
      </trkpt>
      <trkpt lat="42.97725" lon="0.84746">
        <ele>1035</ele>
        <time>2019-07-28T12:35:50Z</time>
      </trkpt>
      <trkpt lat="42.97724" lon="0.84744">
        <ele>1035</ele>
        <time>2019-07-28T12:35:51Z</time>
      </trkpt>
      <trkpt lat="42.97724" lon="0.84741">
        <ele>1034.52</ele>
        <time>2019-07-28T12:35:52Z</time>
      </trkpt>
      <trkpt lat="42.97725" lon="0.84737">
        <ele>1034.52</ele>
        <time>2019-07-28T12:35:53Z</time>
      </trkpt>
      <trkpt lat="42.97726" lon="0.84734">
        <ele>1034.52</ele>
        <time>2019-07-28T12:35:54Z</time>
      </trkpt>
      <trkpt lat="42.97754" lon="0.84703">
        <ele>1033.07</ele>
        <time>2019-07-28T12:36:05Z</time>
      </trkpt>
      <trkpt lat="42.97797" lon="0.8467">
        <ele>1032.11</ele>
        <time>2019-07-28T12:36:16Z</time>
      </trkpt>
      <trkpt lat="42.97802" lon="0.84667">
        <ele>1032.11</ele>
        <time>2019-07-28T12:36:17Z</time>
      </trkpt>
      <trkpt lat="42.97822" lon="0.84655">
        <ele>1031.15</ele>
        <time>2019-07-28T12:36:21Z</time>
      </trkpt>
      <trkpt lat="42.97827" lon="0.84651">
        <ele>1031.15</ele>
        <time>2019-07-28T12:36:22Z</time>
      </trkpt>
      <trkpt lat="42.97868" lon="0.84618">
        <ele>1029.23</ele>
        <time>2019-07-28T12:36:29Z</time>
      </trkpt>
      <trkpt lat="42.97875" lon="0.84615">
        <ele>1028.75</ele>
        <time>2019-07-28T12:36:30Z</time>
      </trkpt>
      <trkpt lat="42.97881" lon="0.84611">
        <ele>1028.75</ele>
        <time>2019-07-28T12:36:31Z</time>
      </trkpt>
      <trkpt lat="42.97887" lon="0.84607">
        <ele>1027.79</ele>
        <time>2019-07-28T12:36:32Z</time>
      </trkpt>
      <trkpt lat="42.97892" lon="0.84601">
        <ele>1026.83</ele>
        <time>2019-07-28T12:36:33Z</time>
      </trkpt>
      <trkpt lat="42.97894" lon="0.84594">
        <ele>1026.83</ele>
        <time>2019-07-28T12:36:34Z</time>
      </trkpt>
      <trkpt lat="42.97896" lon="0.84586">
        <ele>1026.83</ele>
        <time>2019-07-28T12:36:35Z</time>
      </trkpt>
      <trkpt lat="42.97897" lon="0.84578">
        <ele>1026.83</ele>
        <time>2019-07-28T12:36:36Z</time>
      </trkpt>
      <trkpt lat="42.97899" lon="0.8457">
        <ele>1026.83</ele>
        <time>2019-07-28T12:36:37Z</time>
      </trkpt>
      <trkpt lat="42.97901" lon="0.84562">
        <ele>1025.86</ele>
        <time>2019-07-28T12:36:38Z</time>
      </trkpt>
      <trkpt lat="42.97905" lon="0.84556">
        <ele>1024.9</ele>
        <time>2019-07-28T12:36:39Z</time>
      </trkpt>
      <trkpt lat="42.97911" lon="0.8455">
        <ele>1024.9</ele>
        <time>2019-07-28T12:36:40Z</time>
      </trkpt>
      <trkpt lat="42.97916" lon="0.84546">
        <ele>1024.42</ele>
        <time>2019-07-28T12:36:41Z</time>
      </trkpt>
      <trkpt lat="42.97922" lon="0.84542">
        <ele>1023.46</ele>
        <time>2019-07-28T12:36:42Z</time>
      </trkpt>
      <trkpt lat="42.97928" lon="0.84539">
        <ele>1022.98</ele>
        <time>2019-07-28T12:36:43Z</time>
      </trkpt>
      <trkpt lat="42.97932" lon="0.84533">
        <ele>1022.98</ele>
        <time>2019-07-28T12:36:44Z</time>
      </trkpt>
      <trkpt lat="42.97935" lon="0.84526">
        <ele>1022.02</ele>
        <time>2019-07-28T12:36:45Z</time>
      </trkpt>
      <trkpt lat="42.97936" lon="0.84518">
        <ele>1022.02</ele>
        <time>2019-07-28T12:36:46Z</time>
      </trkpt>
      <trkpt lat="42.97938" lon="0.84511">
        <ele>1021.06</ele>
        <time>2019-07-28T12:36:47Z</time>
      </trkpt>
      <trkpt lat="42.97939" lon="0.84503">
        <ele>1021.06</ele>
        <time>2019-07-28T12:36:48Z</time>
      </trkpt>
      <trkpt lat="42.97941" lon="0.84494">
        <ele>1020.58</ele>
        <time>2019-07-28T12:36:49Z</time>
      </trkpt>
      <trkpt lat="42.97944" lon="0.84486">
        <ele>1020.1</ele>
        <time>2019-07-28T12:36:50Z</time>
      </trkpt>
      <trkpt lat="42.97952" lon="0.8447">
        <ele>1019.13</ele>
        <time>2019-07-28T12:36:52Z</time>
      </trkpt>
      <trkpt lat="42.97957" lon="0.84462">
        <ele>1018.65</ele>
        <time>2019-07-28T12:36:53Z</time>
      </trkpt>
      <trkpt lat="42.97973" lon="0.8444">
        <ele>1017.21</ele>
        <time>2019-07-28T12:36:56Z</time>
      </trkpt>
      <trkpt lat="42.97997" lon="0.84414">
        <ele>1015.29</ele>
        <time>2019-07-28T12:37:00Z</time>
      </trkpt>
      <trkpt lat="42.9803" lon="0.84388">
        <ele>1012.89</ele>
        <time>2019-07-28T12:37:05Z</time>
      </trkpt>
      <trkpt lat="42.98037" lon="0.84385">
        <ele>1012.89</ele>
        <time>2019-07-28T12:37:06Z</time>
      </trkpt>
      <trkpt lat="42.98045" lon="0.84384">
        <ele>1011.93</ele>
        <time>2019-07-28T12:37:07Z</time>
      </trkpt>
      <trkpt lat="42.98053" lon="0.84385">
        <ele>1011.93</ele>
        <time>2019-07-28T12:37:08Z</time>
      </trkpt>
      <trkpt lat="42.9806" lon="0.84387">
        <ele>1011.44</ele>
        <time>2019-07-28T12:37:09Z</time>
      </trkpt>
      <trkpt lat="42.98075" lon="0.84389">
        <ele>1010.48</ele>
        <time>2019-07-28T12:37:11Z</time>
      </trkpt>
      <trkpt lat="42.98082" lon="0.84389">
        <ele>1010</ele>
        <time>2019-07-28T12:37:12Z</time>
      </trkpt>
      <trkpt lat="42.98089" lon="0.84387">
        <ele>1010</ele>
        <time>2019-07-28T12:37:13Z</time>
      </trkpt>
      <trkpt lat="42.98095" lon="0.84384">
        <ele>1009.04</ele>
        <time>2019-07-28T12:37:14Z</time>
      </trkpt>
      <trkpt lat="42.98101" lon="0.84381">
        <ele>1009.04</ele>
        <time>2019-07-28T12:37:15Z</time>
      </trkpt>
      <trkpt lat="42.98139" lon="0.84352">
        <ele>1008.08</ele>
        <time>2019-07-28T12:37:23Z</time>
      </trkpt>
      <trkpt lat="42.98144" lon="0.84347">
        <ele>1008.08</ele>
        <time>2019-07-28T12:37:24Z</time>
      </trkpt>
      <trkpt lat="42.98148" lon="0.84341">
        <ele>1008.08</ele>
        <time>2019-07-28T12:37:25Z</time>
      </trkpt>
      <trkpt lat="42.9816" lon="0.84325">
        <ele>1008.56</ele>
        <time>2019-07-28T12:37:28Z</time>
      </trkpt>
      <trkpt lat="42.98203" lon="0.84284">
        <ele>1008.08</ele>
        <time>2019-07-28T12:37:38Z</time>
      </trkpt>
      <trkpt lat="42.98207" lon="0.84281">
        <ele>1008.08</ele>
        <time>2019-07-28T12:37:39Z</time>
      </trkpt>
      <trkpt lat="42.98211" lon="0.8428">
        <ele>1007.6</ele>
        <time>2019-07-28T12:37:40Z</time>
      </trkpt>
      <trkpt lat="42.98216" lon="0.8428">
        <ele>1007.6</ele>
        <time>2019-07-28T12:37:41Z</time>
      </trkpt>
      <trkpt lat="42.9822" lon="0.84282">
        <ele>1007.6</ele>
        <time>2019-07-28T12:37:42Z</time>
      </trkpt>
      <trkpt lat="42.98225" lon="0.84285">
        <ele>1007.6</ele>
        <time>2019-07-28T12:37:43Z</time>
      </trkpt>
      <trkpt lat="42.98228" lon="0.8429">
        <ele>1007.6</ele>
        <time>2019-07-28T12:37:44Z</time>
      </trkpt>
      <trkpt lat="42.98232" lon="0.84294">
        <ele>1007.12</ele>
        <time>2019-07-28T12:37:45Z</time>
      </trkpt>
      <trkpt lat="42.98245" lon="0.84314">
        <ele>1007.12</ele>
        <time>2019-07-28T12:37:49Z</time>
      </trkpt>
      <trkpt lat="42.98249" lon="0.84319">
        <ele>1007.12</ele>
        <time>2019-07-28T12:37:50Z</time>
      </trkpt>
      <trkpt lat="42.98297" lon="0.84373">
        <ele>1003.75</ele>
        <time>2019-07-28T12:38:00Z</time>
      </trkpt>
      <trkpt lat="42.98358" lon="0.84411">
        <ele>1000.39</ele>
        <time>2019-07-28T12:38:09Z</time>
      </trkpt>
      <trkpt lat="42.98387" lon="0.84422">
        <ele>999.43</ele>
        <time>2019-07-28T12:38:13Z</time>
      </trkpt>
      <trkpt lat="42.98395" lon="0.84423">
        <ele>999.43</ele>
        <time>2019-07-28T12:38:14Z</time>
      </trkpt>
      <trkpt lat="42.9841" lon="0.84424">
        <ele>997.99</ele>
        <time>2019-07-28T12:38:16Z</time>
      </trkpt>
      <trkpt lat="42.98424" lon="0.84427">
        <ele>996.54</ele>
        <time>2019-07-28T12:38:18Z</time>
      </trkpt>
      <trkpt lat="42.98432" lon="0.84431">
        <ele>996.06</ele>
        <time>2019-07-28T12:38:19Z</time>
      </trkpt>
      <trkpt lat="42.98438" lon="0.84436">
        <ele>995.58</ele>
        <time>2019-07-28T12:38:20Z</time>
      </trkpt>
      <trkpt lat="42.98445" lon="0.84442">
        <ele>994.62</ele>
        <time>2019-07-28T12:38:21Z</time>
      </trkpt>
      <trkpt lat="42.9845" lon="0.8445">
        <ele>994.62</ele>
        <time>2019-07-28T12:38:22Z</time>
      </trkpt>
      <trkpt lat="42.98455" lon="0.84458">
        <ele>993.18</ele>
        <time>2019-07-28T12:38:23Z</time>
      </trkpt>
      <trkpt lat="42.9846" lon="0.84466">
        <ele>992.7</ele>
        <time>2019-07-28T12:38:24Z</time>
      </trkpt>
      <trkpt lat="42.98483" lon="0.84503">
        <ele>990.78</ele>
        <time>2019-07-28T12:38:29Z</time>
      </trkpt>
      <trkpt lat="42.98522" lon="0.84555">
        <ele>988.37</ele>
        <time>2019-07-28T12:38:37Z</time>
      </trkpt>
      <trkpt lat="42.98526" lon="0.84563">
        <ele>988.37</ele>
        <time>2019-07-28T12:38:38Z</time>
      </trkpt>
      <trkpt lat="42.98547" lon="0.84591">
        <ele>985.97</ele>
        <time>2019-07-28T12:38:46Z</time>
      </trkpt>
      <trkpt lat="42.98549" lon="0.84589">
        <ele>985.49</ele>
        <time>2019-07-28T12:39:02Z</time>
      </trkpt>
      <trkpt lat="42.98554" lon="0.84598">
        <ele>985.49</ele>
        <time>2019-07-28T12:39:14Z</time>
      </trkpt>
      <trkpt lat="42.9857" lon="0.84615">
        <ele>985.49</ele>
        <time>2019-07-28T12:39:25Z</time>
      </trkpt>
      <trkpt lat="42.98607" lon="0.84597">
        <ele>985.49</ele>
        <time>2019-07-28T12:39:37Z</time>
      </trkpt>
      <trkpt lat="42.98614" lon="0.8459">
        <ele>985.49</ele>
        <time>2019-07-28T12:39:39Z</time>
      </trkpt>
      <trkpt lat="42.98617" lon="0.84586">
        <ele>985.49</ele>
        <time>2019-07-28T12:39:40Z</time>
      </trkpt>
      <trkpt lat="42.98624" lon="0.84576">
        <ele>985.01</ele>
        <time>2019-07-28T12:39:42Z</time>
      </trkpt>
      <trkpt lat="42.98626" lon="0.84571">
        <ele>985.01</ele>
        <time>2019-07-28T12:39:43Z</time>
      </trkpt>
      <trkpt lat="42.98628" lon="0.84564">
        <ele>984.53</ele>
        <time>2019-07-28T12:39:44Z</time>
      </trkpt>
      <trkpt lat="42.98629" lon="0.84557">
        <ele>984.53</ele>
        <time>2019-07-28T12:39:45Z</time>
      </trkpt>
      <trkpt lat="42.98629" lon="0.8455">
        <ele>984.05</ele>
        <time>2019-07-28T12:39:46Z</time>
      </trkpt>
      <trkpt lat="42.98627" lon="0.84543">
        <ele>984.05</ele>
        <time>2019-07-28T12:39:47Z</time>
      </trkpt>
      <trkpt lat="42.98626" lon="0.84538">
        <ele>984.05</ele>
        <time>2019-07-28T12:39:48Z</time>
      </trkpt>
      <trkpt lat="42.98623" lon="0.84532">
        <ele>983.57</ele>
        <time>2019-07-28T12:39:49Z</time>
      </trkpt>
      <trkpt lat="42.98611" lon="0.84505">
        <ele>983.57</ele>
        <time>2019-07-28T12:39:54Z</time>
      </trkpt>
      <trkpt lat="42.98609" lon="0.84498">
        <ele>983.57</ele>
        <time>2019-07-28T12:39:55Z</time>
      </trkpt>
      <trkpt lat="42.98608" lon="0.84492">
        <ele>983.57</ele>
        <time>2019-07-28T12:39:56Z</time>
      </trkpt>
      <trkpt lat="42.98607" lon="0.84485">
        <ele>983.57</ele>
        <time>2019-07-28T12:39:57Z</time>
      </trkpt>
      <trkpt lat="42.98607" lon="0.84479">
        <ele>983.57</ele>
        <time>2019-07-28T12:39:58Z</time>
      </trkpt>
      <trkpt lat="42.98606" lon="0.84466">
        <ele>983.09</ele>
        <time>2019-07-28T12:40:00Z</time>
      </trkpt>
      <trkpt lat="42.98607" lon="0.84438">
        <ele>983.09</ele>
        <time>2019-07-28T12:40:04Z</time>
      </trkpt>
      <trkpt lat="42.98608" lon="0.84431">
        <ele>983.09</ele>
        <time>2019-07-28T12:40:05Z</time>
      </trkpt>
      <trkpt lat="42.98612" lon="0.84401">
        <ele>982.6</ele>
        <time>2019-07-28T12:40:09Z</time>
      </trkpt>
      <trkpt lat="42.98614" lon="0.84394">
        <ele>982.12</ele>
        <time>2019-07-28T12:40:10Z</time>
      </trkpt>
      <trkpt lat="42.98619" lon="0.84382">
        <ele>982.12</ele>
        <time>2019-07-28T12:40:12Z</time>
      </trkpt>
      <trkpt lat="42.98622" lon="0.84376">
        <ele>981.64</ele>
        <time>2019-07-28T12:40:13Z</time>
      </trkpt>
      <trkpt lat="42.98625" lon="0.84371">
        <ele>981.64</ele>
        <time>2019-07-28T12:40:14Z</time>
      </trkpt>
      <trkpt lat="42.98629" lon="0.84367">
        <ele>981.64</ele>
        <time>2019-07-28T12:40:15Z</time>
      </trkpt>
      <trkpt lat="42.98633" lon="0.84363">
        <ele>981.64</ele>
        <time>2019-07-28T12:40:16Z</time>
      </trkpt>
      <trkpt lat="42.98637" lon="0.84359">
        <ele>981.16</ele>
        <time>2019-07-28T12:40:17Z</time>
      </trkpt>
      <trkpt lat="42.98641" lon="0.84355">
        <ele>981.16</ele>
        <time>2019-07-28T12:40:18Z</time>
      </trkpt>
      <trkpt lat="42.98649" lon="0.84347">
        <ele>980.68</ele>
        <time>2019-07-28T12:40:20Z</time>
      </trkpt>
      <trkpt lat="42.98651" lon="0.84341">
        <ele>980.68</ele>
        <time>2019-07-28T12:40:21Z</time>
      </trkpt>
      <trkpt lat="42.98652" lon="0.84334">
        <ele>980.68</ele>
        <time>2019-07-28T12:40:22Z</time>
      </trkpt>
      <trkpt lat="42.98651" lon="0.84327">
        <ele>980.68</ele>
        <time>2019-07-28T12:40:23Z</time>
      </trkpt>
      <trkpt lat="42.9865" lon="0.84319">
        <ele>980.68</ele>
        <time>2019-07-28T12:40:24Z</time>
      </trkpt>
      <trkpt lat="42.98648" lon="0.84312">
        <ele>980.68</ele>
        <time>2019-07-28T12:40:25Z</time>
      </trkpt>
      <trkpt lat="42.98646" lon="0.84305">
        <ele>980.68</ele>
        <time>2019-07-28T12:40:26Z</time>
      </trkpt>
      <trkpt lat="42.98636" lon="0.84277">
        <ele>980.2</ele>
        <time>2019-07-28T12:40:30Z</time>
      </trkpt>
      <trkpt lat="42.98632" lon="0.84271">
        <ele>980.2</ele>
        <time>2019-07-28T12:40:31Z</time>
      </trkpt>
      <trkpt lat="42.98628" lon="0.84267">
        <ele>979.72</ele>
        <time>2019-07-28T12:40:32Z</time>
      </trkpt>
      <trkpt lat="42.9862" lon="0.84258">
        <ele>979.24</ele>
        <time>2019-07-28T12:40:34Z</time>
      </trkpt>
      <trkpt lat="42.98606" lon="0.84237">
        <ele>978.76</ele>
        <time>2019-07-28T12:40:38Z</time>
      </trkpt>
      <trkpt lat="42.98603" lon="0.84232">
        <ele>978.76</ele>
        <time>2019-07-28T12:40:39Z</time>
      </trkpt>
      <trkpt lat="42.986" lon="0.84226">
        <ele>978.28</ele>
        <time>2019-07-28T12:40:40Z</time>
      </trkpt>
      <trkpt lat="42.98594" lon="0.84214">
        <ele>978.28</ele>
        <time>2019-07-28T12:40:42Z</time>
      </trkpt>
      <trkpt lat="42.98592" lon="0.84208">
        <ele>978.28</ele>
        <time>2019-07-28T12:40:43Z</time>
      </trkpt>
      <trkpt lat="42.98589" lon="0.84203">
        <ele>978.28</ele>
        <time>2019-07-28T12:40:44Z</time>
      </trkpt>
      <trkpt lat="42.98586" lon="0.84197">
        <ele>977.8</ele>
        <time>2019-07-28T12:40:45Z</time>
      </trkpt>
      <trkpt lat="42.98583" lon="0.84192">
        <ele>977.32</ele>
        <time>2019-07-28T12:40:46Z</time>
      </trkpt>
      <trkpt lat="42.98577" lon="0.84182">
        <ele>977.8</ele>
        <time>2019-07-28T12:40:48Z</time>
      </trkpt>
      <trkpt lat="42.98575" lon="0.84177">
        <ele>977.8</ele>
        <time>2019-07-28T12:40:49Z</time>
      </trkpt>
      <trkpt lat="42.9857" lon="0.84118">
        <ele>979.72</ele>
        <time>2019-07-28T12:41:00Z</time>
      </trkpt>
      <trkpt lat="42.98568" lon="0.84107">
        <ele>979.72</ele>
        <time>2019-07-28T12:41:02Z</time>
      </trkpt>
      <trkpt lat="42.98567" lon="0.84101">
        <ele>979.72</ele>
        <time>2019-07-28T12:41:03Z</time>
      </trkpt>
      <trkpt lat="42.98565" lon="0.84096">
        <ele>979.72</ele>
        <time>2019-07-28T12:41:04Z</time>
      </trkpt>
      <trkpt lat="42.98562" lon="0.84091">
        <ele>979.72</ele>
        <time>2019-07-28T12:41:05Z</time>
      </trkpt>
      <trkpt lat="42.98558" lon="0.84087">
        <ele>979.72</ele>
        <time>2019-07-28T12:41:06Z</time>
      </trkpt>
      <trkpt lat="42.98554" lon="0.84083">
        <ele>980.2</ele>
        <time>2019-07-28T12:41:07Z</time>
      </trkpt>
      <trkpt lat="42.98542" lon="0.84069">
        <ele>979.72</ele>
        <time>2019-07-28T12:41:10Z</time>
      </trkpt>
      <trkpt lat="42.9854" lon="0.84063">
        <ele>978.76</ele>
        <time>2019-07-28T12:41:11Z</time>
      </trkpt>
      <trkpt lat="42.98538" lon="0.84058">
        <ele>978.76</ele>
        <time>2019-07-28T12:41:12Z</time>
      </trkpt>
      <trkpt lat="42.98538" lon="0.84052">
        <ele>978.76</ele>
        <time>2019-07-28T12:41:13Z</time>
      </trkpt>
      <trkpt lat="42.98537" lon="0.84045">
        <ele>978.76</ele>
        <time>2019-07-28T12:41:14Z</time>
      </trkpt>
      <trkpt lat="42.98537" lon="0.84039">
        <ele>978.76</ele>
        <time>2019-07-28T12:41:15Z</time>
      </trkpt>
      <trkpt lat="42.98536" lon="0.83977">
        <ele>978.28</ele>
        <time>2019-07-28T12:41:26Z</time>
      </trkpt>
      <trkpt lat="42.98528" lon="0.83908">
        <ele>977.32</ele>
        <time>2019-07-28T12:41:38Z</time>
      </trkpt>
      <trkpt lat="42.98529" lon="0.83895">
        <ele>976.84</ele>
        <time>2019-07-28T12:41:47Z</time>
      </trkpt>
      <trkpt lat="42.98542" lon="0.83877">
        <ele>976.36</ele>
        <time>2019-07-28T12:41:56Z</time>
      </trkpt>
      <trkpt lat="42.98574" lon="0.83882">
        <ele>975.88</ele>
        <time>2019-07-28T12:42:06Z</time>
      </trkpt>
      <trkpt lat="42.98597" lon="0.83864">
        <ele>975.88</ele>
        <time>2019-07-28T12:42:14Z</time>
      </trkpt>
      <trkpt lat="42.98598" lon="0.8386">
        <ele>975.88</ele>
        <time>2019-07-28T12:42:15Z</time>
      </trkpt>
      <trkpt lat="42.98598" lon="0.83856">
        <ele>975.88</ele>
        <time>2019-07-28T12:42:16Z</time>
      </trkpt>
      <trkpt lat="42.98611" lon="0.83792">
        <ele>977.32</ele>
        <time>2019-07-28T12:42:31Z</time>
      </trkpt>
      <trkpt lat="42.98619" lon="0.83734">
        <ele>978.28</ele>
        <time>2019-07-28T12:42:43Z</time>
      </trkpt>
      <trkpt lat="42.98622" lon="0.83696">
        <ele>978.28</ele>
        <time>2019-07-28T12:42:50Z</time>
      </trkpt>
      <trkpt lat="42.98624" lon="0.83683">
        <ele>977.8</ele>
        <time>2019-07-28T12:42:57Z</time>
      </trkpt>
      <trkpt lat="42.98624" lon="0.83683">
        <ele>976.36</ele>
        <time>2019-07-28T12:43:02Z</time>
      </trkpt>
      <trkpt lat="42.98623" lon="0.83683">
        <ele>977.8</ele>
        <time>2019-07-28T12:43:04Z</time>
      </trkpt>
      <trkpt lat="42.98623" lon="0.83682">
        <ele>976.84</ele>
        <time>2019-07-28T12:43:06Z</time>
      </trkpt>
      <trkpt lat="42.98622" lon="0.83679">
        <ele>976.36</ele>
        <time>2019-07-28T12:43:34Z</time>
      </trkpt>
      <trkpt lat="42.98624" lon="0.83674">
        <ele>977.8</ele>
        <time>2019-07-28T12:44:02Z</time>
      </trkpt>
      <trkpt lat="42.9862" lon="0.83672">
        <ele>977.8</ele>
        <time>2019-07-28T12:44:17Z</time>
      </trkpt>
      <trkpt lat="42.9862" lon="0.8367">
        <ele>977.8</ele>
        <time>2019-07-28T12:44:18Z</time>
      </trkpt>
      <trkpt lat="42.9862" lon="0.83668">
        <ele>977.8</ele>
        <time>2019-07-28T12:44:19Z</time>
      </trkpt>
      <trkpt lat="42.98621" lon="0.83665">
        <ele>977.8</ele>
        <time>2019-07-28T12:44:20Z</time>
      </trkpt>
      <trkpt lat="42.98621" lon="0.83661">
        <ele>977.8</ele>
        <time>2019-07-28T12:44:21Z</time>
      </trkpt>
      <trkpt lat="42.98625" lon="0.83611">
        <ele>977.32</ele>
        <time>2019-07-28T12:44:34Z</time>
      </trkpt>
      <trkpt lat="42.98646" lon="0.83579">
        <ele>977.32</ele>
        <time>2019-07-28T12:44:43Z</time>
      </trkpt>
      <trkpt lat="42.98658" lon="0.83569">
        <ele>977.32</ele>
        <time>2019-07-28T12:44:46Z</time>
      </trkpt>
      <trkpt lat="42.98662" lon="0.83564">
        <ele>977.32</ele>
        <time>2019-07-28T12:44:47Z</time>
      </trkpt>
      <trkpt lat="42.98666" lon="0.8356">
        <ele>977.32</ele>
        <time>2019-07-28T12:44:48Z</time>
      </trkpt>
      <trkpt lat="42.98671" lon="0.83556">
        <ele>977.32</ele>
        <time>2019-07-28T12:44:49Z</time>
      </trkpt>
      <trkpt lat="42.98675" lon="0.83553">
        <ele>977.32</ele>
        <time>2019-07-28T12:44:50Z</time>
      </trkpt>
      <trkpt lat="42.9868" lon="0.83549">
        <ele>977.32</ele>
        <time>2019-07-28T12:44:51Z</time>
      </trkpt>
      <trkpt lat="42.98697" lon="0.83534">
        <ele>975.88</ele>
        <time>2019-07-28T12:44:55Z</time>
      </trkpt>
      <trkpt lat="42.98723" lon="0.83511">
        <ele>975.88</ele>
        <time>2019-07-28T12:45:01Z</time>
      </trkpt>
      <trkpt lat="42.98726" lon="0.83506">
        <ele>975.88</ele>
        <time>2019-07-28T12:45:02Z</time>
      </trkpt>
      <trkpt lat="42.98728" lon="0.83501">
        <ele>975.88</ele>
        <time>2019-07-28T12:45:03Z</time>
      </trkpt>
      <trkpt lat="42.98731" lon="0.83495">
        <ele>975.88</ele>
        <time>2019-07-28T12:45:04Z</time>
      </trkpt>
      <trkpt lat="42.98733" lon="0.83489">
        <ele>975.88</ele>
        <time>2019-07-28T12:45:05Z</time>
      </trkpt>
      <trkpt lat="42.98734" lon="0.83482">
        <ele>975.88</ele>
        <time>2019-07-28T12:45:06Z</time>
      </trkpt>
      <trkpt lat="42.98735" lon="0.83476">
        <ele>975.88</ele>
        <time>2019-07-28T12:45:07Z</time>
      </trkpt>
      <trkpt lat="42.98735" lon="0.83469">
        <ele>975.88</ele>
        <time>2019-07-28T12:45:08Z</time>
      </trkpt>
      <trkpt lat="42.98736" lon="0.83463">
        <ele>975.88</ele>
        <time>2019-07-28T12:45:09Z</time>
      </trkpt>
      <trkpt lat="42.98736" lon="0.83456">
        <ele>975.88</ele>
        <time>2019-07-28T12:45:10Z</time>
      </trkpt>
      <trkpt lat="42.98736" lon="0.8345">
        <ele>975.88</ele>
        <time>2019-07-28T12:45:11Z</time>
      </trkpt>
      <trkpt lat="42.98736" lon="0.83444">
        <ele>975.88</ele>
        <time>2019-07-28T12:45:12Z</time>
      </trkpt>
      <trkpt lat="42.98737" lon="0.83437">
        <ele>975.88</ele>
        <time>2019-07-28T12:45:13Z</time>
      </trkpt>
      <trkpt lat="42.98739" lon="0.83431">
        <ele>975.88</ele>
        <time>2019-07-28T12:45:14Z</time>
      </trkpt>
      <trkpt lat="42.98741" lon="0.83425">
        <ele>975.88</ele>
        <time>2019-07-28T12:45:15Z</time>
      </trkpt>
      <trkpt lat="42.98744" lon="0.83419">
        <ele>975.88</ele>
        <time>2019-07-28T12:45:16Z</time>
      </trkpt>
      <trkpt lat="42.98756" lon="0.83388">
        <ele>975.88</ele>
        <time>2019-07-28T12:45:21Z</time>
      </trkpt>
      <trkpt lat="42.98757" lon="0.83381">
        <ele>975.88</ele>
        <time>2019-07-28T12:45:22Z</time>
      </trkpt>
      <trkpt lat="42.98758" lon="0.83375">
        <ele>975.88</ele>
        <time>2019-07-28T12:45:23Z</time>
      </trkpt>
      <trkpt lat="42.98758" lon="0.83368">
        <ele>975.88</ele>
        <time>2019-07-28T12:45:24Z</time>
      </trkpt>
      <trkpt lat="42.98758" lon="0.83361">
        <ele>975.88</ele>
        <time>2019-07-28T12:45:25Z</time>
      </trkpt>
      <trkpt lat="42.98757" lon="0.83354">
        <ele>975.88</ele>
        <time>2019-07-28T12:45:26Z</time>
      </trkpt>
      <trkpt lat="42.98755" lon="0.83333">
        <ele>975.88</ele>
        <time>2019-07-28T12:45:29Z</time>
      </trkpt>
      <trkpt lat="42.98755" lon="0.83325">
        <ele>975.88</ele>
        <time>2019-07-28T12:45:30Z</time>
      </trkpt>
      <trkpt lat="42.98756" lon="0.83318">
        <ele>975.88</ele>
        <time>2019-07-28T12:45:31Z</time>
      </trkpt>
      <trkpt lat="42.98769" lon="0.8321">
        <ele>974.91</ele>
        <time>2019-07-28T12:45:45Z</time>
      </trkpt>
      <trkpt lat="42.98779" lon="0.83171">
        <ele>974.43</ele>
        <time>2019-07-28T12:45:50Z</time>
      </trkpt>
      <trkpt lat="42.98782" lon="0.83165">
        <ele>974.43</ele>
        <time>2019-07-28T12:45:51Z</time>
      </trkpt>
      <trkpt lat="42.98788" lon="0.83153">
        <ele>974.43</ele>
        <time>2019-07-28T12:45:53Z</time>
      </trkpt>
      <trkpt lat="42.98828" lon="0.83073">
        <ele>973.47</ele>
        <time>2019-07-28T12:46:07Z</time>
      </trkpt>
      <trkpt lat="42.98842" lon="0.83043">
        <ele>973.47</ele>
        <time>2019-07-28T12:46:12Z</time>
      </trkpt>
      <trkpt lat="42.98864" lon="0.83005">
        <ele>972.99</ele>
        <time>2019-07-28T12:46:20Z</time>
      </trkpt>
      <trkpt lat="42.98866" lon="0.82999">
        <ele>972.99</ele>
        <time>2019-07-28T12:46:21Z</time>
      </trkpt>
      <trkpt lat="42.98869" lon="0.82987">
        <ele>972.99</ele>
        <time>2019-07-28T12:46:23Z</time>
      </trkpt>
      <trkpt lat="42.9887" lon="0.82981">
        <ele>972.99</ele>
        <time>2019-07-28T12:46:24Z</time>
      </trkpt>
      <trkpt lat="42.9887" lon="0.82975">
        <ele>972.99</ele>
        <time>2019-07-28T12:46:25Z</time>
      </trkpt>
      <trkpt lat="42.98871" lon="0.8297">
        <ele>972.99</ele>
        <time>2019-07-28T12:46:26Z</time>
      </trkpt>
      <trkpt lat="42.98871" lon="0.82964">
        <ele>972.99</ele>
        <time>2019-07-28T12:46:27Z</time>
      </trkpt>
      <trkpt lat="42.98871" lon="0.82959">
        <ele>972.99</ele>
        <time>2019-07-28T12:46:28Z</time>
      </trkpt>
      <trkpt lat="42.98872" lon="0.82954">
        <ele>972.99</ele>
        <time>2019-07-28T12:46:29Z</time>
      </trkpt>
      <trkpt lat="42.98874" lon="0.82949">
        <ele>972.99</ele>
        <time>2019-07-28T12:46:30Z</time>
      </trkpt>
      <trkpt lat="42.98876" lon="0.82945">
        <ele>972.99</ele>
        <time>2019-07-28T12:46:31Z</time>
      </trkpt>
      <trkpt lat="42.98878" lon="0.82941">
        <ele>972.99</ele>
        <time>2019-07-28T12:46:32Z</time>
      </trkpt>
      <trkpt lat="42.9888" lon="0.82936">
        <ele>974.43</ele>
        <time>2019-07-28T12:46:33Z</time>
      </trkpt>
      <trkpt lat="42.98883" lon="0.82932">
        <ele>974.43</ele>
        <time>2019-07-28T12:46:34Z</time>
      </trkpt>
      <trkpt lat="42.98901" lon="0.82885">
        <ele>975.39</ele>
        <time>2019-07-28T12:46:45Z</time>
      </trkpt>
      <trkpt lat="42.98896" lon="0.82858">
        <ele>975.39</ele>
        <time>2019-07-28T12:46:50Z</time>
      </trkpt>
      <trkpt lat="42.98888" lon="0.82782">
        <ele>972.51</ele>
        <time>2019-07-28T12:47:05Z</time>
      </trkpt>
      <trkpt lat="42.98888" lon="0.8278">
        <ele>972.03</ele>
        <time>2019-07-28T12:47:13Z</time>
      </trkpt>
      <trkpt lat="42.98887" lon="0.82779">
        <ele>971.55</ele>
        <time>2019-07-28T12:47:44Z</time>
      </trkpt>
      <trkpt lat="42.98888" lon="0.8278">
        <ele>971.55</ele>
        <time>2019-07-28T12:48:10Z</time>
      </trkpt>
      <trkpt lat="42.98887" lon="0.8278">
        <ele>971.55</ele>
        <time>2019-07-28T12:48:35Z</time>
      </trkpt>
      <trkpt lat="42.98888" lon="0.82776">
        <ele>971.55</ele>
        <time>2019-07-28T12:49:01Z</time>
      </trkpt>
      <trkpt lat="42.989" lon="0.82731">
        <ele>971.55</ele>
        <time>2019-07-28T12:49:10Z</time>
      </trkpt>
      <trkpt lat="42.98904" lon="0.82718">
        <ele>971.07</ele>
        <time>2019-07-28T12:49:12Z</time>
      </trkpt>
      <trkpt lat="42.98912" lon="0.82698">
        <ele>970.59</ele>
        <time>2019-07-28T12:49:15Z</time>
      </trkpt>
      <trkpt lat="42.98916" lon="0.82693">
        <ele>970.59</ele>
        <time>2019-07-28T12:49:16Z</time>
      </trkpt>
      <trkpt lat="42.9892" lon="0.82687">
        <ele>970.59</ele>
        <time>2019-07-28T12:49:17Z</time>
      </trkpt>
      <trkpt lat="42.98924" lon="0.82683">
        <ele>970.11</ele>
        <time>2019-07-28T12:49:18Z</time>
      </trkpt>
      <trkpt lat="42.98929" lon="0.8268">
        <ele>969.63</ele>
        <time>2019-07-28T12:49:19Z</time>
      </trkpt>
      <trkpt lat="42.98933" lon="0.82679">
        <ele>969.15</ele>
        <time>2019-07-28T12:49:20Z</time>
      </trkpt>
      <trkpt lat="42.98937" lon="0.82678">
        <ele>969.15</ele>
        <time>2019-07-28T12:49:21Z</time>
      </trkpt>
      <trkpt lat="42.98945" lon="0.82678">
        <ele>969.15</ele>
        <time>2019-07-28T12:49:23Z</time>
      </trkpt>
      <trkpt lat="42.98949" lon="0.82679">
        <ele>969.15</ele>
        <time>2019-07-28T12:49:24Z</time>
      </trkpt>
      <trkpt lat="42.98953" lon="0.8268">
        <ele>969.15</ele>
        <time>2019-07-28T12:49:25Z</time>
      </trkpt>
      <trkpt lat="42.98957" lon="0.82682">
        <ele>969.15</ele>
        <time>2019-07-28T12:49:26Z</time>
      </trkpt>
      <trkpt lat="42.98961" lon="0.82685">
        <ele>969.15</ele>
        <time>2019-07-28T12:49:27Z</time>
      </trkpt>
      <trkpt lat="42.98965" lon="0.82687">
        <ele>969.15</ele>
        <time>2019-07-28T12:49:28Z</time>
      </trkpt>
      <trkpt lat="42.98969" lon="0.82689">
        <ele>969.15</ele>
        <time>2019-07-28T12:49:29Z</time>
      </trkpt>
      <trkpt lat="42.98973" lon="0.82692">
        <ele>969.15</ele>
        <time>2019-07-28T12:49:30Z</time>
      </trkpt>
      <trkpt lat="42.98977" lon="0.82695">
        <ele>969.15</ele>
        <time>2019-07-28T12:49:31Z</time>
      </trkpt>
      <trkpt lat="42.99025" lon="0.82721">
        <ele>969.15</ele>
        <time>2019-07-28T12:49:44Z</time>
      </trkpt>
      <trkpt lat="42.9905" lon="0.82731">
        <ele>969.15</ele>
        <time>2019-07-28T12:49:50Z</time>
      </trkpt>
      <trkpt lat="42.99054" lon="0.82733">
        <ele>969.15</ele>
        <time>2019-07-28T12:49:51Z</time>
      </trkpt>
      <trkpt lat="42.99101" lon="0.82757">
        <ele>969.15</ele>
        <time>2019-07-28T12:50:02Z</time>
      </trkpt>
      <trkpt lat="42.99119" lon="0.82769">
        <ele>969.15</ele>
        <time>2019-07-28T12:50:06Z</time>
      </trkpt>
      <trkpt lat="42.99123" lon="0.82773">
        <ele>969.15</ele>
        <time>2019-07-28T12:50:07Z</time>
      </trkpt>
      <trkpt lat="42.99126" lon="0.82777">
        <ele>969.15</ele>
        <time>2019-07-28T12:50:08Z</time>
      </trkpt>
      <trkpt lat="42.99132" lon="0.82787">
        <ele>969.15</ele>
        <time>2019-07-28T12:50:10Z</time>
      </trkpt>
      <trkpt lat="42.99136" lon="0.82797">
        <ele>970.59</ele>
        <time>2019-07-28T12:50:12Z</time>
      </trkpt>
      <trkpt lat="42.99137" lon="0.82803">
        <ele>970.59</ele>
        <time>2019-07-28T12:50:13Z</time>
      </trkpt>
      <trkpt lat="42.99139" lon="0.82809">
        <ele>970.59</ele>
        <time>2019-07-28T12:50:14Z</time>
      </trkpt>
      <trkpt lat="42.99139" lon="0.82816">
        <ele>970.59</ele>
        <time>2019-07-28T12:50:15Z</time>
      </trkpt>
      <trkpt lat="42.99138" lon="0.82822">
        <ele>970.59</ele>
        <time>2019-07-28T12:50:16Z</time>
      </trkpt>
      <trkpt lat="42.99137" lon="0.82827">
        <ele>970.59</ele>
        <time>2019-07-28T12:50:17Z</time>
      </trkpt>
      <trkpt lat="42.99135" lon="0.82833">
        <ele>970.59</ele>
        <time>2019-07-28T12:50:18Z</time>
      </trkpt>
      <trkpt lat="42.99132" lon="0.82838">
        <ele>970.59</ele>
        <time>2019-07-28T12:50:19Z</time>
      </trkpt>
      <trkpt lat="42.99123" lon="0.82861">
        <ele>970.11</ele>
        <time>2019-07-28T12:50:23Z</time>
      </trkpt>
      <trkpt lat="42.99119" lon="0.82874">
        <ele>970.11</ele>
        <time>2019-07-28T12:50:25Z</time>
      </trkpt>
      <trkpt lat="42.99118" lon="0.82881">
        <ele>970.11</ele>
        <time>2019-07-28T12:50:26Z</time>
      </trkpt>
      <trkpt lat="42.99112" lon="0.82908">
        <ele>970.11</ele>
        <time>2019-07-28T12:50:30Z</time>
      </trkpt>
      <trkpt lat="42.9911" lon="0.82914">
        <ele>970.11</ele>
        <time>2019-07-28T12:50:31Z</time>
      </trkpt>
      <trkpt lat="42.99107" lon="0.82919">
        <ele>970.11</ele>
        <time>2019-07-28T12:50:32Z</time>
      </trkpt>
      <trkpt lat="42.99104" lon="0.82923">
        <ele>970.11</ele>
        <time>2019-07-28T12:50:33Z</time>
      </trkpt>
      <trkpt lat="42.991" lon="0.82927">
        <ele>970.11</ele>
        <time>2019-07-28T12:50:34Z</time>
      </trkpt>
      <trkpt lat="42.99096" lon="0.82931">
        <ele>970.11</ele>
        <time>2019-07-28T12:50:35Z</time>
      </trkpt>
      <trkpt lat="42.99082" lon="0.82945">
        <ele>970.11</ele>
        <time>2019-07-28T12:50:39Z</time>
      </trkpt>
      <trkpt lat="42.99079" lon="0.82949">
        <ele>970.11</ele>
        <time>2019-07-28T12:50:40Z</time>
      </trkpt>
      <trkpt lat="42.99077" lon="0.82955">
        <ele>970.11</ele>
        <time>2019-07-28T12:50:41Z</time>
      </trkpt>
      <trkpt lat="42.99075" lon="0.82966">
        <ele>970.11</ele>
        <time>2019-07-28T12:50:43Z</time>
      </trkpt>
      <trkpt lat="42.99072" lon="0.82982">
        <ele>970.59</ele>
        <time>2019-07-28T12:50:46Z</time>
      </trkpt>
      <trkpt lat="42.99069" lon="0.83005">
        <ele>971.07</ele>
        <time>2019-07-28T12:50:50Z</time>
      </trkpt>
      <trkpt lat="42.99068" lon="0.8301">
        <ele>971.07</ele>
        <time>2019-07-28T12:50:51Z</time>
      </trkpt>
      <trkpt lat="42.99064" lon="0.83027">
        <ele>971.07</ele>
        <time>2019-07-28T12:50:54Z</time>
      </trkpt>
      <trkpt lat="42.99054" lon="0.83051">
        <ele>971.07</ele>
        <time>2019-07-28T12:50:58Z</time>
      </trkpt>
      <trkpt lat="42.99052" lon="0.83058">
        <ele>971.07</ele>
        <time>2019-07-28T12:50:59Z</time>
      </trkpt>
      <trkpt lat="42.9905" lon="0.83066">
        <ele>971.07</ele>
        <time>2019-07-28T12:51:00Z</time>
      </trkpt>
      <trkpt lat="42.99049" lon="0.83073">
        <ele>969.63</ele>
        <time>2019-07-28T12:51:01Z</time>
      </trkpt>
      <trkpt lat="42.99049" lon="0.83082">
        <ele>969.63</ele>
        <time>2019-07-28T12:51:02Z</time>
      </trkpt>
      <trkpt lat="42.9905" lon="0.83091">
        <ele>969.63</ele>
        <time>2019-07-28T12:51:03Z</time>
      </trkpt>
      <trkpt lat="42.99051" lon="0.8311">
        <ele>969.15</ele>
        <time>2019-07-28T12:51:05Z</time>
      </trkpt>
      <trkpt lat="42.99052" lon="0.83119">
        <ele>969.15</ele>
        <time>2019-07-28T12:51:06Z</time>
      </trkpt>
      <trkpt lat="42.99055" lon="0.83128">
        <ele>967.7</ele>
        <time>2019-07-28T12:51:07Z</time>
      </trkpt>
      <trkpt lat="42.99084" lon="0.83222">
        <ele>966.26</ele>
        <time>2019-07-28T12:51:20Z</time>
      </trkpt>
      <trkpt lat="42.99091" lon="0.83262">
        <ele>966.26</ele>
        <time>2019-07-28T12:51:27Z</time>
      </trkpt>
      <trkpt lat="42.99091" lon="0.83268">
        <ele>966.26</ele>
        <time>2019-07-28T12:51:28Z</time>
      </trkpt>
      <trkpt lat="42.99092" lon="0.83273">
        <ele>966.26</ele>
        <time>2019-07-28T12:51:29Z</time>
      </trkpt>
      <trkpt lat="42.99094" lon="0.83279">
        <ele>966.26</ele>
        <time>2019-07-28T12:51:30Z</time>
      </trkpt>
      <trkpt lat="42.99096" lon="0.83284">
        <ele>966.26</ele>
        <time>2019-07-28T12:51:31Z</time>
      </trkpt>
      <trkpt lat="42.99098" lon="0.8329">
        <ele>966.26</ele>
        <time>2019-07-28T12:51:32Z</time>
      </trkpt>
      <trkpt lat="42.991" lon="0.83295">
        <ele>966.26</ele>
        <time>2019-07-28T12:51:33Z</time>
      </trkpt>
      <trkpt lat="42.99109" lon="0.83313">
        <ele>965.78</ele>
        <time>2019-07-28T12:51:36Z</time>
      </trkpt>
      <trkpt lat="42.99113" lon="0.8332">
        <ele>965.78</ele>
        <time>2019-07-28T12:51:37Z</time>
      </trkpt>
      <trkpt lat="42.99143" lon="0.83403">
        <ele>962.9</ele>
        <time>2019-07-28T12:51:49Z</time>
      </trkpt>
      <trkpt lat="42.99155" lon="0.83502">
        <ele>960.49</ele>
        <time>2019-07-28T12:52:03Z</time>
      </trkpt>
      <trkpt lat="42.99152" lon="0.83559">
        <ele>960.01</ele>
        <time>2019-07-28T12:52:10Z</time>
      </trkpt>
      <trkpt lat="42.99152" lon="0.83566">
        <ele>959.53</ele>
        <time>2019-07-28T12:52:11Z</time>
      </trkpt>
      <trkpt lat="42.99153" lon="0.83574">
        <ele>959.53</ele>
        <time>2019-07-28T12:52:12Z</time>
      </trkpt>
      <trkpt lat="42.99157" lon="0.83597">
        <ele>959.05</ele>
        <time>2019-07-28T12:52:15Z</time>
      </trkpt>
      <trkpt lat="42.99159" lon="0.83604">
        <ele>958.57</ele>
        <time>2019-07-28T12:52:16Z</time>
      </trkpt>
      <trkpt lat="42.99175" lon="0.83638">
        <ele>958.09</ele>
        <time>2019-07-28T12:52:21Z</time>
      </trkpt>
      <trkpt lat="42.99217" lon="0.8371">
        <ele>955.21</ele>
        <time>2019-07-28T12:52:31Z</time>
      </trkpt>
      <trkpt lat="42.99222" lon="0.83716">
        <ele>955.21</ele>
        <time>2019-07-28T12:52:32Z</time>
      </trkpt>
      <trkpt lat="42.99227" lon="0.83721">
        <ele>954.73</ele>
        <time>2019-07-28T12:52:33Z</time>
      </trkpt>
      <trkpt lat="42.99233" lon="0.83726">
        <ele>954.73</ele>
        <time>2019-07-28T12:52:34Z</time>
      </trkpt>
      <trkpt lat="42.99238" lon="0.83729">
        <ele>954.73</ele>
        <time>2019-07-28T12:52:35Z</time>
      </trkpt>
      <trkpt lat="42.99244" lon="0.83732">
        <ele>953.77</ele>
        <time>2019-07-28T12:52:36Z</time>
      </trkpt>
      <trkpt lat="42.9925" lon="0.83734">
        <ele>953.77</ele>
        <time>2019-07-28T12:52:37Z</time>
      </trkpt>
      <trkpt lat="42.99255" lon="0.83735">
        <ele>953.77</ele>
        <time>2019-07-28T12:52:38Z</time>
      </trkpt>
      <trkpt lat="42.99267" lon="0.83736">
        <ele>953.28</ele>
        <time>2019-07-28T12:52:40Z</time>
      </trkpt>
      <trkpt lat="42.99283" lon="0.83736">
        <ele>952.8</ele>
        <time>2019-07-28T12:52:43Z</time>
      </trkpt>
      <trkpt lat="42.99288" lon="0.83735">
        <ele>952.8</ele>
        <time>2019-07-28T12:52:44Z</time>
      </trkpt>
      <trkpt lat="42.99349" lon="0.83741">
        <ele>952.32</ele>
        <time>2019-07-28T12:52:56Z</time>
      </trkpt>
      <trkpt lat="42.99364" lon="0.83737">
        <ele>952.32</ele>
        <time>2019-07-28T12:52:59Z</time>
      </trkpt>
      <trkpt lat="42.99375" lon="0.83732">
        <ele>952.32</ele>
        <time>2019-07-28T12:53:01Z</time>
      </trkpt>
      <trkpt lat="42.99399" lon="0.83714">
        <ele>951.84</ele>
        <time>2019-07-28T12:53:06Z</time>
      </trkpt>
      <trkpt lat="42.99404" lon="0.8371">
        <ele>951.84</ele>
        <time>2019-07-28T12:53:07Z</time>
      </trkpt>
      <trkpt lat="42.99459" lon="0.83672">
        <ele>949.44</ele>
        <time>2019-07-28T12:53:18Z</time>
      </trkpt>
      <trkpt lat="42.99464" lon="0.83669">
        <ele>949.44</ele>
        <time>2019-07-28T12:53:19Z</time>
      </trkpt>
      <trkpt lat="42.99511" lon="0.83638">
        <ele>948</ele>
        <time>2019-07-28T12:53:29Z</time>
      </trkpt>
      <trkpt lat="42.99572" lon="0.83593">
        <ele>945.11</ele>
        <time>2019-07-28T12:53:41Z</time>
      </trkpt>
      <trkpt lat="42.99636" lon="0.83555">
        <ele>942.71</ele>
        <time>2019-07-28T12:53:54Z</time>
      </trkpt>
      <trkpt lat="42.99643" lon="0.83554">
        <ele>942.23</ele>
        <time>2019-07-28T12:53:57Z</time>
      </trkpt>
      <trkpt lat="42.99644" lon="0.83552">
        <ele>942.23</ele>
        <time>2019-07-28T12:54:09Z</time>
      </trkpt>
      <trkpt lat="42.99646" lon="0.83553">
        <ele>942.71</ele>
        <time>2019-07-28T12:54:38Z</time>
      </trkpt>
      <trkpt lat="42.99647" lon="0.83552">
        <ele>942.71</ele>
        <time>2019-07-28T12:55:09Z</time>
      </trkpt>
      <trkpt lat="42.99647" lon="0.83552">
        <ele>942.71</ele>
        <time>2019-07-28T12:55:35Z</time>
      </trkpt>
      <trkpt lat="42.99645" lon="0.8355">
        <ele>942.71</ele>
        <time>2019-07-28T12:56:00Z</time>
      </trkpt>
      <trkpt lat="42.99645" lon="0.83549">
        <ele>942.23</ele>
        <time>2019-07-28T12:56:08Z</time>
      </trkpt>
      <trkpt lat="42.99646" lon="0.83548">
        <ele>942.23</ele>
        <time>2019-07-28T12:56:09Z</time>
      </trkpt>
      <trkpt lat="42.99647" lon="0.83546">
        <ele>942.23</ele>
        <time>2019-07-28T12:56:10Z</time>
      </trkpt>
      <trkpt lat="42.99648" lon="0.83545">
        <ele>942.23</ele>
        <time>2019-07-28T12:56:11Z</time>
      </trkpt>
      <trkpt lat="42.9965" lon="0.83544">
        <ele>942.23</ele>
        <time>2019-07-28T12:56:12Z</time>
      </trkpt>
      <trkpt lat="42.99665" lon="0.83543">
        <ele>940.79</ele>
        <time>2019-07-28T12:56:19Z</time>
      </trkpt>
      <trkpt lat="42.99671" lon="0.83544">
        <ele>940.31</ele>
        <time>2019-07-28T12:56:20Z</time>
      </trkpt>
      <trkpt lat="42.99682" lon="0.83545">
        <ele>938.86</ele>
        <time>2019-07-28T12:56:22Z</time>
      </trkpt>
      <trkpt lat="42.99716" lon="0.83551">
        <ele>935.5</ele>
        <time>2019-07-28T12:56:27Z</time>
      </trkpt>
      <trkpt lat="42.99736" lon="0.83554">
        <ele>932.62</ele>
        <time>2019-07-28T12:56:30Z</time>
      </trkpt>
      <trkpt lat="42.99759" lon="0.83552">
        <ele>928.29</ele>
        <time>2019-07-28T12:56:33Z</time>
      </trkpt>
      <trkpt lat="42.99777" lon="0.83552">
        <ele>924.93</ele>
        <time>2019-07-28T12:56:36Z</time>
      </trkpt>
      <trkpt lat="42.99779" lon="0.83552">
        <ele>924.45</ele>
        <time>2019-07-28T12:56:38Z</time>
      </trkpt>
      <trkpt lat="42.99779" lon="0.83549">
        <ele>924.45</ele>
        <time>2019-07-28T12:56:57Z</time>
      </trkpt>
      <trkpt lat="42.99775" lon="0.83548">
        <ele>924.45</ele>
        <time>2019-07-28T12:57:17Z</time>
      </trkpt>
      <trkpt lat="42.99769" lon="0.83545">
        <ele>923.96</ele>
        <time>2019-07-28T12:57:23Z</time>
      </trkpt>
      <trkpt lat="42.99768" lon="0.83545">
        <ele>923.96</ele>
        <time>2019-07-28T12:57:24Z</time>
      </trkpt>
      <trkpt lat="42.99767" lon="0.83544">
        <ele>923.96</ele>
        <time>2019-07-28T12:57:25Z</time>
      </trkpt>
      <trkpt lat="42.99765" lon="0.83544">
        <ele>923.96</ele>
        <time>2019-07-28T12:57:26Z</time>
      </trkpt>
      <trkpt lat="42.99764" lon="0.83544">
        <ele>923.96</ele>
        <time>2019-07-28T12:57:27Z</time>
      </trkpt>
      <trkpt lat="42.99752" lon="0.8354">
        <ele>923.48</ele>
        <time>2019-07-28T12:57:40Z</time>
      </trkpt>
      <trkpt lat="42.99745" lon="0.83535">
        <ele>923.96</ele>
        <time>2019-07-28T12:57:57Z</time>
      </trkpt>
      <trkpt lat="42.99745" lon="0.83534">
        <ele>922.52</ele>
        <time>2019-07-28T12:58:02Z</time>
      </trkpt>
      <trkpt lat="42.99745" lon="0.83534">
        <ele>924.45</ele>
        <time>2019-07-28T12:58:05Z</time>
      </trkpt>
      <trkpt lat="42.99748" lon="0.83536">
        <ele>923.48</ele>
        <time>2019-07-28T12:58:15Z</time>
      </trkpt>
      <trkpt lat="42.9975" lon="0.83537">
        <ele>923.48</ele>
        <time>2019-07-28T12:58:16Z</time>
      </trkpt>
      <trkpt lat="42.99774" lon="0.83548">
        <ele>923.48</ele>
        <time>2019-07-28T12:58:27Z</time>
      </trkpt>
      <trkpt lat="42.99795" lon="0.8355">
        <ele>922.52</ele>
        <time>2019-07-28T12:58:39Z</time>
      </trkpt>
      <trkpt lat="42.9982" lon="0.83543">
        <ele>918.68</ele>
        <time>2019-07-28T12:58:48Z</time>
      </trkpt>
      <trkpt lat="42.99831" lon="0.83533">
        <ele>914.83</ele>
        <time>2019-07-28T12:58:51Z</time>
      </trkpt>
      <trkpt lat="42.99842" lon="0.83517">
        <ele>911.47</ele>
        <time>2019-07-28T12:58:55Z</time>
      </trkpt>
      <trkpt lat="42.9985" lon="0.83503">
        <ele>907.62</ele>
        <time>2019-07-28T12:58:59Z</time>
      </trkpt>
      <trkpt lat="42.99856" lon="0.83493">
        <ele>905.7</ele>
        <time>2019-07-28T12:59:03Z</time>
      </trkpt>
      <trkpt lat="42.99861" lon="0.83475">
        <ele>901.85</ele>
        <time>2019-07-28T12:59:09Z</time>
      </trkpt>
      <trkpt lat="42.99868" lon="0.83458">
        <ele>900.41</ele>
        <time>2019-07-28T12:59:14Z</time>
      </trkpt>
      <trkpt lat="42.99875" lon="0.83435">
        <ele>895.61</ele>
        <time>2019-07-28T12:59:19Z</time>
      </trkpt>
      <trkpt lat="42.99876" lon="0.83432">
        <ele>895.61</ele>
        <time>2019-07-28T12:59:20Z</time>
      </trkpt>
      <trkpt lat="42.99876" lon="0.83426">
        <ele>894.64</ele>
        <time>2019-07-28T12:59:23Z</time>
      </trkpt>
      <trkpt lat="42.99884" lon="0.83398">
        <ele>890.8</ele>
        <time>2019-07-28T12:59:31Z</time>
      </trkpt>
      <trkpt lat="42.99887" lon="0.83392">
        <ele>890.32</ele>
        <time>2019-07-28T12:59:33Z</time>
      </trkpt>
      <trkpt lat="42.99891" lon="0.83385">
        <ele>888.4</ele>
        <time>2019-07-28T12:59:38Z</time>
      </trkpt>
      <trkpt lat="42.99898" lon="0.8337">
        <ele>885.03</ele>
        <time>2019-07-28T12:59:44Z</time>
      </trkpt>
      <trkpt lat="42.99908" lon="0.83345">
        <ele>881.67</ele>
        <time>2019-07-28T12:59:53Z</time>
      </trkpt>
      <trkpt lat="42.99914" lon="0.83334">
        <ele>879.74</ele>
        <time>2019-07-28T12:59:57Z</time>
      </trkpt>
      <trkpt lat="42.99925" lon="0.83309">
        <ele>876.86</ele>
        <time>2019-07-28T13:00:08Z</time>
      </trkpt>
      <trkpt lat="42.99928" lon="0.833">
        <ele>876.38</ele>
        <time>2019-07-28T13:00:10Z</time>
      </trkpt>
      <trkpt lat="42.99931" lon="0.83288">
        <ele>873.98</ele>
        <time>2019-07-28T13:00:13Z</time>
      </trkpt>
      <trkpt lat="42.99938" lon="0.83265">
        <ele>871.09</ele>
        <time>2019-07-28T13:00:18Z</time>
      </trkpt>
      <trkpt lat="42.99942" lon="0.83255">
        <ele>869.65</ele>
        <time>2019-07-28T13:00:21Z</time>
      </trkpt>
      <trkpt lat="42.99954" lon="0.83227">
        <ele>866.29</ele>
        <time>2019-07-28T13:00:29Z</time>
      </trkpt>
      <trkpt lat="42.99965" lon="0.83201">
        <ele>862.92</ele>
        <time>2019-07-28T13:00:36Z</time>
      </trkpt>
      <trkpt lat="42.99974" lon="0.83172">
        <ele>859.56</ele>
        <time>2019-07-28T13:00:43Z</time>
      </trkpt>
      <trkpt lat="42.99982" lon="0.83153">
        <ele>857.15</ele>
        <time>2019-07-28T13:00:52Z</time>
      </trkpt>
      <trkpt lat="42.99984" lon="0.83146">
        <ele>857.15</ele>
        <time>2019-07-28T13:01:00Z</time>
      </trkpt>
      <trkpt lat="42.99985" lon="0.83143">
        <ele>857.15</ele>
        <time>2019-07-28T13:01:01Z</time>
      </trkpt>
      <trkpt lat="42.99986" lon="0.8314">
        <ele>857.15</ele>
        <time>2019-07-28T13:01:02Z</time>
      </trkpt>
      <trkpt lat="42.99991" lon="0.8312">
        <ele>853.79</ele>
        <time>2019-07-28T13:01:09Z</time>
      </trkpt>
      <trkpt lat="43.00005" lon="0.83096">
        <ele>849.94</ele>
        <time>2019-07-28T13:01:17Z</time>
      </trkpt>
      <trkpt lat="43.00007" lon="0.83094">
        <ele>849.94</ele>
        <time>2019-07-28T13:01:18Z</time>
      </trkpt>
      <trkpt lat="43.00021" lon="0.8307">
        <ele>847.06</ele>
        <time>2019-07-28T13:01:25Z</time>
      </trkpt>
      <trkpt lat="43.00038" lon="0.83058">
        <ele>843.69</ele>
        <time>2019-07-28T13:01:32Z</time>
      </trkpt>
      <trkpt lat="43.00057" lon="0.83058">
        <ele>840.33</ele>
        <time>2019-07-28T13:01:38Z</time>
      </trkpt>
      <trkpt lat="43.00075" lon="0.8306">
        <ele>837.45</ele>
        <time>2019-07-28T13:01:43Z</time>
      </trkpt>
      <trkpt lat="43.00093" lon="0.83068">
        <ele>833.6</ele>
        <time>2019-07-28T13:01:49Z</time>
      </trkpt>
      <trkpt lat="43.00113" lon="0.83082">
        <ele>830.24</ele>
        <time>2019-07-28T13:01:53Z</time>
      </trkpt>
      <trkpt lat="43.00129" lon="0.8309">
        <ele>826.39</ele>
        <time>2019-07-28T13:01:56Z</time>
      </trkpt>
      <trkpt lat="43.00147" lon="0.83099">
        <ele>822.55</ele>
        <time>2019-07-28T13:02:00Z</time>
      </trkpt>
      <trkpt lat="43.00161" lon="0.83106">
        <ele>819.18</ele>
        <time>2019-07-28T13:02:05Z</time>
      </trkpt>
      <trkpt lat="43.00173" lon="0.83111">
        <ele>815.82</ele>
        <time>2019-07-28T13:02:10Z</time>
      </trkpt>
      <trkpt lat="43.00177" lon="0.83114">
        <ele>814.85</ele>
        <time>2019-07-28T13:02:12Z</time>
      </trkpt>
      <trkpt lat="43.00192" lon="0.83119">
        <ele>811.97</ele>
        <time>2019-07-28T13:02:22Z</time>
      </trkpt>
      <trkpt lat="43.00205" lon="0.83127">
        <ele>809.09</ele>
        <time>2019-07-28T13:02:28Z</time>
      </trkpt>
      <trkpt lat="43.00212" lon="0.83131">
        <ele>807.64</ele>
        <time>2019-07-28T13:02:37Z</time>
      </trkpt>
      <trkpt lat="43.00225" lon="0.8314">
        <ele>804.28</ele>
        <time>2019-07-28T13:02:41Z</time>
      </trkpt>
      <trkpt lat="43.00239" lon="0.83148">
        <ele>800.92</ele>
        <time>2019-07-28T13:02:45Z</time>
      </trkpt>
      <trkpt lat="43.00251" lon="0.83152">
        <ele>799.47</ele>
        <time>2019-07-28T13:02:48Z</time>
      </trkpt>
      <trkpt lat="43.0026" lon="0.83155">
        <ele>798.03</ele>
        <time>2019-07-28T13:02:56Z</time>
      </trkpt>
      <trkpt lat="43.00262" lon="0.83155">
        <ele>797.55</ele>
        <time>2019-07-28T13:02:57Z</time>
      </trkpt>
      <trkpt lat="43.00265" lon="0.83155">
        <ele>797.55</ele>
        <time>2019-07-28T13:02:58Z</time>
      </trkpt>
      <trkpt lat="43.00268" lon="0.83155">
        <ele>797.07</ele>
        <time>2019-07-28T13:02:59Z</time>
      </trkpt>
      <trkpt lat="43.00271" lon="0.83153">
        <ele>797.07</ele>
        <time>2019-07-28T13:03:00Z</time>
      </trkpt>
      <trkpt lat="43.00274" lon="0.83152">
        <ele>796.59</ele>
        <time>2019-07-28T13:03:01Z</time>
      </trkpt>
      <trkpt lat="43.00276" lon="0.83149">
        <ele>795.63</ele>
        <time>2019-07-28T13:03:02Z</time>
      </trkpt>
      <trkpt lat="43.00278" lon="0.83147">
        <ele>795.63</ele>
        <time>2019-07-28T13:03:03Z</time>
      </trkpt>
      <trkpt lat="43.00279" lon="0.83144">
        <ele>795.15</ele>
        <time>2019-07-28T13:03:04Z</time>
      </trkpt>
      <trkpt lat="43.00282" lon="0.83141">
        <ele>795.15</ele>
        <time>2019-07-28T13:03:05Z</time>
      </trkpt>
      <trkpt lat="43.00285" lon="0.83137">
        <ele>795.15</ele>
        <time>2019-07-28T13:03:06Z</time>
      </trkpt>
      <trkpt lat="43.00288" lon="0.83133">
        <ele>794.67</ele>
        <time>2019-07-28T13:03:07Z</time>
      </trkpt>
      <trkpt lat="43.00305" lon="0.83104">
        <ele>791.3</ele>
        <time>2019-07-28T13:03:11Z</time>
      </trkpt>
      <trkpt lat="43.00312" lon="0.8309">
        <ele>788.42</ele>
        <time>2019-07-28T13:03:13Z</time>
      </trkpt>
      <trkpt lat="43.00315" lon="0.83085">
        <ele>788.42</ele>
        <time>2019-07-28T13:03:14Z</time>
      </trkpt>
      <trkpt lat="43.00318" lon="0.8308">
        <ele>786.98</ele>
        <time>2019-07-28T13:03:15Z</time>
      </trkpt>
      <trkpt lat="43.00322" lon="0.83077">
        <ele>786.5</ele>
        <time>2019-07-28T13:03:16Z</time>
      </trkpt>
      <trkpt lat="43.00325" lon="0.83075">
        <ele>786.02</ele>
        <time>2019-07-28T13:03:17Z</time>
      </trkpt>
      <trkpt lat="43.00327" lon="0.83072">
        <ele>785.53</ele>
        <time>2019-07-28T13:03:18Z</time>
      </trkpt>
      <trkpt lat="43.00328" lon="0.83069">
        <ele>785.05</ele>
        <time>2019-07-28T13:03:19Z</time>
      </trkpt>
      <trkpt lat="43.0033" lon="0.83066">
        <ele>784.09</ele>
        <time>2019-07-28T13:03:22Z</time>
      </trkpt>
      <trkpt lat="43.00337" lon="0.83039">
        <ele>782.17</ele>
        <time>2019-07-28T13:03:29Z</time>
      </trkpt>
      <trkpt lat="43.0034" lon="0.83033">
        <ele>781.21</ele>
        <time>2019-07-28T13:03:30Z</time>
      </trkpt>
      <trkpt lat="43.00343" lon="0.83028">
        <ele>780.73</ele>
        <time>2019-07-28T13:03:31Z</time>
      </trkpt>
      <trkpt lat="43.00346" lon="0.83022">
        <ele>779.77</ele>
        <time>2019-07-28T13:03:32Z</time>
      </trkpt>
      <trkpt lat="43.00348" lon="0.83017">
        <ele>779.77</ele>
        <time>2019-07-28T13:03:33Z</time>
      </trkpt>
      <trkpt lat="43.00366" lon="0.82997">
        <ele>776.88</ele>
        <time>2019-07-28T13:03:42Z</time>
      </trkpt>
      <trkpt lat="43.00379" lon="0.82993">
        <ele>775.92</ele>
        <time>2019-07-28T13:03:50Z</time>
      </trkpt>
      <trkpt lat="43.0038" lon="0.82994">
        <ele>775.44</ele>
        <time>2019-07-28T13:03:51Z</time>
      </trkpt>
      <trkpt lat="43.0038" lon="0.82995">
        <ele>774.48</ele>
        <time>2019-07-28T13:03:52Z</time>
      </trkpt>
      <trkpt lat="43.00381" lon="0.82997">
        <ele>774</ele>
        <time>2019-07-28T13:03:53Z</time>
      </trkpt>
      <trkpt lat="43.00383" lon="0.83">
        <ele>772.56</ele>
        <time>2019-07-28T13:03:56Z</time>
      </trkpt>
      <trkpt lat="43.00385" lon="0.83">
        <ele>772.56</ele>
        <time>2019-07-28T13:03:57Z</time>
      </trkpt>
      <trkpt lat="43.00386" lon="0.82999">
        <ele>772.08</ele>
        <time>2019-07-28T13:03:58Z</time>
      </trkpt>
      <trkpt lat="43.00392" lon="0.82996">
        <ele>770.63</ele>
        <time>2019-07-28T13:04:01Z</time>
      </trkpt>
      <trkpt lat="43.00393" lon="0.82995">
        <ele>769.19</ele>
        <time>2019-07-28T13:04:02Z</time>
      </trkpt>
      <trkpt lat="43.00395" lon="0.82994">
        <ele>768.71</ele>
        <time>2019-07-28T13:04:03Z</time>
      </trkpt>
      <trkpt lat="43.00396" lon="0.82993">
        <ele>768.23</ele>
        <time>2019-07-28T13:04:04Z</time>
      </trkpt>
      <trkpt lat="43.00398" lon="0.82992">
        <ele>767.27</ele>
        <time>2019-07-28T13:04:05Z</time>
      </trkpt>
      <trkpt lat="43.004" lon="0.82991">
        <ele>766.79</ele>
        <time>2019-07-28T13:04:06Z</time>
      </trkpt>
      <trkpt lat="43.00402" lon="0.82991">
        <ele>765.83</ele>
        <time>2019-07-28T13:04:07Z</time>
      </trkpt>
      <trkpt lat="43.00404" lon="0.8299">
        <ele>765.35</ele>
        <time>2019-07-28T13:04:08Z</time>
      </trkpt>
      <trkpt lat="43.00409" lon="0.82987">
        <ele>763.9</ele>
        <time>2019-07-28T13:04:11Z</time>
      </trkpt>
      <trkpt lat="43.0041" lon="0.82986">
        <ele>762.94</ele>
        <time>2019-07-28T13:04:12Z</time>
      </trkpt>
      <trkpt lat="43.00412" lon="0.82986">
        <ele>762.46</ele>
        <time>2019-07-28T13:04:13Z</time>
      </trkpt>
      <trkpt lat="43.00414" lon="0.82985">
        <ele>762.46</ele>
        <time>2019-07-28T13:04:14Z</time>
      </trkpt>
      <trkpt lat="43.00415" lon="0.82984">
        <ele>761.5</ele>
        <time>2019-07-28T13:04:15Z</time>
      </trkpt>
      <trkpt lat="43.00417" lon="0.82982">
        <ele>761.02</ele>
        <time>2019-07-28T13:04:16Z</time>
      </trkpt>
      <trkpt lat="43.00419" lon="0.82981">
        <ele>760.06</ele>
        <time>2019-07-28T13:04:17Z</time>
      </trkpt>
      <trkpt lat="43.00421" lon="0.8298">
        <ele>759.58</ele>
        <time>2019-07-28T13:04:18Z</time>
      </trkpt>
      <trkpt lat="43.0043" lon="0.82974">
        <ele>757.18</ele>
        <time>2019-07-28T13:04:24Z</time>
      </trkpt>
      <trkpt lat="43.0044" lon="0.82969">
        <ele>754.29</ele>
        <time>2019-07-28T13:04:31Z</time>
      </trkpt>
      <trkpt lat="43.00442" lon="0.82969">
        <ele>754.29</ele>
        <time>2019-07-28T13:04:32Z</time>
      </trkpt>
      <trkpt lat="43.00456" lon="0.82964">
        <ele>750.93</ele>
        <time>2019-07-28T13:04:43Z</time>
      </trkpt>
      <trkpt lat="43.00468" lon="0.82958">
        <ele>749.49</ele>
        <time>2019-07-28T13:05:01Z</time>
      </trkpt>
      <trkpt lat="43.00486" lon="0.82952">
        <ele>747.08</ele>
        <time>2019-07-28T13:05:13Z</time>
      </trkpt>
      <trkpt lat="43.00496" lon="0.82947">
        <ele>745.16</ele>
        <time>2019-07-28T13:05:17Z</time>
      </trkpt>
      <trkpt lat="43.00524" lon="0.8293">
        <ele>742.28</ele>
        <time>2019-07-28T13:05:28Z</time>
      </trkpt>
      <trkpt lat="43.00537" lon="0.82923">
        <ele>740.83</ele>
        <time>2019-07-28T13:05:38Z</time>
      </trkpt>
      <trkpt lat="43.0055" lon="0.82917">
        <ele>738.43</ele>
        <time>2019-07-28T13:05:48Z</time>
      </trkpt>
      <trkpt lat="43.00552" lon="0.82916">
        <ele>738.43</ele>
        <time>2019-07-28T13:05:49Z</time>
      </trkpt>
      <trkpt lat="43.00598" lon="0.82921">
        <ele>736.51</ele>
        <time>2019-07-28T13:06:00Z</time>
      </trkpt>
      <trkpt lat="43.00615" lon="0.82918">
        <ele>735.07</ele>
        <time>2019-07-28T13:06:05Z</time>
      </trkpt>
      <trkpt lat="43.00619" lon="0.82908">
        <ele>733.62</ele>
        <time>2019-07-28T13:06:07Z</time>
      </trkpt>
      <trkpt lat="43.00621" lon="0.82901">
        <ele>733.62</ele>
        <time>2019-07-28T13:06:08Z</time>
      </trkpt>
      <trkpt lat="43.00628" lon="0.82868">
        <ele>729.78</ele>
        <time>2019-07-28T13:06:12Z</time>
      </trkpt>
      <trkpt lat="43.00633" lon="0.82843">
        <ele>726.41</ele>
        <time>2019-07-28T13:06:16Z</time>
      </trkpt>
      <trkpt lat="43.00637" lon="0.82839">
        <ele>725.45</ele>
        <time>2019-07-28T13:06:20Z</time>
      </trkpt>
      <trkpt lat="43.00637" lon="0.82842">
        <ele>725.45</ele>
        <time>2019-07-28T13:06:21Z</time>
      </trkpt>
      <trkpt lat="43.00638" lon="0.82844">
        <ele>725.45</ele>
        <time>2019-07-28T13:06:22Z</time>
      </trkpt>
      <trkpt lat="43.00638" lon="0.82847">
        <ele>725.45</ele>
        <time>2019-07-28T13:06:23Z</time>
      </trkpt>
      <trkpt lat="43.00638" lon="0.82851">
        <ele>725.45</ele>
        <time>2019-07-28T13:06:24Z</time>
      </trkpt>
      <trkpt lat="43.00638" lon="0.82873">
        <ele>724.97</ele>
        <time>2019-07-28T13:06:28Z</time>
      </trkpt>
      <trkpt lat="43.00639" lon="0.82906">
        <ele>724.97</ele>
        <time>2019-07-28T13:06:33Z</time>
      </trkpt>
      <trkpt lat="43.00639" lon="0.82911">
        <ele>724.97</ele>
        <time>2019-07-28T13:06:34Z</time>
      </trkpt>
      <trkpt lat="43.00643" lon="0.82925">
        <ele>724.49</ele>
        <time>2019-07-28T13:06:43Z</time>
      </trkpt>
      <trkpt lat="43.00644" lon="0.82926">
        <ele>724.49</ele>
        <time>2019-07-28T13:06:47Z</time>
      </trkpt>
      <trkpt lat="43.00656" lon="0.82938">
        <ele>720.65</ele>
        <time>2019-07-28T13:06:55Z</time>
      </trkpt>
      <trkpt lat="43.00661" lon="0.82942">
        <ele>719.68</ele>
        <time>2019-07-28T13:06:57Z</time>
      </trkpt>
      <trkpt lat="43.00662" lon="0.82944">
        <ele>719.2</ele>
        <time>2019-07-28T13:06:58Z</time>
      </trkpt>
      <trkpt lat="43.00665" lon="0.82946">
        <ele>717.76</ele>
        <time>2019-07-28T13:06:59Z</time>
      </trkpt>
      <trkpt lat="43.00667" lon="0.82948">
        <ele>717.28</ele>
        <time>2019-07-28T13:07:00Z</time>
      </trkpt>
      <trkpt lat="43.00669" lon="0.82949">
        <ele>716.8</ele>
        <time>2019-07-28T13:07:01Z</time>
      </trkpt>
      <trkpt lat="43.00671" lon="0.8295">
        <ele>715.84</ele>
        <time>2019-07-28T13:07:02Z</time>
      </trkpt>
      <trkpt lat="43.00674" lon="0.82952">
        <ele>714.4</ele>
        <time>2019-07-28T13:07:04Z</time>
      </trkpt>
      <trkpt lat="43.00676" lon="0.82953">
        <ele>713.44</ele>
        <time>2019-07-28T13:07:05Z</time>
      </trkpt>
      <trkpt lat="43.00678" lon="0.82953">
        <ele>712.47</ele>
        <time>2019-07-28T13:07:06Z</time>
      </trkpt>
      <trkpt lat="43.00681" lon="0.82953">
        <ele>711.99</ele>
        <time>2019-07-28T13:07:07Z</time>
      </trkpt>
      <trkpt lat="43.00683" lon="0.82953">
        <ele>711.03</ele>
        <time>2019-07-28T13:07:08Z</time>
      </trkpt>
      <trkpt lat="43.00686" lon="0.82955">
        <ele>710.55</ele>
        <time>2019-07-28T13:07:09Z</time>
      </trkpt>
      <trkpt lat="43.00689" lon="0.82956">
        <ele>709.59</ele>
        <time>2019-07-28T13:07:10Z</time>
      </trkpt>
      <trkpt lat="43.00701" lon="0.8296">
        <ele>706.23</ele>
        <time>2019-07-28T13:07:14Z</time>
      </trkpt>
      <trkpt lat="43.0071" lon="0.82961">
        <ele>704.3</ele>
        <time>2019-07-28T13:07:17Z</time>
      </trkpt>
      <trkpt lat="43.00718" lon="0.82962">
        <ele>700.94</ele>
        <time>2019-07-28T13:07:21Z</time>
      </trkpt>
      <trkpt lat="43.00721" lon="0.82963">
        <ele>700.46</ele>
        <time>2019-07-28T13:07:22Z</time>
      </trkpt>
      <trkpt lat="43.00723" lon="0.82965">
        <ele>700.46</ele>
        <time>2019-07-28T13:07:23Z</time>
      </trkpt>
      <trkpt lat="43.00725" lon="0.82966">
        <ele>699.98</ele>
        <time>2019-07-28T13:07:24Z</time>
      </trkpt>
      <trkpt lat="43.00728" lon="0.82967">
        <ele>699.02</ele>
        <time>2019-07-28T13:07:25Z</time>
      </trkpt>
      <trkpt lat="43.00731" lon="0.82967">
        <ele>698.53</ele>
        <time>2019-07-28T13:07:26Z</time>
      </trkpt>
      <trkpt lat="43.00734" lon="0.82967">
        <ele>698.05</ele>
        <time>2019-07-28T13:07:27Z</time>
      </trkpt>
      <trkpt lat="43.00737" lon="0.82967">
        <ele>697.09</ele>
        <time>2019-07-28T13:07:28Z</time>
      </trkpt>
      <trkpt lat="43.0074" lon="0.82966">
        <ele>696.61</ele>
        <time>2019-07-28T13:07:29Z</time>
      </trkpt>
      <trkpt lat="43.00742" lon="0.82966">
        <ele>696.61</ele>
        <time>2019-07-28T13:07:30Z</time>
      </trkpt>
      <trkpt lat="43.0076" lon="0.82961">
        <ele>692.29</ele>
        <time>2019-07-28T13:07:39Z</time>
      </trkpt>
      <trkpt lat="43.00776" lon="0.8295">
        <ele>689.4</ele>
        <time>2019-07-28T13:07:50Z</time>
      </trkpt>
      <trkpt lat="43.00784" lon="0.82943">
        <ele>686.04</ele>
        <time>2019-07-28T13:07:54Z</time>
      </trkpt>
      <trkpt lat="43.00791" lon="0.82937">
        <ele>684.12</ele>
        <time>2019-07-28T13:07:57Z</time>
      </trkpt>
      <trkpt lat="43.00798" lon="0.82926">
        <ele>681.23</ele>
        <time>2019-07-28T13:08:01Z</time>
      </trkpt>
      <trkpt lat="43.00806" lon="0.82916">
        <ele>678.35</ele>
        <time>2019-07-28T13:08:05Z</time>
      </trkpt>
      <trkpt lat="43.0082" lon="0.82904">
        <ele>674.98</ele>
        <time>2019-07-28T13:08:12Z</time>
      </trkpt>
      <trkpt lat="43.00833" lon="0.82896">
        <ele>671.62</ele>
        <time>2019-07-28T13:08:16Z</time>
      </trkpt>
      <trkpt lat="43.00848" lon="0.82892">
        <ele>669.22</ele>
        <time>2019-07-28T13:08:25Z</time>
      </trkpt>
      <trkpt lat="43.00865" lon="0.82884">
        <ele>668.25</ele>
        <time>2019-07-28T13:08:41Z</time>
      </trkpt>
      <trkpt lat="43.00881" lon="0.82885">
        <ele>665.37</ele>
        <time>2019-07-28T13:08:55Z</time>
      </trkpt>
      <trkpt lat="43.00896" lon="0.82888">
        <ele>662.01</ele>
        <time>2019-07-28T13:08:59Z</time>
      </trkpt>
      <trkpt lat="43.00906" lon="0.82891">
        <ele>658.64</ele>
        <time>2019-07-28T13:09:03Z</time>
      </trkpt>
      <trkpt lat="43.00921" lon="0.82896">
        <ele>655.28</ele>
        <time>2019-07-28T13:09:08Z</time>
      </trkpt>
      <trkpt lat="43.00924" lon="0.82896">
        <ele>655.28</ele>
        <time>2019-07-28T13:09:09Z</time>
      </trkpt>
      <trkpt lat="43.00939" lon="0.82897">
        <ele>651.43</ele>
        <time>2019-07-28T13:09:15Z</time>
      </trkpt>
      <trkpt lat="43.00958" lon="0.82896">
        <ele>649.51</ele>
        <time>2019-07-28T13:09:24Z</time>
      </trkpt>
      <trkpt lat="43.00969" lon="0.82893">
        <ele>649.03</ele>
        <time>2019-07-28T13:09:37Z</time>
      </trkpt>
      <trkpt lat="43.00972" lon="0.82892">
        <ele>649.03</ele>
        <time>2019-07-28T13:09:39Z</time>
      </trkpt>
      <trkpt lat="43.00974" lon="0.82891">
        <ele>648.55</ele>
        <time>2019-07-28T13:09:40Z</time>
      </trkpt>
      <trkpt lat="43.00976" lon="0.8289">
        <ele>648.55</ele>
        <time>2019-07-28T13:09:41Z</time>
      </trkpt>
      <trkpt lat="43.00978" lon="0.82888">
        <ele>648.55</ele>
        <time>2019-07-28T13:09:42Z</time>
      </trkpt>
      <trkpt lat="43.0098" lon="0.82886">
        <ele>648.55</ele>
        <time>2019-07-28T13:09:43Z</time>
      </trkpt>
      <trkpt lat="43.00982" lon="0.82884">
        <ele>647.59</ele>
        <time>2019-07-28T13:09:44Z</time>
      </trkpt>
      <trkpt lat="43.00984" lon="0.82881">
        <ele>647.59</ele>
        <time>2019-07-28T13:09:45Z</time>
      </trkpt>
      <trkpt lat="43.00987" lon="0.82879">
        <ele>647.1</ele>
        <time>2019-07-28T13:09:46Z</time>
      </trkpt>
      <trkpt lat="43.0099" lon="0.82878">
        <ele>646.62</ele>
        <time>2019-07-28T13:09:47Z</time>
      </trkpt>
      <trkpt lat="43.00992" lon="0.82875">
        <ele>646.62</ele>
        <time>2019-07-28T13:09:48Z</time>
      </trkpt>
      <trkpt lat="43.00995" lon="0.82872">
        <ele>645.66</ele>
        <time>2019-07-28T13:09:49Z</time>
      </trkpt>
      <trkpt lat="43.00998" lon="0.82867">
        <ele>645.18</ele>
        <time>2019-07-28T13:09:50Z</time>
      </trkpt>
      <trkpt lat="43.01" lon="0.82862">
        <ele>644.7</ele>
        <time>2019-07-28T13:09:51Z</time>
      </trkpt>
      <trkpt lat="43.01" lon="0.82858">
        <ele>644.7</ele>
        <time>2019-07-28T13:09:52Z</time>
      </trkpt>
      <trkpt lat="43.01" lon="0.82853">
        <ele>643.74</ele>
        <time>2019-07-28T13:09:53Z</time>
      </trkpt>
      <trkpt lat="43.01001" lon="0.82849">
        <ele>642.78</ele>
        <time>2019-07-28T13:09:54Z</time>
      </trkpt>
      <trkpt lat="43.01003" lon="0.82845">
        <ele>641.34</ele>
        <time>2019-07-28T13:09:55Z</time>
      </trkpt>
      <trkpt lat="43.01004" lon="0.8284">
        <ele>640.86</ele>
        <time>2019-07-28T13:09:56Z</time>
      </trkpt>
      <trkpt lat="43.01005" lon="0.82837">
        <ele>639.89</ele>
        <time>2019-07-28T13:09:57Z</time>
      </trkpt>
      <trkpt lat="43.01005" lon="0.82834">
        <ele>638.93</ele>
        <time>2019-07-28T13:09:58Z</time>
      </trkpt>
      <trkpt lat="43.01005" lon="0.82831">
        <ele>638.45</ele>
        <time>2019-07-28T13:09:59Z</time>
      </trkpt>
      <trkpt lat="43.01006" lon="0.82829">
        <ele>638.45</ele>
        <time>2019-07-28T13:10:00Z</time>
      </trkpt>
      <trkpt lat="43.01006" lon="0.82816">
        <ele>636.53</ele>
        <time>2019-07-28T13:10:03Z</time>
      </trkpt>
      <trkpt lat="43.01" lon="0.82796">
        <ele>633.17</ele>
        <time>2019-07-28T13:10:07Z</time>
      </trkpt>
      <trkpt lat="43.00988" lon="0.82776">
        <ele>629.32</ele>
        <time>2019-07-28T13:10:13Z</time>
      </trkpt>
      <trkpt lat="43.00975" lon="0.82765">
        <ele>625.96</ele>
        <time>2019-07-28T13:10:19Z</time>
      </trkpt>
      <trkpt lat="43.0097" lon="0.82762">
        <ele>624.99</ele>
        <time>2019-07-28T13:10:21Z</time>
      </trkpt>
      <trkpt lat="43.00955" lon="0.82751">
        <ele>621.63</ele>
        <time>2019-07-28T13:10:26Z</time>
      </trkpt>
      <trkpt lat="43.0094" lon="0.82745">
        <ele>617.78</ele>
        <time>2019-07-28T13:10:31Z</time>
      </trkpt>
      <trkpt lat="43.00936" lon="0.82744">
        <ele>617.3</ele>
        <time>2019-07-28T13:10:33Z</time>
      </trkpt>
      <trkpt lat="43.00921" lon="0.8274">
        <ele>615.38</ele>
        <time>2019-07-28T13:10:43Z</time>
      </trkpt>
      <trkpt lat="43.00914" lon="0.82738">
        <ele>614.9</ele>
        <time>2019-07-28T13:10:54Z</time>
      </trkpt>
      <trkpt lat="43.00902" lon="0.8273">
        <ele>614.42</ele>
        <time>2019-07-28T13:11:09Z</time>
      </trkpt>
      <trkpt lat="43.00894" lon="0.82713">
        <ele>616.34</ele>
        <time>2019-07-28T13:11:23Z</time>
      </trkpt>
      <trkpt lat="43.00895" lon="0.82711">
        <ele>616.34</ele>
        <time>2019-07-28T13:11:24Z</time>
      </trkpt>
      <trkpt lat="43.00896" lon="0.8271">
        <ele>616.34</ele>
        <time>2019-07-28T13:11:25Z</time>
      </trkpt>
      <trkpt lat="43.00905" lon="0.82706">
        <ele>612.98</ele>
        <time>2019-07-28T13:11:29Z</time>
      </trkpt>
      <trkpt lat="43.00907" lon="0.82705">
        <ele>612.5</ele>
        <time>2019-07-28T13:11:30Z</time>
      </trkpt>
      <trkpt lat="43.00909" lon="0.82705">
        <ele>612.02</ele>
        <time>2019-07-28T13:11:31Z</time>
      </trkpt>
      <trkpt lat="43.00911" lon="0.82704">
        <ele>612.02</ele>
        <time>2019-07-28T13:11:32Z</time>
      </trkpt>
      <trkpt lat="43.00911" lon="0.82702">
        <ele>611.06</ele>
        <time>2019-07-28T13:11:33Z</time>
      </trkpt>
      <trkpt lat="43.00911" lon="0.82699">
        <ele>611.06</ele>
        <time>2019-07-28T13:11:34Z</time>
      </trkpt>
      <trkpt lat="43.00912" lon="0.82697">
        <ele>610.09</ele>
        <time>2019-07-28T13:11:35Z</time>
      </trkpt>
      <trkpt lat="43.00914" lon="0.82688">
        <ele>608.17</ele>
        <time>2019-07-28T13:11:45Z</time>
      </trkpt>
      <trkpt lat="43.00917" lon="0.82675">
        <ele>606.25</ele>
        <time>2019-07-28T13:11:58Z</time>
      </trkpt>
      <trkpt lat="43.00922" lon="0.82667">
        <ele>604.33</ele>
        <time>2019-07-28T13:12:05Z</time>
      </trkpt>
      <trkpt lat="43.00927" lon="0.82657">
        <ele>601.44</ele>
        <time>2019-07-28T13:12:16Z</time>
      </trkpt>
      <trkpt lat="43.00934" lon="0.82645">
        <ele>599.52</ele>
        <time>2019-07-28T13:12:29Z</time>
      </trkpt>
      <trkpt lat="43.00938" lon="0.82641">
        <ele>598.56</ele>
        <time>2019-07-28T13:12:43Z</time>
      </trkpt>
      <trkpt lat="43.00942" lon="0.82628">
        <ele>597.12</ele>
        <time>2019-07-28T13:12:53Z</time>
      </trkpt>
      <trkpt lat="43.00945" lon="0.82617">
        <ele>596.64</ele>
        <time>2019-07-28T13:13:09Z</time>
      </trkpt>
      <trkpt lat="43.00946" lon="0.82612">
        <ele>596.15</ele>
        <time>2019-07-28T13:13:25Z</time>
      </trkpt>
      <trkpt lat="43.00946" lon="0.82615">
        <ele>597.12</ele>
        <time>2019-07-28T13:13:45Z</time>
      </trkpt>
      <trkpt lat="43.00941" lon="0.82629">
        <ele>599.04</ele>
        <time>2019-07-28T13:13:58Z</time>
      </trkpt>
      <trkpt lat="43.00936" lon="0.82645">
        <ele>600.96</ele>
        <time>2019-07-28T13:14:13Z</time>
      </trkpt>
      <trkpt lat="43.0093" lon="0.82655">
        <ele>601.92</ele>
        <time>2019-07-28T13:14:25Z</time>
      </trkpt>
      <trkpt lat="43.00925" lon="0.82664">
        <ele>604.33</ele>
        <time>2019-07-28T13:14:38Z</time>
      </trkpt>
      <trkpt lat="43.00921" lon="0.82672">
        <ele>605.77</ele>
        <time>2019-07-28T13:14:59Z</time>
      </trkpt>
      <trkpt lat="43.00921" lon="0.82678">
        <ele>606.73</ele>
        <time>2019-07-28T13:15:15Z</time>
      </trkpt>
      <trkpt lat="43.00923" lon="0.82678">
        <ele>606.73</ele>
        <time>2019-07-28T13:15:46Z</time>
      </trkpt>
      <trkpt lat="43.00924" lon="0.82681">
        <ele>608.17</ele>
        <time>2019-07-28T13:15:57Z</time>
      </trkpt>
      <trkpt lat="43.00921" lon="0.82691">
        <ele>610.57</ele>
        <time>2019-07-28T13:16:09Z</time>
      </trkpt>
      <trkpt lat="43.00924" lon="0.82696">
        <ele>611.06</ele>
        <time>2019-07-28T13:16:22Z</time>
      </trkpt>
      <trkpt lat="43.00925" lon="0.82699">
        <ele>610.09</ele>
        <time>2019-07-28T13:16:38Z</time>
      </trkpt>
      <trkpt lat="43.00927" lon="0.82711">
        <ele>610.09</ele>
        <time>2019-07-28T13:17:16Z</time>
      </trkpt>
      <trkpt lat="43.00925" lon="0.82703">
        <ele>610.09</ele>
        <time>2019-07-28T13:17:24Z</time>
      </trkpt>
      <trkpt lat="43.00923" lon="0.82687">
        <ele>608.65</ele>
        <time>2019-07-28T13:17:35Z</time>
      </trkpt>
      <trkpt lat="43.00923" lon="0.82684">
        <ele>608.17</ele>
        <time>2019-07-28T13:17:39Z</time>
      </trkpt>
      <trkpt lat="43.00924" lon="0.82671">
        <ele>605.77</ele>
        <time>2019-07-28T13:17:46Z</time>
      </trkpt>
      <trkpt lat="43.00927" lon="0.82658">
        <ele>601.92</ele>
        <time>2019-07-28T13:17:53Z</time>
      </trkpt>
      <trkpt lat="43.00931" lon="0.82655">
        <ele>601.44</ele>
        <time>2019-07-28T13:18:03Z</time>
      </trkpt>
      <trkpt lat="43.00937" lon="0.82644">
        <ele>599.52</ele>
        <time>2019-07-28T13:18:16Z</time>
      </trkpt>
      <trkpt lat="43.00942" lon="0.82632">
        <ele>597.6</ele>
        <time>2019-07-28T13:18:27Z</time>
      </trkpt>
      <trkpt lat="43.00936" lon="0.82636">
        <ele>597.12</ele>
        <time>2019-07-28T13:19:03Z</time>
      </trkpt>
      <trkpt lat="43.00938" lon="0.82625">
        <ele>596.15</ele>
        <time>2019-07-28T13:19:18Z</time>
      </trkpt>
      <trkpt lat="43.00939" lon="0.82618">
        <ele>595.19</ele>
        <time>2019-07-28T13:19:22Z</time>
      </trkpt>
      <trkpt lat="43.0094" lon="0.82614">
        <ele>594.71</ele>
        <time>2019-07-28T13:19:24Z</time>
      </trkpt>
      <trkpt lat="43.00946" lon="0.82597">
        <ele>594.23</ele>
        <time>2019-07-28T13:19:36Z</time>
      </trkpt>
      <trkpt lat="43.0096" lon="0.82588">
        <ele>594.23</ele>
        <time>2019-07-28T13:19:52Z</time>
      </trkpt>
      <trkpt lat="43.00967" lon="0.82583">
        <ele>594.23</ele>
        <time>2019-07-28T13:20:03Z</time>
      </trkpt>
      <trkpt lat="43.00977" lon="0.82579">
        <ele>594.23</ele>
        <time>2019-07-28T13:20:13Z</time>
      </trkpt>
      <trkpt lat="43.00994" lon="0.82575">
        <ele>593.75</ele>
        <time>2019-07-28T13:20:24Z</time>
      </trkpt>
      <trkpt lat="43.01016" lon="0.82577">
        <ele>594.71</ele>
        <time>2019-07-28T13:20:36Z</time>
      </trkpt>
      <trkpt lat="43.0104" lon="0.82579">
        <ele>595.67</ele>
        <time>2019-07-28T13:20:46Z</time>
      </trkpt>
      <trkpt lat="43.01059" lon="0.82579">
        <ele>597.12</ele>
        <time>2019-07-28T13:20:55Z</time>
      </trkpt>
      <trkpt lat="43.01087" lon="0.82573">
        <ele>600</ele>
        <time>2019-07-28T13:21:09Z</time>
      </trkpt>
      <trkpt lat="43.01101" lon="0.82567">
        <ele>603.36</ele>
        <time>2019-07-28T13:21:18Z</time>
      </trkpt>
      <trkpt lat="43.0112" lon="0.82556">
        <ele>606.25</ele>
        <time>2019-07-28T13:21:33Z</time>
      </trkpt>
      <trkpt lat="43.01124" lon="0.8255">
        <ele>606.73</ele>
        <time>2019-07-28T13:21:37Z</time>
      </trkpt>
      <trkpt lat="43.01127" lon="0.82513">
        <ele>607.21</ele>
        <time>2019-07-28T13:21:54Z</time>
      </trkpt>
      <trkpt lat="43.01128" lon="0.82508">
        <ele>607.21</ele>
        <time>2019-07-28T13:22:05Z</time>
      </trkpt>
      <trkpt lat="43.01127" lon="0.82511">
        <ele>607.21</ele>
        <time>2019-07-28T13:22:19Z</time>
      </trkpt>
      <trkpt lat="43.01129" lon="0.82508">
        <ele>606.73</ele>
        <time>2019-07-28T13:22:38Z</time>
      </trkpt>
      <trkpt lat="43.01128" lon="0.82511">
        <ele>606.73</ele>
        <time>2019-07-28T13:23:18Z</time>
      </trkpt>
      <trkpt lat="43.01128" lon="0.82511">
        <ele>606.25</ele>
        <time>2019-07-28T13:23:57Z</time>
      </trkpt>
      <trkpt lat="43.01127" lon="0.82508">
        <ele>606.73</ele>
        <time>2019-07-28T13:24:19Z</time>
      </trkpt>
      <trkpt lat="43.01126" lon="0.82506">
        <ele>606.73</ele>
        <time>2019-07-28T13:24:47Z</time>
      </trkpt>
      <trkpt lat="43.01125" lon="0.82509">
        <ele>606.25</ele>
        <time>2019-07-28T13:25:02Z</time>
      </trkpt>
      <trkpt lat="43.01127" lon="0.82484">
        <ele>606.25</ele>
        <time>2019-07-28T13:25:12Z</time>
      </trkpt>
      <trkpt lat="43.01128" lon="0.82469">
        <ele>605.29</ele>
        <time>2019-07-28T13:25:15Z</time>
      </trkpt>
      <trkpt lat="43.01129" lon="0.82453">
        <ele>604.81</ele>
        <time>2019-07-28T13:25:18Z</time>
      </trkpt>
      <trkpt lat="43.01131" lon="0.82407">
        <ele>603.85</ele>
        <time>2019-07-28T13:25:28Z</time>
      </trkpt>
      <trkpt lat="43.01135" lon="0.82361">
        <ele>605.77</ele>
        <time>2019-07-28T13:25:39Z</time>
      </trkpt>
      <trkpt lat="43.01137" lon="0.82338">
        <ele>605.77</ele>
        <time>2019-07-28T13:25:43Z</time>
      </trkpt>
      <trkpt lat="43.01138" lon="0.82332">
        <ele>604.33</ele>
        <time>2019-07-28T13:25:44Z</time>
      </trkpt>
      <trkpt lat="43.01141" lon="0.82314">
        <ele>603.85</ele>
        <time>2019-07-28T13:25:47Z</time>
      </trkpt>
      <trkpt lat="43.01143" lon="0.82308">
        <ele>603.85</ele>
        <time>2019-07-28T13:25:48Z</time>
      </trkpt>
      <trkpt lat="43.01145" lon="0.82302">
        <ele>603.36</ele>
        <time>2019-07-28T13:25:49Z</time>
      </trkpt>
      <trkpt lat="43.01151" lon="0.82278">
        <ele>602.4</ele>
        <time>2019-07-28T13:25:53Z</time>
      </trkpt>
      <trkpt lat="43.01168" lon="0.82201">
        <ele>600.96</ele>
        <time>2019-07-28T13:26:05Z</time>
      </trkpt>
      <trkpt lat="43.0117" lon="0.82195">
        <ele>600.96</ele>
        <time>2019-07-28T13:26:06Z</time>
      </trkpt>
      <trkpt lat="43.01172" lon="0.82188">
        <ele>600.96</ele>
        <time>2019-07-28T13:26:07Z</time>
      </trkpt>
      <trkpt lat="43.01177" lon="0.82168">
        <ele>600.96</ele>
        <time>2019-07-28T13:26:10Z</time>
      </trkpt>
      <trkpt lat="43.01199" lon="0.82109">
        <ele>602.4</ele>
        <time>2019-07-28T13:26:23Z</time>
      </trkpt>
      <trkpt lat="43.01216" lon="0.82055">
        <ele>600.96</ele>
        <time>2019-07-28T13:26:35Z</time>
      </trkpt>
      <trkpt lat="43.01223" lon="0.8203">
        <ele>598.56</ele>
        <time>2019-07-28T13:26:39Z</time>
      </trkpt>
      <trkpt lat="43.01239" lon="0.81993">
        <ele>597.12</ele>
        <time>2019-07-28T13:26:45Z</time>
      </trkpt>
      <trkpt lat="43.01242" lon="0.81985">
        <ele>597.12</ele>
        <time>2019-07-28T13:26:46Z</time>
      </trkpt>
      <trkpt lat="43.01245" lon="0.81978">
        <ele>596.15</ele>
        <time>2019-07-28T13:26:47Z</time>
      </trkpt>
      <trkpt lat="43.01251" lon="0.81962">
        <ele>595.67</ele>
        <time>2019-07-28T13:26:49Z</time>
      </trkpt>
      <trkpt lat="43.01262" lon="0.81923">
        <ele>594.23</ele>
        <time>2019-07-28T13:26:54Z</time>
      </trkpt>
      <trkpt lat="43.01279" lon="0.8187">
        <ele>592.31</ele>
        <time>2019-07-28T13:27:01Z</time>
      </trkpt>
      <trkpt lat="43.01295" lon="0.81819">
        <ele>592.79</ele>
        <time>2019-07-28T13:27:11Z</time>
      </trkpt>
      <trkpt lat="43.01296" lon="0.81813">
        <ele>592.79</ele>
        <time>2019-07-28T13:27:12Z</time>
      </trkpt>
      <trkpt lat="43.01297" lon="0.81807">
        <ele>592.79</ele>
        <time>2019-07-28T13:27:13Z</time>
      </trkpt>
      <trkpt lat="43.01298" lon="0.81801">
        <ele>591.35</ele>
        <time>2019-07-28T13:27:14Z</time>
      </trkpt>
      <trkpt lat="43.01297" lon="0.81794">
        <ele>590.87</ele>
        <time>2019-07-28T13:27:15Z</time>
      </trkpt>
      <trkpt lat="43.01296" lon="0.81787">
        <ele>589.43</ele>
        <time>2019-07-28T13:27:16Z</time>
      </trkpt>
      <trkpt lat="43.01295" lon="0.81781">
        <ele>588.95</ele>
        <time>2019-07-28T13:27:17Z</time>
      </trkpt>
      <trkpt lat="43.01294" lon="0.81774">
        <ele>588.95</ele>
        <time>2019-07-28T13:27:18Z</time>
      </trkpt>
      <trkpt lat="43.01293" lon="0.81768">
        <ele>588.95</ele>
        <time>2019-07-28T13:27:19Z</time>
      </trkpt>
      <trkpt lat="43.01294" lon="0.81762">
        <ele>588.95</ele>
        <time>2019-07-28T13:27:20Z</time>
      </trkpt>
      <trkpt lat="43.01294" lon="0.81756">
        <ele>588.95</ele>
        <time>2019-07-28T13:27:21Z</time>
      </trkpt>
      <trkpt lat="43.01293" lon="0.8175">
        <ele>588.95</ele>
        <time>2019-07-28T13:27:22Z</time>
      </trkpt>
      <trkpt lat="43.01292" lon="0.81744">
        <ele>588.46</ele>
        <time>2019-07-28T13:27:23Z</time>
      </trkpt>
      <trkpt lat="43.01291" lon="0.81738">
        <ele>588.46</ele>
        <time>2019-07-28T13:27:24Z</time>
      </trkpt>
      <trkpt lat="43.01291" lon="0.81734">
        <ele>588.46</ele>
        <time>2019-07-28T13:27:25Z</time>
      </trkpt>
      <trkpt lat="43.0129" lon="0.8173">
        <ele>588.46</ele>
        <time>2019-07-28T13:27:26Z</time>
      </trkpt>
      <trkpt lat="43.01291" lon="0.81725">
        <ele>588.46</ele>
        <time>2019-07-28T13:27:27Z</time>
      </trkpt>
      <trkpt lat="43.0129" lon="0.81714">
        <ele>587.98</ele>
        <time>2019-07-28T13:27:29Z</time>
      </trkpt>
      <trkpt lat="43.01302" lon="0.81677">
        <ele>587.98</ele>
        <time>2019-07-28T13:27:38Z</time>
      </trkpt>
      <trkpt lat="43.01328" lon="0.81637">
        <ele>587.5</ele>
        <time>2019-07-28T13:27:49Z</time>
      </trkpt>
      <trkpt lat="43.01336" lon="0.81614">
        <ele>588.95</ele>
        <time>2019-07-28T13:27:56Z</time>
      </trkpt>
      <trkpt lat="43.01347" lon="0.81573">
        <ele>589.91</ele>
        <time>2019-07-28T13:28:07Z</time>
      </trkpt>
      <trkpt lat="43.01347" lon="0.81574">
        <ele>589.91</ele>
        <time>2019-07-28T13:28:11Z</time>
      </trkpt>
      <trkpt lat="43.01347" lon="0.81576">
        <ele>589.91</ele>
        <time>2019-07-28T13:28:12Z</time>
      </trkpt>
      <trkpt lat="43.01347" lon="0.81578">
        <ele>589.91</ele>
        <time>2019-07-28T13:28:13Z</time>
      </trkpt>
      <trkpt lat="43.01347" lon="0.81581">
        <ele>589.91</ele>
        <time>2019-07-28T13:28:14Z</time>
      </trkpt>
      <trkpt lat="43.01347" lon="0.81583">
        <ele>589.91</ele>
        <time>2019-07-28T13:28:15Z</time>
      </trkpt>
      <trkpt lat="43.01346" lon="0.81586">
        <ele>589.91</ele>
        <time>2019-07-28T13:28:16Z</time>
      </trkpt>
      <trkpt lat="43.01346" lon="0.81588">
        <ele>589.91</ele>
        <time>2019-07-28T13:28:17Z</time>
      </trkpt>
      <trkpt lat="43.01345" lon="0.8159">
        <ele>589.91</ele>
        <time>2019-07-28T13:28:18Z</time>
      </trkpt>
      <trkpt lat="43.01345" lon="0.81592">
        <ele>589.91</ele>
        <time>2019-07-28T13:28:19Z</time>
      </trkpt>
      <trkpt lat="43.01341" lon="0.81606">
        <ele>589.91</ele>
        <time>2019-07-28T13:28:25Z</time>
      </trkpt>
      <trkpt lat="43.01342" lon="0.81612">
        <ele>589.43</ele>
        <time>2019-07-28T13:28:30Z</time>
      </trkpt>
      <trkpt lat="43.01344" lon="0.81611">
        <ele>587.98</ele>
        <time>2019-07-28T13:28:31Z</time>
      </trkpt>
      <trkpt lat="43.01345" lon="0.81611">
        <ele>587.98</ele>
        <time>2019-07-28T13:28:32Z</time>
      </trkpt>
      <trkpt lat="43.01346" lon="0.8161">
        <ele>587.98</ele>
        <time>2019-07-28T13:28:33Z</time>
      </trkpt>
      <trkpt lat="43.01347" lon="0.81608">
        <ele>587.98</ele>
        <time>2019-07-28T13:28:34Z</time>
      </trkpt>
      <trkpt lat="43.01348" lon="0.81606">
        <ele>587.98</ele>
        <time>2019-07-28T13:28:35Z</time>
      </trkpt>
      <trkpt lat="43.01349" lon="0.81603">
        <ele>587.98</ele>
        <time>2019-07-28T13:28:36Z</time>
      </trkpt>
      <trkpt lat="43.0136" lon="0.81581">
        <ele>587.02</ele>
        <time>2019-07-28T13:28:44Z</time>
      </trkpt>
      <trkpt lat="43.01362" lon="0.8158">
        <ele>587.02</ele>
        <time>2019-07-28T13:28:45Z</time>
      </trkpt>
      <trkpt lat="43.01364" lon="0.81579">
        <ele>586.54</ele>
        <time>2019-07-28T13:28:46Z</time>
      </trkpt>
      <trkpt lat="43.01375" lon="0.81561">
        <ele>584.14</ele>
        <time>2019-07-28T13:28:51Z</time>
      </trkpt>
      <trkpt lat="43.0138" lon="0.81551">
        <ele>582.22</ele>
        <time>2019-07-28T13:28:53Z</time>
      </trkpt>
      <trkpt lat="43.01382" lon="0.81545">
        <ele>581.73</ele>
        <time>2019-07-28T13:28:54Z</time>
      </trkpt>
      <trkpt lat="43.01385" lon="0.81538">
        <ele>579.81</ele>
        <time>2019-07-28T13:28:55Z</time>
      </trkpt>
      <trkpt lat="43.01387" lon="0.81531">
        <ele>579.33</ele>
        <time>2019-07-28T13:28:56Z</time>
      </trkpt>
      <trkpt lat="43.01389" lon="0.81523">
        <ele>578.37</ele>
        <time>2019-07-28T13:28:57Z</time>
      </trkpt>
      <trkpt lat="43.0139" lon="0.81517">
        <ele>577.41</ele>
        <time>2019-07-28T13:28:58Z</time>
      </trkpt>
      <trkpt lat="43.01391" lon="0.81511">
        <ele>577.41</ele>
        <time>2019-07-28T13:28:59Z</time>
      </trkpt>
      <trkpt lat="43.01392" lon="0.81505">
        <ele>576.45</ele>
        <time>2019-07-28T13:29:00Z</time>
      </trkpt>
      <trkpt lat="43.01394" lon="0.81498">
        <ele>575.49</ele>
        <time>2019-07-28T13:29:01Z</time>
      </trkpt>
      <trkpt lat="43.01398" lon="0.81481">
        <ele>572.6</ele>
        <time>2019-07-28T13:29:04Z</time>
      </trkpt>
      <trkpt lat="43.01403" lon="0.8146">
        <ele>570.2</ele>
        <time>2019-07-28T13:29:08Z</time>
      </trkpt>
      <trkpt lat="43.01407" lon="0.81444">
        <ele>567.32</ele>
        <time>2019-07-28T13:29:12Z</time>
      </trkpt>
      <trkpt lat="43.0141" lon="0.8143">
        <ele>565.39</ele>
        <time>2019-07-28T13:29:16Z</time>
      </trkpt>
      <trkpt lat="43.01411" lon="0.81427">
        <ele>565.39</ele>
        <time>2019-07-28T13:29:17Z</time>
      </trkpt>
      <trkpt lat="43.01412" lon="0.81423">
        <ele>564.43</ele>
        <time>2019-07-28T13:29:18Z</time>
      </trkpt>
      <trkpt lat="43.01418" lon="0.81399">
        <ele>561.07</ele>
        <time>2019-07-28T13:29:23Z</time>
      </trkpt>
      <trkpt lat="43.01419" lon="0.8139">
        <ele>560.11</ele>
        <time>2019-07-28T13:29:25Z</time>
      </trkpt>
      <trkpt lat="43.01423" lon="0.81363">
        <ele>556.74</ele>
        <time>2019-07-28T13:29:30Z</time>
      </trkpt>
      <trkpt lat="43.01425" lon="0.81344">
        <ele>554.34</ele>
        <time>2019-07-28T13:29:34Z</time>
      </trkpt>
      <trkpt lat="43.01432" lon="0.81321">
        <ele>551.93</ele>
        <time>2019-07-28T13:29:39Z</time>
      </trkpt>
      <trkpt lat="43.01438" lon="0.81288">
        <ele>548.09</ele>
        <time>2019-07-28T13:29:45Z</time>
      </trkpt>
      <trkpt lat="43.01442" lon="0.81255">
        <ele>545.69</ele>
        <time>2019-07-28T13:29:50Z</time>
      </trkpt>
      <trkpt lat="43.01447" lon="0.81222">
        <ele>543.28</ele>
        <time>2019-07-28T13:29:54Z</time>
      </trkpt>
      <trkpt lat="43.01449" lon="0.81198">
        <ele>541.36</ele>
        <time>2019-07-28T13:29:57Z</time>
      </trkpt>
      <trkpt lat="43.0145" lon="0.81191">
        <ele>541.36</ele>
        <time>2019-07-28T13:29:58Z</time>
      </trkpt>
      <trkpt lat="43.01452" lon="0.81185">
        <ele>540.88</ele>
        <time>2019-07-28T13:29:59Z</time>
      </trkpt>
      <trkpt lat="43.01453" lon="0.81178">
        <ele>539.92</ele>
        <time>2019-07-28T13:30:00Z</time>
      </trkpt>
      <trkpt lat="43.01454" lon="0.81171">
        <ele>539.44</ele>
        <time>2019-07-28T13:30:01Z</time>
      </trkpt>
      <trkpt lat="43.01454" lon="0.81164">
        <ele>539.44</ele>
        <time>2019-07-28T13:30:02Z</time>
      </trkpt>
      <trkpt lat="43.01456" lon="0.81143">
        <ele>538.48</ele>
        <time>2019-07-28T13:30:05Z</time>
      </trkpt>
      <trkpt lat="43.01457" lon="0.81136">
        <ele>537.51</ele>
        <time>2019-07-28T13:30:06Z</time>
      </trkpt>
      <trkpt lat="43.01457" lon="0.81129">
        <ele>537.51</ele>
        <time>2019-07-28T13:30:07Z</time>
      </trkpt>
      <trkpt lat="43.0146" lon="0.81091">
        <ele>533.67</ele>
        <time>2019-07-28T13:30:14Z</time>
      </trkpt>
      <trkpt lat="43.01463" lon="0.81051">
        <ele>530.79</ele>
        <time>2019-07-28T13:30:22Z</time>
      </trkpt>
      <trkpt lat="43.01467" lon="0.81022">
        <ele>527.42</ele>
        <time>2019-07-28T13:30:30Z</time>
      </trkpt>
      <trkpt lat="43.01465" lon="0.8099">
        <ele>524.54</ele>
        <time>2019-07-28T13:30:38Z</time>
      </trkpt>
      <trkpt lat="43.01464" lon="0.80961">
        <ele>521.65</ele>
        <time>2019-07-28T13:30:44Z</time>
      </trkpt>
      <trkpt lat="43.01466" lon="0.80943">
        <ele>519.73</ele>
        <time>2019-07-28T13:30:47Z</time>
      </trkpt>
      <trkpt lat="43.01466" lon="0.80937">
        <ele>519.73</ele>
        <time>2019-07-28T13:30:48Z</time>
      </trkpt>
      <trkpt lat="43.01465" lon="0.80932">
        <ele>519.25</ele>
        <time>2019-07-28T13:30:49Z</time>
      </trkpt>
      <trkpt lat="43.01465" lon="0.80926">
        <ele>518.77</ele>
        <time>2019-07-28T13:30:50Z</time>
      </trkpt>
      <trkpt lat="43.01465" lon="0.80921">
        <ele>518.29</ele>
        <time>2019-07-28T13:30:51Z</time>
      </trkpt>
      <trkpt lat="43.01466" lon="0.80916">
        <ele>517.81</ele>
        <time>2019-07-28T13:30:52Z</time>
      </trkpt>
      <trkpt lat="43.01465" lon="0.80912">
        <ele>517.81</ele>
        <time>2019-07-28T13:30:53Z</time>
      </trkpt>
      <trkpt lat="43.01468" lon="0.80882">
        <ele>515.4</ele>
        <time>2019-07-28T13:31:03Z</time>
      </trkpt>
      <trkpt lat="43.01479" lon="0.80841">
        <ele>514.44</ele>
        <time>2019-07-28T13:31:11Z</time>
      </trkpt>
      <trkpt lat="43.01483" lon="0.80831">
        <ele>514.44</ele>
        <time>2019-07-28T13:31:13Z</time>
      </trkpt>
      <trkpt lat="43.01489" lon="0.80758">
        <ele>513.96</ele>
        <time>2019-07-28T13:31:26Z</time>
      </trkpt>
      <trkpt lat="43.01496" lon="0.80692">
        <ele>513</ele>
        <time>2019-07-28T13:31:37Z</time>
      </trkpt>
      <trkpt lat="43.0149" lon="0.80634">
        <ele>509.64</ele>
        <time>2019-07-28T13:31:45Z</time>
      </trkpt>
      <trkpt lat="43.01488" lon="0.80626">
        <ele>509.64</ele>
        <time>2019-07-28T13:31:46Z</time>
      </trkpt>
      <trkpt lat="43.01475" lon="0.80593">
        <ele>506.75</ele>
        <time>2019-07-28T13:31:51Z</time>
      </trkpt>
      <trkpt lat="43.01468" lon="0.80581">
        <ele>505.79</ele>
        <time>2019-07-28T13:31:56Z</time>
      </trkpt>
      <trkpt lat="43.01468" lon="0.8058">
        <ele>505.79</ele>
        <time>2019-07-28T13:31:57Z</time>
      </trkpt>
      <trkpt lat="43.01469" lon="0.80579">
        <ele>505.31</ele>
        <time>2019-07-28T13:31:58Z</time>
      </trkpt>
      <trkpt lat="43.01484" lon="0.80581">
        <ele>502.43</ele>
        <time>2019-07-28T13:32:03Z</time>
      </trkpt>
      <trkpt lat="43.01499" lon="0.80565">
        <ele>499.06</ele>
        <time>2019-07-28T13:32:09Z</time>
      </trkpt>
      <trkpt lat="43.01511" lon="0.80541">
        <ele>495.7</ele>
        <time>2019-07-28T13:32:13Z</time>
      </trkpt>
      <trkpt lat="43.01523" lon="0.80516">
        <ele>491.85</ele>
        <time>2019-07-28T13:32:17Z</time>
      </trkpt>
      <trkpt lat="43.01528" lon="0.80504">
        <ele>491.37</ele>
        <time>2019-07-28T13:32:19Z</time>
      </trkpt>
      <trkpt lat="43.01543" lon="0.80462">
        <ele>488.01</ele>
        <time>2019-07-28T13:32:25Z</time>
      </trkpt>
      <trkpt lat="43.0155" lon="0.80441">
        <ele>484.64</ele>
        <time>2019-07-28T13:32:29Z</time>
      </trkpt>
      <trkpt lat="43.01554" lon="0.80432">
        <ele>483.68</ele>
        <time>2019-07-28T13:32:31Z</time>
      </trkpt>
      <trkpt lat="43.01556" lon="0.80427">
        <ele>483.2</ele>
        <time>2019-07-28T13:32:32Z</time>
      </trkpt>
      <trkpt lat="43.01562" lon="0.804">
        <ele>482.72</ele>
        <time>2019-07-28T13:32:36Z</time>
      </trkpt>
      <trkpt lat="43.01567" lon="0.80389">
        <ele>481.28</ele>
        <time>2019-07-28T13:32:39Z</time>
      </trkpt>
      <trkpt lat="43.01574" lon="0.80373">
        <ele>480.8</ele>
        <time>2019-07-28T13:32:43Z</time>
      </trkpt>
      <trkpt lat="43.0159" lon="0.80295">
        <ele>477.43</ele>
        <time>2019-07-28T13:32:52Z</time>
      </trkpt>
      <trkpt lat="43.01593" lon="0.80284">
        <ele>476.95</ele>
        <time>2019-07-28T13:32:53Z</time>
      </trkpt>
      <trkpt lat="43.01606" lon="0.80235">
        <ele>473.59</ele>
        <time>2019-07-28T13:32:57Z</time>
      </trkpt>
      <trkpt lat="43.01622" lon="0.80182">
        <ele>470.7</ele>
        <time>2019-07-28T13:33:01Z</time>
      </trkpt>
      <trkpt lat="43.01635" lon="0.80141">
        <ele>467.34</ele>
        <time>2019-07-28T13:33:04Z</time>
      </trkpt>
      <trkpt lat="43.01649" lon="0.801">
        <ele>464.45</ele>
        <time>2019-07-28T13:33:07Z</time>
      </trkpt>
      <trkpt lat="43.01663" lon="0.80059">
        <ele>460.61</ele>
        <time>2019-07-28T13:33:10Z</time>
      </trkpt>
      <trkpt lat="43.01671" lon="0.80036">
        <ele>457.24</ele>
        <time>2019-07-28T13:33:12Z</time>
      </trkpt>
      <trkpt lat="43.01679" lon="0.80018">
        <ele>454.84</ele>
        <time>2019-07-28T13:33:14Z</time>
      </trkpt>
      <trkpt lat="43.01684" lon="0.80011">
        <ele>453.88</ele>
        <time>2019-07-28T13:33:15Z</time>
      </trkpt>
      <trkpt lat="43.01691" lon="0.80006">
        <ele>453.88</ele>
        <time>2019-07-28T13:33:16Z</time>
      </trkpt>
      <trkpt lat="43.01699" lon="0.80004">
        <ele>452.44</ele>
        <time>2019-07-28T13:33:17Z</time>
      </trkpt>
      <trkpt lat="43.01707" lon="0.80005">
        <ele>451.96</ele>
        <time>2019-07-28T13:33:18Z</time>
      </trkpt>
      <trkpt lat="43.01715" lon="0.80008">
        <ele>451</ele>
        <time>2019-07-28T13:33:19Z</time>
      </trkpt>
      <trkpt lat="43.01723" lon="0.80012">
        <ele>451</ele>
        <time>2019-07-28T13:33:20Z</time>
      </trkpt>
      <trkpt lat="43.01791" lon="0.80033">
        <ele>450.03</ele>
        <time>2019-07-28T13:33:31Z</time>
      </trkpt>
      <trkpt lat="43.01804" lon="0.80035">
        <ele>451.48</ele>
        <time>2019-07-28T13:33:35Z</time>
      </trkpt>
      <trkpt lat="43.0184" lon="0.80039">
        <ele>454.36</ele>
        <time>2019-07-28T13:33:49Z</time>
      </trkpt>
      <trkpt lat="43.01884" lon="0.8005">
        <ele>456.28</ele>
        <time>2019-07-28T13:34:04Z</time>
      </trkpt>
      <trkpt lat="43.01936" lon="0.8006">
        <ele>459.65</ele>
        <time>2019-07-28T13:34:21Z</time>
      </trkpt>
      <trkpt lat="43.01973" lon="0.80055">
        <ele>460.13</ele>
        <time>2019-07-28T13:34:33Z</time>
      </trkpt>
      <trkpt lat="43.01978" lon="0.80053">
        <ele>460.13</ele>
        <time>2019-07-28T13:34:34Z</time>
      </trkpt>
      <trkpt lat="43.01984" lon="0.80052">
        <ele>459.17</ele>
        <time>2019-07-28T13:34:35Z</time>
      </trkpt>
      <trkpt lat="43.0199" lon="0.80051">
        <ele>459.17</ele>
        <time>2019-07-28T13:34:36Z</time>
      </trkpt>
      <trkpt lat="43.02041" lon="0.8005">
        <ele>455.8</ele>
        <time>2019-07-28T13:34:44Z</time>
      </trkpt>
      <trkpt lat="43.02051" lon="0.80052">
        <ele>455.8</ele>
        <time>2019-07-28T13:34:46Z</time>
      </trkpt>
      <trkpt lat="43.02055" lon="0.80053">
        <ele>455.8</ele>
        <time>2019-07-28T13:34:47Z</time>
      </trkpt>
      <trkpt lat="43.02058" lon="0.80054">
        <ele>455.8</ele>
        <time>2019-07-28T13:34:48Z</time>
      </trkpt>
      <trkpt lat="43.02061" lon="0.80053">
        <ele>457.24</ele>
        <time>2019-07-28T13:34:49Z</time>
      </trkpt>
      <trkpt lat="43.02064" lon="0.80053">
        <ele>457.24</ele>
        <time>2019-07-28T13:34:50Z</time>
      </trkpt>
      <trkpt lat="43.02067" lon="0.80053">
        <ele>457.72</ele>
        <time>2019-07-28T13:34:51Z</time>
      </trkpt>
      <trkpt lat="43.0207" lon="0.80053">
        <ele>457.72</ele>
        <time>2019-07-28T13:34:52Z</time>
      </trkpt>
      <trkpt lat="43.02073" lon="0.80053">
        <ele>458.21</ele>
        <time>2019-07-28T13:34:53Z</time>
      </trkpt>
      <trkpt lat="43.02076" lon="0.80054">
        <ele>458.21</ele>
        <time>2019-07-28T13:34:54Z</time>
      </trkpt>
      <trkpt lat="43.02079" lon="0.80054">
        <ele>458.69</ele>
        <time>2019-07-28T13:34:55Z</time>
      </trkpt>
      <trkpt lat="43.02108" lon="0.80064">
        <ele>462.05</ele>
        <time>2019-07-28T13:35:06Z</time>
      </trkpt>
      <trkpt lat="43.02142" lon="0.8009">
        <ele>462.53</ele>
        <time>2019-07-28T13:35:18Z</time>
      </trkpt>
      <trkpt lat="43.02186" lon="0.8009">
        <ele>463.49</ele>
        <time>2019-07-28T13:35:31Z</time>
      </trkpt>
      <trkpt lat="43.02236" lon="0.80111">
        <ele>464.93</ele>
        <time>2019-07-28T13:35:47Z</time>
      </trkpt>
      <trkpt lat="43.02277" lon="0.8011">
        <ele>465.9</ele>
        <time>2019-07-28T13:36:00Z</time>
      </trkpt>
      <trkpt lat="43.02323" lon="0.80063">
        <ele>467.82</ele>
        <time>2019-07-28T13:36:18Z</time>
      </trkpt>
      <trkpt lat="43.02332" lon="0.80027">
        <ele>469.74</ele>
        <time>2019-07-28T13:36:29Z</time>
      </trkpt>
      <trkpt lat="43.02354" lon="0.79972">
        <ele>471.66</ele>
        <time>2019-07-28T13:36:47Z</time>
      </trkpt>
      <trkpt lat="43.02375" lon="0.79925">
        <ele>471.66</ele>
        <time>2019-07-28T13:37:00Z</time>
      </trkpt>
      <trkpt lat="43.02402" lon="0.79855">
        <ele>471.66</ele>
        <time>2019-07-28T13:37:14Z</time>
      </trkpt>
      <trkpt lat="43.02412" lon="0.79824">
        <ele>470.22</ele>
        <time>2019-07-28T13:37:19Z</time>
      </trkpt>
      <trkpt lat="43.02425" lon="0.79788">
        <ele>470.22</ele>
        <time>2019-07-28T13:37:25Z</time>
      </trkpt>
      <trkpt lat="43.02428" lon="0.79783">
        <ele>470.22</ele>
        <time>2019-07-28T13:37:26Z</time>
      </trkpt>
      <trkpt lat="43.02432" lon="0.79778">
        <ele>470.22</ele>
        <time>2019-07-28T13:37:27Z</time>
      </trkpt>
      <trkpt lat="43.02435" lon="0.79773">
        <ele>470.22</ele>
        <time>2019-07-28T13:37:28Z</time>
      </trkpt>
      <trkpt lat="43.02438" lon="0.79768">
        <ele>470.22</ele>
        <time>2019-07-28T13:37:29Z</time>
      </trkpt>
      <trkpt lat="43.0244" lon="0.79763">
        <ele>470.22</ele>
        <time>2019-07-28T13:37:30Z</time>
      </trkpt>
      <trkpt lat="43.02441" lon="0.79758">
        <ele>470.22</ele>
        <time>2019-07-28T13:37:31Z</time>
      </trkpt>
      <trkpt lat="43.02442" lon="0.79753">
        <ele>470.22</ele>
        <time>2019-07-28T13:37:32Z</time>
      </trkpt>
      <trkpt lat="43.02462" lon="0.79712">
        <ele>473.59</ele>
        <time>2019-07-28T13:37:43Z</time>
      </trkpt>
      <trkpt lat="43.02461" lon="0.79669">
        <ele>474.55</ele>
        <time>2019-07-28T13:37:54Z</time>
      </trkpt>
      <trkpt lat="43.0246" lon="0.79657">
        <ele>474.55</ele>
        <time>2019-07-28T13:38:02Z</time>
      </trkpt>
      <trkpt lat="43.0246" lon="0.79658">
        <ele>474.55</ele>
        <time>2019-07-28T13:38:03Z</time>
      </trkpt>
      <trkpt lat="43.0246" lon="0.79659">
        <ele>474.55</ele>
        <time>2019-07-28T13:38:04Z</time>
      </trkpt>
      <trkpt lat="43.0246" lon="0.79661">
        <ele>474.55</ele>
        <time>2019-07-28T13:38:05Z</time>
      </trkpt>
      <trkpt lat="43.0246" lon="0.79663">
        <ele>474.55</ele>
        <time>2019-07-28T13:38:06Z</time>
      </trkpt>
      <trkpt lat="43.0246" lon="0.79665">
        <ele>474.55</ele>
        <time>2019-07-28T13:38:07Z</time>
      </trkpt>
      <trkpt lat="43.0246" lon="0.79668">
        <ele>474.55</ele>
        <time>2019-07-28T13:38:08Z</time>
      </trkpt>
      <trkpt lat="43.02463" lon="0.79698">
        <ele>474.55</ele>
        <time>2019-07-28T13:38:22Z</time>
      </trkpt>
      <trkpt lat="43.02463" lon="0.79711">
        <ele>474.07</ele>
        <time>2019-07-28T13:38:30Z</time>
      </trkpt>
      <trkpt lat="43.02462" lon="0.79712">
        <ele>473.11</ele>
        <time>2019-07-28T13:38:31Z</time>
      </trkpt>
      <trkpt lat="43.02458" lon="0.79719">
        <ele>472.63</ele>
        <time>2019-07-28T13:38:37Z</time>
      </trkpt>
      <trkpt lat="43.02459" lon="0.7972">
        <ele>472.63</ele>
        <time>2019-07-28T13:38:39Z</time>
      </trkpt>
      <trkpt lat="43.0246" lon="0.7972">
        <ele>473.59</ele>
        <time>2019-07-28T13:38:48Z</time>
      </trkpt>
      <trkpt lat="43.0246" lon="0.79718">
        <ele>472.14</ele>
        <time>2019-07-28T13:39:13Z</time>
      </trkpt>
      <trkpt lat="43.0246" lon="0.79717">
        <ele>473.11</ele>
        <time>2019-07-28T13:39:30Z</time>
      </trkpt>
      <trkpt lat="43.02464" lon="0.79706">
        <ele>473.11</ele>
        <time>2019-07-28T13:39:37Z</time>
      </trkpt>
      <trkpt lat="43.02462" lon="0.7967">
        <ele>474.07</ele>
        <time>2019-07-28T13:39:50Z</time>
      </trkpt>
      <trkpt lat="43.02478" lon="0.79631">
        <ele>473.11</ele>
        <time>2019-07-28T13:40:03Z</time>
      </trkpt>
      <trkpt lat="43.02507" lon="0.79629">
        <ele>470.22</ele>
        <time>2019-07-28T13:40:11Z</time>
      </trkpt>
      <trkpt lat="43.02547" lon="0.79629">
        <ele>467.82</ele>
        <time>2019-07-28T13:40:18Z</time>
      </trkpt>
      <trkpt lat="43.02583" lon="0.79623">
        <ele>469.26</ele>
        <time>2019-07-28T13:40:29Z</time>
      </trkpt>
      <trkpt lat="43.02596" lon="0.79624">
        <ele>471.66</ele>
        <time>2019-07-28T13:40:37Z</time>
      </trkpt>
      <trkpt lat="43.02604" lon="0.7963">
        <ele>472.63</ele>
        <time>2019-07-28T13:40:54Z</time>
      </trkpt>
      <trkpt lat="43.02611" lon="0.79637">
        <ele>474.07</ele>
        <time>2019-07-28T13:41:07Z</time>
      </trkpt>
      <trkpt lat="43.02616" lon="0.79647">
        <ele>475.03</ele>
        <time>2019-07-28T13:41:19Z</time>
      </trkpt>
      <trkpt lat="43.02621" lon="0.7967">
        <ele>477.43</ele>
        <time>2019-07-28T13:41:32Z</time>
      </trkpt>
      <trkpt lat="43.02622" lon="0.79673">
        <ele>477.91</ele>
        <time>2019-07-28T13:41:40Z</time>
      </trkpt>
      <trkpt lat="43.02621" lon="0.79676">
        <ele>477.91</ele>
        <time>2019-07-28T13:41:42Z</time>
      </trkpt>
      <trkpt lat="43.02617" lon="0.79701">
        <ele>477.91</ele>
        <time>2019-07-28T13:41:55Z</time>
      </trkpt>
      <trkpt lat="43.02616" lon="0.79717">
        <ele>477.91</ele>
        <time>2019-07-28T13:42:05Z</time>
      </trkpt>
      <trkpt lat="43.02628" lon="0.79717">
        <ele>478.87</ele>
        <time>2019-07-28T13:42:18Z</time>
      </trkpt>
      <trkpt lat="43.02636" lon="0.7971">
        <ele>479.84</ele>
        <time>2019-07-28T13:42:33Z</time>
      </trkpt>
      <trkpt lat="43.02642" lon="0.79704">
        <ele>481.28</ele>
        <time>2019-07-28T13:42:41Z</time>
      </trkpt>
      <trkpt lat="43.02648" lon="0.79692">
        <ele>481.28</ele>
        <time>2019-07-28T13:42:51Z</time>
      </trkpt>
      <trkpt lat="43.02653" lon="0.7967">
        <ele>481.28</ele>
        <time>2019-07-28T13:43:01Z</time>
      </trkpt>
      <trkpt lat="43.02677" lon="0.79629">
        <ele>478.39</ele>
        <time>2019-07-28T13:43:14Z</time>
      </trkpt>
      <trkpt lat="43.02683" lon="0.79624">
        <ele>478.39</ele>
        <time>2019-07-28T13:43:17Z</time>
      </trkpt>
      <trkpt lat="43.0269" lon="0.79604">
        <ele>476.95</ele>
        <time>2019-07-28T13:43:24Z</time>
      </trkpt>
      <trkpt lat="43.02704" lon="0.79582">
        <ele>475.51</ele>
        <time>2019-07-28T13:43:33Z</time>
      </trkpt>
      <trkpt lat="43.02733" lon="0.7956">
        <ele>474.07</ele>
        <time>2019-07-28T13:43:46Z</time>
      </trkpt>
      <trkpt lat="43.02741" lon="0.79558">
        <ele>474.07</ele>
        <time>2019-07-28T13:43:50Z</time>
      </trkpt>
      <trkpt lat="43.02751" lon="0.79546">
        <ele>472.63</ele>
        <time>2019-07-28T13:43:56Z</time>
      </trkpt>
      <trkpt lat="43.02781" lon="0.79532">
        <ele>469.74</ele>
        <time>2019-07-28T13:44:08Z</time>
      </trkpt>
      <trkpt lat="43.02792" lon="0.79531">
        <ele>469.74</ele>
        <time>2019-07-28T13:44:12Z</time>
      </trkpt>
      <trkpt lat="43.02825" lon="0.79528">
        <ele>467.82</ele>
        <time>2019-07-28T13:44:23Z</time>
      </trkpt>
      <trkpt lat="43.0284" lon="0.79526">
        <ele>465.42</ele>
        <time>2019-07-28T13:44:26Z</time>
      </trkpt>
      <trkpt lat="43.0287" lon="0.79538">
        <ele>464.45</ele>
        <time>2019-07-28T13:44:35Z</time>
      </trkpt>
      <trkpt lat="43.02902" lon="0.79568">
        <ele>464.45</ele>
        <time>2019-07-28T13:44:47Z</time>
      </trkpt>
      <trkpt lat="43.02923" lon="0.79602">
        <ele>464.45</ele>
        <time>2019-07-28T13:44:56Z</time>
      </trkpt>
      <trkpt lat="43.02923" lon="0.79607">
        <ele>465.9</ele>
        <time>2019-07-28T13:44:58Z</time>
      </trkpt>
      <trkpt lat="43.02924" lon="0.79609">
        <ele>466.38</ele>
        <time>2019-07-28T13:44:59Z</time>
      </trkpt>
      <trkpt lat="43.02931" lon="0.7963">
        <ele>466.86</ele>
        <time>2019-07-28T13:45:07Z</time>
      </trkpt>
      <trkpt lat="43.02934" lon="0.79649">
        <ele>467.34</ele>
        <time>2019-07-28T13:45:16Z</time>
      </trkpt>
      <trkpt lat="43.02941" lon="0.7968">
        <ele>468.78</ele>
        <time>2019-07-28T13:45:29Z</time>
      </trkpt>
      <trkpt lat="43.02943" lon="0.797">
        <ele>470.22</ele>
        <time>2019-07-28T13:45:37Z</time>
      </trkpt>
      <trkpt lat="43.02946" lon="0.79726">
        <ele>470.7</ele>
        <time>2019-07-28T13:45:47Z</time>
      </trkpt>
      <trkpt lat="43.02948" lon="0.79746">
        <ele>471.18</ele>
        <time>2019-07-28T13:45:54Z</time>
      </trkpt>
      <trkpt lat="43.02951" lon="0.79758">
        <ele>471.18</ele>
        <time>2019-07-28T13:45:58Z</time>
      </trkpt>
      <trkpt lat="43.02957" lon="0.79791">
        <ele>471.18</ele>
        <time>2019-07-28T13:46:10Z</time>
      </trkpt>
      <trkpt lat="43.0296" lon="0.79803">
        <ele>471.18</ele>
        <time>2019-07-28T13:46:14Z</time>
      </trkpt>
      <trkpt lat="43.02963" lon="0.79817">
        <ele>471.18</ele>
        <time>2019-07-28T13:46:19Z</time>
      </trkpt>
      <trkpt lat="43.02971" lon="0.79835">
        <ele>469.26</ele>
        <time>2019-07-28T13:46:25Z</time>
      </trkpt>
      <trkpt lat="43.02981" lon="0.79861">
        <ele>467.82</ele>
        <time>2019-07-28T13:46:35Z</time>
      </trkpt>
      <trkpt lat="43.02983" lon="0.79876">
        <ele>467.82</ele>
        <time>2019-07-28T13:46:44Z</time>
      </trkpt>
      <trkpt lat="43.02987" lon="0.79892">
        <ele>467.82</ele>
        <time>2019-07-28T13:46:55Z</time>
      </trkpt>
      <trkpt lat="43.0299" lon="0.79903">
        <ele>467.34</ele>
        <time>2019-07-28T13:47:01Z</time>
      </trkpt>
      <trkpt lat="43.02996" lon="0.79916">
        <ele>465.9</ele>
        <time>2019-07-28T13:47:08Z</time>
      </trkpt>
      <trkpt lat="43.03003" lon="0.79929">
        <ele>463.97</ele>
        <time>2019-07-28T13:47:14Z</time>
      </trkpt>
      <trkpt lat="43.03005" lon="0.79949">
        <ele>463.01</ele>
        <time>2019-07-28T13:47:25Z</time>
      </trkpt>
      <trkpt lat="43.03004" lon="0.79955">
        <ele>463.01</ele>
        <time>2019-07-28T13:47:30Z</time>
      </trkpt>
      <trkpt lat="43.03003" lon="0.79969">
        <ele>464.93</ele>
        <time>2019-07-28T13:47:43Z</time>
      </trkpt>
      <trkpt lat="43.03003" lon="0.79972">
        <ele>464.93</ele>
        <time>2019-07-28T13:47:46Z</time>
      </trkpt>
      <trkpt lat="43.03001" lon="0.79984">
        <ele>464.93</ele>
        <time>2019-07-28T13:47:53Z</time>
      </trkpt>
      <trkpt lat="43.03003" lon="0.80015">
        <ele>463.49</ele>
        <time>2019-07-28T13:48:04Z</time>
      </trkpt>
      <trkpt lat="43.03007" lon="0.80036">
        <ele>463.49</ele>
        <time>2019-07-28T13:48:12Z</time>
      </trkpt>
      <trkpt lat="43.0301" lon="0.80068">
        <ele>463.49</ele>
        <time>2019-07-28T13:48:22Z</time>
      </trkpt>
      <trkpt lat="43.03011" lon="0.80076">
        <ele>463.49</ele>
        <time>2019-07-28T13:48:24Z</time>
      </trkpt>
      <trkpt lat="43.03022" lon="0.80122">
        <ele>463.49</ele>
        <time>2019-07-28T13:48:36Z</time>
      </trkpt>
      <trkpt lat="43.03025" lon="0.80137">
        <ele>463.01</ele>
        <time>2019-07-28T13:48:40Z</time>
      </trkpt>
      <trkpt lat="43.03031" lon="0.80173">
        <ele>462.53</ele>
        <time>2019-07-28T13:48:50Z</time>
      </trkpt>
      <trkpt lat="43.03033" lon="0.80206">
        <ele>463.97</ele>
        <time>2019-07-28T13:48:59Z</time>
      </trkpt>
      <trkpt lat="43.03035" lon="0.80238">
        <ele>463.97</ele>
        <time>2019-07-28T13:49:07Z</time>
      </trkpt>
      <trkpt lat="43.03034" lon="0.80297">
        <ele>462.05</ele>
        <time>2019-07-28T13:49:20Z</time>
      </trkpt>
      <trkpt lat="43.03032" lon="0.80308">
        <ele>462.05</ele>
        <time>2019-07-28T13:49:24Z</time>
      </trkpt>
      <trkpt lat="43.03031" lon="0.80343">
        <ele>462.05</ele>
        <time>2019-07-28T13:49:36Z</time>
      </trkpt>
      <trkpt lat="43.03031" lon="0.80352">
        <ele>462.05</ele>
        <time>2019-07-28T13:49:45Z</time>
      </trkpt>
      <trkpt lat="43.03033" lon="0.80372">
        <ele>462.05</ele>
        <time>2019-07-28T13:49:50Z</time>
      </trkpt>
      <trkpt lat="43.03036" lon="0.80428">
        <ele>462.05</ele>
        <time>2019-07-28T13:50:02Z</time>
      </trkpt>
      <trkpt lat="43.03046" lon="0.80486">
        <ele>460.13</ele>
        <time>2019-07-28T13:50:14Z</time>
      </trkpt>
      <trkpt lat="43.03048" lon="0.80499">
        <ele>459.65</ele>
        <time>2019-07-28T13:50:16Z</time>
      </trkpt>
      <trkpt lat="43.03047" lon="0.80519">
        <ele>460.61</ele>
        <time>2019-07-28T13:50:23Z</time>
      </trkpt>
      <trkpt lat="43.03047" lon="0.80528">
        <ele>461.09</ele>
        <time>2019-07-28T13:50:26Z</time>
      </trkpt>
      <trkpt lat="43.03049" lon="0.80568">
        <ele>461.57</ele>
        <time>2019-07-28T13:50:36Z</time>
      </trkpt>
      <trkpt lat="43.0305" lon="0.80591">
        <ele>462.05</ele>
        <time>2019-07-28T13:50:41Z</time>
      </trkpt>
      <trkpt lat="43.03052" lon="0.80647">
        <ele>462.53</ele>
        <time>2019-07-28T13:50:53Z</time>
      </trkpt>
      <trkpt lat="43.03056" lon="0.80676">
        <ele>461.09</ele>
        <time>2019-07-28T13:50:58Z</time>
      </trkpt>
      <trkpt lat="43.03057" lon="0.80736">
        <ele>460.61</ele>
        <time>2019-07-28T13:51:09Z</time>
      </trkpt>
      <trkpt lat="43.03055" lon="0.80788">
        <ele>460.61</ele>
        <time>2019-07-28T13:51:20Z</time>
      </trkpt>
      <trkpt lat="43.03051" lon="0.80831">
        <ele>463.01</ele>
        <time>2019-07-28T13:51:32Z</time>
      </trkpt>
      <trkpt lat="43.03047" lon="0.80853">
        <ele>464.93</ele>
        <time>2019-07-28T13:51:42Z</time>
      </trkpt>
      <trkpt lat="43.03045" lon="0.80879">
        <ele>467.34</ele>
        <time>2019-07-28T13:51:52Z</time>
      </trkpt>
      <trkpt lat="43.03043" lon="0.80895">
        <ele>468.78</ele>
        <time>2019-07-28T13:51:59Z</time>
      </trkpt>
      <trkpt lat="43.03043" lon="0.80934">
        <ele>470.7</ele>
        <time>2019-07-28T13:52:16Z</time>
      </trkpt>
      <trkpt lat="43.0305" lon="0.80968">
        <ele>471.18</ele>
        <time>2019-07-28T13:52:28Z</time>
      </trkpt>
      <trkpt lat="43.03065" lon="0.81019">
        <ele>470.7</ele>
        <time>2019-07-28T13:52:41Z</time>
      </trkpt>
      <trkpt lat="43.03077" lon="0.81054">
        <ele>472.14</ele>
        <time>2019-07-28T13:52:52Z</time>
      </trkpt>
      <trkpt lat="43.03081" lon="0.81063">
        <ele>472.14</ele>
        <time>2019-07-28T13:52:55Z</time>
      </trkpt>
      <trkpt lat="43.03081" lon="0.81066">
        <ele>472.14</ele>
        <time>2019-07-28T13:52:56Z</time>
      </trkpt>
      <trkpt lat="43.03082" lon="0.81069">
        <ele>472.14</ele>
        <time>2019-07-28T13:52:57Z</time>
      </trkpt>
      <trkpt lat="43.03081" lon="0.81074">
        <ele>472.63</ele>
        <time>2019-07-28T13:53:00Z</time>
      </trkpt>
      <trkpt lat="43.0308" lon="0.81074">
        <ele>473.59</ele>
        <time>2019-07-28T13:53:06Z</time>
      </trkpt>
      <trkpt lat="43.03079" lon="0.81074">
        <ele>474.07</ele>
        <time>2019-07-28T13:53:07Z</time>
      </trkpt>
      <trkpt lat="43.03068" lon="0.81066">
        <ele>475.99</ele>
        <time>2019-07-28T13:53:18Z</time>
      </trkpt>
      <trkpt lat="43.03066" lon="0.81063">
        <ele>475.99</ele>
        <time>2019-07-28T13:53:20Z</time>
      </trkpt>
      <trkpt lat="43.03066" lon="0.81061">
        <ele>475.99</ele>
        <time>2019-07-28T13:53:21Z</time>
      </trkpt>
      <trkpt lat="43.03065" lon="0.8106">
        <ele>475.99</ele>
        <time>2019-07-28T13:53:22Z</time>
      </trkpt>
      <trkpt lat="43.03064" lon="0.81059">
        <ele>476.47</ele>
        <time>2019-07-28T13:53:23Z</time>
      </trkpt>
      <trkpt lat="43.03061" lon="0.81051">
        <ele>477.43</ele>
        <time>2019-07-28T13:53:29Z</time>
      </trkpt>
      <trkpt lat="43.0306" lon="0.8105">
        <ele>477.43</ele>
        <time>2019-07-28T13:53:30Z</time>
      </trkpt>
      <trkpt lat="43.03055" lon="0.81045">
        <ele>478.39</ele>
        <time>2019-07-28T13:53:34Z</time>
      </trkpt>
      <trkpt lat="43.03054" lon="0.81043">
        <ele>478.39</ele>
        <time>2019-07-28T13:53:35Z</time>
      </trkpt>
      <trkpt lat="43.03045" lon="0.81029">
        <ele>480.32</ele>
        <time>2019-07-28T13:53:47Z</time>
      </trkpt>
      <trkpt lat="43.03033" lon="0.81004">
        <ele>482.72</ele>
        <time>2019-07-28T13:54:01Z</time>
      </trkpt>
      <trkpt lat="43.03023" lon="0.80974">
        <ele>483.68</ele>
        <time>2019-07-28T13:54:14Z</time>
      </trkpt>
      <trkpt lat="43.03001" lon="0.80942">
        <ele>485.6</ele>
        <time>2019-07-28T13:54:27Z</time>
      </trkpt>
      <trkpt lat="43.02985" lon="0.80931">
        <ele>488.01</ele>
        <time>2019-07-28T13:54:37Z</time>
      </trkpt>
      <trkpt lat="43.02971" lon="0.80924">
        <ele>490.41</ele>
        <time>2019-07-28T13:54:45Z</time>
      </trkpt>
      <trkpt lat="43.0297" lon="0.80924">
        <ele>490.41</ele>
        <time>2019-07-28T13:54:46Z</time>
      </trkpt>
      <trkpt lat="43.02952" lon="0.80921">
        <ele>493.29</ele>
        <time>2019-07-28T13:54:58Z</time>
      </trkpt>
      <trkpt lat="43.02928" lon="0.80919">
        <ele>495.7</ele>
        <time>2019-07-28T13:55:10Z</time>
      </trkpt>
      <trkpt lat="43.02916" lon="0.80917">
        <ele>497.14</ele>
        <time>2019-07-28T13:55:18Z</time>
      </trkpt>
      <trkpt lat="43.02904" lon="0.80901">
        <ele>497.62</ele>
        <time>2019-07-28T13:55:28Z</time>
      </trkpt>
      <trkpt lat="43.02886" lon="0.80873">
        <ele>498.1</ele>
        <time>2019-07-28T13:55:40Z</time>
      </trkpt>
      <trkpt lat="43.02885" lon="0.8087">
        <ele>498.1</ele>
        <time>2019-07-28T13:55:41Z</time>
      </trkpt>
      <trkpt lat="43.02885" lon="0.80868">
        <ele>498.1</ele>
        <time>2019-07-28T13:55:42Z</time>
      </trkpt>
      <trkpt lat="43.02884" lon="0.80865">
        <ele>498.1</ele>
        <time>2019-07-28T13:55:43Z</time>
      </trkpt>
      <trkpt lat="43.02884" lon="0.80862">
        <ele>498.58</ele>
        <time>2019-07-28T13:55:44Z</time>
      </trkpt>
      <trkpt lat="43.02887" lon="0.80833">
        <ele>500.98</ele>
        <time>2019-07-28T13:55:56Z</time>
      </trkpt>
      <trkpt lat="43.02892" lon="0.80801">
        <ele>503.87</ele>
        <time>2019-07-28T13:56:10Z</time>
      </trkpt>
      <trkpt lat="43.02896" lon="0.80772">
        <ele>506.27</ele>
        <time>2019-07-28T13:56:24Z</time>
      </trkpt>
      <trkpt lat="43.02896" lon="0.80766">
        <ele>506.75</ele>
        <time>2019-07-28T13:56:27Z</time>
      </trkpt>
      <trkpt lat="43.02892" lon="0.80739">
        <ele>508.19</ele>
        <time>2019-07-28T13:56:40Z</time>
      </trkpt>
      <trkpt lat="43.02882" lon="0.80715">
        <ele>509.64</ele>
        <time>2019-07-28T13:56:52Z</time>
      </trkpt>
      <trkpt lat="43.02881" lon="0.80713">
        <ele>509.64</ele>
        <time>2019-07-28T13:56:53Z</time>
      </trkpt>
      <trkpt lat="43.0288" lon="0.80711">
        <ele>509.64</ele>
        <time>2019-07-28T13:56:54Z</time>
      </trkpt>
      <trkpt lat="43.02861" lon="0.80684">
        <ele>511.08</ele>
        <time>2019-07-28T13:57:06Z</time>
      </trkpt>
      <trkpt lat="43.02844" lon="0.80656">
        <ele>511.08</ele>
        <time>2019-07-28T13:57:16Z</time>
      </trkpt>
      <trkpt lat="43.02821" lon="0.80613">
        <ele>509.64</ele>
        <time>2019-07-28T13:57:25Z</time>
      </trkpt>
      <trkpt lat="43.02795" lon="0.80573">
        <ele>508.19</ele>
        <time>2019-07-28T13:57:34Z</time>
      </trkpt>
      <trkpt lat="43.02778" lon="0.80538">
        <ele>507.23</ele>
        <time>2019-07-28T13:57:42Z</time>
      </trkpt>
      <trkpt lat="43.02778" lon="0.80529">
        <ele>507.23</ele>
        <time>2019-07-28T13:57:45Z</time>
      </trkpt>
      <trkpt lat="43.02778" lon="0.80525">
        <ele>507.23</ele>
        <time>2019-07-28T13:57:46Z</time>
      </trkpt>
      <trkpt lat="43.02778" lon="0.80522">
        <ele>507.23</ele>
        <time>2019-07-28T13:57:47Z</time>
      </trkpt>
      <trkpt lat="43.02777" lon="0.80518">
        <ele>507.23</ele>
        <time>2019-07-28T13:57:48Z</time>
      </trkpt>
      <trkpt lat="43.02776" lon="0.80515">
        <ele>506.75</ele>
        <time>2019-07-28T13:57:49Z</time>
      </trkpt>
      <trkpt lat="43.02766" lon="0.80502">
        <ele>506.75</ele>
        <time>2019-07-28T13:57:53Z</time>
      </trkpt>
      <trkpt lat="43.02752" lon="0.80485">
        <ele>505.31</ele>
        <time>2019-07-28T13:58:00Z</time>
      </trkpt>
      <trkpt lat="43.02741" lon="0.8047">
        <ele>503.87</ele>
        <time>2019-07-28T13:58:11Z</time>
      </trkpt>
      <trkpt lat="43.02737" lon="0.80468">
        <ele>504.35</ele>
        <time>2019-07-28T13:58:29Z</time>
      </trkpt>
      <trkpt lat="43.02738" lon="0.80469">
        <ele>504.35</ele>
        <time>2019-07-28T13:58:30Z</time>
      </trkpt>
      <trkpt lat="43.02739" lon="0.80471">
        <ele>504.35</ele>
        <time>2019-07-28T13:58:31Z</time>
      </trkpt>
      <trkpt lat="43.02742" lon="0.80473">
        <ele>505.79</ele>
        <time>2019-07-28T13:58:33Z</time>
      </trkpt>
      <trkpt lat="43.02743" lon="0.80474">
        <ele>506.27</ele>
        <time>2019-07-28T13:58:34Z</time>
      </trkpt>
      <trkpt lat="43.02747" lon="0.80477">
        <ele>506.75</ele>
        <time>2019-07-28T13:58:37Z</time>
      </trkpt>
      <trkpt lat="43.02748" lon="0.8048">
        <ele>506.75</ele>
        <time>2019-07-28T13:58:38Z</time>
      </trkpt>
      <trkpt lat="43.0275" lon="0.80481">
        <ele>506.75</ele>
        <time>2019-07-28T13:58:39Z</time>
      </trkpt>
      <trkpt lat="43.02752" lon="0.80482">
        <ele>506.75</ele>
        <time>2019-07-28T13:58:40Z</time>
      </trkpt>
      <trkpt lat="43.02753" lon="0.80483">
        <ele>506.75</ele>
        <time>2019-07-28T13:58:41Z</time>
      </trkpt>
      <trkpt lat="43.02763" lon="0.80483">
        <ele>507.23</ele>
        <time>2019-07-28T13:58:51Z</time>
      </trkpt>
      <trkpt lat="43.02764" lon="0.80481">
        <ele>507.23</ele>
        <time>2019-07-28T13:58:52Z</time>
      </trkpt>
      <trkpt lat="43.02764" lon="0.80479">
        <ele>507.23</ele>
        <time>2019-07-28T13:58:53Z</time>
      </trkpt>
      <trkpt lat="43.02764" lon="0.80476">
        <ele>507.23</ele>
        <time>2019-07-28T13:58:54Z</time>
      </trkpt>
      <trkpt lat="43.02763" lon="0.80474">
        <ele>507.23</ele>
        <time>2019-07-28T13:58:55Z</time>
      </trkpt>
      <trkpt lat="43.02762" lon="0.80471">
        <ele>507.23</ele>
        <time>2019-07-28T13:58:56Z</time>
      </trkpt>
      <trkpt lat="43.02761" lon="0.80469">
        <ele>507.23</ele>
        <time>2019-07-28T13:58:57Z</time>
      </trkpt>
      <trkpt lat="43.02755" lon="0.80451">
        <ele>509.16</ele>
        <time>2019-07-28T13:59:12Z</time>
      </trkpt>
      <trkpt lat="43.02751" lon="0.80442">
        <ele>511.08</ele>
        <time>2019-07-28T13:59:18Z</time>
      </trkpt>
      <trkpt lat="43.02752" lon="0.80424">
        <ele>513.96</ele>
        <time>2019-07-28T13:59:28Z</time>
      </trkpt>
      <trkpt lat="43.02755" lon="0.80414">
        <ele>515.4</ele>
        <time>2019-07-28T13:59:33Z</time>
      </trkpt>
      <trkpt lat="43.02762" lon="0.80391">
        <ele>518.29</ele>
        <time>2019-07-28T13:59:46Z</time>
      </trkpt>
      <trkpt lat="43.02771" lon="0.80376">
        <ele>519.25</ele>
        <time>2019-07-28T13:59:57Z</time>
      </trkpt>
      <trkpt lat="43.02791" lon="0.80364">
        <ele>520.69</ele>
        <time>2019-07-28T14:00:12Z</time>
      </trkpt>
      <trkpt lat="43.02801" lon="0.80352">
        <ele>524.06</ele>
        <time>2019-07-28T14:00:22Z</time>
      </trkpt>
      <trkpt lat="43.02805" lon="0.80345">
        <ele>525.02</ele>
        <time>2019-07-28T14:00:27Z</time>
      </trkpt>
      <trkpt lat="43.0282" lon="0.8032">
        <ele>527.42</ele>
        <time>2019-07-28T14:00:43Z</time>
      </trkpt>
      <trkpt lat="43.02822" lon="0.80315">
        <ele>527.42</ele>
        <time>2019-07-28T14:00:52Z</time>
      </trkpt>
      <trkpt lat="43.02807" lon="0.80347">
        <ele>524.54</ele>
        <time>2019-07-28T14:01:02Z</time>
      </trkpt>
      <trkpt lat="43.02799" lon="0.80355">
        <ele>522.61</ele>
        <time>2019-07-28T14:01:04Z</time>
      </trkpt>
      <trkpt lat="43.02781" lon="0.80366">
        <ele>520.69</ele>
        <time>2019-07-28T14:01:07Z</time>
      </trkpt>
      <trkpt lat="43.02771" lon="0.80374">
        <ele>520.21</ele>
        <time>2019-07-28T14:01:09Z</time>
      </trkpt>
      <trkpt lat="43.02758" lon="0.8039">
        <ele>517.81</ele>
        <time>2019-07-28T14:01:12Z</time>
      </trkpt>
      <trkpt lat="43.02751" lon="0.8041">
        <ele>513.48</ele>
        <time>2019-07-28T14:01:15Z</time>
      </trkpt>
      <trkpt lat="43.02755" lon="0.80432">
        <ele>510.6</ele>
        <time>2019-07-28T14:01:19Z</time>
      </trkpt>
      <trkpt lat="43.02761" lon="0.80447">
        <ele>509.16</ele>
        <time>2019-07-28T14:01:21Z</time>
      </trkpt>
      <trkpt lat="43.02763" lon="0.80454">
        <ele>509.16</ele>
        <time>2019-07-28T14:01:22Z</time>
      </trkpt>
      <trkpt lat="43.02765" lon="0.80461">
        <ele>507.71</ele>
        <time>2019-07-28T14:01:23Z</time>
      </trkpt>
      <trkpt lat="43.02766" lon="0.80471">
        <ele>507.23</ele>
        <time>2019-07-28T14:01:25Z</time>
      </trkpt>
      <trkpt lat="43.02765" lon="0.80474">
        <ele>507.23</ele>
        <time>2019-07-28T14:01:26Z</time>
      </trkpt>
      <trkpt lat="43.02764" lon="0.80483">
        <ele>506.27</ele>
        <time>2019-07-28T14:01:41Z</time>
      </trkpt>
      <trkpt lat="43.02761" lon="0.80484">
        <ele>506.27</ele>
        <time>2019-07-28T14:01:52Z</time>
      </trkpt>
      <trkpt lat="43.02753" lon="0.80479">
        <ele>506.27</ele>
        <time>2019-07-28T14:01:59Z</time>
      </trkpt>
      <trkpt lat="43.02726" lon="0.80452">
        <ele>504.83</ele>
        <time>2019-07-28T14:02:08Z</time>
      </trkpt>
      <trkpt lat="43.02722" lon="0.80449">
        <ele>504.35</ele>
        <time>2019-07-28T14:02:09Z</time>
      </trkpt>
      <trkpt lat="43.02717" lon="0.80446">
        <ele>503.39</ele>
        <time>2019-07-28T14:02:10Z</time>
      </trkpt>
      <trkpt lat="43.02712" lon="0.80445">
        <ele>502.91</ele>
        <time>2019-07-28T14:02:11Z</time>
      </trkpt>
      <trkpt lat="43.02707" lon="0.80443">
        <ele>502.91</ele>
        <time>2019-07-28T14:02:12Z</time>
      </trkpt>
      <trkpt lat="43.02692" lon="0.80439">
        <ele>502.43</ele>
        <time>2019-07-28T14:02:15Z</time>
      </trkpt>
      <trkpt lat="43.02669" lon="0.8043">
        <ele>498.58</ele>
        <time>2019-07-28T14:02:20Z</time>
      </trkpt>
      <trkpt lat="43.02663" lon="0.80425">
        <ele>497.62</ele>
        <time>2019-07-28T14:02:23Z</time>
      </trkpt>
      <trkpt lat="43.02663" lon="0.80423">
        <ele>497.62</ele>
        <time>2019-07-28T14:02:24Z</time>
      </trkpt>
      <trkpt lat="43.02663" lon="0.80421">
        <ele>497.62</ele>
        <time>2019-07-28T14:02:25Z</time>
      </trkpt>
      <trkpt lat="43.02658" lon="0.80413">
        <ele>497.62</ele>
        <time>2019-07-28T14:02:34Z</time>
      </trkpt>
      <trkpt lat="43.02657" lon="0.80412">
        <ele>497.62</ele>
        <time>2019-07-28T14:02:35Z</time>
      </trkpt>
      <trkpt lat="43.02655" lon="0.8041">
        <ele>497.62</ele>
        <time>2019-07-28T14:02:36Z</time>
      </trkpt>
      <trkpt lat="43.02638" lon="0.80393">
        <ele>493.77</ele>
        <time>2019-07-28T14:02:44Z</time>
      </trkpt>
      <trkpt lat="43.02633" lon="0.80365">
        <ele>493.29</ele>
        <time>2019-07-28T14:02:51Z</time>
      </trkpt>
      <trkpt lat="43.02621" lon="0.8035">
        <ele>489.93</ele>
        <time>2019-07-28T14:02:57Z</time>
      </trkpt>
      <trkpt lat="43.02614" lon="0.80343">
        <ele>487.05</ele>
        <time>2019-07-28T14:03:00Z</time>
      </trkpt>
      <trkpt lat="43.02609" lon="0.8034">
        <ele>485.6</ele>
        <time>2019-07-28T14:03:02Z</time>
      </trkpt>
      <trkpt lat="43.02604" lon="0.80336">
        <ele>484.16</ele>
        <time>2019-07-28T14:03:05Z</time>
      </trkpt>
      <trkpt lat="43.02602" lon="0.80333">
        <ele>483.68</ele>
        <time>2019-07-28T14:03:09Z</time>
      </trkpt>
      <trkpt lat="43.02598" lon="0.80332">
        <ele>482.24</ele>
        <time>2019-07-28T14:03:11Z</time>
      </trkpt>
      <trkpt lat="43.02593" lon="0.80333">
        <ele>481.76</ele>
        <time>2019-07-28T14:03:13Z</time>
      </trkpt>
      <trkpt lat="43.02583" lon="0.80339">
        <ele>478.39</ele>
        <time>2019-07-28T14:03:16Z</time>
      </trkpt>
      <trkpt lat="43.02574" lon="0.80345">
        <ele>475.51</ele>
        <time>2019-07-28T14:03:19Z</time>
      </trkpt>
      <trkpt lat="43.02561" lon="0.80344">
        <ele>471.66</ele>
        <time>2019-07-28T14:03:24Z</time>
      </trkpt>
      <trkpt lat="43.02556" lon="0.80343">
        <ele>470.7</ele>
        <time>2019-07-28T14:03:42Z</time>
      </trkpt>
      <trkpt lat="43.02556" lon="0.80343">
        <ele>470.7</ele>
        <time>2019-07-28T14:03:53Z</time>
      </trkpt>
      <trkpt lat="43.02559" lon="0.80333">
        <ele>472.14</ele>
        <time>2019-07-28T14:03:59Z</time>
      </trkpt>
      <trkpt lat="43.02566" lon="0.80292">
        <ele>472.14</ele>
        <time>2019-07-28T14:04:10Z</time>
      </trkpt>
      <trkpt lat="43.02568" lon="0.80254">
        <ele>471.18</ele>
        <time>2019-07-28T14:04:18Z</time>
      </trkpt>
      <trkpt lat="43.02568" lon="0.80232">
        <ele>469.74</ele>
        <time>2019-07-28T14:04:21Z</time>
      </trkpt>
      <trkpt lat="43.02569" lon="0.80225">
        <ele>469.74</ele>
        <time>2019-07-28T14:04:22Z</time>
      </trkpt>
      <trkpt lat="43.02573" lon="0.80202">
        <ele>469.74</ele>
        <time>2019-07-28T14:04:26Z</time>
      </trkpt>
      <trkpt lat="43.02572" lon="0.80176">
        <ele>469.26</ele>
        <time>2019-07-28T14:04:31Z</time>
      </trkpt>
      <trkpt lat="43.02575" lon="0.8015">
        <ele>467.82</ele>
        <time>2019-07-28T14:04:35Z</time>
      </trkpt>
      <trkpt lat="43.02585" lon="0.80093">
        <ele>469.74</ele>
        <time>2019-07-28T14:04:46Z</time>
      </trkpt>
      <trkpt lat="43.02589" lon="0.80035">
        <ele>469.74</ele>
        <time>2019-07-28T14:04:56Z</time>
      </trkpt>
      <trkpt lat="43.02592" lon="0.79977">
        <ele>469.74</ele>
        <time>2019-07-28T14:05:05Z</time>
      </trkpt>
      <trkpt lat="43.02597" lon="0.79924">
        <ele>471.66</ele>
        <time>2019-07-28T14:05:15Z</time>
      </trkpt>
      <trkpt lat="43.02598" lon="0.79867">
        <ele>472.63</ele>
        <time>2019-07-28T14:05:27Z</time>
      </trkpt>
      <trkpt lat="43.026" lon="0.79852">
        <ele>473.59</ele>
        <time>2019-07-28T14:05:30Z</time>
      </trkpt>
      <trkpt lat="43.02608" lon="0.79827">
        <ele>475.51</ele>
        <time>2019-07-28T14:05:40Z</time>
      </trkpt>
      <trkpt lat="43.02608" lon="0.79789">
        <ele>475.99</ele>
        <time>2019-07-28T14:05:51Z</time>
      </trkpt>
      <trkpt lat="43.02616" lon="0.79745">
        <ele>476.95</ele>
        <time>2019-07-28T14:06:02Z</time>
      </trkpt>
      <trkpt lat="43.02623" lon="0.7969">
        <ele>477.43</ele>
        <time>2019-07-28T14:06:14Z</time>
      </trkpt>
      <trkpt lat="43.02619" lon="0.79655">
        <ele>474.55</ele>
        <time>2019-07-28T14:06:20Z</time>
      </trkpt>
      <trkpt lat="43.026" lon="0.79629">
        <ele>470.7</ele>
        <time>2019-07-28T14:06:27Z</time>
      </trkpt>
      <trkpt lat="43.02594" lon="0.79629">
        <ele>470.22</ele>
        <time>2019-07-28T14:06:29Z</time>
      </trkpt>
      <trkpt lat="43.02569" lon="0.79631">
        <ele>467.34</ele>
        <time>2019-07-28T14:06:36Z</time>
      </trkpt>
      <trkpt lat="43.02518" lon="0.79632">
        <ele>468.3</ele>
        <time>2019-07-28T14:06:50Z</time>
      </trkpt>
      <trkpt lat="43.02495" lon="0.79629">
        <ele>470.7</ele>
        <time>2019-07-28T14:07:01Z</time>
      </trkpt>
      <trkpt lat="43.02474" lon="0.79635">
        <ele>472.14</ele>
        <time>2019-07-28T14:07:13Z</time>
      </trkpt>
      <trkpt lat="43.02466" lon="0.79645">
        <ele>473.11</ele>
        <time>2019-07-28T14:07:19Z</time>
      </trkpt>
      <trkpt lat="43.02464" lon="0.79652">
        <ele>473.11</ele>
        <time>2019-07-28T14:07:22Z</time>
      </trkpt>
      <trkpt lat="43.02463" lon="0.79692">
        <ele>473.11</ele>
        <time>2019-07-28T14:07:35Z</time>
      </trkpt>
      <trkpt lat="43.0246" lon="0.79712">
        <ele>471.66</ele>
        <time>2019-07-28T14:07:39Z</time>
      </trkpt>
      <trkpt lat="43.02457" lon="0.79718">
        <ele>471.66</ele>
        <time>2019-07-28T14:07:40Z</time>
      </trkpt>
      <trkpt lat="43.02442" lon="0.79749">
        <ele>470.7</ele>
        <time>2019-07-28T14:07:45Z</time>
      </trkpt>
      <trkpt lat="43.02439" lon="0.79757">
        <ele>470.22</ele>
        <time>2019-07-28T14:07:46Z</time>
      </trkpt>
      <trkpt lat="43.02437" lon="0.79765">
        <ele>470.22</ele>
        <time>2019-07-28T14:07:47Z</time>
      </trkpt>
      <trkpt lat="43.02433" lon="0.79773">
        <ele>469.74</ele>
        <time>2019-07-28T14:07:48Z</time>
      </trkpt>
      <trkpt lat="43.02429" lon="0.7978">
        <ele>468.78</ele>
        <time>2019-07-28T14:07:49Z</time>
      </trkpt>
      <trkpt lat="43.02425" lon="0.79786">
        <ele>468.3</ele>
        <time>2019-07-28T14:07:50Z</time>
      </trkpt>
      <trkpt lat="43.02422" lon="0.79793">
        <ele>468.3</ele>
        <time>2019-07-28T14:07:51Z</time>
      </trkpt>
      <trkpt lat="43.02419" lon="0.798">
        <ele>468.3</ele>
        <time>2019-07-28T14:07:52Z</time>
      </trkpt>
      <trkpt lat="43.02416" lon="0.79807">
        <ele>468.3</ele>
        <time>2019-07-28T14:07:53Z</time>
      </trkpt>
      <trkpt lat="43.02396" lon="0.7986">
        <ele>467.82</ele>
        <time>2019-07-28T14:08:04Z</time>
      </trkpt>
      <trkpt lat="43.02384" lon="0.79889">
        <ele>467.82</ele>
        <time>2019-07-28T14:08:13Z</time>
      </trkpt>
      <trkpt lat="43.02382" lon="0.7989">
        <ele>467.82</ele>
        <time>2019-07-28T14:08:14Z</time>
      </trkpt>
      <trkpt lat="43.02379" lon="0.79891">
        <ele>467.82</ele>
        <time>2019-07-28T14:08:15Z</time>
      </trkpt>
      <trkpt lat="43.02377" lon="0.79891">
        <ele>469.26</ele>
        <time>2019-07-28T14:08:16Z</time>
      </trkpt>
      <trkpt lat="43.02374" lon="0.79891">
        <ele>469.74</ele>
        <time>2019-07-28T14:08:17Z</time>
      </trkpt>
      <trkpt lat="43.02338" lon="0.79888">
        <ele>470.7</ele>
        <time>2019-07-28T14:08:32Z</time>
      </trkpt>
      <trkpt lat="43.02333" lon="0.79894">
        <ele>470.7</ele>
        <time>2019-07-28T14:08:36Z</time>
      </trkpt>
      <trkpt lat="43.02334" lon="0.79892">
        <ele>471.18</ele>
        <time>2019-07-28T14:08:45Z</time>
      </trkpt>
      <trkpt lat="43.02334" lon="0.79893">
        <ele>471.18</ele>
        <time>2019-07-28T14:09:00Z</time>
      </trkpt>
      <trkpt lat="43.02332" lon="0.79893">
        <ele>470.7</ele>
        <time>2019-07-28T14:09:14Z</time>
      </trkpt>
      <trkpt lat="43.02333" lon="0.79893">
        <ele>470.7</ele>
        <time>2019-07-28T14:09:26Z</time>
      </trkpt>
    </trkseg>
  </trk>
</gpx>